Wetterdaten: Freitag, 20.10.2017
Datum Zeit Temp. A. Temp. A. max Feuchte A. Luftdruck Regen Wind Richtung Richtung Sonnenschein ET UV Solar Taupunkt Windchill Windböen
20.10.2017 00:00 6,1 °C 6,2 °C 91 % 1012,8 hPa 0,0 mm 0,0 km/h (0 Bft) SO 144 ° 0 min 0,000 mm 0,0 UV-I 0 W/m² 4,7 °C 6,1 °C 0,0 km/h (0 Bft)
20.10.2017 00:01 6,1 °C 6,1 °C 91 % 1012,9 hPa 0,0 mm 0,0 km/h (0 Bft) SO 144 ° 0 min 0,000 mm 0,0 UV-I 0 W/m² 4,7 °C 6,1 °C 0,0 km/h (0 Bft)
20.10.2017 00:02 6,1 °C 6,1 °C 91 % 1012,9 hPa 0,0 mm 0,0 km/h (0 Bft) SO 144 ° 0 min 0,000 mm 0,0 UV-I 0 W/m² 4,7 °C 6,1 °C 0,0 km/h (0 Bft)
20.10.2017 00:03 5,9 °C 6,1 °C 91 % 1012,8 hPa 0,0 mm 0,0 km/h (0 Bft) SO 144 ° 0 min 0,000 mm 0,0 UV-I 0 W/m² 4,5 °C 5,9 °C 0,0 km/h (0 Bft)
20.10.2017 00:04 5,9 °C 5,9 °C 91 % 1012,8 hPa 0,0 mm 0,0 km/h (0 Bft) SO 144 ° 0 min 0,000 mm 0,0 UV-I 0 W/m² 4,5 °C 5,9 °C 0,0 km/h (0 Bft)
20.10.2017 00:05 5,9 °C 5,9 °C 91 % 1012,8 hPa 0,0 mm 0,0 km/h (0 Bft) SO 144 ° 0 min 0,000 mm 0,0 UV-I 0 W/m² 4,5 °C 5,9 °C 0,0 km/h (0 Bft)
20.10.2017 00:06 6,1 °C 6,1 °C 92 % 1012,8 hPa 0,0 mm 0,0 km/h (0 Bft) SO 144 ° 0 min 0,000 mm 0,0 UV-I 0 W/m² 4,9 °C 6,1 °C 0,0 km/h (0 Bft)
20.10.2017 00:07 6,1 °C 6,1 °C 92 % 1012,8 hPa 0,0 mm 0,0 km/h (0 Bft) SO 144 ° 0 min 0,000 mm 0,0 UV-I 0 W/m² 4,9 °C 6,1 °C 0,0 km/h (0 Bft)
20.10.2017 00:08 6,2 °C 6,2 °C 92 % 1012,8 hPa 0,0 mm 0,0 km/h (0 Bft) SO 144 ° 0 min 0,000 mm 0,0 UV-I 0 W/m² 5,0 °C 6,2 °C 0,0 km/h (0 Bft)
20.10.2017 00:09 6,3 °C 6,3 °C 92 % 1012,8 hPa 0,0 mm 0,0 km/h (0 Bft) SO 144 ° 0 min 0,000 mm 0,0 UV-I 0 W/m² 5,1 °C 6,3 °C 0,0 km/h (0 Bft)
20.10.2017 00:10 6,5 °C 6,5 °C 92 % 1012,8 hPa 0,0 mm 0,0 km/h (0 Bft) SO 144 ° 0 min 0,000 mm 0,0 UV-I 0 W/m² 5,3 °C 6,5 °C 0,0 km/h (0 Bft)
20.10.2017 00:11 6,6 °C 6,6 °C 92 % 1012,8 hPa 0,0 mm 0,0 km/h (0 Bft) SO 144 ° 0 min 0,000 mm 0,0 UV-I 0 W/m² 5,4 °C 6,6 °C 0,0 km/h (0 Bft)
20.10.2017 00:12 6,5 °C 6,6 °C 91 % 1012,7 hPa 0,0 mm 0,0 km/h (0 Bft) SO 144 ° 0 min 0,000 mm 0,0 UV-I 0 W/m² 5,1 °C 6,5 °C 0,0 km/h (0 Bft)
20.10.2017 00:13 6,4 °C 6,5 °C 90 % 1012,7 hPa 0,0 mm 0,0 km/h (0 Bft) SO 144 ° 0 min 0,000 mm 0,0 UV-I 0 W/m² 4,9 °C 6,4 °C 0,0 km/h (0 Bft)
20.10.2017 00:14 6,3 °C 6,4 °C 90 % 1012,8 hPa 0,0 mm 0,0 km/h (0 Bft) SO 144 ° 0 min 0,000 mm 0,0 UV-I 0 W/m² 4,8 °C 6,3 °C 0,0 km/h (0 Bft)
20.10.2017 00:15 6,2 °C 6,3 °C 90 % 1012,7 hPa 0,0 mm 0,0 km/h (0 Bft) SO 144 ° 0 min 0,000 mm 0,0 UV-I 0 W/m² 4,7 °C 6,2 °C 0,0 km/h (0 Bft)
20.10.2017 00:16 6,1 °C 6,2 °C 90 % 1012,8 hPa 0,0 mm 0,0 km/h (0 Bft) SO 144 ° 0 min 0,000 mm 0,0 UV-I 0 W/m² 4,6 °C 6,1 °C 0,0 km/h (0 Bft)
20.10.2017 00:17 6,1 °C 6,1 °C 91 % 1012,8 hPa 0,0 mm 0,0 km/h (0 Bft) SO 144 ° 0 min 0,000 mm 0,0 UV-I 0 W/m² 4,7 °C 6,1 °C 0,0 km/h (0 Bft)
20.10.2017 00:18 6,0 °C 6,1 °C 91 % 1012,7 hPa 0,0 mm 0,0 km/h (0 Bft) SO 144 ° 0 min 0,000 mm 0,0 UV-I 0 W/m² 4,6 °C 6,0 °C 0,0 km/h (0 Bft)
20.10.2017 00:19 6,0 °C 6,1 °C 91 % 1012,7 hPa 0,0 mm 0,0 km/h (0 Bft) SO 144 ° 0 min 0,000 mm 0,0 UV-I 0 W/m² 4,6 °C 6,0 °C 0,0 km/h (0 Bft)
20.10.2017 00:20 5,9 °C 6,0 °C 91 % 1012,7 hPa 0,0 mm 0,0 km/h (0 Bft) SO 144 ° 0 min 0,000 mm 0,0 UV-I 0 W/m² 4,5 °C 5,9 °C 0,0 km/h (0 Bft)
20.10.2017 00:21 6,0 °C 6,0 °C 91 % 1012,7 hPa 0,0 mm 0,0 km/h (0 Bft) SO 144 ° 0 min 0,000 mm 0,0 UV-I 0 W/m² 4,6 °C 6,0 °C 0,0 km/h (0 Bft)
20.10.2017 00:22 6,1 °C 6,1 °C 91 % 1012,7 hPa 0,0 mm 0,0 km/h (0 Bft) SO 144 ° 0 min 0,000 mm 0,0 UV-I 0 W/m² 4,7 °C 6,1 °C 0,0 km/h (0 Bft)
20.10.2017 00:23 6,1 °C 6,1 °C 92 % 1012,7 hPa 0,0 mm 0,0 km/h (0 Bft) SO 144 ° 0 min 0,000 mm 0,0 UV-I 0 W/m² 4,9 °C 6,1 °C 0,0 km/h (0 Bft)
20.10.2017 00:24 6,2 °C 6,2 °C 92 % 1012,7 hPa 0,0 mm 0,0 km/h (0 Bft) SO 144 ° 0 min 0,000 mm 0,0 UV-I 0 W/m² 5,0 °C 6,2 °C 0,0 km/h (0 Bft)
20.10.2017 00:25 6,2 °C 6,2 °C 92 % 1012,7 hPa 0,0 mm 0,0 km/h (0 Bft) SO 144 ° 0 min 0,000 mm 0,0 UV-I 0 W/m² 5,0 °C 6,2 °C 0,0 km/h (0 Bft)
20.10.2017 00:26 6,3 °C 6,3 °C 92 % 1012,7 hPa 0,0 mm 0,0 km/h (0 Bft) SO 144 ° 0 min 0,000 mm 0,0 UV-I 0 W/m² 5,1 °C 6,3 °C 0,0 km/h (0 Bft)
20.10.2017 00:27 6,4 °C 6,4 °C 92 % 1012,7 hPa 0,0 mm 0,0 km/h (0 Bft) SO 144 ° 0 min 0,000 mm 0,0 UV-I 0 W/m² 5,2 °C 6,4 °C 0,0 km/h (0 Bft)
20.10.2017 00:28 6,4 °C 6,4 °C 92 % 1012,7 hPa 0,0 mm 0,0 km/h (0 Bft) SO 144 ° 0 min 0,000 mm 0,0 UV-I 0 W/m² 5,2 °C 6,4 °C 0,0 km/h (0 Bft)
20.10.2017 00:29 6,4 °C 6,4 °C 91 % 1012,7 hPa 0,0 mm 0,0 km/h (0 Bft) SO 144 ° 0 min 0,000 mm 0,0 UV-I 0 W/m² 5,0 °C 6,4 °C 0,0 km/h (0 Bft)
20.10.2017 00:30 6,4 °C 6,4 °C 91 % 1012,7 hPa 0,0 mm 0,0 km/h (0 Bft) SO 144 ° 0 min 0,000 mm 0,0 UV-I 0 W/m² 5,0 °C 6,4 °C 0,0 km/h (0 Bft)
20.10.2017 00:31 6,4 °C 6,4 °C 91 % 1012,7 hPa 0,0 mm 0,0 km/h (0 Bft) SO 144 ° 0 min 0,000 mm 0,0 UV-I 0 W/m² 5,0 °C 6,4 °C 0,0 km/h (0 Bft)
20.10.2017 00:32 6,6 °C 6,6 °C 92 % 1012,6 hPa 0,0 mm 0,0 km/h (0 Bft) SO 144 ° 0 min 0,000 mm 0,0 UV-I 0 W/m² 5,4 °C 6,6 °C 0,0 km/h (0 Bft)
20.10.2017 00:33 6,7 °C 6,7 °C 92 % 1012,6 hPa 0,0 mm 0,0 km/h (0 Bft) SO 144 ° 0 min 0,000 mm 0,0 UV-I 0 W/m² 5,5 °C 6,7 °C 0,0 km/h (0 Bft)
20.10.2017 00:34 6,8 °C 6,8 °C 92 % 1012,6 hPa 0,0 mm 0,0 km/h (0 Bft) SO 144 ° 0 min 0,000 mm 0,0 UV-I 0 W/m² 5,6 °C 6,8 °C 0,0 km/h (0 Bft)
20.10.2017 00:35 6,7 °C 6,8 °C 90 % 1012,6 hPa 0,0 mm 0,0 km/h (0 Bft) SO 144 ° 0 min 0,000 mm 0,0 UV-I 0 W/m² 5,2 °C 6,7 °C 0,0 km/h (0 Bft)
20.10.2017 00:36 6,6 °C 6,7 °C 89 % 1012,6 hPa 0,0 mm 0,0 km/h (0 Bft) SO 144 ° 0 min 0,000 mm 0,0 UV-I 0 W/m² 4,9 °C 6,6 °C 0,0 km/h (0 Bft)
20.10.2017 00:37 6,4 °C 6,6 °C 89 % 1012,6 hPa 0,0 mm 0,0 km/h (0 Bft) SO 144 ° 0 min 0,000 mm 0,0 UV-I 0 W/m² 4,7 °C 6,4 °C 0,0 km/h (0 Bft)
20.10.2017 00:38 6,4 °C 6,4 °C 90 % 1012,6 hPa 0,0 mm 0,0 km/h (0 Bft) SO 144 ° 0 min 0,000 mm 0,0 UV-I 0 W/m² 4,9 °C 6,4 °C 0,0 km/h (0 Bft)
20.10.2017 00:39 6,3 °C 6,4 °C 90 % 1012,6 hPa 0,0 mm 0,0 km/h (0 Bft) SO 144 ° 0 min 0,000 mm 0,0 UV-I 0 W/m² 4,8 °C 6,3 °C 0,0 km/h (0 Bft)
20.10.2017 00:40 6,3 °C 6,3 °C 90 % 1012,6 hPa 0,0 mm 0,0 km/h (0 Bft) SO 144 ° 0 min 0,000 mm 0,0 UV-I 0 W/m² 4,8 °C 6,3 °C 0,0 km/h (0 Bft)
20.10.2017 00:41 6,2 °C 6,3 °C 90 % 1012,6 hPa 0,0 mm 0,0 km/h (0 Bft) SO 144 ° 0 min 0,000 mm 0,0 UV-I 0 W/m² 4,7 °C 6,2 °C 0,0 km/h (0 Bft)
20.10.2017 00:42 6,2 °C 6,2 °C 91 % 1012,6 hPa 0,0 mm 0,0 km/h (0 Bft) SO 144 ° 0 min 0,000 mm 0,0 UV-I 0 W/m² 4,8 °C 6,2 °C 0,0 km/h (0 Bft)
20.10.2017 00:43 6,2 °C 6,2 °C 90 % 1012,6 hPa 0,0 mm 0,0 km/h (0 Bft) SO 144 ° 0 min 0,000 mm 0,0 UV-I 0 W/m² 4,7 °C 6,2 °C 0,0 km/h (0 Bft)
20.10.2017 00:44 6,1 °C 6,2 °C 90 % 1012,6 hPa 0,0 mm 0,0 km/h (0 Bft) SO 144 ° 0 min 0,000 mm 0,0 UV-I 0 W/m² 4,6 °C 6,1 °C 0,0 km/h (0 Bft)
20.10.2017 00:45 6,0 °C 6,1 °C 90 % 1012,6 hPa 0,0 mm 0,0 km/h (0 Bft) SO 144 ° 0 min 0,000 mm 0,0 UV-I 0 W/m² 4,5 °C 6,0 °C 0,0 km/h (0 Bft)
20.10.2017 00:46 6,1 °C 6,1 °C 91 % 1012,6 hPa 0,0 mm 0,0 km/h (0 Bft) SO 144 ° 0 min 0,000 mm 0,0 UV-I 0 W/m² 4,7 °C 6,1 °C 0,0 km/h (0 Bft)
20.10.2017 00:47 6,1 °C 6,1 °C 91 % 1012,6 hPa 0,0 mm 0,0 km/h (0 Bft) SO 144 ° 0 min 0,000 mm 0,0 UV-I 0 W/m² 4,7 °C 6,1 °C 0,0 km/h (0 Bft)
20.10.2017 00:48 6,1 °C 6,1 °C 91 % 1012,6 hPa 0,0 mm 0,0 km/h (0 Bft) SO 144 ° 0 min 0,000 mm 0,0 UV-I 0 W/m² 4,7 °C 6,1 °C 0,0 km/h (0 Bft)
20.10.2017 00:49 6,2 °C 6,2 °C 91 % 1012,6 hPa 0,0 mm 0,0 km/h (0 Bft) SO 144 ° 0 min 0,000 mm 0,0 UV-I 0 W/m² 4,8 °C 6,2 °C 0,0 km/h (0 Bft)
20.10.2017 00:50 6,2 °C 6,2 °C 91 % 1012,6 hPa 0,0 mm 0,0 km/h (0 Bft) SO 144 ° 0 min 0,000 mm 0,0 UV-I 0 W/m² 4,8 °C 6,2 °C 0,0 km/h (0 Bft)
20.10.2017 00:51 6,2 °C 6,2 °C 91 % 1012,6 hPa 0,0 mm 0,0 km/h (0 Bft) SO 144 ° 0 min 0,000 mm 0,0 UV-I 0 W/m² 4,8 °C 6,2 °C 0,0 km/h (0 Bft)
20.10.2017 00:52 6,1 °C 6,2 °C 91 % 1012,6 hPa 0,0 mm 0,0 km/h (0 Bft) SO 144 ° 0 min 0,000 mm 0,0 UV-I 0 W/m² 4,7 °C 6,1 °C 0,0 km/h (0 Bft)
20.10.2017 00:53 6,2 °C 6,2 °C 91 % 1012,6 hPa 0,0 mm 0,0 km/h (0 Bft) SO 144 ° 0 min 0,000 mm 0,0 UV-I 0 W/m² 4,8 °C 6,2 °C 0,0 km/h (0 Bft)
20.10.2017 00:54 6,2 °C 6,2 °C 92 % 1012,6 hPa 0,0 mm 0,0 km/h (0 Bft) SO 144 ° 0 min 0,000 mm 0,0 UV-I 0 W/m² 5,0 °C 6,2 °C 0,0 km/h (0 Bft)
20.10.2017 00:55 6,2 °C 6,2 °C 91 % 1012,6 hPa 0,0 mm 0,0 km/h (0 Bft) SO 144 ° 0 min 0,000 mm 0,0 UV-I 0 W/m² 4,8 °C 6,2 °C 0,0 km/h (0 Bft)
20.10.2017 00:56 6,3 °C 6,3 °C 91 % 1012,6 hPa 0,0 mm 0,0 km/h (0 Bft) SO 144 ° 0 min 0,000 mm 0,0 UV-I 0 W/m² 4,9 °C 6,3 °C 0,0 km/h (0 Bft)
20.10.2017 00:57 6,3 °C 6,3 °C 91 % 1012,6 hPa 0,0 mm 0,0 km/h (0 Bft) SO 144 ° 0 min 0,000 mm 0,0 UV-I 0 W/m² 4,9 °C 6,3 °C 0,0 km/h (0 Bft)
20.10.2017 00:58 6,3 °C 6,3 °C 90 % 1012,6 hPa 0,0 mm 0,0 km/h (0 Bft) SO 144 ° 0 min 0,000 mm 0,0 UV-I 0 W/m² 4,8 °C 6,3 °C 0,0 km/h (0 Bft)
20.10.2017 00:59 6,2 °C 6,3 °C 90 % 1012,6 hPa 0,0 mm 0,0 km/h (0 Bft) SO 144 ° 0 min 0,000 mm 0,0 UV-I 0 W/m² 4,7 °C 6,2 °C 0,0 km/h (0 Bft)
20.10.2017 01:00 6,2 °C 6,2 °C 90 % 1012,6 hPa 0,0 mm 0,0 km/h (0 Bft) SO 144 ° 0 min 0,000 mm 0,0 UV-I 0 W/m² 4,7 °C 6,2 °C 0,0 km/h (0 Bft)
20.10.2017 01:01 6,1 °C 6,2 °C 90 % 1012,6 hPa 0,0 mm 0,0 km/h (0 Bft) SO 144 ° 0 min 0,000 mm 0,0 UV-I 0 W/m² 4,6 °C 6,1 °C 0,0 km/h (0 Bft)
20.10.2017 01:02 6,0 °C 6,1 °C 90 % 1012,6 hPa 0,0 mm 0,0 km/h (0 Bft) SO 144 ° 0 min 0,000 mm 0,0 UV-I 0 W/m² 4,5 °C 6,0 °C 0,0 km/h (0 Bft)
20.10.2017 01:03 5,9 °C 6,0 °C 90 % 1012,6 hPa 0,0 mm 0,0 km/h (0 Bft) SO 144 ° 0 min 0,000 mm 0,0 UV-I 0 W/m² 4,4 °C 5,9 °C 0,0 km/h (0 Bft)
20.10.2017 01:04 5,9 °C 5,9 °C 91 % 1012,6 hPa 0,0 mm 0,0 km/h (0 Bft) SO 144 ° 0 min 0,000 mm 0,0 UV-I 0 W/m² 4,5 °C 5,9 °C 0,0 km/h (0 Bft)
20.10.2017 01:05 5,9 °C 5,9 °C 91 % 1012,6 hPa 0,0 mm 0,0 km/h (0 Bft) SO 144 ° 0 min 0,000 mm 0,0 UV-I 0 W/m² 4,5 °C 5,9 °C 0,0 km/h (0 Bft)
20.10.2017 01:06 5,9 °C 5,9 °C 91 % 1012,6 hPa 0,0 mm 0,0 km/h (0 Bft) SO 144 ° 0 min 0,000 mm 0,0 UV-I 0 W/m² 4,5 °C 5,9 °C 0,0 km/h (0 Bft)
20.10.2017 01:07 5,9 °C 5,9 °C 91 % 1012,6 hPa 0,0 mm 0,0 km/h (0 Bft) SO 144 ° 0 min 0,000 mm 0,0 UV-I 0 W/m² 4,5 °C 5,9 °C 0,0 km/h (0 Bft)
20.10.2017 01:08 5,8 °C 5,9 °C 91 % 1012,6 hPa 0,0 mm 0,0 km/h (0 Bft) SO 144 ° 0 min 0,000 mm 0,0 UV-I 0 W/m² 4,4 °C 5,8 °C 0,0 km/h (0 Bft)
20.10.2017 01:09 5,8 °C 5,8 °C 91 % 1012,6 hPa 0,0 mm 0,0 km/h (0 Bft) SO 144 ° 0 min 0,000 mm 0,0 UV-I 0 W/m² 4,4 °C 5,8 °C 0,0 km/h (0 Bft)
20.10.2017 01:10 5,8 °C 5,8 °C 91 % 1012,6 hPa 0,0 mm 0,0 km/h (0 Bft) SO 144 ° 0 min 0,000 mm 0,0 UV-I 0 W/m² 4,4 °C 5,8 °C 0,0 km/h (0 Bft)
20.10.2017 01:11 5,8 °C 5,8 °C 91 % 1012,6 hPa 0,0 mm 0,0 km/h (0 Bft) SO 144 ° 0 min 0,000 mm 0,0 UV-I 0 W/m² 4,4 °C 5,8 °C 0,0 km/h (0 Bft)
20.10.2017 01:12 5,8 °C 5,8 °C 91 % 1012,6 hPa 0,0 mm 0,0 km/h (0 Bft) SO 144 ° 0 min 0,000 mm 0,0 UV-I 0 W/m² 4,4 °C 5,8 °C 0,0 km/h (0 Bft)
20.10.2017 01:13 5,8 °C 5,8 °C 91 % 1012,6 hPa 0,0 mm 0,0 km/h (0 Bft) SO 144 ° 0 min 0,000 mm 0,0 UV-I 0 W/m² 4,4 °C 5,8 °C 0,0 km/h (0 Bft)
20.10.2017 01:14 5,8 °C 5,8 °C 91 % 1012,6 hPa 0,0 mm 0,0 km/h (0 Bft) SO 144 ° 0 min 0,000 mm 0,0 UV-I 0 W/m² 4,4 °C 5,8 °C 0,0 km/h (0 Bft)
20.10.2017 01:15 5,9 °C 5,9 °C 92 % 1012,6 hPa 0,0 mm 0,0 km/h (0 Bft) SO 144 ° 0 min 0,000 mm 0,0 UV-I 0 W/m² 4,7 °C 5,9 °C 0,0 km/h (0 Bft)
20.10.2017 01:16 6,0 °C 6,0 °C 92 % 1012,6 hPa 0,0 mm 0,0 km/h (0 Bft) SO 144 ° 0 min 0,000 mm 0,0 UV-I 0 W/m² 4,8 °C 6,0 °C 0,0 km/h (0 Bft)
20.10.2017 01:17 6,1 °C 6,1 °C 92 % 1012,6 hPa 0,0 mm 0,0 km/h (0 Bft) SO 144 ° 0 min 0,000 mm 0,0 UV-I 0 W/m² 4,9 °C 6,1 °C 0,0 km/h (0 Bft)
20.10.2017 01:18 6,1 °C 6,1 °C 91 % 1012,7 hPa 0,0 mm 0,0 km/h (0 Bft) SO 144 ° 0 min 0,000 mm 0,0 UV-I 0 W/m² 4,7 °C 6,1 °C 0,0 km/h (0 Bft)
20.10.2017 01:19 6,1 °C 6,1 °C 91 % 1012,7 hPa 0,0 mm 0,0 km/h (0 Bft) SO 144 ° 0 min 0,000 mm 0,0 UV-I 0 W/m² 4,7 °C 6,1 °C 0,0 km/h (0 Bft)
20.10.2017 01:20 6,1 °C 6,1 °C 91 % 1012,7 hPa 0,0 mm 0,0 km/h (0 Bft) SO 144 ° 0 min 0,000 mm 0,0 UV-I 0 W/m² 4,7 °C 6,1 °C 0,0 km/h (0 Bft)
20.10.2017 01:21 6,1 °C 6,1 °C 91 % 1012,7 hPa 0,0 mm 0,0 km/h (0 Bft) SO 144 ° 0 min 0,000 mm 0,0 UV-I 0 W/m² 4,7 °C 6,1 °C 0,0 km/h (0 Bft)
20.10.2017 01:22 6,1 °C 6,1 °C 91 % 1012,7 hPa 0,0 mm 0,0 km/h (0 Bft) SO 144 ° 0 min 0,000 mm 0,0 UV-I 0 W/m² 4,7 °C 6,1 °C 0,0 km/h (0 Bft)
20.10.2017 01:23 6,1 °C 6,1 °C 91 % 1012,7 hPa 0,0 mm 0,0 km/h (0 Bft) SO 144 ° 0 min 0,000 mm 0,0 UV-I 0 W/m² 4,7 °C 6,1 °C 0,0 km/h (0 Bft)
20.10.2017 01:24 6,1 °C 6,1 °C 91 % 1012,7 hPa 0,0 mm 0,0 km/h (0 Bft) SO 144 ° 0 min 0,000 mm 0,0 UV-I 0 W/m² 4,7 °C 6,1 °C 0,0 km/h (0 Bft)
20.10.2017 01:25 6,2 °C 6,2 °C 91 % 1012,7 hPa 0,0 mm 0,0 km/h (0 Bft) SO 144 ° 0 min 0,000 mm 0,0 UV-I 0 W/m² 4,8 °C 6,2 °C 0,0 km/h (0 Bft)
20.10.2017 01:26 6,2 °C 6,2 °C 91 % 1012,7 hPa 0,0 mm 0,0 km/h (0 Bft) SO 144 ° 0 min 0,000 mm 0,0 UV-I 0 W/m² 4,8 °C 6,2 °C 0,0 km/h (0 Bft)
20.10.2017 01:27 6,2 °C 6,2 °C 91 % 1012,6 hPa 0,0 mm 0,0 km/h (0 Bft) SO 144 ° 0 min 0,000 mm 0,0 UV-I 0 W/m² 4,8 °C 6,2 °C 0,0 km/h (0 Bft)
20.10.2017 01:28 6,2 °C 6,2 °C 91 % 1012,6 hPa 0,0 mm 0,0 km/h (0 Bft) SO 144 ° 0 min 0,000 mm 0,0 UV-I 0 W/m² 4,8 °C 6,2 °C 0,0 km/h (0 Bft)
20.10.2017 01:29 6,2 °C 6,2 °C 91 % 1012,7 hPa 0,0 mm 0,0 km/h (0 Bft) SO 144 ° 0 min 0,000 mm 0,0 UV-I 0 W/m² 4,8 °C 6,2 °C 0,0 km/h (0 Bft)
20.10.2017 01:30 6,2 °C 6,2 °C 91 % 1012,7 hPa 0,0 mm 0,0 km/h (0 Bft) SO 144 ° 0 min 0,000 mm 0,0 UV-I 0 W/m² 4,8 °C 6,2 °C 0,0 km/h (0 Bft)
20.10.2017 01:31 6,2 °C 6,2 °C 91 % 1012,6 hPa 0,0 mm 0,0 km/h (0 Bft) SO 144 ° 0 min 0,000 mm 0,0 UV-I 0 W/m² 4,8 °C 6,2 °C 0,0 km/h (0 Bft)
20.10.2017 01:32 6,2 °C 6,2 °C 91 % 1012,7 hPa 0,0 mm 0,0 km/h (0 Bft) SO 144 ° 0 min 0,000 mm 0,0 UV-I 0 W/m² 4,8 °C 6,2 °C 0,0 km/h (0 Bft)
20.10.2017 01:33 6,2 °C 6,2 °C 91 % 1012,6 hPa 0,0 mm 0,0 km/h (0 Bft) SO 144 ° 0 min 0,000 mm 0,0 UV-I 0 W/m² 4,8 °C 6,2 °C 0,0 km/h (0 Bft)
20.10.2017 01:34 6,2 °C 6,3 °C 91 % 1012,6 hPa 0,0 mm 0,0 km/h (0 Bft) SO 144 ° 0 min 0,000 mm 0,0 UV-I 0 W/m² 4,8 °C 6,2 °C 0,0 km/h (0 Bft)
20.10.2017 01:35 6,1 °C 6,2 °C 90 % 1012,6 hPa 0,0 mm 0,0 km/h (0 Bft) SO 144 ° 0 min 0,000 mm 0,0 UV-I 0 W/m² 4,6 °C 6,1 °C 0,0 km/h (0 Bft)
20.10.2017 01:36 6,1 °C 6,2 °C 91 % 1012,6 hPa 0,0 mm 0,0 km/h (0 Bft) SO 144 ° 0 min 0,000 mm 0,0 UV-I 0 W/m² 4,7 °C 6,1 °C 0,0 km/h (0 Bft)
20.10.2017 01:37 6,2 °C 6,2 °C 91 % 1012,6 hPa 0,0 mm 0,0 km/h (0 Bft) SO 144 ° 0 min 0,000 mm 0,0 UV-I 0 W/m² 4,8 °C 6,2 °C 0,0 km/h (0 Bft)
20.10.2017 01:38 6,2 °C 6,2 °C 91 % 1012,6 hPa 0,0 mm 0,0 km/h (0 Bft) SO 144 ° 0 min 0,000 mm 0,0 UV-I 0 W/m² 4,8 °C 6,2 °C 0,0 km/h (0 Bft)
20.10.2017 01:39 6,2 °C 6,2 °C 91 % 1012,6 hPa 0,0 mm 0,0 km/h (0 Bft) SO 144 ° 0 min 0,000 mm 0,0 UV-I 0 W/m² 4,8 °C 6,2 °C 0,0 km/h (0 Bft)
20.10.2017 01:40 6,2 °C 6,2 °C 91 % 1012,6 hPa 0,0 mm 0,0 km/h (0 Bft) SO 144 ° 0 min 0,000 mm 0,0 UV-I 0 W/m² 4,8 °C 6,2 °C 0,0 km/h (0 Bft)
20.10.2017 01:41 6,2 °C 6,2 °C 91 % 1012,6 hPa 0,0 mm 0,0 km/h (0 Bft) SO 144 ° 0 min 0,000 mm 0,0 UV-I 0 W/m² 4,8 °C 6,2 °C 0,0 km/h (0 Bft)
20.10.2017 01:42 6,2 °C 6,2 °C 90 % 1012,6 hPa 0,0 mm 0,0 km/h (0 Bft) SO 144 ° 0 min 0,000 mm 0,0 UV-I 0 W/m² 4,7 °C 6,2 °C 0,0 km/h (0 Bft)
20.10.2017 01:43 6,2 °C 6,2 °C 90 % 1012,6 hPa 0,0 mm 0,0 km/h (0 Bft) SO 144 ° 0 min 0,000 mm 0,0 UV-I 0 W/m² 4,7 °C 6,2 °C 0,0 km/h (0 Bft)
20.10.2017 01:44 6,2 °C 6,2 °C 90 % 1012,6 hPa 0,0 mm 0,0 km/h (0 Bft) SO 144 ° 0 min 0,000 mm 0,0 UV-I 0 W/m² 4,7 °C 6,2 °C 0,0 km/h (0 Bft)
20.10.2017 01:45 6,2 °C 6,2 °C 90 % 1012,6 hPa 0,0 mm 0,0 km/h (0 Bft) SO 144 ° 0 min 0,000 mm 0,0 UV-I 0 W/m² 4,7 °C 6,2 °C 0,0 km/h (0 Bft)
20.10.2017 01:46 6,2 °C 6,2 °C 91 % 1012,7 hPa 0,0 mm 0,0 km/h (0 Bft) SO 144 ° 0 min 0,000 mm 0,0 UV-I 0 W/m² 4,8 °C 6,2 °C 0,0 km/h (0 Bft)
20.10.2017 01:47 6,2 °C 6,2 °C 91 % 1012,7 hPa 0,0 mm 0,0 km/h (0 Bft) SO 144 ° 0 min 0,000 mm 0,0 UV-I 0 W/m² 4,8 °C 6,2 °C 0,0 km/h (0 Bft)
20.10.2017 01:48 6,3 °C 6,3 °C 91 % 1012,6 hPa 0,0 mm 0,0 km/h (0 Bft) SO 144 ° 0 min 0,000 mm 0,0 UV-I 0 W/m² 4,9 °C 6,3 °C 0,0 km/h (0 Bft)
20.10.2017 01:49 6,3 °C 6,3 °C 91 % 1012,6 hPa 0,0 mm 0,0 km/h (0 Bft) SO 144 ° 0 min 0,000 mm 0,0 UV-I 0 W/m² 4,9 °C 6,3 °C 0,0 km/h (0 Bft)
20.10.2017 01:50 6,4 °C 6,4 °C 90 % 1012,6 hPa 0,0 mm 0,0 km/h (0 Bft) SO 144 ° 0 min 0,000 mm 0,0 UV-I 0 W/m² 4,9 °C 6,4 °C 0,0 km/h (0 Bft)
20.10.2017 01:51 6,4 °C 6,4 °C 89 % 1012,6 hPa 0,0 mm 0,0 km/h (0 Bft) SO 144 ° 0 min 0,000 mm 0,0 UV-I 0 W/m² 4,7 °C 6,4 °C 0,0 km/h (0 Bft)
20.10.2017 01:52 6,4 °C 6,4 °C 90 % 1012,6 hPa 0,0 mm 0,0 km/h (0 Bft) SO 144 ° 0 min 0,000 mm 0,0 UV-I 0 W/m² 4,9 °C 6,4 °C 0,0 km/h (0 Bft)
20.10.2017 01:53 6,4 °C 6,4 °C 90 % 1012,6 hPa 0,0 mm 0,0 km/h (0 Bft) SO 144 ° 0 min 0,000 mm 0,0 UV-I 0 W/m² 4,9 °C 6,4 °C 0,0 km/h (0 Bft)
20.10.2017 01:54 6,4 °C 6,4 °C 90 % 1012,6 hPa 0,0 mm 0,0 km/h (0 Bft) SO 144 ° 0 min 0,000 mm 0,0 UV-I 0 W/m² 4,9 °C 6,4 °C 0,0 km/h (0 Bft)
20.10.2017 01:55 6,4 °C 6,4 °C 90 % 1012,6 hPa 0,0 mm 0,0 km/h (0 Bft) SO 144 ° 0 min 0,000 mm 0,0 UV-I 0 W/m² 4,9 °C 6,4 °C 0,0 km/h (0 Bft)
20.10.2017 01:56 6,4 °C 6,5 °C 89 % 1012,6 hPa 0,0 mm 0,0 km/h (0 Bft) SO 144 ° 0 min 0,000 mm 0,0 UV-I 0 W/m² 4,7 °C 6,4 °C 0,0 km/h (0 Bft)
20.10.2017 01:57 6,6 °C 6,6 °C 89 % 1012,6 hPa 0,0 mm 0,0 km/h (0 Bft) SO 144 ° 0 min 0,000 mm 0,0 UV-I 0 W/m² 4,9 °C 6,6 °C 0,0 km/h (0 Bft)
20.10.2017 01:58 6,7 °C 6,7 °C 88 % 1012,6 hPa 0,0 mm 0,0 km/h (0 Bft) SO 144 ° 0 min 0,000 mm 0,0 UV-I 0 W/m² 4,9 °C 6,7 °C 0,0 km/h (0 Bft)
20.10.2017 01:59 6,8 °C 6,8 °C 87 % 1012,6 hPa 0,0 mm 0,0 km/h (0 Bft) SO 144 ° 0 min 0,000 mm 0,0 UV-I 0 W/m² 4,8 °C 6,8 °C 0,0 km/h (0 Bft)
20.10.2017 02:00 7,0 °C 7,0 °C 87 % 1012,6 hPa 0,0 mm 0,0 km/h (0 Bft) SO 144 ° 0 min 0,000 mm 0,0 UV-I 0 W/m² 5,0 °C 7,0 °C 0,0 km/h (0 Bft)
20.10.2017 02:01 7,2 °C 7,2 °C 86 % 1012,6 hPa 0,0 mm 1,0 km/h (0 Bft) S-SO 147 ° 0 min 0,000 mm 0,0 UV-I 0 W/m² 5,0 °C 7,2 °C 3,2 km/h (1 Bft)
20.10.2017 02:02 7,3 °C 7,3 °C 84 % 1012,6 hPa 0,0 mm 3,6 km/h (1 Bft) S-SW 196 ° 0 min 0,000 mm 0,0 UV-I 0 W/m² 4,8 °C 7,3 °C 6,4 km/h (2 Bft)
20.10.2017 02:03 7,5 °C 7,5 °C 84 % 1012,6 hPa 0,0 mm 0,1 km/h (0 Bft) S-SW 196 ° 0 min 0,000 mm 0,0 UV-I 0 W/m² 5,0 °C 7,5 °C 1,6 km/h (1 Bft)
20.10.2017 02:04 7,7 °C 7,7 °C 84 % 1012,6 hPa 0,0 mm 0,9 km/h (0 Bft) S-SW 196 ° 0 min 0,000 mm 0,0 UV-I 0 W/m² 5,2 °C 7,7 °C 3,2 km/h (1 Bft)
20.10.2017 02:05 7,8 °C 7,8 °C 83 % 1012,6 hPa 0,0 mm 0,7 km/h (0 Bft) S-SW 196 ° 0 min 0,000 mm 0,0 UV-I 0 W/m² 5,1 °C 7,8 °C 3,2 km/h (1 Bft)
20.10.2017 02:06 7,9 °C 7,9 °C 82 % 1012,6 hPa 0,0 mm 2,3 km/h (1 Bft) S-SW 196 ° 0 min 0,000 mm 0,0 UV-I 0 W/m² 5,0 °C 7,9 °C 3,2 km/h (1 Bft)
20.10.2017 02:07 8,1 °C 8,1 °C 82 % 1012,6 hPa 0,0 mm 1,4 km/h (1 Bft) S-SW 196 ° 0 min 0,000 mm 0,0 UV-I 0 W/m² 5,2 °C 8,1 °C 3,2 km/h (1 Bft)
20.10.2017 02:08 8,1 °C 8,1 °C 81 % 1012,6 hPa 0,0 mm 2,6 km/h (1 Bft) S-SW 196 ° 0 min 0,000 mm 0,0 UV-I 0 W/m² 5,0 °C 8,1 °C 4,8 km/h (1 Bft)
20.10.2017 02:09 8,1 °C 8,1 °C 81 % 1012,6 hPa 0,0 mm 2,3 km/h (1 Bft) S-SW 196 ° 0 min 0,000 mm 0,0 UV-I 0 W/m² 5,0 °C 8,1 °C 3,2 km/h (1 Bft)
20.10.2017 02:10 8,1 °C 8,2 °C 81 % 1012,6 hPa 0,0 mm 0,9 km/h (0 Bft) S-SW 196 ° 0 min 0,000 mm 0,0 UV-I 0 W/m² 5,0 °C 8,1 °C 3,2 km/h (1 Bft)
20.10.2017 02:11 7,8 °C 8,1 °C 81 % 1012,6 hPa 0,0 mm 0,0 km/h (0 Bft) S-SW 196 ° 0 min 0,000 mm 0,0 UV-I 0 W/m² 4,7 °C 7,8 °C 0,0 km/h (0 Bft)
20.10.2017 02:12 7,3 °C 7,8 °C 81 % 1012,6 hPa 0,0 mm 0,8 km/h (0 Bft) S-SW 204 ° 0 min 0,000 mm 0,0 UV-I 0 W/m² 4,3 °C 7,3 °C 3,2 km/h (1 Bft)
20.10.2017 02:13 6,9 °C 7,3 °C 82 % 1012,6 hPa 0,0 mm 0,2 km/h (0 Bft) S-SW 204 ° 0 min 0,000 mm 0,0 UV-I 0 W/m² 4,0 °C 6,9 °C 1,6 km/h (1 Bft)
20.10.2017 02:14 6,6 °C 6,9 °C 83 % 1012,6 hPa 0,0 mm 0,0 km/h (0 Bft) S-SW 204 ° 0 min 0,000 mm 0,0 UV-I 0 W/m² 3,9 °C 6,6 °C 0,0 km/h (0 Bft)
20.10.2017 02:15 6,3 °C 6,6 °C 84 % 1012,6 hPa 0,0 mm 0,0 km/h (0 Bft) S-SW 204 ° 0 min 0,000 mm 0,0 UV-I 0 W/m² 3,8 °C 6,3 °C 0,0 km/h (0 Bft)
20.10.2017 02:16 5,9 °C 6,3 °C 85 % 1012,6 hPa 0,0 mm 0,0 km/h (0 Bft) S-SW 204 ° 0 min 0,000 mm 0,0 UV-I 0 W/m² 3,6 °C 5,9 °C 0,0 km/h (0 Bft)
20.10.2017 02:17 5,8 °C 5,9 °C 86 % 1012,5 hPa 0,0 mm 0,0 km/h (0 Bft) S-SW 204 ° 0 min 0,000 mm 0,0 UV-I 0 W/m² 3,6 °C 5,8 °C 0,0 km/h (0 Bft)
20.10.2017 02:18 5,6 °C 5,8 °C 87 % 1012,5 hPa 0,0 mm 0,0 km/h (0 Bft) S-SW 204 ° 0 min 0,000 mm 0,0 UV-I 0 W/m² 3,6 °C 5,6 °C 0,0 km/h (0 Bft)
20.10.2017 02:19 5,6 °C 5,6 °C 88 % 1012,5 hPa 0,0 mm 0,0 km/h (0 Bft) S-SW 204 ° 0 min 0,000 mm 0,0 UV-I 0 W/m² 3,8 °C 5,6 °C 0,0 km/h (0 Bft)
20.10.2017 02:20 5,6 °C 5,6 °C 89 % 1012,5 hPa 0,0 mm 0,0 km/h (0 Bft) S-SW 204 ° 0 min 0,000 mm 0,0 UV-I 0 W/m² 3,9 °C 5,6 °C 0,0 km/h (0 Bft)
20.10.2017 02:21 5,6 °C 5,6 °C 89 % 1012,5 hPa 0,0 mm 0,0 km/h (0 Bft) S-SW 204 ° 0 min 0,000 mm 0,0 UV-I 0 W/m² 3,9 °C 5,6 °C 0,0 km/h (0 Bft)
20.10.2017 02:22 5,7 °C 5,7 °C 90 % 1012,6 hPa 0,0 mm 0,0 km/h (0 Bft) S-SW 204 ° 0 min 0,000 mm 0,0 UV-I 0 W/m² 4,2 °C 5,7 °C 0,0 km/h (0 Bft)
20.10.2017 02:23 5,7 °C 5,7 °C 90 % 1012,5 hPa 0,0 mm 0,0 km/h (0 Bft) S-SW 204 ° 0 min 0,000 mm 0,0 UV-I 0 W/m² 4,2 °C 5,7 °C 0,0 km/h (0 Bft)
20.10.2017 02:24 5,7 °C 5,8 °C 89 % 1012,5 hPa 0,0 mm 0,0 km/h (0 Bft) S-SW 204 ° 0 min 0,000 mm 0,0 UV-I 0 W/m² 4,0 °C 5,7 °C 0,0 km/h (0 Bft)
20.10.2017 02:25 5,8 °C 5,8 °C 89 % 1012,5 hPa 0,0 mm 0,0 km/h (0 Bft) S-SW 204 ° 0 min 0,000 mm 0,0 UV-I 0 W/m² 4,1 °C 5,8 °C 0,0 km/h (0 Bft)
20.10.2017 02:26 5,8 °C 5,8 °C 89 % 1012,5 hPa 0,0 mm 0,0 km/h (0 Bft) S-SW 204 ° 0 min 0,000 mm 0,0 UV-I 0 W/m² 4,1 °C 5,8 °C 0,0 km/h (0 Bft)
20.10.2017 02:27 5,9 °C 5,9 °C 89 % 1012,6 hPa 0,0 mm 0,0 km/h (0 Bft) S-SW 204 ° 0 min 0,000 mm 0,0 UV-I 0 W/m² 4,2 °C 5,9 °C 0,0 km/h (0 Bft)
20.10.2017 02:28 6,0 °C 6,0 °C 89 % 1012,6 hPa 0,0 mm 0,0 km/h (0 Bft) S-SW 204 ° 0 min 0,000 mm 0,0 UV-I 0 W/m² 4,3 °C 6,0 °C 0,0 km/h (0 Bft)
20.10.2017 02:29 6,1 °C 6,1 °C 88 % 1012,6 hPa 0,0 mm 0,0 km/h (0 Bft) S-SW 204 ° 0 min 0,000 mm 0,0 UV-I 0 W/m² 4,3 °C 6,1 °C 0,0 km/h (0 Bft)
20.10.2017 02:30 6,1 °C 6,1 °C 88 % 1012,6 hPa 0,0 mm 1,0 km/h (0 Bft) S-SW 204 ° 0 min 0,000 mm 0,0 UV-I 0 W/m² 4,3 °C 6,1 °C 3,2 km/h (1 Bft)
20.10.2017 02:31 6,2 °C 6,2 °C 88 % 1012,6 hPa 0,0 mm 2,0 km/h (1 Bft) S-SW 208 ° 0 min 0,000 mm 0,0 UV-I 0 W/m² 4,4 °C 6,2 °C 3,2 km/h (1 Bft)
20.10.2017 02:32 6,3 °C 6,3 °C 87 % 1012,6 hPa 0,0 mm 2,8 km/h (1 Bft) SW 232 ° 0 min 0,000 mm 0,0 UV-I 0 W/m² 4,3 °C 6,3 °C 4,8 km/h (1 Bft)
20.10.2017 02:33 6,5 °C 6,5 °C 87 % 1012,6 hPa 0,0 mm 1,0 km/h (0 Bft) SW 232 ° 0 min 0,000 mm 0,0 UV-I 0 W/m² 4,5 °C 6,5 °C 3,2 km/h (1 Bft)
20.10.2017 02:34 6,6 °C 6,6 °C 86 % 1012,6 hPa 0,0 mm 0,0 km/h (0 Bft) SW 232 ° 0 min 0,000 mm 0,0 UV-I 0 W/m² 4,4 °C 6,6 °C 0,0 km/h (0 Bft)
20.10.2017 02:35 6,7 °C 6,7 °C 86 % 1012,6 hPa 0,0 mm 0,0 km/h (0 Bft) SW 232 ° 0 min 0,000 mm 0,0 UV-I 0 W/m² 4,5 °C 6,7 °C 0,0 km/h (0 Bft)
20.10.2017 02:36 6,7 °C 6,7 °C 85 % 1012,6 hPa 0,0 mm 0,0 km/h (0 Bft) SW 232 ° 0 min 0,000 mm 0,0 UV-I 0 W/m² 4,4 °C 6,7 °C 0,0 km/h (0 Bft)
20.10.2017 02:37 6,7 °C 6,7 °C 85 % 1012,6 hPa 0,0 mm 0,0 km/h (0 Bft) SW 232 ° 0 min 0,000 mm 0,0 UV-I 0 W/m² 4,4 °C 6,7 °C 0,0 km/h (0 Bft)
20.10.2017 02:38 6,8 °C 6,8 °C 85 % 1012,6 hPa 0,0 mm 0,0 km/h (0 Bft) SW 232 ° 0 min 0,000 mm 0,0 UV-I 0 W/m² 4,5 °C 6,8 °C 0,0 km/h (0 Bft)
20.10.2017 02:39 6,8 °C 6,8 °C 85 % 1012,7 hPa 0,0 mm 0,0 km/h (0 Bft) SW 232 ° 0 min 0,000 mm 0,0 UV-I 0 W/m² 4,5 °C 6,8 °C 0,0 km/h (0 Bft)
20.10.2017 02:40 6,8 °C 6,8 °C 85 % 1012,6 hPa 0,0 mm 0,0 km/h (0 Bft) SW 232 ° 0 min 0,000 mm 0,0 UV-I 0 W/m² 4,5 °C 6,8 °C 0,0 km/h (0 Bft)
20.10.2017 02:41 6,9 °C 6,9 °C 85 % 1012,6 hPa 0,0 mm 0,0 km/h (0 Bft) SW 232 ° 0 min 0,000 mm 0,0 UV-I 0 W/m² 4,6 °C 6,9 °C 0,0 km/h (0 Bft)
20.10.2017 02:42 6,9 °C 7,0 °C 85 % 1012,7 hPa 0,0 mm 0,0 km/h (0 Bft) SW 232 ° 0 min 0,000 mm 0,0 UV-I 0 W/m² 4,6 °C 6,9 °C 0,0 km/h (0 Bft)
20.10.2017 02:43 7,1 °C 7,1 °C 83 % 1012,7 hPa 0,0 mm 0,0 km/h (0 Bft) SW 232 ° 0 min 0,000 mm 0,0 UV-I 0 W/m² 4,4 °C 7,1 °C 0,0 km/h (0 Bft)
20.10.2017 02:44 7,1 °C 7,1 °C 84 % 1012,7 hPa 0,0 mm 0,0 km/h (0 Bft) SW 232 ° 0 min 0,000 mm 0,0 UV-I 0 W/m² 4,6 °C 7,1 °C 0,0 km/h (0 Bft)
20.10.2017 02:45 6,9 °C 7,1 °C 83 % 1012,7 hPa 0,0 mm 0,0 km/h (0 Bft) SW 232 ° 0 min 0,000 mm 0,0 UV-I 0 W/m² 4,2 °C 6,9 °C 0,0 km/h (0 Bft)
20.10.2017 02:46 6,8 °C 6,9 °C 83 % 1012,7 hPa 0,0 mm 0,0 km/h (0 Bft) SW 232 ° 0 min 0,000 mm 0,0 UV-I 0 W/m² 4,1 °C 6,8 °C 0,0 km/h (0 Bft)
20.10.2017 02:47 6,8 °C 6,8 °C 84 % 1012,7 hPa 0,0 mm 0,0 km/h (0 Bft) SW 232 ° 0 min 0,000 mm 0,0 UV-I 0 W/m² 4,3 °C 6,8 °C 0,0 km/h (0 Bft)
20.10.2017 02:48 6,8 °C 6,8 °C 84 % 1012,7 hPa 0,0 mm 0,0 km/h (0 Bft) SW 232 ° 0 min 0,000 mm 0,0 UV-I 0 W/m² 4,3 °C 6,8 °C 0,0 km/h (0 Bft)
20.10.2017 02:49 6,7 °C 6,8 °C 85 % 1012,7 hPa 0,0 mm 0,0 km/h (0 Bft) SW 232 ° 0 min 0,000 mm 0,0 UV-I 0 W/m² 4,4 °C 6,7 °C 0,0 km/h (0 Bft)
20.10.2017 02:50 6,7 °C 6,7 °C 84 % 1012,7 hPa 0,0 mm 0,0 km/h (0 Bft) SW 232 ° 0 min 0,000 mm 0,0 UV-I 0 W/m² 4,2 °C 6,7 °C 0,0 km/h (0 Bft)
20.10.2017 02:51 6,5 °C 6,7 °C 85 % 1012,7 hPa 0,0 mm 0,0 km/h (0 Bft) SW 232 ° 0 min 0,000 mm 0,0 UV-I 0 W/m² 4,2 °C 6,5 °C 0,0 km/h (0 Bft)
20.10.2017 02:52 6,4 °C 6,5 °C 85 % 1012,7 hPa 0,0 mm 0,0 km/h (0 Bft) SW 232 ° 0 min 0,000 mm 0,0 UV-I 0 W/m² 4,1 °C 6,4 °C 0,0 km/h (0 Bft)
20.10.2017 02:53 6,3 °C 6,4 °C 85 % 1012,7 hPa 0,0 mm 0,0 km/h (0 Bft) SW 232 ° 0 min 0,000 mm 0,0 UV-I 0 W/m² 4,0 °C 6,3 °C 0,0 km/h (0 Bft)
20.10.2017 02:54 6,2 °C 6,3 °C 86 % 1012,7 hPa 0,0 mm 0,0 km/h (0 Bft) SW 232 ° 0 min 0,000 mm 0,0 UV-I 0 W/m² 4,0 °C 6,2 °C 0,0 km/h (0 Bft)
20.10.2017 02:55 6,3 °C 6,3 °C 87 % 1012,7 hPa 0,0 mm 0,0 km/h (0 Bft) SW 232 ° 0 min 0,000 mm 0,0 UV-I 0 W/m² 4,3 °C 6,3 °C 0,0 km/h (0 Bft)
20.10.2017 02:56 6,4 °C 6,4 °C 86 % 1012,6 hPa 0,0 mm 3,1 km/h (1 Bft) S-SW 196 ° 0 min 0,000 mm 0,0 UV-I 0 W/m² 4,2 °C 6,4 °C 6,4 km/h (2 Bft)
20.10.2017 02:57 6,8 °C 6,8 °C 85 % 1012,6 hPa 0,0 mm 6,1 km/h (2 Bft) S-SW 202 ° 0 min 0,000 mm 0,0 UV-I 0 W/m² 4,5 °C 5,8 °C 9,7 km/h (2 Bft)
20.10.2017 02:58 7,2 °C 7,2 °C 82 % 1012,6 hPa 0,0 mm 8,0 km/h (2 Bft) S-SW 202 ° 0 min 0,000 mm 0,0 UV-I 0 W/m² 4,3 °C 5,7 °C 9,7 km/h (2 Bft)
20.10.2017 02:59 7,7 °C 7,7 °C 80 % 1012,6 hPa 0,0 mm 5,8 km/h (2 Bft) SW 234 ° 0 min 0,000 mm 0,0 UV-I 0 W/m² 4,5 °C 6,9 °C 8,0 km/h (2 Bft)
20.10.2017 03:00 8,1 °C 8,1 °C 79 % 1012,6 hPa 0,0 mm 4,3 km/h (1 Bft) SW 223 ° 0 min 0,000 mm 0,0 UV-I 0 W/m² 4,7 °C 8,1 °C 6,4 km/h (2 Bft)
20.10.2017 03:01 8,4 °C 8,4 °C 77 % 1012,6 hPa 0,0 mm 4,8 km/h (1 Bft) S-SW 212 ° 0 min 0,000 mm 0,0 UV-I 0 W/m² 4,6 °C 8,0 °C 6,4 km/h (2 Bft)
20.10.2017 03:02 8,7 °C 8,7 °C 76 % 1012,6 hPa 0,0 mm 5,0 km/h (1 Bft) S-SW 204 ° 0 min 0,000 mm 0,0 UV-I 0 W/m² 4,7 °C 8,3 °C 8,0 km/h (2 Bft)
20.10.2017 03:03 8,8 °C 8,8 °C 74 % 1012,6 hPa 0,0 mm 2,9 km/h (1 Bft) SW 214 ° 0 min 0,000 mm 0,0 UV-I 0 W/m² 4,4 °C 8,8 °C 4,8 km/h (1 Bft)
20.10.2017 03:04 8,9 °C 8,9 °C 74 % 1012,6 hPa 0,0 mm 4,1 km/h (1 Bft) SW 226 ° 0 min 0,000 mm 0,0 UV-I 0 W/m² 4,5 °C 8,9 °C 6,4 km/h (2 Bft)
20.10.2017 03:05 9,1 °C 9,1 °C 74 % 1012,6 hPa 0,0 mm 5,2 km/h (1 Bft) S 187 ° 0 min 0,000 mm 0,0 UV-I 0 W/m² 4,7 °C 8,7 °C 8,0 km/h (2 Bft)
20.10.2017 03:06 9,1 °C 9,1 °C 73 % 1012,6 hPa 0,0 mm 4,7 km/h (1 Bft) S-SW 205 ° 0 min 0,000 mm 0,0 UV-I 0 W/m² 4,5 °C 8,8 °C 6,4 km/h (2 Bft)
20.10.2017 03:07 8,9 °C 9,1 °C 74 % 1012,6 hPa 0,0 mm 4,9 km/h (1 Bft) S 184 ° 0 min 0,000 mm 0,0 UV-I 0 W/m² 4,5 °C 8,5 °C 8,0 km/h (2 Bft)
20.10.2017 03:08 8,9 °C 8,9 °C 74 % 1012,6 hPa 0,0 mm 6,0 km/h (2 Bft) S-SW 208 ° 0 min 0,000 mm 0,0 UV-I 0 W/m² 4,5 °C 8,2 °C 9,7 km/h (2 Bft)
20.10.2017 03:09 8,8 °C 8,9 °C 74 % 1012,6 hPa 0,0 mm 8,2 km/h (2 Bft) S-SW 194 ° 0 min 0,000 mm 0,0 UV-I 0 W/m² 4,4 °C 7,6 °C 11,3 km/h (2 Bft)
20.10.2017 03:10 8,8 °C 8,8 °C 74 % 1012,6 hPa 0,0 mm 5,5 km/h (1 Bft) S-SW 194 ° 0 min 0,000 mm 0,0 UV-I 0 W/m² 4,4 °C 8,2 °C 8,0 km/h (2 Bft)
20.10.2017 03:11 8,7 °C 8,8 °C 74 % 1012,6 hPa 0,0 mm 4,7 km/h (1 Bft) S 182 ° 0 min 0,000 mm 0,0 UV-I 0 W/m² 4,3 °C 8,4 °C 6,4 km/h (2 Bft)
20.10.2017 03:12 8,7 °C 8,7 °C 75 % 1012,6 hPa 0,0 mm 5,0 km/h (1 Bft) S-SW 202 ° 0 min 0,000 mm 0,0 UV-I 0 W/m² 4,5 °C 8,3 °C 8,0 km/h (2 Bft)
20.10.2017 03:13 8,6 °C 8,7 °C 75 % 1012,6 hPa 0,0 mm 4,9 km/h (1 Bft) S 174 ° 0 min 0,000 mm 0,0 UV-I 0 W/m² 4,4 °C 8,2 °C 8,0 km/h (2 Bft)
20.10.2017 03:14 8,6 °C 8,6 °C 75 % 1012,6 hPa 0,0 mm 7,8 km/h (2 Bft) S 185 ° 0 min 0,000 mm 0,0 UV-I 0 W/m² 4,4 °C 7,4 °C 9,7 km/h (2 Bft)
20.10.2017 03:15 8,6 °C 8,6 °C 75 % 1012,6 hPa 0,0 mm 3,6 km/h (1 Bft) S 175 ° 0 min 0,000 mm 0,0 UV-I 0 W/m² 4,4 °C 8,6 °C 4,8 km/h (1 Bft)
20.10.2017 03:16 8,7 °C 8,7 °C 75 % 1012,6 hPa 0,0 mm 3,5 km/h (1 Bft) S 173 ° 0 min 0,000 mm 0,0 UV-I 0 W/m² 4,5 °C 8,7 °C 4,8 km/h (1 Bft)
20.10.2017 03:17 8,7 °C 8,7 °C 75 % 1012,6 hPa 0,0 mm 2,5 km/h (1 Bft) S 173 ° 0 min 0,000 mm 0,0 UV-I 0 W/m² 4,5 °C 8,7 °C 3,2 km/h (1 Bft)
20.10.2017 03:18 8,8 °C 8,8 °C 75 % 1012,6 hPa 0,0 mm 2,3 km/h (1 Bft) S 173 ° 0 min 0,000 mm 0,0 UV-I 0 W/m² 4,6 °C 8,8 °C 4,8 km/h (1 Bft)
20.10.2017 03:19 8,9 °C 8,9 °C 74 % 1012,6 hPa 0,0 mm 2,5 km/h (1 Bft) S 173 ° 0 min 0,000 mm 0,0 UV-I 0 W/m² 4,5 °C 8,9 °C 3,2 km/h (1 Bft)
20.10.2017 03:20 9,0 °C 9,0 °C 73 % 1012,6 hPa 0,0 mm 2,2 km/h (1 Bft) S 173 ° 0 min 0,000 mm 0,0 UV-I 0 W/m² 4,4 °C 9,0 °C 4,8 km/h (1 Bft)
20.10.2017 03:21 9,1 °C 9,1 °C 73 % 1012,6 hPa 0,0 mm 2,8 km/h (1 Bft) S 173 ° 0 min 0,000 mm 0,0 UV-I 0 W/m² 4,5 °C 9,1 °C 4,8 km/h (1 Bft)
20.10.2017 03:22 9,1 °C 9,1 °C 73 % 1012,6 hPa 0,0 mm 2,2 km/h (1 Bft) S 173 ° 0 min 0,000 mm 0,0 UV-I 0 W/m² 4,5 °C 9,1 °C 3,2 km/h (1 Bft)
20.10.2017 03:23 9,2 °C 9,2 °C 72 % 1012,6 hPa 0,0 mm 1,5 km/h (1 Bft) S 173 ° 0 min 0,000 mm 0,0 UV-I 0 W/m² 4,4 °C 9,2 °C 3,2 km/h (1 Bft)
20.10.2017 03:24 9,2 °C 9,2 °C 72 % 1012,6 hPa 0,0 mm 2,7 km/h (1 Bft) S 173 ° 0 min 0,000 mm 0,0 UV-I 0 W/m² 4,4 °C 9,2 °C 4,8 km/h (1 Bft)
20.10.2017 03:25 9,2 °C 9,2 °C 72 % 1012,7 hPa 0,0 mm 2,5 km/h (1 Bft) S 173 ° 0 min 0,000 mm 0,0 UV-I 0 W/m² 4,4 °C 9,2 °C 3,2 km/h (1 Bft)
20.10.2017 03:26 9,1 °C 9,2 °C 72 % 1012,6 hPa 0,0 mm 3,5 km/h (1 Bft) S 174 ° 0 min 0,000 mm 0,0 UV-I 0 W/m² 4,3 °C 9,1 °C 4,8 km/h (1 Bft)
20.10.2017 03:27 8,9 °C 9,1 °C 73 % 1012,6 hPa 0,0 mm 2,7 km/h (1 Bft) S 174 ° 0 min 0,000 mm 0,0 UV-I 0 W/m² 4,3 °C 8,9 °C 4,8 km/h (1 Bft)
20.10.2017 03:28 8,8 °C 8,9 °C 73 % 1012,6 hPa 0,0 mm 3,2 km/h (1 Bft) S 174 ° 0 min 0,000 mm 0,0 UV-I 0 W/m² 4,2 °C 8,8 °C 4,8 km/h (1 Bft)
20.10.2017 03:29 8,6 °C 8,8 °C 74 % 1012,7 hPa 0,0 mm 2,1 km/h (1 Bft) S 174 ° 0 min 0,000 mm 0,0 UV-I 0 W/m² 4,2 °C 8,6 °C 3,2 km/h (1 Bft)
20.10.2017 03:30 8,3 °C 8,6 °C 75 % 1012,7 hPa 0,0 mm 1,8 km/h (1 Bft) S 174 ° 0 min 0,000 mm 0,0 UV-I 0 W/m² 4,1 °C 8,3 °C 4,8 km/h (1 Bft)
20.10.2017 03:31 8,1 °C 8,3 °C 76 % 1012,6 hPa 0,0 mm 3,4 km/h (1 Bft) S 174 ° 0 min 0,000 mm 0,0 UV-I 0 W/m² 4,1 °C 8,1 °C 4,8 km/h (1 Bft)
20.10.2017 03:32 8,1 °C 8,1 °C 76 % 1012,6 hPa 0,0 mm 2,3 km/h (1 Bft) S 174 ° 0 min 0,000 mm 0,0 UV-I 0 W/m² 4,1 °C 8,1 °C 3,2 km/h (1 Bft)
20.10.2017 03:33 7,9 °C 8,1 °C 76 % 1012,7 hPa 0,0 mm 3,6 km/h (1 Bft) S 174 ° 0 min 0,000 mm 0,0 UV-I 0 W/m² 3,9 °C 7,9 °C 4,8 km/h (1 Bft)
20.10.2017 03:34 7,9 °C 7,9 °C 76 % 1012,7 hPa 0,0 mm 1,4 km/h (1 Bft) S 174 ° 0 min 0,000 mm 0,0 UV-I 0 W/m² 3,9 °C 7,9 °C 3,2 km/h (1 Bft)
20.10.2017 03:35 7,8 °C 7,9 °C 76 % 1012,7 hPa 0,0 mm 2,1 km/h (1 Bft) S 174 ° 0 min 0,000 mm 0,0 UV-I 0 W/m² 3,8 °C 7,8 °C 4,8 km/h (1 Bft)
20.10.2017 03:36 7,7 °C 7,8 °C 78 % 1012,7 hPa 0,0 mm 3,4 km/h (1 Bft) S 174 ° 0 min 0,000 mm 0,0 UV-I 0 W/m² 4,1 °C 7,7 °C 4,8 km/h (1 Bft)
20.10.2017 03:37 7,6 °C 7,7 °C 78 % 1012,7 hPa 0,0 mm 2,0 km/h (1 Bft) S 175 ° 0 min 0,000 mm 0,0 UV-I 0 W/m² 4,0 °C 7,6 °C 4,8 km/h (1 Bft)
20.10.2017 03:38 7,4 °C 7,6 °C 78 % 1012,7 hPa 0,0 mm 0,0 km/h (0 Bft) S 175 ° 0 min 0,000 mm 0,0 UV-I 0 W/m² 3,8 °C 7,4 °C 0,0 km/h (0 Bft)
20.10.2017 03:39 7,2 °C 7,4 °C 78 % 1012,8 hPa 0,0 mm 0,0 km/h (0 Bft) S 175 ° 0 min 0,000 mm 0,0 UV-I 0 W/m² 3,6 °C 7,2 °C 0,0 km/h (0 Bft)
20.10.2017 03:40 6,9 °C 7,2 °C 79 % 1012,8 hPa 0,0 mm 0,0 km/h (0 Bft) S 175 ° 0 min 0,000 mm 0,0 UV-I 0 W/m² 3,5 °C 6,9 °C 0,0 km/h (0 Bft)
20.10.2017 03:41 6,7 °C 6,9 °C 80 % 1012,8 hPa 0,0 mm 0,0 km/h (0 Bft) S 175 ° 0 min 0,000 mm 0,0 UV-I 0 W/m² 3,5 °C 6,7 °C 0,0 km/h (0 Bft)
20.10.2017 03:42 6,5 °C 6,7 °C 82 % 1012,8 hPa 0,0 mm 0,0 km/h (0 Bft) S 175 ° 0 min 0,000 mm 0,0 UV-I 0 W/m² 3,7 °C 6,5 °C 0,0 km/h (0 Bft)
20.10.2017 03:43 6,4 °C 6,5 °C 82 % 1012,8 hPa 0,0 mm 0,0 km/h (0 Bft) S 175 ° 0 min 0,000 mm 0,0 UV-I 0 W/m² 3,6 °C 6,4 °C 0,0 km/h (0 Bft)
20.10.2017 03:44 6,4 °C 6,4 °C 82 % 1012,8 hPa 0,0 mm 0,0 km/h (0 Bft) S 175 ° 0 min 0,000 mm 0,0 UV-I 0 W/m² 3,6 °C 6,4 °C 0,0 km/h (0 Bft)
20.10.2017 03:45 6,4 °C 6,4 °C 83 % 1012,8 hPa 0,0 mm 0,0 km/h (0 Bft) S 175 ° 0 min 0,000 mm 0,0 UV-I 0 W/m² 3,7 °C 6,4 °C 0,0 km/h (0 Bft)
20.10.2017 03:46 6,4 °C 6,4 °C 82 % 1012,9 hPa 0,0 mm 0,0 km/h (0 Bft) S 175 ° 0 min 0,000 mm 0,0 UV-I 0 W/m² 3,6 °C 6,4 °C 0,0 km/h (0 Bft)
20.10.2017 03:47 6,4 °C 6,4 °C 82 % 1012,9 hPa 0,0 mm 0,0 km/h (0 Bft) S 175 ° 0 min 0,000 mm 0,0 UV-I 0 W/m² 3,6 °C 6,4 °C 0,0 km/h (0 Bft)
20.10.2017 03:48 6,5 °C 6,5 °C 82 % 1012,9 hPa 0,0 mm 0,0 km/h (0 Bft) S 175 ° 0 min 0,000 mm 0,0 UV-I 0 W/m² 3,7 °C 6,5 °C 0,0 km/h (0 Bft)
20.10.2017 03:49 6,5 °C 6,5 °C 81 % 1012,9 hPa 0,0 mm 0,0 km/h (0 Bft) S 175 ° 0 min 0,000 mm 0,0 UV-I 0 W/m² 3,5 °C 6,5 °C 0,0 km/h (0 Bft)
20.10.2017 03:50 6,4 °C 6,5 °C 81 % 1012,9 hPa 0,0 mm 0,0 km/h (0 Bft) S 175 ° 0 min 0,000 mm 0,0 UV-I 0 W/m² 3,4 °C 6,4 °C 0,0 km/h (0 Bft)
20.10.2017 03:51 6,6 °C 6,6 °C 82 % 1012,9 hPa 0,0 mm 4,7 km/h (1 Bft) S-SW 211 ° 0 min 0,000 mm 0,0 UV-I 0 W/m² 3,8 °C 6,0 °C 9,7 km/h (2 Bft)
20.10.2017 03:52 6,8 °C 6,8 °C 81 % 1012,9 hPa 0,0 mm 2,1 km/h (1 Bft) S-SW 212 ° 0 min 0,000 mm 0,0 UV-I 0 W/m² 3,8 °C 6,8 °C 8,0 km/h (2 Bft)
20.10.2017 03:53 7,1 °C 7,1 °C 79 % 1013,0 hPa 0,0 mm 5,0 km/h (1 Bft) W-NW 289 ° 0 min 0,000 mm 0,0 UV-I 0 W/m² 3,7 °C 6,5 °C 8,0 km/h (2 Bft)
20.10.2017 03:54 7,3 °C 7,3 °C 79 % 1013,1 hPa 0,0 mm 5,6 km/h (1 Bft) W 261 ° 0 min 0,000 mm 0,0 UV-I 0 W/m² 3,9 °C 6,5 °C 8,0 km/h (2 Bft)
20.10.2017 03:55 7,4 °C 7,4 °C 78 % 1013,1 hPa 0,0 mm 5,7 km/h (1 Bft) W-SW 255 ° 0 min 0,000 mm 0,0 UV-I 0 W/m² 3,8 °C 6,6 °C 6,4 km/h (2 Bft)
20.10.2017 03:56 7,5 °C 7,5 °C 78 % 1013,1 hPa 0,0 mm 3,4 km/h (1 Bft) W-SW 255 ° 0 min 0,000 mm 0,0 UV-I 0 W/m² 3,9 °C 7,5 °C 4,8 km/h (1 Bft)
20.10.2017 03:57 7,6 °C 7,6 °C 78 % 1013,2 hPa 0,0 mm 5,5 km/h (1 Bft) S-SW 205 ° 0 min 0,000 mm 0,0 UV-I 0 W/m² 4,0 °C 6,9 °C 8,0 km/h (2 Bft)
20.10.2017 03:58 7,7 °C 7,7 °C 77 % 1013,2 hPa 0,0 mm 9,5 km/h (2 Bft) S-SO 157 ° 0 min 0,000 mm 0,0 UV-I 0 W/m² 3,9 °C 6,0 °C 12,9 km/h (3 Bft)
20.10.2017 03:59 7,9 °C 7,9 °C 76 % 1013,1 hPa 0,0 mm 8,6 km/h (2 Bft) S-SW 202 ° 0 min 0,000 mm 0,0 UV-I 0 W/m² 3,9 °C 6,4 °C 12,9 km/h (3 Bft)
20.10.2017 04:00 8,1 °C 8,1 °C 74 % 1013,1 hPa 0,0 mm 8,9 km/h (2 Bft) S 189 ° 0 min 0,025 mm 0,0 UV-I 0 W/m² 3,8 °C 6,6 °C 14,5 km/h (3 Bft)
20.10.2017 04:01 8,1 °C 8,1 °C 74 % 1013,1 hPa 0,0 mm 4,8 km/h (1 Bft) S-SW 192 ° 0 min 0,000 mm 0,0 UV-I 0 W/m² 3,8 °C 7,7 °C 4,8 km/h (1 Bft)
20.10.2017 04:02 8,4 °C 8,4 °C 74 % 1013,1 hPa 0,0 mm 0,0 km/h (0 Bft) N 0 ° 0 min 0,000 mm 0,0 UV-I 0 W/m² 4,0 °C 8,4 °C 0,0 km/h (0 Bft)
20.10.2017 04:03 8,6 °C 8,6 °C 73 % 1013,2 hPa 0,0 mm 0,0 km/h (0 Bft) S 180 ° 0 min 0,000 mm 0,0 UV-I 0 W/m² 4,0 °C 8,6 °C 1,6 km/h (1 Bft)
20.10.2017 04:04 8,6 °C 8,6 °C 73 % 1013,3 hPa 0,0 mm 1,6 km/h (1 Bft) S 180 ° 0 min 0,000 mm 0,0 UV-I 0 W/m² 4,0 °C 8,6 °C 4,8 km/h (1 Bft)
20.10.2017 04:05 8,4 °C 8,6 °C 74 % 1013,3 hPa 0,0 mm 1,6 km/h (1 Bft) S-SW 202 ° 0 min 0,000 mm 0,0 UV-I 0 W/m² 4,0 °C 8,4 °C 4,8 km/h (1 Bft)
20.10.2017 04:06 8,3 °C 8,3 °C 73 % 1013,3 hPa 0,0 mm 3,2 km/h (1 Bft) S-SW 202 ° 0 min 0,000 mm 0,0 UV-I 0 W/m² 3,8 °C 8,3 °C 4,8 km/h (1 Bft)
20.10.2017 04:07 8,4 °C 8,4 °C 72 % 1013,2 hPa 0,0 mm 6,4 km/h (2 Bft) S-SO 157 ° 0 min 0,000 mm 0,0 UV-I 0 W/m² 3,7 °C 7,5 °C 9,7 km/h (2 Bft)
20.10.2017 04:08 8,8 °C 8,8 °C 72 % 1013,2 hPa 0,0 mm 4,8 km/h (1 Bft) S 180 ° 0 min 0,000 mm 0,0 UV-I 0 W/m² 4,0 °C 8,5 °C 8,0 km/h (2 Bft)
20.10.2017 04:09 9,1 °C 9,1 °C 71 % 1013,1 hPa 0,0 mm 6,4 km/h (2 Bft) S-SW 202 ° 0 min 0,000 mm 0,0 UV-I 0 W/m² 4,1 °C 8,3 °C 9,7 km/h (2 Bft)
20.10.2017 04:10 9,3 °C 9,3 °C 71 % 1013,1 hPa 0,0 mm 4,8 km/h (1 Bft) S 180 ° 0 min 0,000 mm 0,0 UV-I 0 W/m² 4,3 °C 9,0 °C 9,7 km/h (2 Bft)
20.10.2017 04:14 9,6 °C 9,6 °C 70 % 1013,2 hPa 0,0 mm 1,3 km/h (1 Bft) NW 304 ° 0 min 0,000 mm 0,0 UV-I 0 W/m² 4,4 °C 9,6 °C 4,8 km/h (1 Bft)
20.10.2017 04:15 9,4 °C 9,6 °C 70 % 1013,2 hPa 0,0 mm 3,0 km/h (1 Bft) NW 304 ° 0 min 0,000 mm 0,0 UV-I 0 W/m² 4,2 °C 9,4 °C 6,4 km/h (2 Bft)
20.10.2017 04:16 9,1 °C 9,4 °C 70 % 1013,2 hPa 0,0 mm 0,0 km/h (0 Bft) NW 304 ° 0 min 0,000 mm 0,0 UV-I 0 W/m² 3,9 °C 9,1 °C 0,0 km/h (0 Bft)
20.10.2017 04:17 8,8 °C 9,1 °C 72 % 1013,2 hPa 0,0 mm 0,0 km/h (0 Bft) NW 304 ° 0 min 0,000 mm 0,0 UV-I 0 W/m² 4,0 °C 8,8 °C 0,0 km/h (0 Bft)
20.10.2017 04:18 8,4 °C 8,8 °C 73 % 1013,2 hPa 0,0 mm 0,0 km/h (0 Bft) NW 304 ° 0 min 0,000 mm 0,0 UV-I 0 W/m² 3,8 °C 8,4 °C 0,0 km/h (0 Bft)
20.10.2017 04:19 8,3 °C 8,4 °C 73 % 1013,2 hPa 0,0 mm 0,0 km/h (0 Bft) NW 304 ° 0 min 0,000 mm 0,0 UV-I 0 W/m² 3,8 °C 8,3 °C 0,0 km/h (0 Bft)
20.10.2017 04:20 8,3 °C 8,3 °C 73 % 1013,2 hPa 0,0 mm 0,0 km/h (0 Bft) NW 304 ° 0 min 0,000 mm 0,0 UV-I 0 W/m² 3,8 °C 8,3 °C 0,0 km/h (0 Bft)
20.10.2017 04:21 8,2 °C 8,3 °C 74 % 1013,3 hPa 0,0 mm 0,0 km/h (0 Bft) NW 304 ° 0 min 0,000 mm 0,0 UV-I 0 W/m² 3,8 °C 8,2 °C 0,0 km/h (0 Bft)
20.10.2017 04:22 8,2 °C 8,2 °C 74 % 1013,2 hPa 0,0 mm 0,0 km/h (0 Bft) NW 304 ° 0 min 0,000 mm 0,0 UV-I 0 W/m² 3,8 °C 8,2 °C 0,0 km/h (0 Bft)
20.10.2017 04:23 8,2 °C 8,3 °C 74 % 1013,3 hPa 0,0 mm 0,0 km/h (0 Bft) NW 304 ° 0 min 0,000 mm 0,0 UV-I 0 W/m² 3,8 °C 8,2 °C 0,0 km/h (0 Bft)
20.10.2017 04:24 8,3 °C 8,3 °C 74 % 1013,3 hPa 0,0 mm 0,0 km/h (0 Bft) NW 304 ° 0 min 0,000 mm 0,0 UV-I 0 W/m² 3,9 °C 8,3 °C 0,0 km/h (0 Bft)
20.10.2017 04:25 8,2 °C 8,3 °C 74 % 1013,3 hPa 0,0 mm 0,0 km/h (0 Bft) NW 304 ° 0 min 0,000 mm 0,0 UV-I 0 W/m² 3,8 °C 8,2 °C 0,0 km/h (0 Bft)
20.10.2017 04:26 8,1 °C 8,2 °C 74 % 1013,3 hPa 0,0 mm 0,0 km/h (0 Bft) NW 304 ° 0 min 0,000 mm 0,0 UV-I 0 W/m² 3,8 °C 8,1 °C 0,0 km/h (0 Bft)
20.10.2017 04:27 8,1 °C 8,1 °C 75 % 1013,3 hPa 0,0 mm 0,0 km/h (0 Bft) NW 304 ° 0 min 0,000 mm 0,0 UV-I 0 W/m² 3,9 °C 8,1 °C 0,0 km/h (0 Bft)
20.10.2017 04:28 8,1 °C 8,1 °C 76 % 1013,2 hPa 0,0 mm 1,4 km/h (1 Bft) W 266 ° 0 min 0,000 mm 0,0 UV-I 0 W/m² 4,1 °C 8,1 °C 4,8 km/h (1 Bft)
20.10.2017 04:29 8,2 °C 8,2 °C 74 % 1013,3 hPa 0,0 mm 1,2 km/h (1 Bft) SW 217 ° 0 min 0,000 mm 0,0 UV-I 0 W/m² 3,8 °C 8,2 °C 3,2 km/h (1 Bft)
20.10.2017 04:30 8,4 °C 8,4 °C 73 % 1013,3 hPa 0,0 mm 0,1 km/h (0 Bft) SW 217 ° 0 min 0,000 mm 0,0 UV-I 0 W/m² 3,8 °C 8,4 °C 1,6 km/h (1 Bft)
20.10.2017 04:31 8,4 °C 8,4 °C 74 % 1013,3 hPa 0,0 mm 0,0 km/h (0 Bft) SW 217 ° 0 min 0,000 mm 0,0 UV-I 0 W/m² 4,0 °C 8,4 °C 0,0 km/h (0 Bft)
20.10.2017 04:32 8,1 °C 8,4 °C 74 % 1013,3 hPa 0,0 mm 0,0 km/h (0 Bft) SW 217 ° 0 min 0,000 mm 0,0 UV-I 0 W/m² 3,8 °C 8,1 °C 0,0 km/h (0 Bft)
20.10.2017 04:33 7,8 °C 8,1 °C 75 % 1013,3 hPa 0,0 mm 0,0 km/h (0 Bft) SW 217 ° 0 min 0,000 mm 0,0 UV-I 0 W/m² 3,7 °C 7,8 °C 0,0 km/h (0 Bft)
20.10.2017 04:34 7,6 °C 7,8 °C 76 % 1013,3 hPa 0,0 mm 0,0 km/h (0 Bft) SW 217 ° 0 min 0,000 mm 0,0 UV-I 0 W/m² 3,6 °C 7,6 °C 0,0 km/h (0 Bft)
20.10.2017 04:35 7,4 °C 7,6 °C 77 % 1013,3 hPa 0,0 mm 1,7 km/h (1 Bft) SW 218 ° 0 min 0,000 mm 0,0 UV-I 0 W/m² 3,6 °C 7,4 °C 6,4 km/h (2 Bft)
20.10.2017 04:36 7,3 °C 7,4 °C 78 % 1013,3 hPa 0,0 mm 0,0 km/h (0 Bft) SW 218 ° 0 min 0,000 mm 0,0 UV-I 0 W/m² 3,7 °C 7,3 °C 0,0 km/h (0 Bft)
20.10.2017 04:37 7,1 °C 7,3 °C 78 % 1013,3 hPa 0,0 mm 0,0 km/h (0 Bft) SW 218 ° 0 min 0,000 mm 0,0 UV-I 0 W/m² 3,5 °C 7,1 °C 0,0 km/h (0 Bft)
20.10.2017 04:38 6,9 °C 7,1 °C 79 % 1013,2 hPa 0,0 mm 0,0 km/h (0 Bft) SW 218 ° 0 min 0,000 mm 0,0 UV-I 0 W/m² 3,5 °C 6,9 °C 0,0 km/h (0 Bft)
20.10.2017 04:39 6,8 °C 6,9 °C 79 % 1013,3 hPa 0,0 mm 0,0 km/h (0 Bft) SW 218 ° 0 min 0,000 mm 0,0 UV-I 0 W/m² 3,4 °C 6,8 °C 0,0 km/h (0 Bft)
20.10.2017 04:40 6,7 °C 6,8 °C 80 % 1013,4 hPa 0,0 mm 0,3 km/h (0 Bft) SO 138 ° 0 min 0,000 mm 0,0 UV-I 0 W/m² 3,5 °C 6,7 °C 1,6 km/h (1 Bft)
20.10.2017 04:41 6,7 °C 6,7 °C 81 % 1013,4 hPa 0,0 mm 0,3 km/h (0 Bft) SO 139 ° 0 min 0,000 mm 0,0 UV-I 0 W/m² 3,7 °C 6,7 °C 1,6 km/h (1 Bft)
20.10.2017 04:42 6,7 °C 6,7 °C 81 % 1013,4 hPa 0,0 mm 0,1 km/h (0 Bft) SO 139 ° 0 min 0,000 mm 0,0 UV-I 0 W/m² 3,7 °C 6,7 °C 1,6 km/h (1 Bft)
20.10.2017 04:43 6,8 °C 6,8 °C 81 % 1013,4 hPa 0,0 mm 0,0 km/h (0 Bft) SO 139 ° 0 min 0,000 mm 0,0 UV-I 0 W/m² 3,8 °C 6,8 °C 0,0 km/h (0 Bft)
20.10.2017 04:44 6,9 °C 6,9 °C 80 % 1013,4 hPa 0,0 mm 0,0 km/h (0 Bft) SO 139 ° 0 min 0,000 mm 0,0 UV-I 0 W/m² 3,7 °C 6,9 °C 0,0 km/h (0 Bft)
20.10.2017 04:45 6,9 °C 6,9 °C 81 % 1013,4 hPa 0,0 mm 0,0 km/h (0 Bft) SO 139 ° 0 min 0,000 mm 0,0 UV-I 0 W/m² 3,9 °C 6,9 °C 0,0 km/h (0 Bft)
20.10.2017 04:46 6,9 °C 6,9 °C 80 % 1013,4 hPa 0,0 mm 0,0 km/h (0 Bft) SO 139 ° 0 min 0,000 mm 0,0 UV-I 0 W/m² 3,7 °C 6,9 °C 0,0 km/h (0 Bft)
20.10.2017 04:47 7,2 °C 7,2 °C 78 % 1013,4 hPa 0,0 mm 2,5 km/h (1 Bft) S-SW 194 ° 0 min 0,000 mm 0,0 UV-I 0 W/m² 3,6 °C 7,2 °C 6,4 km/h (2 Bft)
20.10.2017 04:48 7,6 °C 7,6 °C 78 % 1013,4 hPa 0,0 mm 4,5 km/h (1 Bft) S 190 ° 0 min 0,000 mm 0,0 UV-I 0 W/m² 4,0 °C 7,6 °C 6,4 km/h (2 Bft)
20.10.2017 04:49 7,9 °C 7,9 °C 77 % 1013,4 hPa 0,0 mm 1,5 km/h (1 Bft) S 190 ° 0 min 0,000 mm 0,0 UV-I 0 W/m² 4,1 °C 7,9 °C 3,2 km/h (1 Bft)
20.10.2017 04:50 8,2 °C 8,2 °C 76 % 1013,3 hPa 0,0 mm 1,5 km/h (1 Bft) S 190 ° 0 min 0,000 mm 0,0 UV-I 0 W/m² 4,2 °C 8,2 °C 3,2 km/h (1 Bft)
20.10.2017 04:51 8,4 °C 8,4 °C 76 % 1013,4 hPa 0,0 mm 1,9 km/h (1 Bft) S 190 ° 0 min 0,000 mm 0,0 UV-I 0 W/m² 4,4 °C 8,4 °C 4,8 km/h (1 Bft)
20.10.2017 04:52 8,6 °C 8,6 °C 75 % 1013,4 hPa 0,0 mm 0,0 km/h (0 Bft) S 190 ° 0 min 0,000 mm 0,0 UV-I 0 W/m² 4,4 °C 8,6 °C 0,0 km/h (0 Bft)
20.10.2017 04:53 8,6 °C 8,6 °C 76 % 1013,4 hPa 0,0 mm 0,0 km/h (0 Bft) S 190 ° 0 min 0,000 mm 0,0 UV-I 0 W/m² 4,6 °C 8,6 °C 0,0 km/h (0 Bft)
20.10.2017 04:54 8,5 °C 8,6 °C 75 % 1013,4 hPa 0,0 mm 1,2 km/h (1 Bft) S 189 ° 0 min 0,000 mm 0,0 UV-I 0 W/m² 4,3 °C 8,5 °C 3,2 km/h (1 Bft)
20.10.2017 04:55 8,4 °C 8,6 °C 75 % 1013,4 hPa 0,0 mm 1,1 km/h (1 Bft) S 188 ° 0 min 0,000 mm 0,0 UV-I 0 W/m² 4,2 °C 8,4 °C 4,8 km/h (1 Bft)
20.10.2017 04:56 8,2 °C 8,4 °C 76 % 1013,4 hPa 0,0 mm 0,0 km/h (0 Bft) S 188 ° 0 min 0,000 mm 0,0 UV-I 0 W/m² 4,2 °C 8,2 °C 0,0 km/h (0 Bft)
20.10.2017 04:57 8,0 °C 8,2 °C 76 % 1013,4 hPa 0,0 mm 0,0 km/h (0 Bft) S 188 ° 0 min 0,000 mm 0,0 UV-I 0 W/m² 4,0 °C 8,0 °C 0,0 km/h (0 Bft)
20.10.2017 04:58 7,8 °C 8,0 °C 76 % 1013,4 hPa 0,0 mm 0,0 km/h (0 Bft) S 188 ° 0 min 0,000 mm 0,0 UV-I 0 W/m² 3,8 °C 7,8 °C 0,0 km/h (0 Bft)
20.10.2017 04:59 7,8 °C 7,8 °C 77 % 1013,4 hPa 0,0 mm 1,8 km/h (1 Bft) S 188 ° 0 min 0,000 mm 0,0 UV-I 0 W/m² 4,0 °C 7,8 °C 3,2 km/h (1 Bft)
20.10.2017 05:00 7,8 °C 7,8 °C 77 % 1013,4 hPa 0,0 mm 1,5 km/h (1 Bft) S 188 ° 0 min 0,026 mm 0,0 UV-I 0 W/m² 4,0 °C 7,8 °C 3,2 km/h (1 Bft)
20.10.2017 05:01 7,9 °C 7,9 °C 78 % 1013,4 hPa 0,0 mm 0,0 km/h (0 Bft) S 188 ° 0 min 0,000 mm 0,0 UV-I 0 W/m² 4,3 °C 7,9 °C 0,0 km/h (0 Bft)
20.10.2017 05:02 8,1 °C 8,1 °C 77 % 1013,4 hPa 0,0 mm 0,0 km/h (0 Bft) S 188 ° 0 min 0,000 mm 0,0 UV-I 0 W/m² 4,3 °C 8,1 °C 0,0 km/h (0 Bft)
20.10.2017 05:03 8,1 °C 8,1 °C 77 % 1013,4 hPa 0,0 mm 0,0 km/h (0 Bft) S 189 ° 0 min 0,000 mm 0,0 UV-I 0 W/m² 4,3 °C 8,1 °C 0,0 km/h (0 Bft)
20.10.2017 05:04 8,0 °C 8,1 °C 77 % 1013,4 hPa 0,0 mm 0,0 km/h (0 Bft) S 188 ° 0 min 0,000 mm 0,0 UV-I 0 W/m² 4,2 °C 8,0 °C 0,0 km/h (0 Bft)
20.10.2017 05:05 7,9 °C 8,0 °C 76 % 1013,4 hPa 0,0 mm 1,3 km/h (1 Bft) S 188 ° 0 min 0,000 mm 0,0 UV-I 0 W/m² 3,9 °C 7,9 °C 3,2 km/h (1 Bft)
20.10.2017 05:06 7,9 °C 7,9 °C 76 % 1013,4 hPa 0,0 mm 3,8 km/h (1 Bft) S 184 ° 0 min 0,000 mm 0,0 UV-I 0 W/m² 3,9 °C 7,9 °C 4,8 km/h (1 Bft)
20.10.2017 05:07 8,0 °C 8,0 °C 76 % 1013,4 hPa 0,0 mm 1,2 km/h (1 Bft) S-SW 199 ° 0 min 0,000 mm 0,0 UV-I 0 W/m² 4,0 °C 8,0 °C 8,0 km/h (2 Bft)
20.10.2017 05:08 8,1 °C 8,1 °C 76 % 1013,4 hPa 0,0 mm 4,2 km/h (1 Bft) S-SW 201 ° 0 min 0,000 mm 0,0 UV-I 0 W/m² 4,1 °C 8,1 °C 8,0 km/h (2 Bft)
20.10.2017 05:09 8,2 °C 8,2 °C 77 % 1013,4 hPa 0,0 mm 0,0 km/h (0 Bft) S-SW 201 ° 0 min 0,000 mm 0,0 UV-I 0 W/m² 4,4 °C 8,2 °C 0,0 km/h (0 Bft)
20.10.2017 05:10 8,2 °C 8,3 °C 76 % 1013,4 hPa 0,0 mm 0,0 km/h (0 Bft) S-SW 201 ° 0 min 0,000 mm 0,0 UV-I 0 W/m² 4,2 °C 8,2 °C 0,0 km/h (0 Bft)
20.10.2017 05:11 8,1 °C 8,2 °C 76 % 1013,4 hPa 0,0 mm 0,0 km/h (0 Bft) S-SW 201 ° 0 min 0,000 mm 0,0 UV-I 0 W/m² 4,1 °C 8,1 °C 0,0 km/h (0 Bft)
20.10.2017 05:12 8,1 °C 8,2 °C 77 % 1013,4 hPa 0,0 mm 0,0 km/h (0 Bft) S-SW 201 ° 0 min 0,000 mm 0,0 UV-I 0 W/m² 4,3 °C 8,1 °C 0,0 km/h (0 Bft)
20.10.2017 05:13 8,1 °C 8,1 °C 76 % 1013,4 hPa 0,0 mm 0,0 km/h (0 Bft) S-SW 201 ° 0 min 0,000 mm 0,0 UV-I 0 W/m² 4,1 °C 8,1 °C 0,0 km/h (0 Bft)
20.10.2017 05:14 8,1 °C 8,1 °C 76 % 1013,4 hPa 0,0 mm 0,0 km/h (0 Bft) S-SW 201 ° 0 min 0,000 mm 0,0 UV-I 0 W/m² 4,1 °C 8,1 °C 0,0 km/h (0 Bft)
20.10.2017 05:15 8,1 °C 8,1 °C 75 % 1013,5 hPa 0,0 mm 0,0 km/h (0 Bft) S-SW 201 ° 0 min 0,000 mm 0,0 UV-I 0 W/m² 3,9 °C 8,1 °C 0,0 km/h (0 Bft)
20.10.2017 05:16 8,0 °C 8,1 °C 76 % 1013,5 hPa 0,0 mm 0,0 km/h (0 Bft) S-SW 201 ° 0 min 0,000 mm 0,0 UV-I 0 W/m² 4,0 °C 8,0 °C 0,0 km/h (0 Bft)
20.10.2017 05:17 7,9 °C 8,0 °C 76 % 1013,5 hPa 0,0 mm 0,0 km/h (0 Bft) S-SW 201 ° 0 min 0,000 mm 0,0 UV-I 0 W/m² 3,9 °C 7,9 °C 0,0 km/h (0 Bft)
20.10.2017 05:18 7,9 °C 7,9 °C 76 % 1013,5 hPa 0,0 mm 0,0 km/h (0 Bft) S-SW 201 ° 0 min 0,000 mm 0,0 UV-I 0 W/m² 3,9 °C 7,9 °C 0,0 km/h (0 Bft)
20.10.2017 05:19 8,1 °C 8,1 °C 75 % 1013,5 hPa 0,0 mm 0,0 km/h (0 Bft) S-SW 201 ° 0 min 0,000 mm 0,0 UV-I 0 W/m² 3,9 °C 8,1 °C 0,0 km/h (0 Bft)
20.10.2017 05:20 8,2 °C 8,2 °C 76 % 1013,5 hPa 0,0 mm 0,0 km/h (0 Bft) S-SW 201 ° 0 min 0,000 mm 0,0 UV-I 0 W/m² 4,2 °C 8,2 °C 0,0 km/h (0 Bft)
20.10.2017 05:21 8,2 °C 8,2 °C 76 % 1013,5 hPa 0,0 mm 0,0 km/h (0 Bft) S-SW 201 ° 0 min 0,000 mm 0,0 UV-I 0 W/m² 4,2 °C 8,2 °C 0,0 km/h (0 Bft)
20.10.2017 05:22 8,1 °C 8,2 °C 76 % 1013,6 hPa 0,0 mm 0,0 km/h (0 Bft) S-SW 201 ° 0 min 0,000 mm 0,0 UV-I 0 W/m² 4,1 °C 8,1 °C 0,0 km/h (0 Bft)
20.10.2017 05:23 7,9 °C 8,1 °C 77 % 1013,6 hPa 0,0 mm 0,0 km/h (0 Bft) S-SW 201 ° 0 min 0,000 mm 0,0 UV-I 0 W/m² 4,1 °C 7,9 °C 0,0 km/h (0 Bft)
20.10.2017 05:24 7,8 °C 7,9 °C 77 % 1013,6 hPa 0,0 mm 0,0 km/h (0 Bft) S-SW 201 ° 0 min 0,000 mm 0,0 UV-I 0 W/m² 4,0 °C 7,8 °C 0,0 km/h (0 Bft)
20.10.2017 05:25 7,7 °C 7,8 °C 77 % 1013,7 hPa 0,0 mm 0,0 km/h (0 Bft) S-SW 201 ° 0 min 0,000 mm 0,0 UV-I 0 W/m² 3,9 °C 7,7 °C 0,0 km/h (0 Bft)
20.10.2017 05:26 7,7 °C 7,7 °C 77 % 1013,7 hPa 0,0 mm 0,0 km/h (0 Bft) S-SW 201 ° 0 min 0,000 mm 0,0 UV-I 0 W/m² 3,9 °C 7,7 °C 0,0 km/h (0 Bft)
20.10.2017 05:27 7,7 °C 7,7 °C 78 % 1013,6 hPa 0,0 mm 0,5 km/h (0 Bft) S-SW 202 ° 0 min 0,000 mm 0,0 UV-I 0 W/m² 4,1 °C 7,7 °C 3,2 km/h (1 Bft)
20.10.2017 05:28 7,7 °C 7,7 °C 78 % 1013,7 hPa 0,0 mm 0,0 km/h (0 Bft) S-SW 202 ° 0 min 0,000 mm 0,0 UV-I 0 W/m² 4,1 °C 7,7 °C 0,0 km/h (0 Bft)
20.10.2017 05:29 7,7 °C 7,7 °C 78 % 1013,7 hPa 0,0 mm 0,0 km/h (0 Bft) S-SW 202 ° 0 min 0,000 mm 0,0 UV-I 0 W/m² 4,1 °C 7,7 °C 0,0 km/h (0 Bft)
20.10.2017 05:30 7,6 °C 7,7 °C 78 % 1013,8 hPa 0,0 mm 0,0 km/h (0 Bft) S-SW 202 ° 0 min 0,000 mm 0,0 UV-I 0 W/m² 4,0 °C 7,6 °C 0,0 km/h (0 Bft)
20.10.2017 05:31 7,5 °C 7,6 °C 79 % 1013,7 hPa 0,0 mm 0,0 km/h (0 Bft) S-SW 202 ° 0 min 0,000 mm 0,0 UV-I 0 W/m² 4,1 °C 7,5 °C 0,0 km/h (0 Bft)
20.10.2017 05:32 7,4 °C 7,5 °C 79 % 1013,7 hPa 0,0 mm 0,0 km/h (0 Bft) S-SW 202 ° 0 min 0,000 mm 0,0 UV-I 0 W/m² 4,0 °C 7,4 °C 0,0 km/h (0 Bft)
20.10.2017 05:33 7,4 °C 7,4 °C 79 % 1013,8 hPa 0,0 mm 0,0 km/h (0 Bft) S-SW 202 ° 0 min 0,000 mm 0,0 UV-I 0 W/m² 4,0 °C 7,4 °C 0,0 km/h (0 Bft)
20.10.2017 05:34 7,5 °C 7,5 °C 79 % 1013,9 hPa 0,0 mm 0,3 km/h (0 Bft) SW 215 ° 0 min 0,000 mm 0,0 UV-I 0 W/m² 4,1 °C 7,5 °C 1,6 km/h (1 Bft)
20.10.2017 05:35 7,4 °C 7,5 °C 79 % 1013,9 hPa 0,0 mm 0,0 km/h (0 Bft) SW 215 ° 0 min 0,000 mm 0,0 UV-I 0 W/m² 4,0 °C 7,4 °C 0,0 km/h (0 Bft)
20.10.2017 05:36 7,4 °C 7,4 °C 79 % 1013,9 hPa 0,0 mm 0,0 km/h (0 Bft) SW 215 ° 0 min 0,000 mm 0,0 UV-I 0 W/m² 4,0 °C 7,4 °C 0,0 km/h (0 Bft)
20.10.2017 05:37 7,3 °C 7,4 °C 79 % 1013,9 hPa 0,0 mm 0,1 km/h (0 Bft) SW 215 ° 0 min 0,000 mm 0,0 UV-I 0 W/m² 3,9 °C 7,3 °C 3,2 km/h (1 Bft)
20.10.2017 05:38 7,3 °C 7,3 °C 79 % 1013,8 hPa 0,0 mm 0,7 km/h (0 Bft) SW 215 ° 0 min 0,000 mm 0,0 UV-I 0 W/m² 3,9 °C 7,3 °C 3,2 km/h (1 Bft)
20.10.2017 05:39 7,3 °C 7,3 °C 80 % 1013,9 hPa 0,0 mm 0,0 km/h (0 Bft) SW 215 ° 0 min 0,000 mm 0,0 UV-I 0 W/m² 4,1 °C 7,3 °C 0,0 km/h (0 Bft)
20.10.2017 05:40 7,2 °C 7,3 °C 80 % 1013,9 hPa 0,0 mm 0,3 km/h (0 Bft) SW 215 ° 0 min 0,000 mm 0,0 UV-I 0 W/m² 4,0 °C 7,2 °C 1,6 km/h (1 Bft)
20.10.2017 05:41 7,2 °C 7,2 °C 80 % 1013,9 hPa 0,0 mm 0,5 km/h (0 Bft) SW 215 ° 0 min 0,000 mm 0,0 UV-I 0 W/m² 4,0 °C 7,2 °C 1,6 km/h (1 Bft)
20.10.2017 05:42 7,1 °C 7,2 °C 81 % 1013,8 hPa 0,0 mm 0,0 km/h (0 Bft) SW 215 ° 0 min 0,000 mm 0,0 UV-I 0 W/m² 4,1 °C 7,1 °C 0,0 km/h (0 Bft)
20.10.2017 05:43 7,0 °C 7,1 °C 81 % 1013,9 hPa 0,0 mm 0,0 km/h (0 Bft) SW 215 ° 0 min 0,000 mm 0,0 UV-I 0 W/m² 4,0 °C 7,0 °C 0,0 km/h (0 Bft)
20.10.2017 05:44 7,0 °C 7,0 °C 81 % 1013,9 hPa 0,0 mm 0,0 km/h (0 Bft) SW 215 ° 0 min 0,000 mm 0,0 UV-I 0 W/m² 4,0 °C 7,0 °C 0,0 km/h (0 Bft)
20.10.2017 05:45 7,0 °C 7,0 °C 81 % 1013,9 hPa 0,0 mm 0,0 km/h (0 Bft) SW 215 ° 0 min 0,000 mm 0,0 UV-I 0 W/m² 4,0 °C 7,0 °C 0,0 km/h (0 Bft)
20.10.2017 05:46 7,1 °C 7,1 °C 81 % 1013,8 hPa 0,0 mm 0,0 km/h (0 Bft) SW 215 ° 0 min 0,000 mm 0,0 UV-I 0 W/m² 4,1 °C 7,1 °C 0,0 km/h (0 Bft)
20.10.2017 05:47 7,1 °C 7,1 °C 80 % 1013,8 hPa 0,0 mm 0,0 km/h (0 Bft) SW 215 ° 0 min 0,000 mm 0,0 UV-I 0 W/m² 3,9 °C 7,1 °C 0,0 km/h (0 Bft)
20.10.2017 05:48 7,1 °C 7,1 °C 80 % 1013,9 hPa 0,0 mm 0,0 km/h (0 Bft) SW 215 ° 0 min 0,000 mm 0,0 UV-I 0 W/m² 3,9 °C 7,1 °C 0,0 km/h (0 Bft)
20.10.2017 05:49 7,1 °C 7,2 °C 80 % 1013,9 hPa 0,0 mm 0,0 km/h (0 Bft) SW 215 ° 0 min 0,000 mm 0,0 UV-I 0 W/m² 3,9 °C 7,1 °C 0,0 km/h (0 Bft)
20.10.2017 05:50 7,1 °C 7,1 °C 81 % 1013,9 hPa 0,0 mm 0,0 km/h (0 Bft) SW 215 ° 0 min 0,000 mm 0,0 UV-I 0 W/m² 4,1 °C 7,1 °C 0,0 km/h (0 Bft)
20.10.2017 05:51 7,1 °C 7,1 °C 81 % 1013,9 hPa 0,0 mm 0,0 km/h (0 Bft) SW 215 ° 0 min 0,000 mm 0,0 UV-I 0 W/m² 4,1 °C 7,1 °C 0,0 km/h (0 Bft)
20.10.2017 05:52 7,1 °C 7,1 °C 81 % 1013,9 hPa 0,0 mm 0,0 km/h (0 Bft) SW 215 ° 0 min 0,000 mm 0,0 UV-I 0 W/m² 4,1 °C 7,1 °C 0,0 km/h (0 Bft)
20.10.2017 05:53 7,1 °C 7,1 °C 81 % 1014,0 hPa 0,0 mm 0,0 km/h (0 Bft) SW 215 ° 0 min 0,000 mm 0,0 UV-I 0 W/m² 4,1 °C 7,1 °C 0,0 km/h (0 Bft)
20.10.2017 05:54 7,2 °C 7,2 °C 81 % 1013,9 hPa 0,0 mm 0,0 km/h (0 Bft) SW 215 ° 0 min 0,000 mm 0,0 UV-I 0 W/m² 4,2 °C 7,2 °C 0,0 km/h (0 Bft)
20.10.2017 05:55 7,4 °C 7,4 °C 81 % 1013,9 hPa 0,0 mm 0,0 km/h (0 Bft) SW 215 ° 0 min 0,000 mm 0,0 UV-I 0 W/m² 4,4 °C 7,4 °C 0,0 km/h (0 Bft)
20.10.2017 05:56 7,4 °C 7,4 °C 80 % 1013,8 hPa 0,0 mm 0,0 km/h (0 Bft) SW 215 ° 0 min 0,000 mm 0,0 UV-I 0 W/m² 4,2 °C 7,4 °C 0,0 km/h (0 Bft)
20.10.2017 05:57 7,4 °C 7,4 °C 80 % 1013,8 hPa 0,0 mm 0,0 km/h (0 Bft) SW 215 ° 0 min 0,000 mm 0,0 UV-I 0 W/m² 4,2 °C 7,4 °C 0,0 km/h (0 Bft)
20.10.2017 05:58 7,3 °C 7,4 °C 80 % 1013,9 hPa 0,0 mm 0,0 km/h (0 Bft) SW 215 ° 0 min 0,000 mm 0,0 UV-I 0 W/m² 4,1 °C 7,3 °C 0,0 km/h (0 Bft)
20.10.2017 05:59 7,3 °C 7,3 °C 80 % 1013,9 hPa 0,0 mm 0,0 km/h (0 Bft) SW 215 ° 0 min 0,000 mm 0,0 UV-I 0 W/m² 4,1 °C 7,3 °C 0,0 km/h (0 Bft)
20.10.2017 06:00 7,3 °C 7,3 °C 80 % 1013,8 hPa 0,0 mm 0,0 km/h (0 Bft) SW 215 ° 0 min 0,025 mm 0,0 UV-I 0 W/m² 4,1 °C 7,3 °C 0,0 km/h (0 Bft)
20.10.2017 06:01 7,3 °C 7,4 °C 80 % 1013,9 hPa 0,0 mm 0,0 km/h (0 Bft) SW 215 ° 0 min 0,000 mm 0,0 UV-I 0 W/m² 4,1 °C 7,3 °C 0,0 km/h (0 Bft)
20.10.2017 06:02 7,3 °C 7,4 °C 80 % 1013,9 hPa 0,0 mm 0,0 km/h (0 Bft) SW 215 ° 0 min 0,000 mm 0,0 UV-I 0 W/m² 4,1 °C 7,3 °C 0,0 km/h (0 Bft)
20.10.2017 06:03 7,4 °C 7,4 °C 80 % 1013,8 hPa 0,0 mm 0,0 km/h (0 Bft) SW 215 ° 0 min 0,000 mm 0,0 UV-I 0 W/m² 4,2 °C 7,4 °C 0,0 km/h (0 Bft)
20.10.2017 06:04 7,4 °C 7,4 °C 80 % 1013,9 hPa 0,0 mm 0,0 km/h (0 Bft) SW 215 ° 0 min 0,000 mm 0,0 UV-I 0 W/m² 4,2 °C 7,4 °C 0,0 km/h (0 Bft)
20.10.2017 06:05 7,3 °C 7,4 °C 80 % 1013,9 hPa 0,0 mm 0,0 km/h (0 Bft) SW 215 ° 0 min 0,000 mm 0,0 UV-I 0 W/m² 4,1 °C 7,3 °C 0,0 km/h (0 Bft)
20.10.2017 06:06 7,2 °C 7,3 °C 80 % 1013,9 hPa 0,0 mm 0,0 km/h (0 Bft) SW 215 ° 0 min 0,000 mm 0,0 UV-I 0 W/m² 4,0 °C 7,2 °C 0,0 km/h (0 Bft)
20.10.2017 06:07 7,1 °C 7,2 °C 80 % 1013,9 hPa 0,0 mm 0,0 km/h (0 Bft) SW 215 ° 0 min 0,000 mm 0,0 UV-I 0 W/m² 3,9 °C 7,1 °C 0,0 km/h (0 Bft)
20.10.2017 06:08 7,1 °C 7,1 °C 81 % 1013,9 hPa 0,0 mm 0,0 km/h (0 Bft) SW 215 ° 0 min 0,000 mm 0,0 UV-I 0 W/m² 4,1 °C 7,1 °C 0,0 km/h (0 Bft)
20.10.2017 06:09 7,0 °C 7,1 °C 81 % 1013,9 hPa 0,0 mm 0,0 km/h (0 Bft) SW 215 ° 0 min 0,000 mm 0,0 UV-I 0 W/m² 4,0 °C 7,0 °C 0,0 km/h (0 Bft)
20.10.2017 06:10 6,9 °C 7,0 °C 81 % 1013,9 hPa 0,0 mm 0,0 km/h (0 Bft) SW 215 ° 0 min 0,000 mm 0,0 UV-I 0 W/m² 3,9 °C 6,9 °C 0,0 km/h (0 Bft)
20.10.2017 06:11 6,9 °C 6,9 °C 81 % 1013,9 hPa 0,0 mm 1,7 km/h (1 Bft) S-SW 213 ° 0 min 0,000 mm 0,0 UV-I 0 W/m² 3,9 °C 6,9 °C 4,8 km/h (1 Bft)
20.10.2017 06:12 6,9 °C 6,9 °C 81 % 1013,9 hPa 0,0 mm 0,6 km/h (0 Bft) S-SW 213 ° 0 min 0,000 mm 0,0 UV-I 0 W/m² 3,9 °C 6,9 °C 1,6 km/h (1 Bft)
20.10.2017 06:13 7,1 °C 7,1 °C 81 % 1013,9 hPa 0,0 mm 1,1 km/h (1 Bft) SW 214 ° 0 min 0,000 mm 0,0 UV-I 0 W/m² 4,1 °C 7,1 °C 4,8 km/h (1 Bft)
20.10.2017 06:14 7,2 °C 7,2 °C 80 % 1013,9 hPa 0,0 mm 5,5 km/h (1 Bft) S 181 ° 0 min 0,000 mm 0,0 UV-I 0 W/m² 4,0 °C 6,4 °C 8,0 km/h (2 Bft)
20.10.2017 06:15 7,3 °C 7,3 °C 80 % 1013,8 hPa 0,0 mm 2,3 km/h (1 Bft) SO 146 ° 0 min 0,000 mm 0,0 UV-I 0 W/m² 4,1 °C 7,3 °C 6,4 km/h (2 Bft)
20.10.2017 06:16 7,4 °C 7,4 °C 80 % 1013,9 hPa 0,0 mm 0,0 km/h (0 Bft) SO 146 ° 0 min 0,000 mm 0,0 UV-I 0 W/m² 4,2 °C 7,4 °C 0,0 km/h (0 Bft)
20.10.2017 06:17 7,3 °C 7,4 °C 79 % 1013,9 hPa 0,0 mm 0,0 km/h (0 Bft) SO 146 ° 0 min 0,000 mm 0,0 UV-I 0 W/m² 3,9 °C 7,3 °C 0,0 km/h (0 Bft)
20.10.2017 06:18 7,2 °C 7,3 °C 79 % 1013,9 hPa 0,0 mm 0,0 km/h (0 Bft) SO 146 ° 0 min 0,000 mm 0,0 UV-I 0 W/m² 3,8 °C 7,2 °C 0,0 km/h (0 Bft)
20.10.2017 06:19 7,1 °C 7,2 °C 80 % 1013,9 hPa 0,0 mm 0,7 km/h (0 Bft) SO 146 ° 0 min 0,000 mm 0,0 UV-I 0 W/m² 3,9 °C 7,1 °C 3,2 km/h (1 Bft)
20.10.2017 06:20 6,9 °C 7,1 °C 81 % 1013,9 hPa 0,0 mm 0,3 km/h (0 Bft) SO 146 ° 0 min 0,000 mm 0,0 UV-I 0 W/m² 3,9 °C 6,9 °C 1,6 km/h (1 Bft)
20.10.2017 06:21 6,8 °C 6,9 °C 82 % 1014,0 hPa 0,0 mm 0,0 km/h (0 Bft) SO 146 ° 0 min 0,000 mm 0,0 UV-I 0 W/m² 3,9 °C 6,8 °C 0,0 km/h (0 Bft)
20.10.2017 06:22 6,7 °C 6,8 °C 82 % 1013,9 hPa 0,0 mm 1,3 km/h (1 Bft) SO 146 ° 0 min 0,000 mm 0,0 UV-I 0 W/m² 3,8 °C 6,7 °C 3,2 km/h (1 Bft)
20.10.2017 06:23 6,7 °C 6,7 °C 83 % 1014,0 hPa 0,0 mm 0,2 km/h (0 Bft) SO 146 ° 0 min 0,000 mm 0,0 UV-I 0 W/m² 4,0 °C 6,7 °C 1,6 km/h (1 Bft)
20.10.2017 06:24 6,8 °C 6,8 °C 82 % 1014,0 hPa 0,0 mm 4,5 km/h (1 Bft) S-SW 206 ° 0 min 0,000 mm 0,0 UV-I 0 W/m² 3,9 °C 6,8 °C 6,4 km/h (2 Bft)
20.10.2017 06:25 7,0 °C 7,0 °C 81 % 1014,0 hPa 0,0 mm 3,4 km/h (1 Bft) S-SW 205 ° 0 min 0,000 mm 0,0 UV-I 0 W/m² 4,0 °C 7,0 °C 4,8 km/h (1 Bft)
20.10.2017 06:26 7,1 °C 7,1 °C 80 % 1014,0 hPa 0,0 mm 3,2 km/h (1 Bft) S-SW 205 ° 0 min 0,000 mm 0,0 UV-I 0 W/m² 3,9 °C 7,1 °C 3,2 km/h (1 Bft)
20.10.2017 06:27 7,4 °C 7,4 °C 79 % 1014,0 hPa 0,0 mm 4,8 km/h (1 Bft) S 180 ° 0 min 0,000 mm 0,0 UV-I 0 W/m² 4,0 °C 6,9 °C 8,0 km/h (2 Bft)
20.10.2017 06:28 7,6 °C 7,6 °C 78 % 1014,0 hPa 0,0 mm 3,2 km/h (1 Bft) S-SO 157 ° 0 min 0,000 mm 0,0 UV-I 0 W/m² 4,0 °C 7,6 °C 6,4 km/h (2 Bft)
20.10.2017 06:29 7,8 °C 7,8 °C 77 % 1014,0 hPa 0,0 mm 3,2 km/h (1 Bft) W-NW 292 ° 0 min 0,000 mm 0,0 UV-I 0 W/m² 4,0 °C 7,8 °C 6,4 km/h (2 Bft)
20.10.2017 06:30 7,8 °C 7,8 °C 78 % 1014,0 hPa 0,0 mm 1,6 km/h (1 Bft) W-NW 292 ° 0 min 0,000 mm 0,0 UV-I 0 W/m² 4,2 °C 7,8 °C 3,2 km/h (1 Bft)
20.10.2017 06:31 7,7 °C 7,8 °C 77 % 1014,0 hPa 0,0 mm 1,6 km/h (1 Bft) S 180 ° 0 min 0,000 mm 0,0 UV-I 0 W/m² 3,9 °C 7,7 °C 4,8 km/h (1 Bft)
20.10.2017 06:32 7,6 °C 7,7 °C 78 % 1014,1 hPa 0,0 mm 0,0 km/h (0 Bft) S 180 ° 0 min 0,000 mm 0,0 UV-I 0 W/m² 4,0 °C 7,6 °C 1,6 km/h (1 Bft)
20.10.2017 06:33 7,4 °C 7,6 °C 79 % 1014,1 hPa 0,0 mm 0,0 km/h (0 Bft) N 0 ° 0 min 0,000 mm 0,0 UV-I 0 W/m² 4,0 °C 7,4 °C 0,0 km/h (0 Bft)
20.10.2017 06:34 7,3 °C 7,3 °C 79 % 1014,0 hPa 0,0 mm 1,6 km/h (1 Bft) S-SO 157 ° 0 min 0,000 mm 0,0 UV-I 0 W/m² 3,9 °C 7,3 °C 3,2 km/h (1 Bft)
20.10.2017 06:35 7,2 °C 7,3 °C 80 % 1014,0 hPa 0,0 mm 0,0 km/h (0 Bft) N 0 ° 0 min 0,000 mm 0,0 UV-I 0 W/m² 4,0 °C 7,2 °C 0,0 km/h (0 Bft)
20.10.2017 06:39 7,5 °C 7,5 °C 80 % 1014,0 hPa 0,0 mm 0,2 km/h (0 Bft) SW 224 ° 0 min 0,000 mm 0,0 UV-I 0 W/m² 4,3 °C 7,5 °C 1,6 km/h (1 Bft)
20.10.2017 06:40 7,5 °C 7,5 °C 79 % 1014,0 hPa 0,0 mm 3,1 km/h (1 Bft) SW 224 ° 0 min 0,000 mm 0,0 UV-I 0 W/m² 4,1 °C 7,5 °C 4,8 km/h (1 Bft)
20.10.2017 06:41 7,4 °C 7,5 °C 79 % 1014,0 hPa 0,0 mm 3,9 km/h (1 Bft) S-SW 201 ° 0 min 0,000 mm 0,0 UV-I 0 W/m² 4,0 °C 7,4 °C 9,7 km/h (2 Bft)
20.10.2017 06:42 7,4 °C 7,4 °C 79 % 1014,0 hPa 0,0 mm 3,9 km/h (1 Bft) S-SW 209 ° 0 min 0,000 mm 0,0 UV-I 0 W/m² 4,0 °C 7,4 °C 6,4 km/h (2 Bft)
20.10.2017 06:43 7,3 °C 7,4 °C 79 % 1014,0 hPa 0,0 mm 3,0 km/h (1 Bft) S-SW 208 ° 0 min 0,000 mm 0,0 UV-I 0 W/m² 3,9 °C 7,3 °C 6,4 km/h (2 Bft)
20.10.2017 06:44 7,3 °C 7,4 °C 80 % 1014,0 hPa 0,0 mm 2,1 km/h (1 Bft) S-SW 208 ° 0 min 0,000 mm 0,0 UV-I 0 W/m² 4,1 °C 7,3 °C 3,2 km/h (1 Bft)
20.10.2017 06:45 7,4 °C 7,4 °C 79 % 1014,0 hPa 0,0 mm 1,7 km/h (1 Bft) S-SW 208 ° 0 min 0,000 mm 0,0 UV-I 0 W/m² 4,0 °C 7,4 °C 3,2 km/h (1 Bft)
20.10.2017 06:46 7,7 °C 7,7 °C 78 % 1014,0 hPa 0,0 mm 1,0 km/h (0 Bft) S-SW 208 ° 0 min 0,000 mm 0,0 UV-I 0 W/m² 4,1 °C 7,7 °C 3,2 km/h (1 Bft)
20.10.2017 06:47 7,8 °C 7,8 °C 78 % 1014,0 hPa 0,0 mm 0,4 km/h (0 Bft) S-SW 208 ° 0 min 0,000 mm 0,0 UV-I 0 W/m² 4,2 °C 7,8 °C 1,6 km/h (1 Bft)
20.10.2017 06:48 7,8 °C 7,8 °C 78 % 1014,0 hPa 0,0 mm 0,0 km/h (0 Bft) S-SW 208 ° 0 min 0,000 mm 0,0 UV-I 0 W/m² 4,2 °C 7,8 °C 0,0 km/h (0 Bft)
20.10.2017 06:49 7,8 °C 7,9 °C 77 % 1014,1 hPa 0,0 mm 0,2 km/h (0 Bft) S-SW 209 ° 0 min 0,000 mm 0,0 UV-I 0 W/m² 4,0 °C 7,8 °C 1,6 km/h (1 Bft)
20.10.2017 06:50 7,8 °C 7,8 °C 78 % 1014,1 hPa 0,0 mm 1,5 km/h (1 Bft) SW 229 ° 0 min 0,000 mm 0,0 UV-I 0 W/m² 4,2 °C 7,8 °C 3,2 km/h (1 Bft)
20.10.2017 06:51 7,6 °C 7,8 °C 78 % 1014,1 hPa 0,0 mm 0,0 km/h (0 Bft) SW 229 ° 0 min 0,000 mm 0,0 UV-I 0 W/m² 4,0 °C 7,6 °C 0,0 km/h (0 Bft)
20.10.2017 06:52 7,5 °C 7,6 °C 79 % 1014,1 hPa 0,0 mm 5,7 km/h (1 Bft) S-SW 200 ° 0 min 0,000 mm 0,0 UV-I 0 W/m² 4,1 °C 6,7 °C 9,7 km/h (2 Bft)
20.10.2017 06:53 7,5 °C 7,5 °C 79 % 1014,1 hPa 0,0 mm 2,3 km/h (1 Bft) S-SW 200 ° 0 min 0,000 mm 0,0 UV-I 0 W/m² 4,1 °C 7,5 °C 4,8 km/h (1 Bft)
20.10.2017 06:54 7,7 °C 7,7 °C 78 % 1014,1 hPa 0,0 mm 3,9 km/h (1 Bft) S-SW 200 ° 0 min 0,000 mm 0,0 UV-I 0 W/m² 4,1 °C 7,7 °C 4,8 km/h (1 Bft)
20.10.2017 06:55 7,8 °C 7,8 °C 77 % 1014,1 hPa 0,0 mm 3,5 km/h (1 Bft) S-SW 200 ° 0 min 0,000 mm 0,0 UV-I 0 W/m² 4,0 °C 7,8 °C 4,8 km/h (1 Bft)
20.10.2017 06:56 7,9 °C 7,9 °C 76 % 1014,1 hPa 0,0 mm 4,0 km/h (1 Bft) S-SW 200 ° 0 min 0,000 mm 0,0 UV-I 0 W/m² 3,9 °C 7,9 °C 4,8 km/h (1 Bft)
20.10.2017 06:57 8,1 °C 8,1 °C 75 % 1014,1 hPa 0,0 mm 2,4 km/h (1 Bft) S-SW 200 ° 0 min 0,000 mm 0,0 UV-I 0 W/m² 3,9 °C 8,1 °C 4,8 km/h (1 Bft)
20.10.2017 06:58 8,1 °C 8,1 °C 76 % 1014,1 hPa 0,0 mm 0,4 km/h (0 Bft) S-SW 200 ° 0 min 0,000 mm 0,0 UV-I 0 W/m² 4,1 °C 8,1 °C 1,6 km/h (1 Bft)
20.10.2017 06:59 7,8 °C 8,1 °C 77 % 1014,1 hPa 0,0 mm 0,0 km/h (0 Bft) S-SW 200 ° 0 min 0,000 mm 0,0 UV-I 0 W/m² 4,0 °C 7,8 °C 0,0 km/h (0 Bft)
20.10.2017 07:00 7,4 °C 7,8 °C 77 % 1014,1 hPa 0,0 mm 0,0 km/h (0 Bft) S-SW 200 ° 0 min 0,026 mm 0,0 UV-I 0 W/m² 3,6 °C 7,4 °C 0,0 km/h (0 Bft)
20.10.2017 07:01 7,2 °C 7,4 °C 79 % 1014,1 hPa 0,0 mm 0,0 km/h (0 Bft) S-SW 200 ° 0 min 0,000 mm 0,0 UV-I 0 W/m² 3,8 °C 7,2 °C 0,0 km/h (0 Bft)
20.10.2017 07:02 7,1 °C 7,2 °C 79 % 1014,1 hPa 0,0 mm 0,0 km/h (0 Bft) S-SW 200 ° 0 min 0,000 mm 0,0 UV-I 0 W/m² 3,7 °C 7,1 °C 0,0 km/h (0 Bft)
20.10.2017 07:03 6,9 °C 7,1 °C 80 % 1014,1 hPa 0,0 mm 0,0 km/h (0 Bft) S-SW 200 ° 0 min 0,000 mm 0,0 UV-I 0 W/m² 3,7 °C 6,9 °C 0,0 km/h (0 Bft)
20.10.2017 07:04 6,8 °C 6,9 °C 80 % 1014,1 hPa 0,0 mm 0,0 km/h (0 Bft) S-SW 200 ° 0 min 0,000 mm 0,0 UV-I 0 W/m² 3,6 °C 6,8 °C 0,0 km/h (0 Bft)
20.10.2017 07:05 6,8 °C 6,8 °C 81 % 1014,1 hPa 0,0 mm 0,0 km/h (0 Bft) S-SW 200 ° 0 min 0,000 mm 0,0 UV-I 0 W/m² 3,8 °C 6,8 °C 0,0 km/h (0 Bft)
20.10.2017 07:06 6,8 °C 6,8 °C 81 % 1014,0 hPa 0,0 mm 0,0 km/h (0 Bft) S-SW 200 ° 0 min 0,000 mm 0,0 UV-I 0 W/m² 3,8 °C 6,8 °C 0,0 km/h (0 Bft)
20.10.2017 07:07 6,8 °C 6,8 °C 81 % 1014,1 hPa 0,0 mm 0,0 km/h (0 Bft) S-SW 200 ° 0 min 0,000 mm 0,0 UV-I 0 W/m² 3,8 °C 6,8 °C 0,0 km/h (0 Bft)
20.10.2017 07:08 6,8 °C 6,8 °C 81 % 1014,0 hPa 0,0 mm 0,0 km/h (0 Bft) S-SW 200 ° 0 min 0,000 mm 0,0 UV-I 0 W/m² 3,8 °C 6,8 °C 0,0 km/h (0 Bft)
20.10.2017 07:09 6,8 °C 6,8 °C 81 % 1014,0 hPa 0,0 mm 0,0 km/h (0 Bft) S-SW 200 ° 0 min 0,000 mm 0,0 UV-I 0 W/m² 3,8 °C 6,8 °C 0,0 km/h (0 Bft)
20.10.2017 07:10 6,8 °C 6,8 °C 81 % 1014,0 hPa 0,0 mm 0,0 km/h (0 Bft) S-SW 200 ° 0 min 0,000 mm 0,0 UV-I 0 W/m² 3,8 °C 6,8 °C 0,0 km/h (0 Bft)
20.10.2017 07:11 6,7 °C 6,8 °C 81 % 1014,0 hPa 0,0 mm 0,0 km/h (0 Bft) S-SW 200 ° 0 min 0,000 mm 0,0 UV-I 0 W/m² 3,7 °C 6,7 °C 0,0 km/h (0 Bft)
20.10.2017 07:12 6,7 °C 6,7 °C 81 % 1014,0 hPa 0,0 mm 0,0 km/h (0 Bft) S-SW 200 ° 0 min 0,000 mm 0,0 UV-I 0 W/m² 3,7 °C 6,7 °C 0,0 km/h (0 Bft)
20.10.2017 07:14 6,6 °C 6,7 °C 81 % 1014,1 hPa 0,0 mm 0,1 km/h (0 Bft) S-SW 200 ° 0 min 0,000 mm 0,0 UV-I 0 W/m² 3,6 °C 6,6 °C 1,6 km/h (1 Bft)
20.10.2017 07:15 6,5 °C 6,6 °C 81 % 1014,1 hPa 0,0 mm 0,2 km/h (0 Bft) S-SW 200 ° 0 min 0,000 mm 0,0 UV-I 0 W/m² 3,5 °C 6,5 °C 1,6 km/h (1 Bft)
20.10.2017 07:16 6,3 °C 6,5 °C 82 % 1014,1 hPa 0,0 mm 0,0 km/h (0 Bft) S-SW 200 ° 0 min 0,000 mm 0,0 UV-I 0 W/m² 3,5 °C 6,3 °C 0,0 km/h (0 Bft)
20.10.2017 07:17 6,3 °C 6,3 °C 82 % 1014,1 hPa 0,0 mm 0,0 km/h (0 Bft) S-SW 200 ° 0 min 0,000 mm 0,0 UV-I 0 W/m² 3,5 °C 6,3 °C 0,0 km/h (0 Bft)
20.10.2017 07:18 6,3 °C 6,3 °C 83 % 1014,1 hPa 0,0 mm 0,0 km/h (0 Bft) S-SW 200 ° 0 min 0,000 mm 0,0 UV-I 0 W/m² 3,6 °C 6,3 °C 0,0 km/h (0 Bft)
20.10.2017 07:19 6,3 °C 6,3 °C 82 % 1014,1 hPa 0,0 mm 1,5 km/h (1 Bft) S-SW 200 ° 0 min 0,000 mm 0,0 UV-I 0 W/m² 3,5 °C 6,3 °C 3,2 km/h (1 Bft)
20.10.2017 07:20 6,2 °C 6,3 °C 83 % 1014,2 hPa 0,0 mm 0,1 km/h (0 Bft) S-SW 200 ° 0 min 0,000 mm 0,0 UV-I 0 W/m² 3,5 °C 6,2 °C 1,6 km/h (1 Bft)
20.10.2017 07:21 6,1 °C 6,2 °C 83 % 1014,2 hPa 0,0 mm 0,5 km/h (0 Bft) S-SW 200 ° 0 min 0,000 mm 0,0 UV-I 0 W/m² 3,4 °C 6,1 °C 1,6 km/h (1 Bft)
20.10.2017 07:22 6,1 °C 6,1 °C 83 % 1014,2 hPa 0,0 mm 0,5 km/h (0 Bft) S-SW 200 ° 0 min 0,000 mm 0,0 UV-I 0 W/m² 3,4 °C 6,1 °C 1,6 km/h (1 Bft)
20.10.2017 07:23 6,1 °C 6,1 °C 83 % 1014,2 hPa 0,0 mm 0,0 km/h (0 Bft) S-SW 200 ° 0 min 0,000 mm 0,0 UV-I 0 W/m² 3,4 °C 6,1 °C 0,0 km/h (0 Bft)
20.10.2017 07:24 6,1 °C 6,1 °C 83 % 1014,2 hPa 0,0 mm 0,7 km/h (0 Bft) S-SW 200 ° 0 min 0,000 mm 0,0 UV-I 0 W/m² 3,4 °C 6,1 °C 3,2 km/h (1 Bft)
20.10.2017 07:25 6,1 °C 6,1 °C 84 % 1014,2 hPa 0,0 mm 2,1 km/h (1 Bft) S-SW 200 ° 0 min 0,000 mm 0,0 UV-I 0 W/m² 3,6 °C 6,1 °C 3,2 km/h (1 Bft)
20.10.2017 07:26 6,1 °C 6,1 °C 84 % 1014,2 hPa 0,0 mm 0,5 km/h (0 Bft) S-SW 200 ° 0 min 0,000 mm 0,0 UV-I 0 W/m² 3,6 °C 6,1 °C 1,6 km/h (1 Bft)
20.10.2017 07:27 6,1 °C 6,1 °C 84 % 1014,3 hPa 0,0 mm 1,8 km/h (1 Bft) SW 217 ° 0 min 0,000 mm 0,0 UV-I 0 W/m² 3,6 °C 6,1 °C 3,2 km/h (1 Bft)
20.10.2017 07:28 6,0 °C 6,1 °C 83 % 1014,3 hPa 0,0 mm 1,5 km/h (1 Bft) SW 217 ° 0 min 0,000 mm 0,0 UV-I 0 W/m² 3,3 °C 6,0 °C 3,2 km/h (1 Bft)
20.10.2017 07:29 5,9 °C 6,0 °C 83 % 1014,3 hPa 0,0 mm 0,0 km/h (0 Bft) SW 217 ° 0 min 0,000 mm 0,0 UV-I 0 W/m² 3,2 °C 5,9 °C 0,0 km/h (0 Bft)
20.10.2017 07:30 5,9 °C 5,9 °C 83 % 1014,4 hPa 0,0 mm 0,0 km/h (0 Bft) SW 217 ° 0 min 0,000 mm 0,0 UV-I 0 W/m² 3,2 °C 5,9 °C 0,0 km/h (0 Bft)
20.10.2017 07:31 5,8 °C 5,9 °C 84 % 1014,4 hPa 0,0 mm 1,1 km/h (1 Bft) SW 217 ° 0 min 0,000 mm 0,0 UV-I 0 W/m² 3,3 °C 5,8 °C 1,6 km/h (1 Bft)
20.10.2017 07:32 5,9 °C 5,9 °C 84 % 1014,3 hPa 0,0 mm 2,4 km/h (1 Bft) SW 217 ° 0 min 0,000 mm 0,0 UV-I 0 W/m² 3,4 °C 5,9 °C 3,2 km/h (1 Bft)
20.10.2017 07:33 6,1 °C 6,1 °C 84 % 1014,3 hPa 0,0 mm 0,7 km/h (0 Bft) SW 217 ° 0 min 0,000 mm 0,0 UV-I 0 W/m² 3,6 °C 6,1 °C 3,2 km/h (1 Bft)
20.10.2017 07:34 6,3 °C 6,3 °C 84 % 1014,3 hPa 0,0 mm 0,0 km/h (0 Bft) SW 217 ° 0 min 0,000 mm 0,0 UV-I 0 W/m² 3,8 °C 6,3 °C 0,0 km/h (0 Bft)
20.10.2017 07:35 6,3 °C 6,4 °C 82 % 1014,2 hPa 0,0 mm 0,6 km/h (0 Bft) SW 217 ° 0 min 0,000 mm 0,0 UV-I 0 W/m² 3,5 °C 6,3 °C 3,2 km/h (1 Bft)
20.10.2017 07:36 6,6 °C 6,6 °C 82 % 1014,2 hPa 0,0 mm 3,3 km/h (1 Bft) S-SW 195 ° 0 min 0,000 mm 0,0 UV-I 0 W/m² 3,8 °C 6,6 °C 4,8 km/h (1 Bft)
20.10.2017 07:37 6,7 °C 6,7 °C 82 % 1014,2 hPa 0,0 mm 2,5 km/h (1 Bft) S-SW 195 ° 0 min 0,000 mm 0,0 UV-I 0 W/m² 3,8 °C 6,7 °C 3,2 km/h (1 Bft)
20.10.2017 07:38 7,0 °C 7,0 °C 80 % 1014,3 hPa 0,0 mm 3,0 km/h (1 Bft) S-SW 194 ° 0 min 0,000 mm 0,0 UV-I 0 W/m² 3,8 °C 7,0 °C 4,8 km/h (1 Bft)
20.10.2017 07:39 7,3 °C 7,3 °C 79 % 1014,2 hPa 0,0 mm 2,3 km/h (1 Bft) S-SW 194 ° 0 min 0,000 mm 0,0 UV-I 0 W/m² 3,9 °C 7,3 °C 3,2 km/h (1 Bft)
20.10.2017 07:40 7,5 °C 7,5 °C 78 % 1014,2 hPa 0,0 mm 3,0 km/h (1 Bft) S-SW 194 ° 0 min 0,000 mm 0,0 UV-I 0 W/m² 3,9 °C 7,5 °C 4,8 km/h (1 Bft)
20.10.2017 07:41 7,6 °C 7,6 °C 78 % 1014,2 hPa 0,0 mm 1,3 km/h (1 Bft) S-SW 194 ° 0 min 0,000 mm 0,0 UV-I 0 W/m² 4,0 °C 7,6 °C 3,2 km/h (1 Bft)
20.10.2017 07:42 7,8 °C 7,8 °C 77 % 1014,2 hPa 0,0 mm 2,1 km/h (1 Bft) S-SW 194 ° 0 min 0,000 mm 0,0 UV-I 0 W/m² 4,0 °C 7,8 °C 4,8 km/h (1 Bft)
20.10.2017 07:43 7,8 °C 7,8 °C 77 % 1014,2 hPa 0,0 mm 3,6 km/h (1 Bft) S-SW 194 ° 0 min 0,000 mm 0,0 UV-I 0 W/m² 4,0 °C 7,8 °C 4,8 km/h (1 Bft)
20.10.2017 07:44 7,9 °C 7,9 °C 76 % 1014,2 hPa 0,0 mm 2,8 km/h (1 Bft) S-SW 194 ° 0 min 0,000 mm 0,0 UV-I 0 W/m² 3,9 °C 7,9 °C 4,8 km/h (1 Bft)
20.10.2017 07:45 7,9 °C 7,9 °C 76 % 1014,2 hPa 0,0 mm 3,0 km/h (1 Bft) S 190 ° 0 min 0,000 mm 0,0 UV-I 0 W/m² 3,9 °C 7,9 °C 3,2 km/h (1 Bft)
20.10.2017 07:46 7,9 °C 7,9 °C 76 % 1014,2 hPa 0,0 mm 1,7 km/h (1 Bft) S 190 ° 0 min 0,000 mm 0,0 UV-I 0 W/m² 3,9 °C 7,9 °C 3,2 km/h (1 Bft)
20.10.2017 07:47 7,9 °C 7,9 °C 76 % 1014,2 hPa 0,0 mm 2,3 km/h (1 Bft) S 190 ° 0 min 0,000 mm 0,0 UV-I 0 W/m² 3,9 °C 7,9 °C 6,4 km/h (2 Bft)
20.10.2017 07:48 8,0 °C 8,0 °C 75 % 1014,2 hPa 0,0 mm 0,1 km/h (0 Bft) S 190 ° 0 min 0,000 mm 0,0 UV-I 0 W/m² 3,8 °C 8,0 °C 1,6 km/h (1 Bft)
20.10.2017 07:49 8,0 °C 8,0 °C 76 % 1014,3 hPa 0,0 mm 0,0 km/h (0 Bft) S 190 ° 0 min 0,000 mm 0,0 UV-I 5 W/m² 4,0 °C 8,0 °C 0,0 km/h (0 Bft)
20.10.2017 07:50 7,8 °C 8,0 °C 76 % 1014,3 hPa 0,0 mm 0,0 km/h (0 Bft) S 190 ° 0 min 0,000 mm 0,0 UV-I 5 W/m² 3,8 °C 7,8 °C 0,0 km/h (0 Bft)
20.10.2017 07:51 7,5 °C 7,8 °C 77 % 1014,3 hPa 0,0 mm 0,0 km/h (0 Bft) S 190 ° 0 min 0,000 mm 0,0 UV-I 5 W/m² 3,7 °C 7,5 °C 0,0 km/h (0 Bft)
20.10.2017 07:52 7,1 °C 7,5 °C 78 % 1014,3 hPa 0,0 mm 0,0 km/h (0 Bft) S 190 ° 0 min 0,000 mm 0,0 UV-I 5 W/m² 3,5 °C 7,1 °C 0,0 km/h (0 Bft)
20.10.2017 07:53 6,9 °C 7,1 °C 79 % 1014,3 hPa 0,0 mm 0,0 km/h (0 Bft) S 190 ° 0 min 0,000 mm 0,0 UV-I 5 W/m² 3,5 °C 6,9 °C 0,0 km/h (0 Bft)
20.10.2017 07:54 6,7 °C 6,9 °C 80 % 1014,3 hPa 0,0 mm 0,0 km/h (0 Bft) S 190 ° 0 min 0,000 mm 0,0 UV-I 7 W/m² 3,5 °C 6,7 °C 0,0 km/h (0 Bft)
20.10.2017 07:55 6,6 °C 6,7 °C 81 % 1014,4 hPa 0,0 mm 0,0 km/h (0 Bft) S 190 ° 0 min 0,000 mm 0,0 UV-I 7 W/m² 3,6 °C 6,6 °C 0,0 km/h (0 Bft)
20.10.2017 07:56 6,4 °C 6,6 °C 81 % 1014,5 hPa 0,0 mm 0,0 km/h (0 Bft) S 190 ° 0 min 0,000 mm 0,0 UV-I 7 W/m² 3,4 °C 6,4 °C 0,0 km/h (0 Bft)
20.10.2017 07:57 6,3 °C 6,4 °C 82 % 1014,5 hPa 0,0 mm 0,0 km/h (0 Bft) S 190 ° 0 min 0,000 mm 0,0 UV-I 7 W/m² 3,5 °C 6,3 °C 0,0 km/h (0 Bft)
20.10.2017 07:58 6,2 °C 6,3 °C 82 % 1014,4 hPa 0,0 mm 0,0 km/h (0 Bft) S 190 ° 0 min 0,000 mm 0,0 UV-I 9 W/m² 3,4 °C 6,2 °C 0,0 km/h (0 Bft)
20.10.2017 07:59 6,2 °C 6,2 °C 83 % 1014,4 hPa 0,0 mm 0,0 km/h (0 Bft) S 190 ° 0 min 0,000 mm 0,0 UV-I 9 W/m² 3,5 °C 6,2 °C 0,0 km/h (0 Bft)
20.10.2017 08:00 6,1 °C 6,2 °C 83 % 1014,4 hPa 0,0 mm 0,0 km/h (0 Bft) S 190 ° 0 min 0,000 mm 0,0 UV-I 9 W/m² 3,4 °C 6,1 °C 0,0 km/h (0 Bft)
20.10.2017 08:01 6,1 °C 6,1 °C 83 % 1014,4 hPa 0,0 mm 0,0 km/h (0 Bft) S 190 ° 0 min 0,000 mm 0,0 UV-I 9 W/m² 3,4 °C 6,1 °C 0,0 km/h (0 Bft)
20.10.2017 08:02 6,0 °C 6,1 °C 83 % 1014,5 hPa 0,0 mm 0,0 km/h (0 Bft) S 190 ° 0 min 0,000 mm 0,0 UV-I 11 W/m² 3,3 °C 6,0 °C 0,0 km/h (0 Bft)
20.10.2017 08:03 6,0 °C 6,0 °C 83 % 1014,5 hPa 0,0 mm 0,0 km/h (0 Bft) S 190 ° 0 min 0,000 mm 0,0 UV-I 12 W/m² 3,3 °C 6,0 °C 0,0 km/h (0 Bft)
20.10.2017 08:04 6,1 °C 6,1 °C 83 % 1014,4 hPa 0,0 mm 0,0 km/h (0 Bft) S 190 ° 0 min 0,000 mm 0,0 UV-I 12 W/m² 3,4 °C 6,1 °C 0,0 km/h (0 Bft)
20.10.2017 08:05 6,1 °C 6,1 °C 83 % 1014,4 hPa 0,0 mm 0,0 km/h (0 Bft) S 190 ° 0 min 0,000 mm 0,0 UV-I 12 W/m² 3,4 °C 6,1 °C 0,0 km/h (0 Bft)
20.10.2017 08:06 6,3 °C 6,3 °C 83 % 1014,4 hPa 0,0 mm 0,0 km/h (0 Bft) S 190 ° 0 min 0,000 mm 0,0 UV-I 14 W/m² 3,6 °C 6,3 °C 0,0 km/h (0 Bft)
20.10.2017 08:07 6,5 °C 6,5 °C 83 % 1014,4 hPa 0,0 mm 0,0 km/h (0 Bft) S 190 ° 0 min 0,000 mm 0,0 UV-I 14 W/m² 3,8 °C 6,5 °C 0,0 km/h (0 Bft)
20.10.2017 08:08 6,6 °C 6,6 °C 82 % 1014,4 hPa 0,0 mm 0,0 km/h (0 Bft) S 190 ° 0 min 0,000 mm 0,0 UV-I 16 W/m² 3,8 °C 6,6 °C 0,0 km/h (0 Bft)
20.10.2017 08:09 6,6 °C 6,6 °C 82 % 1014,3 hPa 0,0 mm 0,0 km/h (0 Bft) S 190 ° 0 min 0,000 mm 0,0 UV-I 16 W/m² 3,8 °C 6,6 °C 0,0 km/h (0 Bft)
20.10.2017 08:10 6,6 °C 6,6 °C 81 % 1014,3 hPa 0,0 mm 0,0 km/h (0 Bft) S 190 ° 0 min 0,000 mm 0,0 UV-I 16 W/m² 3,6 °C 6,6 °C 0,0 km/h (0 Bft)
20.10.2017 08:11 6,5 °C 6,6 °C 82 % 1014,4 hPa 0,0 mm 0,0 km/h (0 Bft) S 190 ° 0 min 0,000 mm 0,0 UV-I 16 W/m² 3,7 °C 6,5 °C 0,0 km/h (0 Bft)
20.10.2017 08:12 6,4 °C 6,5 °C 82 % 1014,3 hPa 0,0 mm 0,0 km/h (0 Bft) S 190 ° 0 min 0,000 mm 0,0 UV-I 18 W/m² 3,6 °C 6,4 °C 0,0 km/h (0 Bft)
20.10.2017 08:13 6,4 °C 6,5 °C 82 % 1014,4 hPa 0,0 mm 0,0 km/h (0 Bft) S 190 ° 0 min 0,000 mm 0,0 UV-I 18 W/m² 3,6 °C 6,4 °C 0,0 km/h (0 Bft)
20.10.2017 08:14 6,5 °C 6,5 °C 83 % 1014,4 hPa 0,0 mm 0,0 km/h (0 Bft) S 190 ° 0 min 0,000 mm 0,0 UV-I 18 W/m² 3,8 °C 6,5 °C 0,0 km/h (0 Bft)
20.10.2017 08:15 6,4 °C 6,5 °C 82 % 1014,4 hPa 0,0 mm 0,0 km/h (0 Bft) S 190 ° 0 min 0,000 mm 0,0 UV-I 18 W/m² 3,6 °C 6,4 °C 0,0 km/h (0 Bft)
20.10.2017 08:16 6,4 °C 6,4 °C 82 % 1014,4 hPa 0,0 mm 0,0 km/h (0 Bft) S 190 ° 0 min 0,000 mm 0,0 UV-I 18 W/m² 3,6 °C 6,4 °C 0,0 km/h (0 Bft)
20.10.2017 08:17 6,4 °C 6,4 °C 83 % 1014,4 hPa 0,0 mm 0,0 km/h (0 Bft) S 190 ° 0 min 0,000 mm 0,0 UV-I 18 W/m² 3,7 °C 6,4 °C 0,0 km/h (0 Bft)
20.10.2017 08:18 6,6 °C 6,6 °C 83 % 1014,4 hPa 0,0 mm 0,0 km/h (0 Bft) S 190 ° 0 min 0,000 mm 0,0 UV-I 18 W/m² 3,9 °C 6,6 °C 0,0 km/h (0 Bft)
20.10.2017 08:19 6,7 °C 6,7 °C 83 % 1014,4 hPa 0,0 mm 0,0 km/h (0 Bft) S 190 ° 0 min 0,000 mm 0,0 UV-I 19 W/m² 4,0 °C 6,7 °C 0,0 km/h (0 Bft)
20.10.2017 08:20 6,7 °C 6,7 °C 82 % 1014,4 hPa 0,0 mm 0,0 km/h (0 Bft) S 190 ° 0 min 0,000 mm 0,0 UV-I 19 W/m² 3,8 °C 6,7 °C 0,0 km/h (0 Bft)
20.10.2017 08:21 6,7 °C 6,7 °C 82 % 1014,5 hPa 0,0 mm 0,0 km/h (0 Bft) S 190 ° 0 min 0,000 mm 0,0 UV-I 19 W/m² 3,8 °C 6,7 °C 0,0 km/h (0 Bft)
20.10.2017 08:22 6,7 °C 6,7 °C 82 % 1014,5 hPa 0,0 mm 0,0 km/h (0 Bft) S 190 ° 0 min 0,000 mm 0,0 UV-I 19 W/m² 3,8 °C 6,7 °C 0,0 km/h (0 Bft)
20.10.2017 08:23 6,7 °C 6,7 °C 82 % 1014,5 hPa 0,0 mm 0,0 km/h (0 Bft) S 190 ° 0 min 0,000 mm 0,0 UV-I 21 W/m² 3,8 °C 6,7 °C 0,0 km/h (0 Bft)
20.10.2017 08:24 6,7 °C 6,7 °C 82 % 1014,5 hPa 0,0 mm 0,0 km/h (0 Bft) S 190 ° 0 min 0,000 mm 0,0 UV-I 21 W/m² 3,8 °C 6,7 °C 0,0 km/h (0 Bft)
20.10.2017 08:25 6,7 °C 6,7 °C 82 % 1014,5 hPa 0,0 mm 0,0 km/h (0 Bft) S 190 ° 0 min 0,000 mm 0,0 UV-I 21 W/m² 3,8 °C 6,7 °C 0,0 km/h (0 Bft)
20.10.2017 08:26 6,7 °C 6,7 °C 82 % 1014,5 hPa 0,0 mm 0,0 km/h (0 Bft) S 190 ° 0 min 0,000 mm 0,0 UV-I 21 W/m² 3,8 °C 6,7 °C 0,0 km/h (0 Bft)
20.10.2017 08:27 6,5 °C 6,7 °C 82 % 1014,5 hPa 0,0 mm 0,0 km/h (0 Bft) S 190 ° 0 min 0,000 mm 0,0 UV-I 21 W/m² 3,7 °C 6,5 °C 0,0 km/h (0 Bft)
20.10.2017 08:28 6,4 °C 6,5 °C 82 % 1014,5 hPa 0,0 mm 0,0 km/h (0 Bft) S 190 ° 0 min 0,000 mm 0,0 UV-I 21 W/m² 3,6 °C 6,4 °C 0,0 km/h (0 Bft)
20.10.2017 08:29 6,4 °C 6,4 °C 83 % 1014,5 hPa 0,0 mm 0,0 km/h (0 Bft) S 190 ° 0 min 0,000 mm 0,0 UV-I 21 W/m² 3,7 °C 6,4 °C 0,0 km/h (0 Bft)
20.10.2017 08:30 6,3 °C 6,4 °C 83 % 1014,5 hPa 0,0 mm 0,0 km/h (0 Bft) S 190 ° 0 min 0,000 mm 0,0 UV-I 21 W/m² 3,6 °C 6,3 °C 0,0 km/h (0 Bft)
20.10.2017 08:31 6,4 °C 6,4 °C 83 % 1014,6 hPa 0,0 mm 0,0 km/h (0 Bft) S 190 ° 0 min 0,000 mm 0,0 UV-I 21 W/m² 3,7 °C 6,4 °C 0,0 km/h (0 Bft)
20.10.2017 08:32 6,4 °C 6,4 °C 83 % 1014,6 hPa 0,0 mm 0,0 km/h (0 Bft) S 190 ° 0 min 0,000 mm 0,0 UV-I 19 W/m² 3,7 °C 6,4 °C 0,0 km/h (0 Bft)
20.10.2017 08:33 6,5 °C 6,5 °C 83 % 1014,6 hPa 0,0 mm 0,0 km/h (0 Bft) S 190 ° 0 min 0,000 mm 0,0 UV-I 19 W/m² 3,8 °C 6,5 °C 0,0 km/h (0 Bft)
20.10.2017 08:34 6,5 °C 6,5 °C 83 % 1014,6 hPa 0,0 mm 0,0 km/h (0 Bft) S 190 ° 0 min 0,000 mm 0,0 UV-I 19 W/m² 3,8 °C 6,5 °C 0,0 km/h (0 Bft)
20.10.2017 08:35 6,4 °C 6,5 °C 83 % 1014,6 hPa 0,0 mm 0,0 km/h (0 Bft) S 190 ° 0 min 0,000 mm 0,0 UV-I 21 W/m² 3,7 °C 6,4 °C 0,0 km/h (0 Bft)
20.10.2017 08:36 6,4 °C 6,5 °C 83 % 1014,6 hPa 0,0 mm 0,0 km/h (0 Bft) S 190 ° 0 min 0,000 mm 0,0 UV-I 21 W/m² 3,7 °C 6,4 °C 0,0 km/h (0 Bft)
20.10.2017 08:37 6,4 °C 6,4 °C 83 % 1014,6 hPa 0,0 mm 0,0 km/h (0 Bft) S 190 ° 0 min 0,000 mm 0,0 UV-I 21 W/m² 3,7 °C 6,4 °C 0,0 km/h (0 Bft)
20.10.2017 08:38 6,5 °C 6,5 °C 83 % 1014,6 hPa 0,0 mm 0,0 km/h (0 Bft) S 190 ° 0 min 0,000 mm 0,0 UV-I 21 W/m² 3,8 °C 6,5 °C 0,0 km/h (0 Bft)
20.10.2017 08:39 6,5 °C 6,5 °C 83 % 1014,6 hPa 0,0 mm 0,0 km/h (0 Bft) S 190 ° 0 min 0,000 mm 0,0 UV-I 21 W/m² 3,8 °C 6,5 °C 0,0 km/h (0 Bft)
20.10.2017 08:40 6,5 °C 6,5 °C 83 % 1014,6 hPa 0,0 mm 0,0 km/h (0 Bft) S 190 ° 0 min 0,000 mm 0,0 UV-I 21 W/m² 3,8 °C 6,5 °C 0,0 km/h (0 Bft)
20.10.2017 08:41 6,6 °C 6,6 °C 83 % 1014,6 hPa 0,0 mm 0,0 km/h (0 Bft) S 190 ° 0 min 0,000 mm 0,0 UV-I 23 W/m² 3,9 °C 6,6 °C 0,0 km/h (0 Bft)
20.10.2017 08:42 6,6 °C 6,6 °C 83 % 1014,6 hPa 0,0 mm 0,0 km/h (0 Bft) S 190 ° 0 min 0,000 mm 0,0 UV-I 23 W/m² 3,9 °C 6,6 °C 0,0 km/h (0 Bft)
20.10.2017 08:43 6,6 °C 6,6 °C 83 % 1014,6 hPa 0,0 mm 0,0 km/h (0 Bft) S 190 ° 0 min 0,000 mm 0,0 UV-I 23 W/m² 3,9 °C 6,6 °C 0,0 km/h (0 Bft)
20.10.2017 08:44 6,5 °C 6,6 °C 83 % 1014,7 hPa 0,0 mm 0,0 km/h (0 Bft) S 190 ° 0 min 0,000 mm 0,0 UV-I 23 W/m² 3,8 °C 6,5 °C 0,0 km/h (0 Bft)
20.10.2017 08:45 6,5 °C 6,5 °C 84 % 1014,6 hPa 0,0 mm 0,0 km/h (0 Bft) S 190 ° 0 min 0,000 mm 0,0 UV-I 23 W/m² 4,0 °C 6,5 °C 0,0 km/h (0 Bft)
20.10.2017 08:46 6,6 °C 6,6 °C 83 % 1014,6 hPa 0,0 mm 0,0 km/h (0 Bft) S 190 ° 0 min 0,000 mm 0,0 UV-I 23 W/m² 3,9 °C 6,6 °C 0,0 km/h (0 Bft)
20.10.2017 08:47 6,6 °C 6,6 °C 84 % 1014,6 hPa 0,0 mm 0,0 km/h (0 Bft) S 190 ° 0 min 0,000 mm 0,0 UV-I 23 W/m² 4,1 °C 6,6 °C 0,0 km/h (0 Bft)
20.10.2017 08:48 6,7 °C 6,7 °C 84 % 1014,6 hPa 0,0 mm 0,0 km/h (0 Bft) S 190 ° 0 min 0,000 mm 0,0 UV-I 25 W/m² 4,2 °C 6,7 °C 0,0 km/h (0 Bft)
20.10.2017 08:49 6,7 °C 6,7 °C 84 % 1014,6 hPa 0,0 mm 0,0 km/h (0 Bft) S 190 ° 0 min 0,000 mm 0,0 UV-I 25 W/m² 4,2 °C 6,7 °C 0,0 km/h (0 Bft)
20.10.2017 08:50 6,7 °C 6,7 °C 84 % 1014,7 hPa 0,0 mm 0,0 km/h (0 Bft) S 190 ° 0 min 0,000 mm 0,0 UV-I 25 W/m² 4,2 °C 6,7 °C 0,0 km/h (0 Bft)
20.10.2017 08:51 6,7 °C 6,7 °C 84 % 1014,6 hPa 0,0 mm 0,0 km/h (0 Bft) S 190 ° 0 min 0,000 mm 0,0 UV-I 25 W/m² 4,2 °C 6,7 °C 0,0 km/h (0 Bft)
20.10.2017 08:52 6,7 °C 6,7 °C 84 % 1014,7 hPa 0,0 mm 0,0 km/h (0 Bft) S 190 ° 0 min 0,000 mm 0,0 UV-I 25 W/m² 4,2 °C 6,7 °C 0,0 km/h (0 Bft)
20.10.2017 08:53 6,8 °C 6,8 °C 84 % 1014,7 hPa 0,0 mm 0,1 km/h (0 Bft) S 190 ° 0 min 0,000 mm 0,0 UV-I 25 W/m² 4,3 °C 6,8 °C 1,6 km/h (1 Bft)
20.10.2017 08:54 6,9 °C 6,9 °C 83 % 1014,7 hPa 0,0 mm 0,5 km/h (0 Bft) S-SW 192 ° 0 min 0,000 mm 0,0 UV-I 25 W/m² 4,2 °C 6,9 °C 1,6 km/h (1 Bft)
20.10.2017 08:55 7,1 °C 7,1 °C 83 % 1014,7 hPa 0,0 mm 2,0 km/h (1 Bft) S 173 ° 0 min 0,000 mm 0,0 UV-I 25 W/m² 4,4 °C 7,1 °C 3,2 km/h (1 Bft)
20.10.2017 08:56 7,2 °C 7,2 °C 82 % 1014,7 hPa 0,0 mm 1,7 km/h (1 Bft) S 173 ° 0 min 0,000 mm 0,0 UV-I 25 W/m² 4,3 °C 7,2 °C 3,2 km/h (1 Bft)
20.10.2017 08:57 7,6 °C 7,6 °C 81 % 1014,8 hPa 0,0 mm 0,0 km/h (0 Bft) S 173 ° 0 min 0,000 mm 0,0 UV-I 25 W/m² 4,6 °C 7,6 °C 0,0 km/h (0 Bft)
20.10.2017 08:58 7,8 °C 7,8 °C 79 % 1014,8 hPa 0,0 mm 0,0 km/h (0 Bft) S 173 ° 0 min 0,000 mm 0,0 UV-I 25 W/m² 4,4 °C 7,8 °C 0,0 km/h (0 Bft)
20.10.2017 08:59 7,9 °C 7,9 °C 78 % 1014,8 hPa 0,0 mm 0,0 km/h (0 Bft) S 173 ° 0 min 0,000 mm 0,0 UV-I 25 W/m² 4,3 °C 7,9 °C 0,0 km/h (0 Bft)
20.10.2017 09:00 8,1 °C 8,1 °C 78 % 1014,8 hPa 0,0 mm 0,0 km/h (0 Bft) S 173 ° 0 min 0,000 mm 0,0 UV-I 25 W/m² 4,5 °C 8,1 °C 0,0 km/h (0 Bft)
20.10.2017 09:01 8,2 °C 8,2 °C 78 % 1014,8 hPa 0,0 mm 1,5 km/h (1 Bft) S 173 ° 0 min 0,000 mm 0,0 UV-I 26 W/m² 4,6 °C 8,2 °C 3,2 km/h (1 Bft)
20.10.2017 09:02 8,2 °C 8,2 °C 78 % 1014,8 hPa 0,0 mm 0,9 km/h (0 Bft) S 173 ° 0 min 0,000 mm 0,0 UV-I 26 W/m² 4,6 °C 8,2 °C 3,2 km/h (1 Bft)
20.10.2017 09:03 8,2 °C 8,2 °C 79 % 1014,8 hPa 0,0 mm 0,4 km/h (0 Bft) W-SW 254 ° 0 min 0,000 mm 0,0 UV-I 26 W/m² 4,8 °C 8,2 °C 4,8 km/h (1 Bft)
20.10.2017 09:04 8,3 °C 8,3 °C 77 % 1014,8 hPa 0,0 mm 0,8 km/h (0 Bft) W-SW 254 ° 0 min 0,000 mm 0,0 UV-I 26 W/m² 4,5 °C 8,3 °C 3,2 km/h (1 Bft)
20.10.2017 09:05 8,4 °C 8,4 °C 78 % 1014,8 hPa 0,0 mm 0,0 km/h (0 Bft) W-SW 254 ° 0 min 0,000 mm 0,0 UV-I 26 W/m² 4,8 °C 8,4 °C 0,0 km/h (0 Bft)
20.10.2017 09:06 8,3 °C 8,4 °C 78 % 1014,7 hPa 0,0 mm 0,0 km/h (0 Bft) W-SW 254 ° 0 min 0,000 mm 0,0 UV-I 26 W/m² 4,7 °C 8,3 °C 0,0 km/h (0 Bft)
20.10.2017 09:07 8,5 °C 8,5 °C 76 % 1014,8 hPa 0,0 mm 0,7 km/h (0 Bft) W-SW 242 ° 0 min 0,000 mm 0,0 UV-I 26 W/m² 4,5 °C 8,5 °C 3,2 km/h (1 Bft)
20.10.2017 09:08 8,6 °C 8,6 °C 77 % 1014,7 hPa 0,0 mm 0,0 km/h (0 Bft) W-SW 242 ° 0 min 0,000 mm 0,0 UV-I 26 W/m² 4,8 °C 8,6 °C 0,0 km/h (0 Bft)
20.10.2017 09:09 8,7 °C 8,7 °C 76 % 1014,8 hPa 0,0 mm 0,1 km/h (0 Bft) W-SW 242 ° 0 min 0,000 mm 0,0 UV-I 26 W/m² 4,7 °C 8,7 °C 1,6 km/h (1 Bft)
20.10.2017 09:10 8,8 °C 8,8 °C 75 % 1014,8 hPa 0,0 mm 0,6 km/h (0 Bft) W-SW 242 ° 0 min 0,000 mm 0,0 UV-I 26 W/m² 4,6 °C 8,8 °C 3,2 km/h (1 Bft)
20.10.2017 09:11 8,9 °C 8,9 °C 76 % 1014,8 hPa 0,0 mm 0,5 km/h (0 Bft) W-SW 242 ° 0 min 0,000 mm 0,0 UV-I 26 W/m² 4,9 °C 8,9 °C 3,2 km/h (1 Bft)
20.10.2017 09:12 8,8 °C 8,9 °C 76 % 1014,8 hPa 0,0 mm 0,0 km/h (0 Bft) W-SW 242 ° 0 min 0,000 mm 0,0 UV-I 26 W/m² 4,8 °C 8,8 °C 0,0 km/h (0 Bft)
20.10.2017 09:13 8,9 °C 8,9 °C 76 % 1014,9 hPa 0,0 mm 0,4 km/h (0 Bft) SW 228 ° 0 min 0,000 mm 0,0 UV-I 26 W/m² 4,9 °C 8,9 °C 3,2 km/h (1 Bft)
20.10.2017 09:14 9,1 °C 9,1 °C 75 % 1014,8 hPa 0,0 mm 1,8 km/h (1 Bft) SW 225 ° 0 min 0,000 mm 0,0 UV-I 28 W/m² 4,9 °C 9,1 °C 4,8 km/h (1 Bft)
20.10.2017 09:15 9,1 °C 9,1 °C 75 % 1014,8 hPa 0,0 mm 1,4 km/h (1 Bft) S-SW 211 ° 0 min 0,000 mm 0,0 UV-I 28 W/m² 4,9 °C 9,1 °C 3,2 km/h (1 Bft)
20.10.2017 09:16 9,1 °C 9,1 °C 76 % 1014,8 hPa 0,0 mm 0,0 km/h (0 Bft) S-SW 211 ° 0 min 0,000 mm 0,0 UV-I 28 W/m² 5,1 °C 9,1 °C 0,0 km/h (0 Bft)
20.10.2017 09:17 9,0 °C 9,1 °C 76 % 1014,8 hPa 0,0 mm 0,0 km/h (0 Bft) S-SW 211 ° 0 min 0,000 mm 0,0 UV-I 28 W/m² 5,0 °C 9,0 °C 0,0 km/h (0 Bft)
20.10.2017 09:18 8,9 °C 9,0 °C 76 % 1014,8 hPa 0,0 mm 0,3 km/h (0 Bft) S-SW 211 ° 0 min 0,000 mm 0,0 UV-I 28 W/m² 4,9 °C 8,9 °C 1,6 km/h (1 Bft)
20.10.2017 09:19 8,9 °C 8,9 °C 76 % 1014,8 hPa 0,0 mm 0,3 km/h (0 Bft) S-SW 211 ° 0 min 0,000 mm 0,0 UV-I 28 W/m² 4,9 °C 8,9 °C 1,6 km/h (1 Bft)
20.10.2017 09:20 9,0 °C 9,0 °C 76 % 1014,9 hPa 0,0 mm 0,0 km/h (0 Bft) S-SW 211 ° 0 min 0,000 mm 0,0 UV-I 28 W/m² 5,0 °C 9,0 °C 0,0 km/h (0 Bft)
20.10.2017 09:21 9,2 °C 9,2 °C 76 % 1014,9 hPa 0,0 mm 0,0 km/h (0 Bft) S-SW 211 ° 0 min 0,000 mm 0,0 UV-I 30 W/m² 5,2 °C 9,2 °C 0,0 km/h (0 Bft)
20.10.2017 09:22 9,2 °C 9,2 °C 76 % 1014,8 hPa 0,0 mm 0,0 km/h (0 Bft) S-SW 211 ° 0 min 0,000 mm 0,0 UV-I 30 W/m² 5,2 °C 9,2 °C 0,0 km/h (0 Bft)
20.10.2017 09:23 9,3 °C 9,3 °C 76 % 1014,9 hPa 0,0 mm 0,0 km/h (0 Bft) S-SW 211 ° 0 min 0,000 mm 0,0 UV-I 30 W/m² 5,3 °C 9,3 °C 0,0 km/h (0 Bft)
20.10.2017 09:24 9,4 °C 9,4 °C 75 % 1014,9 hPa 0,0 mm 0,0 km/h (0 Bft) S-SW 211 ° 0 min 0,000 mm 0,0 UV-I 32 W/m² 5,2 °C 9,4 °C 0,0 km/h (0 Bft)
20.10.2017 09:25 9,4 °C 9,4 °C 75 % 1014,9 hPa 0,0 mm 0,9 km/h (0 Bft) S-SW 211 ° 0 min 0,000 mm 0,0 UV-I 32 W/m² 5,2 °C 9,4 °C 3,2 km/h (1 Bft)
20.10.2017 09:26 9,6 °C 9,6 °C 74 % 1014,9 hPa 0,0 mm 3,6 km/h (1 Bft) SW 219 ° 0 min 0,000 mm 0,0 UV-I 32 W/m² 5,2 °C 9,6 °C 6,4 km/h (2 Bft)
20.10.2017 09:27 9,8 °C 9,8 °C 73 % 1014,9 hPa 0,0 mm 2,3 km/h (1 Bft) S-SW 210 ° 0 min 0,000 mm 0,0 UV-I 32 W/m² 5,2 °C 9,8 °C 4,8 km/h (1 Bft)
20.10.2017 09:28 10,1 °C 10,1 °C 72 % 1014,9 hPa 0,0 mm 4,4 km/h (1 Bft) S-SO 155 ° 0 min 0,000 mm 0,0 UV-I 32 W/m² 5,3 °C 10,1 °C 8,0 km/h (2 Bft)
20.10.2017 09:29 10,3 °C 10,3 °C 71 % 1014,9 hPa 0,0 mm 2,6 km/h (1 Bft) S-SO 155 ° 0 min 0,000 mm 0,0 UV-I 32 W/m² 5,3 °C 10,3 °C 4,8 km/h (1 Bft)
20.10.2017 09:30 10,6 °C 10,6 °C 70 % 1014,9 hPa 0,0 mm 3,4 km/h (1 Bft) S-SO 155 ° 0 min 0,000 mm 0,0 UV-I 32 W/m² 5,4 °C 10,6 °C 4,8 km/h (1 Bft)
20.10.2017 09:31 10,8 °C 10,8 °C 70 % 1014,9 hPa 0,0 mm 3,0 km/h (1 Bft) S-SO 155 ° 0 min 0,000 mm 0,0 UV-I 32 W/m² 5,6 °C 10,8 °C 4,8 km/h (1 Bft)
20.10.2017 09:32 10,9 °C 10,9 °C 69 % 1014,9 hPa 0,0 mm 2,9 km/h (1 Bft) S-SO 155 ° 0 min 0,000 mm 0,0 UV-I 32 W/m² 5,4 °C 10,9 °C 4,8 km/h (1 Bft)
20.10.2017 09:33 11,1 °C 11,1 °C 67 % 1014,9 hPa 0,0 mm 3,1 km/h (1 Bft) S-SO 155 ° 0 min 0,000 mm 0,0 UV-I 32 W/m² 5,2 °C 11,1 °C 4,8 km/h (1 Bft)
20.10.2017 09:34 11,2 °C 11,2 °C 67 % 1014,9 hPa 0,0 mm 0,3 km/h (0 Bft) S-SO 155 ° 0 min 0,000 mm 0,0 UV-I 32 W/m² 5,3 °C 11,2 °C 1,6 km/h (1 Bft)
20.10.2017 09:35 11,3 °C 11,3 °C 66 % 1014,9 hPa 0,0 mm 0,0 km/h (0 Bft) S-SO 155 ° 0 min 0,000 mm 0,0 UV-I 32 W/m² 5,2 °C 11,3 °C 0,0 km/h (0 Bft)
20.10.2017 09:36 11,3 °C 11,3 °C 66 % 1014,9 hPa 0,0 mm 1,1 km/h (1 Bft) S-SO 155 ° 0 min 0,000 mm 0,0 UV-I 32 W/m² 5,2 °C 11,3 °C 3,2 km/h (1 Bft)
20.10.2017 09:37 11,5 °C 11,5 °C 64 % 1014,9 hPa 0,0 mm 0,7 km/h (0 Bft) S-SO 155 ° 0 min 0,000 mm 0,0 UV-I 32 W/m² 4,9 °C 11,5 °C 3,2 km/h (1 Bft)
20.10.2017 09:39 11,6 °C 11,6 °C 66 % 1014,9 hPa 0,0 mm 0,0 km/h (0 Bft) S-SO 155 ° 0 min 0,000 mm 0,0 UV-I 32 W/m² 5,5 °C 11,6 °C 0,0 km/h (0 Bft)
20.10.2017 09:40 11,7 °C 11,7 °C 65 % 1014,9 hPa 0,0 mm 0,0 km/h (0 Bft) S-SO 155 ° 0 min 0,000 mm 0,0 UV-I 30 W/m² 5,3 °C 11,7 °C 0,0 km/h (0 Bft)
20.10.2017 09:41 11,8 °C 11,8 °C 65 % 1014,9 hPa 0,0 mm 0,0 km/h (0 Bft) S-SO 155 ° 0 min 0,000 mm 0,0 UV-I 30 W/m² 5,4 °C 11,8 °C 0,0 km/h (0 Bft)
20.10.2017 09:42 11,9 °C 11,9 °C 65 % 1014,9 hPa 0,0 mm 0,0 km/h (0 Bft) S-SO 155 ° 0 min 0,000 mm 0,0 UV-I 32 W/m² 5,5 °C 11,9 °C 0,0 km/h (0 Bft)
20.10.2017 09:43 12,0 °C 12,0 °C 64 % 1014,9 hPa 0,0 mm 0,9 km/h (0 Bft) S-SO 155 ° 0 min 0,000 mm 0,0 UV-I 33 W/m² 5,4 °C 12,0 °C 3,2 km/h (1 Bft)
20.10.2017 09:44 12,1 °C 12,1 °C 65 % 1014,9 hPa 0,0 mm 0,2 km/h (0 Bft) S-SO 155 ° 0 min 0,000 mm 0,0 UV-I 33 W/m² 5,7 °C 12,1 °C 1,6 km/h (1 Bft)
20.10.2017 09:45 12,1 °C 12,1 °C 65 % 1014,9 hPa 0,0 mm 0,7 km/h (0 Bft) S-SO 155 ° 0 min 0,000 mm 0,0 UV-I 33 W/m² 5,7 °C 12,1 °C 3,2 km/h (1 Bft)
20.10.2017 09:46 12,2 °C 12,2 °C 66 % 1014,9 hPa 0,0 mm 0,0 km/h (0 Bft) S-SO 155 ° 0 min 0,000 mm 0,0 UV-I 33 W/m² 6,0 °C 12,2 °C 0,0 km/h (0 Bft)
20.10.2017 09:47 12,2 °C 12,2 °C 65 % 1014,9 hPa 0,0 mm 0,0 km/h (0 Bft) S-SO 155 ° 0 min 0,000 mm 0,0 UV-I 33 W/m² 5,8 °C 12,2 °C 0,0 km/h (0 Bft)
20.10.2017 09:48 12,2 °C 12,2 °C 64 % 1014,9 hPa 0,0 mm 0,0 km/h (0 Bft) S-SO 155 ° 0 min 0,000 mm 0,0 UV-I 33 W/m² 5,6 °C 12,2 °C 0,0 km/h (0 Bft)
20.10.2017 09:49 12,0 °C 12,2 °C 67 % 1014,9 hPa 0,0 mm 0,0 km/h (0 Bft) S-SO 155 ° 0 min 0,000 mm 0,0 UV-I 33 W/m² 6,1 °C 12,0 °C 0,0 km/h (0 Bft)
20.10.2017 09:50 11,8 °C 12,0 °C 67 % 1015,0 hPa 0,0 mm 0,0 km/h (0 Bft) S-SO 155 ° 0 min 0,000 mm 0,0 UV-I 33 W/m² 5,9 °C 11,8 °C 0,0 km/h (0 Bft)
20.10.2017 09:51 11,6 °C 11,8 °C 67 % 1015,0 hPa 0,0 mm 0,0 km/h (0 Bft) S-SO 155 ° 0 min 0,000 mm 0,0 UV-I 33 W/m² 5,7 °C 11,6 °C 0,0 km/h (0 Bft)
20.10.2017 09:52 11,5 °C 11,6 °C 69 % 1015,0 hPa 0,0 mm 0,0 km/h (0 Bft) S-SO 155 ° 0 min 0,000 mm 0,0 UV-I 33 W/m² 6,0 °C 11,5 °C 0,0 km/h (0 Bft)
20.10.2017 09:53 11,5 °C 11,6 °C 68 % 1015,0 hPa 0,0 mm 0,0 km/h (0 Bft) S-SO 155 ° 0 min 0,000 mm 0,0 UV-I 33 W/m² 5,8 °C 11,5 °C 0,0 km/h (0 Bft)
20.10.2017 09:54 11,5 °C 11,5 °C 67 % 1015,0 hPa 0,0 mm 0,0 km/h (0 Bft) S-SO 155 ° 0 min 0,000 mm 0,0 UV-I 35 W/m² 5,6 °C 11,5 °C 0,0 km/h (0 Bft)
20.10.2017 09:55 11,5 °C 11,5 °C 68 % 1015,0 hPa 0,0 mm 0,0 km/h (0 Bft) S-SO 155 ° 0 min 0,000 mm 0,0 UV-I 35 W/m² 5,8 °C 11,5 °C 0,0 km/h (0 Bft)
20.10.2017 09:56 11,5 °C 11,5 °C 66 % 1015,0 hPa 0,0 mm 0,0 km/h (0 Bft) S-SO 155 ° 0 min 0,000 mm 0,0 UV-I 35 W/m² 5,4 °C 11,5 °C 0,0 km/h (0 Bft)
20.10.2017 09:57 11,4 °C 11,5 °C 68 % 1015,0 hPa 0,0 mm 0,0 km/h (0 Bft) S-SO 155 ° 0 min 0,000 mm 0,0 UV-I 35 W/m² 5,7 °C 11,4 °C 0,0 km/h (0 Bft)
20.10.2017 09:58 11,4 °C 11,4 °C 69 % 1015,0 hPa 0,0 mm 0,0 km/h (0 Bft) S-SO 155 ° 0 min 0,000 mm 0,0 UV-I 35 W/m² 5,9 °C 11,4 °C 0,0 km/h (0 Bft)
20.10.2017 09:59 11,5 °C 11,5 °C 67 % 1015,0 hPa 0,0 mm 0,0 km/h (0 Bft) S-SO 155 ° 0 min 0,000 mm 0,0 UV-I 35 W/m² 5,6 °C 11,5 °C 0,0 km/h (0 Bft)
20.10.2017 10:00 11,6 °C 11,6 °C 69 % 1015,0 hPa 0,0 mm 0,0 km/h (0 Bft) S-SO 155 ° 0 min 0,025 mm 0,0 UV-I 35 W/m² 6,1 °C 11,6 °C 0,0 km/h (0 Bft)
20.10.2017 10:01 11,6 °C 11,6 °C 71 % 1015,1 hPa 0,0 mm 0,0 km/h (0 Bft) S-SO 155 ° 0 min 0,000 mm 0,0 UV-I 35 W/m² 6,5 °C 11,6 °C 0,0 km/h (0 Bft)
20.10.2017 10:02 11,7 °C 11,7 °C 70 % 1015,1 hPa 0,0 mm 0,6 km/h (0 Bft) W-SW 244 ° 0 min 0,000 mm 0,0 UV-I 35 W/m² 6,4 °C 11,7 °C 3,2 km/h (1 Bft)
20.10.2017 10:03 11,9 °C 11,9 °C 70 % 1015,1 hPa 0,0 mm 2,5 km/h (1 Bft) SW 223 ° 0 min 0,000 mm 0,0 UV-I 35 W/m² 6,6 °C 11,9 °C 4,8 km/h (1 Bft)
20.10.2017 10:04 11,9 °C 11,9 °C 67 % 1015,1 hPa 0,0 mm 3,1 km/h (1 Bft) S-SW 213 ° 0 min 0,000 mm 0,0 UV-I 35 W/m² 6,0 °C 11,9 °C 4,8 km/h (1 Bft)
20.10.2017 10:05 12,1 °C 12,1 °C 68 % 1015,1 hPa 0,0 mm 2,5 km/h (1 Bft) SW 217 ° 0 min 0,000 mm 0,0 UV-I 35 W/m² 6,4 °C 12,1 °C 4,8 km/h (1 Bft)
20.10.2017 10:06 12,2 °C 12,2 °C 67 % 1015,1 hPa 0,0 mm 3,1 km/h (1 Bft) S-SW 207 ° 0 min 0,000 mm 0,0 UV-I 35 W/m² 6,3 °C 12,2 °C 4,8 km/h (1 Bft)
20.10.2017 10:07 12,3 °C 12,3 °C 67 % 1015,1 hPa 0,0 mm 2,7 km/h (1 Bft) S-SW 207 ° 0 min 0,000 mm 0,0 UV-I 37 W/m² 6,4 °C 12,3 °C 4,8 km/h (1 Bft)
20.10.2017 10:08 12,3 °C 12,3 °C 68 % 1015,1 hPa 0,0 mm 1,5 km/h (1 Bft) SW 221 ° 0 min 0,000 mm 0,0 UV-I 37 W/m² 6,6 °C 12,3 °C 4,8 km/h (1 Bft)
20.10.2017 10:09 12,3 °C 12,3 °C 66 % 1015,1 hPa 0,0 mm 0,7 km/h (0 Bft) SW 221 ° 0 min 0,000 mm 0,0 UV-I 37 W/m² 6,1 °C 12,3 °C 1,6 km/h (1 Bft)
20.10.2017 10:10 12,4 °C 12,4 °C 65 % 1015,1 hPa 0,0 mm 2,8 km/h (1 Bft) S 188 ° 0 min 0,000 mm 0,0 UV-I 37 W/m² 6,0 °C 12,4 °C 6,4 km/h (2 Bft)
20.10.2017 10:11 12,6 °C 12,6 °C 66 % 1015,1 hPa 0,0 mm 2,5 km/h (1 Bft) S 188 ° 0 min 0,000 mm 0,0 UV-I 37 W/m² 6,4 °C 12,6 °C 4,8 km/h (1 Bft)
20.10.2017 10:12 12,7 °C 12,7 °C 65 % 1015,1 hPa 0,0 mm 0,9 km/h (0 Bft) S-SW 196 ° 0 min 0,000 mm 0,0 UV-I 37 W/m² 6,3 °C 12,7 °C 3,2 km/h (1 Bft)
20.10.2017 10:13 12,8 °C 12,8 °C 62 % 1015,1 hPa 0,0 mm 3,6 km/h (1 Bft) SW 219 ° 0 min 0,000 mm 0,0 UV-I 37 W/m² 5,7 °C 12,8 °C 6,4 km/h (2 Bft)
20.10.2017 10:14 12,9 °C 12,9 °C 62 % 1015,1 hPa 0,0 mm 4,7 km/h (1 Bft) S-SW 192 ° 0 min 0,000 mm 0,0 UV-I 37 W/m² 5,8 °C 12,9 °C 6,4 km/h (2 Bft)
20.10.2017 10:15 13,1 °C 13,1 °C 63 % 1015,1 hPa 0,0 mm 3,5 km/h (1 Bft) S-SW 202 ° 0 min 0,000 mm 0,0 UV-I 37 W/m² 6,2 °C 13,1 °C 8,0 km/h (2 Bft)
20.10.2017 10:16 13,2 °C 13,2 °C 62 % 1015,1 hPa 0,0 mm 1,8 km/h (1 Bft) S-SW 202 ° 0 min 0,000 mm 0,0 UV-I 37 W/m² 6,1 °C 13,2 °C 3,2 km/h (1 Bft)
20.10.2017 10:17 13,3 °C 13,3 °C 63 % 1015,1 hPa 0,0 mm 1,4 km/h (1 Bft) S-SW 202 ° 0 min 0,000 mm 0,0 UV-I 37 W/m² 6,4 °C 13,3 °C 3,2 km/h (1 Bft)
20.10.2017 10:18 13,4 °C 13,4 °C 63 % 1015,1 hPa 0,0 mm 0,8 km/h (0 Bft) S-SW 202 ° 0 min 0,000 mm 0,0 UV-I 37 W/m² 6,5 °C 13,4 °C 3,2 km/h (1 Bft)
20.10.2017 10:19 13,6 °C 13,6 °C 61 % 1015,2 hPa 0,0 mm 3,0 km/h (1 Bft) SW 228 ° 0 min 0,000 mm 0,0 UV-I 37 W/m² 6,2 °C 13,6 °C 4,8 km/h (1 Bft)
20.10.2017 10:20 13,7 °C 13,7 °C 62 % 1015,2 hPa 0,0 mm 1,8 km/h (1 Bft) SW 222 ° 0 min 0,000 mm 0,0 UV-I 37 W/m² 6,6 °C 13,7 °C 3,2 km/h (1 Bft)
20.10.2017 10:21 13,7 °C 13,7 °C 60 % 1015,2 hPa 0,0 mm 2,4 km/h (1 Bft) S-SW 211 ° 0 min 0,000 mm 0,0 UV-I 37 W/m² 6,1 °C 13,7 °C 4,8 km/h (1 Bft)
20.10.2017 10:22 13,8 °C 13,8 °C 60 % 1015,2 hPa 0,0 mm 4,8 km/h (1 Bft) S-SW 205 ° 0 min 0,000 mm 0,0 UV-I 37 W/m² 6,2 °C 13,8 °C 9,7 km/h (2 Bft)
20.10.2017 10:23 13,9 °C 13,9 °C 60 % 1015,2 hPa 0,0 mm 2,5 km/h (1 Bft) S-SW 207 ° 0 min 0,000 mm 0,0 UV-I 39 W/m² 6,3 °C 13,9 °C 3,2 km/h (1 Bft)
20.10.2017 10:24 14,1 °C 14,1 °C 59 % 1015,2 hPa 0,0 mm 1,6 km/h (1 Bft) S-SW 213 ° 0 min 0,000 mm 0,0 UV-I 39 W/m² 6,2 °C 14,1 °C 3,2 km/h (1 Bft)
20.10.2017 10:25 13,9 °C 14,1 °C 61 % 1015,2 hPa 0,0 mm 3,1 km/h (1 Bft) SW 221 ° 0 min 0,000 mm 0,0 UV-I 39 W/m² 6,5 °C 13,9 °C 4,8 km/h (1 Bft)
20.10.2017 10:26 14,0 °C 14,0 °C 58 % 1015,2 hPa 0,0 mm 3,2 km/h (1 Bft) S-SW 205 ° 0 min 0,000 mm 0,0 UV-I 39 W/m² 5,9 °C 14,0 °C 4,8 km/h (1 Bft)
20.10.2017 10:27 14,1 °C 14,1 °C 59 % 1015,2 hPa 0,0 mm 0,1 km/h (0 Bft) S-SW 205 ° 0 min 0,000 mm 0,0 UV-I 39 W/m² 6,2 °C 14,1 °C 1,6 km/h (1 Bft)
20.10.2017 10:28 14,2 °C 14,2 °C 58 % 1015,2 hPa 0,0 mm 3,7 km/h (1 Bft) S-SW 205 ° 0 min 0,000 mm 0,0 UV-I 39 W/m² 6,1 °C 14,2 °C 6,4 km/h (2 Bft)
20.10.2017 10:29 14,3 °C 14,3 °C 58 % 1015,2 hPa 0,0 mm 5,0 km/h (1 Bft) S-SW 213 ° 0 min 0,000 mm 0,0 UV-I 39 W/m² 6,2 °C 14,3 °C 6,4 km/h (2 Bft)
20.10.2017 10:30 14,4 °C 14,4 °C 58 % 1015,2 hPa 0,0 mm 6,5 km/h (2 Bft) S-SW 194 ° 0 min 0,000 mm 0,0 UV-I 39 W/m² 6,2 °C 14,4 °C 8,0 km/h (2 Bft)
20.10.2017 10:31 14,7 °C 14,7 °C 55 % 1015,2 hPa 0,0 mm 5,8 km/h (2 Bft) S-SW 198 ° 0 min 0,000 mm 0,0 UV-I 39 W/m² 5,8 °C 14,7 °C 9,7 km/h (2 Bft)
20.10.2017 10:32 14,8 °C 14,8 °C 56 % 1015,2 hPa 0,0 mm 2,7 km/h (1 Bft) S-SW 200 ° 0 min 0,000 mm 0,0 UV-I 39 W/m² 6,1 °C 14,8 °C 4,8 km/h (1 Bft)
20.10.2017 10:33 14,9 °C 14,9 °C 56 % 1015,2 hPa 0,0 mm 2,0 km/h (1 Bft) W-SW 252 ° 0 min 0,000 mm 0,0 UV-I 39 W/m² 6,2 °C 14,9 °C 4,8 km/h (1 Bft)
20.10.2017 10:34 15,1 °C 15,1 °C 55 % 1015,2 hPa 0,0 mm 4,0 km/h (1 Bft) W-SW 238 ° 0 min 0,000 mm 0,0 UV-I 39 W/m² 6,1 °C 15,1 °C 6,4 km/h (2 Bft)
20.10.2017 10:35 15,2 °C 15,2 °C 56 % 1015,3 hPa 0,0 mm 1,4 km/h (1 Bft) W-SW 238 ° 0 min 0,000 mm 0,0 UV-I 39 W/m² 6,5 °C 15,2 °C 3,2 km/h (1 Bft)
20.10.2017 10:36 15,2 °C 15,2 °C 56 % 1015,3 hPa 0,0 mm 2,7 km/h (1 Bft) SW 217 ° 0 min 0,000 mm 0,0 UV-I 39 W/m² 6,5 °C 15,2 °C 4,8 km/h (1 Bft)
20.10.2017 10:37 15,3 °C 15,3 °C 55 % 1015,3 hPa 0,0 mm 1,9 km/h (1 Bft) SW 217 ° 0 min 0,000 mm 0,0 UV-I 40 W/m² 6,3 °C 15,3 °C 3,2 km/h (1 Bft)
20.10.2017 10:38 15,3 °C 15,3 °C 55 % 1015,3 hPa 0,0 mm 3,6 km/h (1 Bft) SW 219 ° 0 min 0,000 mm 0,0 UV-I 40 W/m² 6,3 °C 15,3 °C 4,8 km/h (1 Bft)
20.10.2017 10:39 15,3 °C 15,3 °C 54 % 1015,3 hPa 0,0 mm 3,4 km/h (1 Bft) SW 214 ° 0 min 0,000 mm 0,0 UV-I 40 W/m² 6,0 °C 15,3 °C 4,8 km/h (1 Bft)
20.10.2017 10:40 15,4 °C 15,4 °C 55 % 1015,3 hPa 0,0 mm 4,3 km/h (1 Bft) S-SW 204 ° 0 min 0,000 mm 0,0 UV-I 42 W/m² 6,4 °C 15,4 °C 6,4 km/h (2 Bft)
20.10.2017 10:41 15,4 °C 15,4 °C 55 % 1015,3 hPa 0,0 mm 3,8 km/h (1 Bft) S-SW 207 ° 0 min 0,000 mm 0,0 UV-I 42 W/m² 6,4 °C 15,4 °C 6,4 km/h (2 Bft)
20.10.2017 10:42 15,5 °C 15,5 °C 55 % 1015,3 hPa 0,0 mm 4,8 km/h (1 Bft) S 186 ° 0 min 0,000 mm 0,0 UV-I 40 W/m² 6,5 °C 15,5 °C 8,0 km/h (2 Bft)
20.10.2017 10:43 15,4 °C 15,5 °C 56 % 1015,4 hPa 0,0 mm 5,5 km/h (1 Bft) S 186 ° 0 min 0,000 mm 0,0 UV-I 40 W/m² 6,7 °C 15,4 °C 8,0 km/h (2 Bft)
20.10.2017 10:44 15,6 °C 15,6 °C 54 % 1015,5 hPa 0,0 mm 5,2 km/h (1 Bft) S-SW 208 ° 0 min 0,000 mm 0,0 UV-I 40 W/m² 6,3 °C 15,6 °C 6,4 km/h (2 Bft)
20.10.2017 10:45 15,7 °C 15,7 °C 55 % 1015,5 hPa 0,0 mm 7,1 km/h (2 Bft) S-SW 192 ° 0 min 0,000 mm 0,0 UV-I 40 W/m² 6,7 °C 15,7 °C 9,7 km/h (2 Bft)
20.10.2017 10:46 15,7 °C 15,7 °C 56 % 1015,4 hPa 0,0 mm 6,1 km/h (2 Bft) S 190 ° 0 min 0,000 mm 0,0 UV-I 40 W/m² 6,9 °C 15,7 °C 8,0 km/h (2 Bft)
20.10.2017 10:47 15,7 °C 15,7 °C 55 % 1015,4 hPa 0,0 mm 5,6 km/h (1 Bft) S 172 ° 0 min 0,000 mm 0,0 UV-I 40 W/m² 6,7 °C 15,7 °C 8,0 km/h (2 Bft)
20.10.2017 10:48 15,7 °C 15,7 °C 54 % 1015,4 hPa 0,0 mm 8,4 km/h (2 Bft) S 189 ° 0 min 0,000 mm 0,0 UV-I 40 W/m² 6,4 °C 15,7 °C 9,7 km/h (2 Bft)
20.10.2017 10:49 15,7 °C 15,7 °C 55 % 1015,5 hPa 0,0 mm 7,9 km/h (2 Bft) S 172 ° 0 min 0,000 mm 0,0 UV-I 40 W/m² 6,7 °C 15,7 °C 11,3 km/h (2 Bft)
20.10.2017 10:50 15,7 °C 15,7 °C 56 % 1015,4 hPa 0,0 mm 4,4 km/h (1 Bft) S 189 ° 0 min 0,000 mm 0,0 UV-I 40 W/m² 6,9 °C 15,7 °C 6,4 km/h (2 Bft)
20.10.2017 10:51 15,7 °C 15,7 °C 55 % 1015,4 hPa 0,0 mm 3,7 km/h (1 Bft) SW 223 ° 0 min 0,000 mm 0,0 UV-I 40 W/m² 6,7 °C 15,7 °C 4,8 km/h (1 Bft)
20.10.2017 10:52 15,7 °C 15,7 °C 54 % 1015,4 hPa 0,0 mm 5,0 km/h (1 Bft) S-SW 207 ° 0 min 0,000 mm 0,0 UV-I 40 W/m² 6,4 °C 15,7 °C 9,7 km/h (2 Bft)
20.10.2017 10:53 15,8 °C 15,9 °C 54 % 1015,4 hPa 0,0 mm 4,8 km/h (1 Bft) S 190 ° 0 min 0,000 mm 0,0 UV-I 40 W/m² 6,5 °C 15,8 °C 6,4 km/h (2 Bft)
20.10.2017 10:54 15,9 °C 15,9 °C 55 % 1015,4 hPa 0,0 mm 4,6 km/h (1 Bft) S-SW 207 ° 0 min 0,000 mm 0,0 UV-I 40 W/m² 6,9 °C 15,9 °C 6,4 km/h (2 Bft)
20.10.2017 10:55 15,9 °C 16,0 °C 56 % 1015,4 hPa 0,0 mm 5,6 km/h (1 Bft) W 259 ° 0 min 0,000 mm 0,0 UV-I 40 W/m² 7,1 °C 15,9 °C 9,7 km/h (2 Bft)
20.10.2017 10:56 16,0 °C 16,0 °C 55 % 1015,4 hPa 0,0 mm 1,7 km/h (1 Bft) W-SW 256 ° 0 min 0,000 mm 0,0 UV-I 40 W/m² 7,0 °C 16,0 °C 3,2 km/h (1 Bft)
20.10.2017 10:57 16,0 °C 16,1 °C 54 % 1015,4 hPa 0,0 mm 5,1 km/h (1 Bft) S-SW 204 ° 0 min 0,000 mm 0,0 UV-I 46 W/m² 6,7 °C 16,0 °C 6,4 km/h (2 Bft)
20.10.2017 10:58 16,1 °C 16,1 °C 53 % 1015,5 hPa 0,0 mm 3,6 km/h (1 Bft) SW 236 ° 0 min 0,000 mm 1,3 UV-I 86 W/m² 6,5 °C 16,1 °C 4,8 km/h (1 Bft)
20.10.2017 10:59 16,2 °C 16,2 °C 54 % 1015,5 hPa 0,0 mm 2,4 km/h (1 Bft) S 175 ° 0 min 0,000 mm 1,3 UV-I 83 W/m² 6,9 °C 16,2 °C 4,8 km/h (1 Bft)
20.10.2017 11:00 16,2 °C 16,2 °C 54 % 1015,5 hPa 0,0 mm 7,6 km/h (2 Bft) W 260 ° 0 min 0,051 mm 1,3 UV-I 79 W/m² 6,9 °C 16,2 °C 11,3 km/h (2 Bft)
20.10.2017 11:01 16,2 °C 16,2 °C 54 % 1015,5 hPa 0,0 mm 9,1 km/h (2 Bft) W-NW 283 ° 0 min 0,000 mm 1,3 UV-I 79 W/m² 6,9 °C 16,2 °C 11,3 km/h (2 Bft)
20.10.2017 11:02 16,3 °C 16,3 °C 51 % 1015,5 hPa 0,0 mm 5,2 km/h (1 Bft) S 182 ° 0 min 0,000 mm 0,0 UV-I 47 W/m² 6,1 °C 16,3 °C 9,7 km/h (2 Bft)
20.10.2017 11:03 16,4 °C 16,4 °C 52 % 1015,5 hPa 0,0 mm 3,4 km/h (1 Bft) W-SW 250 ° 0 min 0,000 mm 0,0 UV-I 49 W/m² 6,5 °C 16,4 °C 4,8 km/h (1 Bft)
20.10.2017 11:04 16,4 °C 16,4 °C 51 % 1015,5 hPa 0,0 mm 4,6 km/h (1 Bft) W 269 ° 0 min 0,000 mm 1,3 UV-I 70 W/m² 6,2 °C 16,4 °C 6,4 km/h (2 Bft)
20.10.2017 11:05 16,5 °C 16,5 °C 49 % 1015,5 hPa 0,0 mm 5,9 km/h (2 Bft) W 261 ° 0 min 0,000 mm 1,3 UV-I 97 W/m² 5,8 °C 16,5 °C 8,0 km/h (2 Bft)
20.10.2017 11:06 16,6 °C 16,6 °C 51 % 1015,5 hPa 0,0 mm 6,2 km/h (2 Bft) W 273 ° 0 min 0,000 mm 1,4 UV-I 113 W/m² 6,4 °C 16,6 °C 11,3 km/h (2 Bft)
20.10.2017 11:07 16,5 °C 16,6 °C 53 % 1015,4 hPa 0,0 mm 3,6 km/h (1 Bft) W-SW 254 ° 0 min 0,000 mm 1,5 UV-I 127 W/m² 6,9 °C 16,5 °C 6,4 km/h (2 Bft)
20.10.2017 11:08 16,4 °C 16,5 °C 52 % 1015,5 hPa 0,0 mm 5,4 km/h (1 Bft) W 259 ° 0 min 0,000 mm 1,5 UV-I 148 W/m² 6,5 °C 16,4 °C 8,0 km/h (2 Bft)
20.10.2017 11:09 16,4 °C 16,4 °C 51 % 1015,5 hPa 0,0 mm 3,9 km/h (1 Bft) W 259 ° 0 min 0,000 mm 1,5 UV-I 148 W/m² 6,2 °C 16,4 °C 4,8 km/h (1 Bft)
20.10.2017 11:10 16,4 °C 16,4 °C 51 % 1015,4 hPa 0,0 mm 4,5 km/h (1 Bft) W 260 ° 0 min 0,000 mm 1,5 UV-I 146 W/m² 6,2 °C 16,4 °C 11,3 km/h (2 Bft)
20.10.2017 11:11 16,4 °C 16,4 °C 52 % 1015,4 hPa 0,0 mm 10,2 km/h (2 Bft) W 273 ° 0 min 0,000 mm 1,5 UV-I 149 W/m² 6,5 °C 16,4 °C 12,9 km/h (3 Bft)
20.10.2017 11:12 16,4 °C 16,4 °C 52 % 1015,5 hPa 0,0 mm 2,7 km/h (1 Bft) W-SW 254 ° 0 min 0,000 mm 1,5 UV-I 95 W/m² 6,5 °C 16,4 °C 8,0 km/h (2 Bft)
20.10.2017 11:13 16,4 °C 16,4 °C 54 % 1015,5 hPa 0,0 mm 6,8 km/h (2 Bft) W 266 ° 0 min 0,000 mm 1,4 UV-I 70 W/m² 7,1 °C 16,4 °C 12,9 km/h (3 Bft)
20.10.2017 11:14 16,3 °C 16,4 °C 50 % 1015,5 hPa 0,0 mm 6,4 km/h (2 Bft) S-SW 208 ° 0 min 0,000 mm 0,0 UV-I 53 W/m² 5,9 °C 16,3 °C 9,7 km/h (2 Bft)
20.10.2017 11:15 16,4 °C 16,4 °C 50 % 1015,5 hPa 0,0 mm 4,8 km/h (1 Bft) S-SW 213 ° 0 min 0,000 mm 0,0 UV-I 49 W/m² 6,0 °C 16,4 °C 6,4 km/h (2 Bft)
20.10.2017 11:16 16,6 °C 16,6 °C 50 % 1015,5 hPa 0,0 mm 6,8 km/h (2 Bft) W-SW 248 ° 0 min 0,000 mm 0,0 UV-I 46 W/m² 6,1 °C 16,6 °C 11,3 km/h (2 Bft)
20.10.2017 11:17 16,6 °C 16,6 °C 50 % 1015,5 hPa 0,0 mm 3,4 km/h (1 Bft) W 264 ° 0 min 0,000 mm 0,0 UV-I 44 W/m² 6,1 °C 16,6 °C 9,7 km/h (2 Bft)
20.10.2017 11:18 16,7 °C 16,7 °C 51 % 1015,5 hPa 0,0 mm 9,1 km/h (2 Bft) W 274 ° 0 min 0,000 mm 0,0 UV-I 44 W/m² 6,5 °C 16,7 °C 14,5 km/h (3 Bft)
20.10.2017 11:19 16,7 °C 16,7 °C 49 % 1015,5 hPa 0,0 mm 6,9 km/h (2 Bft) W 275 ° 0 min 0,000 mm 0,0 UV-I 44 W/m² 5,9 °C 16,7 °C 12,9 km/h (3 Bft)
20.10.2017 11:20 16,7 °C 16,7 °C 51 % 1015,5 hPa 0,0 mm 6,6 km/h (2 Bft) W-SW 255 ° 0 min 0,000 mm 0,0 UV-I 44 W/m² 6,5 °C 16,7 °C 9,7 km/h (2 Bft)
20.10.2017 11:21 16,7 °C 16,7 °C 50 % 1015,5 hPa 0,0 mm 4,4 km/h (1 Bft) W-SW 248 ° 0 min 0,000 mm 0,0 UV-I 46 W/m² 6,2 °C 16,7 °C 8,0 km/h (2 Bft)
20.10.2017 11:22 16,7 °C 16,7 °C 49 % 1015,5 hPa 0,0 mm 4,5 km/h (1 Bft) W 277 ° 0 min 0,000 mm 0,0 UV-I 44 W/m² 5,9 °C 16,7 °C 9,7 km/h (2 Bft)
20.10.2017 11:23 16,7 °C 16,7 °C 51 % 1015,5 hPa 0,0 mm 9,4 km/h (2 Bft) W-SW 244 ° 0 min 0,000 mm 0,0 UV-I 44 W/m² 6,5 °C 16,7 °C 11,3 km/h (2 Bft)
20.10.2017 11:24 16,7 °C 16,7 °C 51 % 1015,5 hPa 0,0 mm 4,6 km/h (1 Bft) N-NW 332 ° 0 min 0,000 mm 0,0 UV-I 44 W/m² 6,5 °C 16,7 °C 8,0 km/h (2 Bft)
20.10.2017 11:25 16,7 °C 16,7 °C 49 % 1015,5 hPa 0,0 mm 1,0 km/h (0 Bft) N-NW 340 ° 0 min 0,000 mm 0,0 UV-I 46 W/m² 5,9 °C 16,7 °C 3,2 km/h (1 Bft)
20.10.2017 11:26 16,8 °C 16,8 °C 50 % 1015,5 hPa 0,0 mm 3,0 km/h (1 Bft) W 271 ° 0 min 0,000 mm 0,0 UV-I 46 W/m² 6,3 °C 16,8 °C 6,4 km/h (2 Bft)
20.10.2017 11:27 16,8 °C 16,8 °C 51 % 1015,5 hPa 0,0 mm 4,4 km/h (1 Bft) W-SW 256 ° 0 min 0,000 mm 0,0 UV-I 46 W/m² 6,6 °C 16,8 °C 6,4 km/h (2 Bft)
20.10.2017 11:28 16,8 °C 16,8 °C 50 % 1015,5 hPa 0,0 mm 1,9 km/h (1 Bft) W-SW 256 ° 0 min 0,000 mm 0,0 UV-I 46 W/m² 6,3 °C 16,8 °C 4,8 km/h (1 Bft)
20.10.2017 11:29 16,9 °C 16,9 °C 49 % 1015,5 hPa 0,0 mm 4,7 km/h (1 Bft) W 280 ° 0 min 0,000 mm 0,0 UV-I 46 W/m² 6,1 °C 16,9 °C 11,3 km/h (2 Bft)
20.10.2017 11:30 17,0 °C 17,0 °C 52 % 1015,6 hPa 0,0 mm 5,0 km/h (1 Bft) W-NW 290 ° 0 min 0,000 mm 0,0 UV-I 46 W/m² 7,1 °C 17,0 °C 11,3 km/h (2 Bft)
20.10.2017 11:31 17,1 °C 17,1 °C 47 % 1015,5 hPa 0,0 mm 3,0 km/h (1 Bft) S-SW 193 ° 0 min 0,000 mm 0,0 UV-I 47 W/m² 5,7 °C 17,1 °C 6,4 km/h (2 Bft)
20.10.2017 11:32 17,2 °C 17,2 °C 47 % 1015,5 hPa 0,0 mm 3,5 km/h (1 Bft) SW 221 ° 0 min 0,000 mm 0,0 UV-I 47 W/m² 5,8 °C 17,2 °C 8,0 km/h (2 Bft)
20.10.2017 11:33 17,3 °C 17,3 °C 46 % 1015,5 hPa 0,0 mm 2,5 km/h (1 Bft) W 269 ° 0 min 0,000 mm 0,0 UV-I 49 W/m² 5,6 °C 17,3 °C 6,4 km/h (2 Bft)
20.10.2017 11:34 17,3 °C 17,3 °C 50 % 1015,5 hPa 0,0 mm 5,6 km/h (1 Bft) W 275 ° 0 min 0,000 mm 1,4 UV-I 86 W/m² 6,8 °C 17,3 °C 9,7 km/h (2 Bft)
20.10.2017 11:35 17,3 °C 17,3 °C 50 % 1015,6 hPa 0,0 mm 2,3 km/h (1 Bft) W-NW 283 ° 0 min 0,000 mm 1,5 UV-I 81 W/m² 6,8 °C 17,3 °C 4,8 km/h (1 Bft)
20.10.2017 11:36 17,4 °C 17,4 °C 47 % 1015,6 hPa 0,0 mm 4,8 km/h (1 Bft) W 265 ° 0 min 0,000 mm 1,5 UV-I 104 W/m² 6,0 °C 17,4 °C 8,0 km/h (2 Bft)
20.10.2017 11:37 17,5 °C 17,5 °C 47 % 1015,5 hPa 0,0 mm 3,8 km/h (1 Bft) W-SW 253 ° 0 min 0,000 mm 1,5 UV-I 104 W/m² 6,1 °C 17,5 °C 6,4 km/h (2 Bft)
20.10.2017 11:38 17,5 °C 17,5 °C 47 % 1015,5 hPa 0,0 mm 1,1 km/h (1 Bft) W-SW 257 ° 0 min 0,000 mm 1,5 UV-I 132 W/m² 6,1 °C 17,5 °C 4,8 km/h (1 Bft)
20.10.2017 11:39 17,4 °C 17,5 °C 50 % 1015,6 hPa 0,0 mm 5,7 km/h (1 Bft) W-SW 257 ° 0 min 0,000 mm 1,6 UV-I 141 W/m² 6,9 °C 17,4 °C 11,3 km/h (2 Bft)
20.10.2017 11:40 17,5 °C 17,5 °C 50 % 1015,6 hPa 0,0 mm 4,7 km/h (1 Bft) W 265 ° 0 min 0,000 mm 1,7 UV-I 149 W/m² 7,0 °C 17,5 °C 6,4 km/h (2 Bft)
20.10.2017 11:41 17,5 °C 17,5 °C 52 % 1015,6 hPa 0,0 mm 7,1 km/h (2 Bft) W-SW 256 ° 0 min 0,000 mm 1,6 UV-I 142 W/m² 7,5 °C 17,5 °C 11,3 km/h (2 Bft)
20.10.2017 11:42 17,5 °C 17,5 °C 47 % 1015,6 hPa 0,0 mm 4,4 km/h (1 Bft) W-NW 294 ° 0 min 0,000 mm 1,6 UV-I 121 W/m² 6,1 °C 17,5 °C 6,4 km/h (2 Bft)
20.10.2017 11:43 17,5 °C 17,6 °C 50 % 1015,6 hPa 0,0 mm 3,9 km/h (1 Bft) W 265 ° 0 min 0,000 mm 1,6 UV-I 192 W/m² 7,0 °C 17,5 °C 9,7 km/h (2 Bft)
20.10.2017 11:44 17,5 °C 17,5 °C 50 % 1015,6 hPa 0,0 mm 4,4 km/h (1 Bft) W-NW 283 ° 0 min 0,000 mm 1,6 UV-I 192 W/m² 7,0 °C 17,5 °C 9,7 km/h (2 Bft)
20.10.2017 11:45 17,5 °C 17,5 °C 49 % 1015,6 hPa 0,0 mm 7,1 km/h (2 Bft) W 269 ° 0 min 0,000 mm 1,9 UV-I 220 W/m² 6,7 °C 17,5 °C 11,3 km/h (2 Bft)
20.10.2017 11:46 17,5 °C 17,5 °C 51 % 1015,5 hPa 0,0 mm 4,0 km/h (1 Bft) W-SW 254 ° 1 min 0,000 mm 2,4 UV-I 455 W/m² 7,3 °C 17,5 °C 6,4 km/h (2 Bft)
20.10.2017 11:47 17,5 °C 17,5 °C 52 % 1015,5 hPa 0,0 mm 5,1 km/h (1 Bft) W 279 ° 1 min 0,000 mm 2,5 UV-I 457 W/m² 7,5 °C 17,5 °C 8,0 km/h (2 Bft)
20.10.2017 11:48 17,6 °C 17,6 °C 47 % 1015,6 hPa 0,0 mm 4,1 km/h (1 Bft) W-NW 284 ° 1 min 0,000 mm 2,5 UV-I 459 W/m² 6,2 °C 17,6 °C 6,4 km/h (2 Bft)
20.10.2017 11:49 17,6 °C 17,6 °C 47 % 1015,6 hPa 0,0 mm 2,2 km/h (1 Bft) W 266 ° 1 min 0,000 mm 2,5 UV-I 461 W/m² 6,2 °C 17,6 °C 4,8 km/h (1 Bft)
20.10.2017 11:50 17,6 °C 17,6 °C 49 % 1015,5 hPa 0,0 mm 3,8 km/h (1 Bft) W 263 ° 1 min 0,000 mm 2,5 UV-I 461 W/m² 6,8 °C 17,6 °C 9,7 km/h (2 Bft)
20.10.2017 11:51 17,6 °C 17,6 °C 47 % 1015,6 hPa 0,0 mm 5,6 km/h (1 Bft) W 275 ° 1 min 0,000 mm 2,6 UV-I 462 W/m² 6,2 °C 17,6 °C 9,7 km/h (2 Bft)
20.10.2017 11:52 17,6 °C 17,6 °C 48 % 1015,6 hPa 0,0 mm 6,1 km/h (2 Bft) NW 312 ° 1 min 0,000 mm 2,6 UV-I 464 W/m² 6,5 °C 17,6 °C 11,3 km/h (2 Bft)
20.10.2017 11:53 17,8 °C 17,8 °C 47 % 1015,6 hPa 0,0 mm 8,7 km/h (2 Bft) W 280 ° 1 min 0,000 mm 2,6 UV-I 468 W/m² 6,3 °C 17,8 °C 11,3 km/h (2 Bft)
20.10.2017 11:54 17,9 °C 17,9 °C 48 % 1015,6 hPa 0,0 mm 5,6 km/h (1 Bft) W-NW 292 ° 1 min 0,000 mm 2,7 UV-I 466 W/m² 6,7 °C 17,9 °C 11,3 km/h (2 Bft)
20.10.2017 11:55 17,7 °C 17,9 °C 49 % 1015,6 hPa 0,0 mm 6,0 km/h (2 Bft) W 263 ° 1 min 0,000 mm 2,7 UV-I 469 W/m² 6,9 °C 17,7 °C 9,7 km/h (2 Bft)
20.10.2017 11:56 17,4 °C 17,7 °C 49 % 1015,6 hPa 0,0 mm 2,5 km/h (1 Bft) NW 315 ° 1 min 0,000 mm 2,7 UV-I 469 W/m² 6,6 °C 17,4 °C 4,8 km/h (1 Bft)
20.10.2017 11:57 17,5 °C 17,5 °C 47 % 1015,5 hPa 0,0 mm 1,8 km/h (1 Bft) NW 312 ° 1 min 0,000 mm 2,7 UV-I 471 W/m² 6,1 °C 17,5 °C 3,2 km/h (1 Bft)
20.10.2017 11:58 17,7 °C 17,7 °C 48 % 1015,6 hPa 0,0 mm 6,5 km/h (2 Bft) W 260 ° 1 min 0,000 mm 2,7 UV-I 471 W/m² 6,6 °C 17,7 °C 11,3 km/h (2 Bft)
20.10.2017 11:59 17,8 °C 17,8 °C 48 % 1015,6 hPa 0,0 mm 5,2 km/h (1 Bft) W 267 ° 1 min 0,000 mm 2,7 UV-I 471 W/m² 6,6 °C 17,8 °C 11,3 km/h (2 Bft)
20.10.2017 12:00 17,9 °C 17,9 °C 48 % 1015,6 hPa 0,0 mm 2,1 km/h (1 Bft) W 271 ° 1 min 0,127 mm 2,7 UV-I 473 W/m² 6,7 °C 17,9 °C 4,8 km/h (1 Bft)
20.10.2017 12:01 18,1 °C 18,1 °C 48 % 1015,6 hPa 0,0 mm 3,2 km/h (1 Bft) W-NW 295 ° 1 min 0,000 mm 2,7 UV-I 473 W/m² 6,9 °C 18,1 °C 12,9 km/h (3 Bft)
20.10.2017 12:02 18,2 °C 18,2 °C 45 % 1015,6 hPa 0,0 mm 10,8 km/h (2 Bft) W-NW 302 ° 1 min 0,000 mm 2,7 UV-I 473 W/m² 6,1 °C 18,2 °C 16,1 km/h (3 Bft)
20.10.2017 12:03 18,3 °C 18,3 °C 45 % 1015,6 hPa 0,0 mm 2,8 km/h (1 Bft) W 279 ° 1 min 0,000 mm 2,7 UV-I 475 W/m² 6,2 °C 18,3 °C 4,8 km/h (1 Bft)
20.10.2017 12:04 18,3 °C 18,4 °C 48 % 1015,6 hPa 0,0 mm 9,7 km/h (2 Bft) W-NW 298 ° 1 min 0,000 mm 2,8 UV-I 475 W/m² 7,1 °C 18,3 °C 12,9 km/h (3 Bft)
20.10.2017 12:05 18,4 °C 18,4 °C 45 % 1015,7 hPa 0,0 mm 10,3 km/h (2 Bft) W-NW 283 ° 1 min 0,000 mm 2,8 UV-I 475 W/m² 6,3 °C 18,4 °C 12,9 km/h (3 Bft)
20.10.2017 12:06 18,4 °C 18,4 °C 44 % 1015,7 hPa 0,0 mm 7,5 km/h (2 Bft) NW 306 ° 1 min 0,000 mm 2,8 UV-I 475 W/m² 5,9 °C 18,4 °C 11,3 km/h (2 Bft)
20.10.2017 12:07 18,4 °C 18,4 °C 44 % 1015,7 hPa 0,0 mm 7,8 km/h (2 Bft) W-SW 258 ° 1 min 0,000 mm 2,8 UV-I 476 W/m² 5,9 °C 18,4 °C 11,3 km/h (2 Bft)
20.10.2017 12:08 18,2 °C 18,4 °C 45 % 1015,7 hPa 0,0 mm 6,6 km/h (2 Bft) W-NW 300 ° 1 min 0,000 mm 2,8 UV-I 466 W/m² 6,1 °C 18,2 °C 9,7 km/h (2 Bft)
20.10.2017 12:09 18,3 °C 18,3 °C 48 % 1015,7 hPa 0,0 mm 5,5 km/h (1 Bft) W-NW 297 ° 1 min 0,000 mm 2,7 UV-I 455 W/m² 7,1 °C 18,3 °C 8,0 km/h (2 Bft)
20.10.2017 12:10 18,2 °C 18,3 °C 47 % 1015,7 hPa 0,0 mm 3,5 km/h (1 Bft) W-NW 300 ° 1 min 0,000 mm 2,7 UV-I 466 W/m² 6,7 °C 18,2 °C 6,4 km/h (2 Bft)
20.10.2017 12:11 18,1 °C 18,2 °C 48 % 1015,7 hPa 0,0 mm 2,9 km/h (1 Bft) W-NW 284 ° 1 min 0,000 mm 2,8 UV-I 478 W/m² 6,9 °C 18,1 °C 4,8 km/h (1 Bft)
20.10.2017 12:12 17,9 °C 18,1 °C 50 % 1015,7 hPa 0,0 mm 5,8 km/h (2 Bft) W-SW 241 ° 1 min 0,000 mm 2,8 UV-I 478 W/m² 7,3 °C 17,9 °C 11,3 km/h (2 Bft)
20.10.2017 12:13 17,9 °C 17,9 °C 49 % 1015,7 hPa 0,0 mm 6,3 km/h (2 Bft) W 261 ° 1 min 0,000 mm 2,8 UV-I 480 W/m² 7,0 °C 17,9 °C 9,7 km/h (2 Bft)
20.10.2017 12:14 17,9 °C 17,9 °C 47 % 1015,7 hPa 0,0 mm 5,3 km/h (1 Bft) S 190 ° 1 min 0,000 mm 2,8 UV-I 480 W/m² 6,4 °C 17,9 °C 9,7 km/h (2 Bft)
20.10.2017 12:15 17,9 °C 17,9 °C 47 % 1015,7 hPa 0,0 mm 5,2 km/h (1 Bft) W 273 ° 1 min 0,000 mm 2,8 UV-I 480 W/m² 6,4 °C 17,9 °C 8,0 km/h (2 Bft)
20.10.2017 12:16 17,9 °C 17,9 °C 47 % 1015,7 hPa 0,0 mm 5,2 km/h (1 Bft) W-NW 290 ° 1 min 0,000 mm 2,8 UV-I 482 W/m² 6,4 °C 17,9 °C 9,7 km/h (2 Bft)
20.10.2017 12:17 17,9 °C 17,9 °C 47 % 1015,7 hPa 0,0 mm 6,4 km/h (2 Bft) W 270 ° 1 min 0,000 mm 2,8 UV-I 482 W/m² 6,4 °C 17,9 °C 11,3 km/h (2 Bft)
20.10.2017 12:19 17,9 °C 18,1 °C 49 % 1015,7 hPa 0,0 mm 7,3 km/h (2 Bft) W-SW 256 ° 2 min 0,000 mm 2,9 UV-I 483 W/m² 7,0 °C 17,9 °C 12,9 km/h (3 Bft)
20.10.2017 12:20 18,1 °C 18,1 °C 45 % 1015,7 hPa 0,0 mm 6,2 km/h (2 Bft) W-NW 292 ° 1 min 0,000 mm 2,9 UV-I 483 W/m² 6,0 °C 18,1 °C 9,7 km/h (2 Bft)
20.10.2017 12:21 18,2 °C 18,2 °C 46 % 1015,6 hPa 0,0 mm 5,0 km/h (1 Bft) W-NW 291 ° 1 min 0,000 mm 2,9 UV-I 483 W/m² 6,4 °C 18,2 °C 8,0 km/h (2 Bft)
20.10.2017 12:22 18,2 °C 18,2 °C 48 % 1015,6 hPa 0,0 mm 4,4 km/h (1 Bft) W 272 ° 1 min 0,000 mm 2,9 UV-I 487 W/m² 7,0 °C 18,2 °C 6,4 km/h (2 Bft)
20.10.2017 12:24 18,1 °C 18,2 °C 48 % 1015,6 hPa 0,0 mm 4,0 km/h (1 Bft) W-NW 303 ° 2 min 0,000 mm 2,9 UV-I 487 W/m² 6,9 °C 18,1 °C 6,4 km/h (2 Bft)
20.10.2017 12:25 18,1 °C 18,1 °C 49 % 1015,6 hPa 0,0 mm 3,4 km/h (1 Bft) W-NW 295 ° 1 min 0,000 mm 2,9 UV-I 487 W/m² 7,2 °C 18,1 °C 4,8 km/h (1 Bft)
20.10.2017 12:26 18,2 °C 18,2 °C 47 % 1015,6 hPa 0,0 mm 3,7 km/h (1 Bft) W-NW 282 ° 1 min 0,000 mm 2,9 UV-I 489 W/m² 6,7 °C 18,2 °C 4,8 km/h (1 Bft)
20.10.2017 12:27 18,2 °C 18,2 °C 48 % 1015,6 hPa 0,0 mm 7,5 km/h (2 Bft) W 281 ° 1 min 0,000 mm 2,9 UV-I 489 W/m² 7,0 °C 18,2 °C 11,3 km/h (2 Bft)
20.10.2017 12:29 18,2 °C 18,3 °C 49 % 1015,6 hPa 0,0 mm 5,0 km/h (1 Bft) W 275 ° 2 min 0,000 mm 2,9 UV-I 490 W/m² 7,3 °C 18,2 °C 11,3 km/h (2 Bft)
20.10.2017 12:30 18,1 °C 18,2 °C 48 % 1015,6 hPa 0,0 mm 4,6 km/h (1 Bft) W 270 ° 1 min 0,000 mm 2,9 UV-I 490 W/m² 6,9 °C 18,1 °C 6,4 km/h (2 Bft)
20.10.2017 12:31 18,1 °C 18,1 °C 47 % 1015,5 hPa 0,0 mm 6,6 km/h (2 Bft) W 259 ° 1 min 0,000 mm 2,9 UV-I 490 W/m² 6,6 °C 18,1 °C 9,7 km/h (2 Bft)
20.10.2017 12:32 18,1 °C 18,1 °C 44 % 1015,6 hPa 0,0 mm 5,2 km/h (1 Bft) W-NW 288 ° 1 min 0,000 mm 2,9 UV-I 489 W/m² 5,7 °C 18,1 °C 9,7 km/h (2 Bft)
20.10.2017 12:33 18,0 °C 18,1 °C 46 % 1015,5 hPa 0,0 mm 6,2 km/h (2 Bft) NW 307 ° 1 min 0,000 mm 2,9 UV-I 494 W/m² 6,2 °C 18,0 °C 9,7 km/h (2 Bft)
20.10.2017 12:34 18,1 °C 18,1 °C 45 % 1015,5 hPa 0,0 mm 4,8 km/h (1 Bft) W-NW 287 ° 1 min 0,000 mm 2,9 UV-I 494 W/m² 6,0 °C 18,1 °C 6,4 km/h (2 Bft)
20.10.2017 12:35 18,3 °C 18,3 °C 45 % 1015,5 hPa 0,0 mm 5,1 km/h (1 Bft) NW 309 ° 1 min 0,000 mm 2,9 UV-I 496 W/m² 6,2 °C 18,3 °C 8,0 km/h (2 Bft)
20.10.2017 12:36 18,5 °C 18,5 °C 46 % 1015,5 hPa 0,0 mm 1,7 km/h (1 Bft) NW 319 ° 1 min 0,000 mm 2,9 UV-I 494 W/m² 6,7 °C 18,5 °C 6,4 km/h (2 Bft)
20.10.2017 12:37 18,6 °C 18,6 °C 47 % 1015,5 hPa 0,0 mm 3,6 km/h (1 Bft) W-NW 292 ° 1 min 0,000 mm 2,9 UV-I 492 W/m² 7,1 °C 18,6 °C 4,8 km/h (1 Bft)
20.10.2017 12:38 18,6 °C 18,6 °C 46 % 1015,5 hPa 0,0 mm 2,9 km/h (1 Bft) W 270 ° 1 min 0,000 mm 2,9 UV-I 468 W/m² 6,8 °C 18,6 °C 6,4 km/h (2 Bft)
20.10.2017 12:39 18,4 °C 18,6 °C 44 % 1015,5 hPa 0,0 mm 3,4 km/h (1 Bft) W 268 ° 1 min 0,000 mm 2,9 UV-I 478 W/m² 5,9 °C 18,4 °C 4,8 km/h (1 Bft)
20.10.2017 12:40 18,3 °C 18,4 °C 45 % 1015,4 hPa 0,0 mm 2,6 km/h (1 Bft) W-SW 246 ° 1 min 0,000 mm 2,9 UV-I 499 W/m² 6,2 °C 18,3 °C 4,8 km/h (1 Bft)
20.10.2017 12:41 18,3 °C 18,3 °C 45 % 1015,5 hPa 0,0 mm 4,8 km/h (1 Bft) W-NW 291 ° 1 min 0,000 mm 3,0 UV-I 501 W/m² 6,2 °C 18,3 °C 9,7 km/h (2 Bft)
20.10.2017 12:42 18,3 °C 18,3 °C 46 % 1015,5 hPa 0,0 mm 3,9 km/h (1 Bft) W 268 ° 1 min 0,000 mm 3,0 UV-I 503 W/m² 6,5 °C 18,3 °C 6,4 km/h (2 Bft)
20.10.2017 12:43 18,5 °C 18,5 °C 48 % 1015,5 hPa 0,0 mm 3,9 km/h (1 Bft) NW 311 ° 1 min 0,000 mm 3,0 UV-I 501 W/m² 7,3 °C 18,5 °C 8,0 km/h (2 Bft)
20.10.2017 12:44 18,6 °C 18,6 °C 46 % 1015,5 hPa 0,0 mm 7,2 km/h (2 Bft) W-NW 294 ° 1 min 0,000 mm 3,0 UV-I 499 W/m² 6,8 °C 18,6 °C 11,3 km/h (2 Bft)
20.10.2017 12:45 18,7 °C 18,7 °C 44 % 1015,6 hPa 0,0 mm 5,8 km/h (2 Bft) W 262 ° 1 min 0,000 mm 3,0 UV-I 501 W/m² 6,2 °C 18,7 °C 9,7 km/h (2 Bft)
20.10.2017 12:46 18,7 °C 18,7 °C 46 % 1015,6 hPa 0,0 mm 2,8 km/h (1 Bft) W-SW 241 ° 1 min 0,000 mm 3,0 UV-I 499 W/m² 6,8 °C 18,7 °C 3,2 km/h (1 Bft)
20.10.2017 12:47 18,6 °C 18,7 °C 46 % 1015,5 hPa 0,0 mm 0,8 km/h (0 Bft) W-SW 241 ° 1 min 0,000 mm 3,0 UV-I 499 W/m² 6,8 °C 18,6 °C 1,6 km/h (1 Bft)
20.10.2017 12:48 18,4 °C 18,6 °C 46 % 1015,6 hPa 0,0 mm 6,7 km/h (2 Bft) W 276 ° 1 min 0,000 mm 3,0 UV-I 501 W/m² 6,6 °C 18,4 °C 11,3 km/h (2 Bft)
20.10.2017 12:49 18,4 °C 18,4 °C 45 % 1015,5 hPa 0,0 mm 3,3 km/h (1 Bft) NW 304 ° 1 min 0,000 mm 3,0 UV-I 497 W/m² 6,3 °C 18,4 °C 4,8 km/h (1 Bft)
20.10.2017 12:50 18,5 °C 18,5 °C 47 % 1015,6 hPa 0,0 mm 3,3 km/h (1 Bft) W-NW 296 ° 1 min 0,000 mm 3,0 UV-I 497 W/m² 7,0 °C 18,5 °C 4,8 km/h (1 Bft)
20.10.2017 12:51 18,4 °C 18,5 °C 46 % 1015,5 hPa 0,0 mm 4,0 km/h (1 Bft) W 279 ° 1 min 0,000 mm 3,0 UV-I 499 W/m² 6,6 °C 18,4 °C 6,4 km/h (2 Bft)
20.10.2017 12:52 18,4 °C 18,4 °C 47 % 1015,5 hPa 0,0 mm 2,7 km/h (1 Bft) W 279 ° 1 min 0,000 mm 3,0 UV-I 499 W/m² 6,9 °C 18,4 °C 3,2 km/h (1 Bft)
20.10.2017 12:53 18,3 °C 18,4 °C 45 % 1015,5 hPa 0,0 mm 0,6 km/h (0 Bft) NW 312 ° 1 min 0,000 mm 3,0 UV-I 497 W/m² 6,2 °C 18,3 °C 3,2 km/h (1 Bft)
20.10.2017 12:54 18,4 °C 18,4 °C 51 % 1015,4 hPa 0,0 mm 3,5 km/h (1 Bft) NW 312 ° 1 min 0,000 mm 2,9 UV-I 446 W/m² 8,1 °C 18,4 °C 4,8 km/h (1 Bft)
20.10.2017 12:55 18,6 °C 18,6 °C 45 % 1015,5 hPa 0,0 mm 4,4 km/h (1 Bft) W 267 ° 1 min 0,000 mm 2,8 UV-I 496 W/m² 6,4 °C 18,6 °C 4,8 km/h (1 Bft)
20.10.2017 12:56 18,7 °C 18,7 °C 47 % 1015,4 hPa 0,0 mm 4,1 km/h (1 Bft) W 276 ° 1 min 0,000 mm 3,0 UV-I 503 W/m² 7,2 °C 18,7 °C 6,4 km/h (2 Bft)
20.10.2017 12:57 18,8 °C 18,8 °C 44 % 1015,4 hPa 0,0 mm 1,9 km/h (1 Bft) NW 323 ° 1 min 0,000 mm 3,0 UV-I 501 W/m² 6,3 °C 18,8 °C 4,8 km/h (1 Bft)
20.10.2017 12:58 18,8 °C 18,8 °C 44 % 1015,4 hPa 0,0 mm 3,7 km/h (1 Bft) NW 324 ° 1 min 0,000 mm 3,0 UV-I 501 W/m² 6,3 °C 18,8 °C 4,8 km/h (1 Bft)
20.10.2017 12:59 18,6 °C 18,8 °C 47 % 1015,4 hPa 0,0 mm 2,5 km/h (1 Bft) W 261 ° 1 min 0,000 mm 3,0 UV-I 501 W/m² 7,1 °C 18,6 °C 4,8 km/h (1 Bft)
20.10.2017 13:00 18,5 °C 18,6 °C 46 % 1015,4 hPa 0,0 mm 2,9 km/h (1 Bft) W 265 ° 1 min 0,000 mm 3,0 UV-I 503 W/m² 6,7 °C 18,5 °C 6,4 km/h (2 Bft)
20.10.2017 13:01 18,5 °C 18,5 °C 44 % 1015,4 hPa 0,0 mm 4,0 km/h (1 Bft) W-NW 290 ° 1 min 0,305 mm 3,0 UV-I 501 W/m² 6,0 °C 18,5 °C 8,0 km/h (2 Bft)
20.10.2017 13:02 18,6 °C 18,6 °C 45 % 1015,4 hPa 0,0 mm 2,1 km/h (1 Bft) NW 304 ° 1 min 0,000 mm 3,0 UV-I 497 W/m² 6,4 °C 18,6 °C 6,4 km/h (2 Bft)
20.10.2017 13:03 18,7 °C 18,8 °C 46 % 1015,3 hPa 0,0 mm 0,0 km/h (0 Bft) NW 309 ° 1 min 0,000 mm 3,0 UV-I 496 W/m² 6,8 °C 18,7 °C 4,8 km/h (1 Bft)
20.10.2017 13:04 18,6 °C 18,8 °C 45 % 1015,4 hPa 0,0 mm 0,9 km/h (0 Bft) NW 322 ° 1 min 0,000 mm 2,9 UV-I 457 W/m² 6,4 °C 18,6 °C 4,8 km/h (1 Bft)
20.10.2017 13:05 18,4 °C 18,6 °C 45 % 1015,4 hPa 0,0 mm 5,4 km/h (1 Bft) N-NW 327 ° 1 min 0,000 mm 2,8 UV-I 441 W/m² 6,3 °C 18,4 °C 8,0 km/h (2 Bft)
20.10.2017 13:06 18,4 °C 18,4 °C 46 % 1015,4 hPa 0,0 mm 6,0 km/h (2 Bft) NW 321 ° 1 min 0,000 mm 2,9 UV-I 475 W/m² 6,6 °C 18,4 °C 11,3 km/h (2 Bft)
20.10.2017 13:07 18,5 °C 18,5 °C 45 % 1015,3 hPa 0,0 mm 4,6 km/h (1 Bft) NW 309 ° 1 min 0,000 mm 2,8 UV-I 394 W/m² 6,3 °C 18,5 °C 6,4 km/h (2 Bft)
20.10.2017 13:08 18,6 °C 18,6 °C 45 % 1015,3 hPa 0,0 mm 5,1 km/h (1 Bft) NW 311 ° 1 min 0,000 mm 1,7 UV-I 394 W/m² 6,4 °C 18,6 °C 8,0 km/h (2 Bft)
20.10.2017 13:09 18,7 °C 18,7 °C 46 % 1015,3 hPa 0,0 mm 2,7 km/h (1 Bft) NW 313 ° 0 min 0,000 mm 1,7 UV-I 90 W/m² 6,8 °C 18,7 °C 4,8 km/h (1 Bft)
20.10.2017 13:10 18,6 °C 18,7 °C 47 % 1015,3 hPa 0,0 mm 3,1 km/h (1 Bft) W 269 ° 0 min 0,000 mm 2,0 UV-I 90 W/m² 7,1 °C 18,6 °C 4,8 km/h (1 Bft)
20.10.2017 13:11 18,7 °C 18,7 °C 47 % 1015,3 hPa 0,0 mm 4,1 km/h (1 Bft) W-NW 284 ° 0 min 0,000 mm 2,6 UV-I 90 W/m² 7,2 °C 18,7 °C 6,4 km/h (2 Bft)
20.10.2017 13:12 18,6 °C 18,7 °C 46 % 1015,3 hPa 0,0 mm 5,6 km/h (1 Bft) W-SW 241 ° 1 min 0,000 mm 2,9 UV-I 489 W/m² 6,8 °C 18,6 °C 12,9 km/h (3 Bft)
20.10.2017 13:13 18,7 °C 18,7 °C 43 % 1015,3 hPa 0,0 mm 4,2 km/h (1 Bft) W-SW 237 ° 1 min 0,000 mm 2,7 UV-I 427 W/m² 5,9 °C 18,7 °C 9,7 km/h (2 Bft)
20.10.2017 13:15 18,7 °C 18,7 °C 42 % 1015,3 hPa 0,0 mm 0,5 km/h (0 Bft) W-SW 237 ° 2 min 0,000 mm 2,6 UV-I 323 W/m² 5,5 °C 18,7 °C 1,6 km/h (1 Bft)
20.10.2017 13:16 18,6 °C 18,7 °C 46 % 1015,3 hPa 0,0 mm 0,0 km/h (0 Bft) W-SW 237 ° 1 min 0,000 mm 2,2 UV-I 323 W/m² 6,8 °C 18,6 °C 0,0 km/h (0 Bft)
20.10.2017 13:17 18,6 °C 18,6 °C 45 % 1015,2 hPa 0,0 mm 0,4 km/h (0 Bft) W-SW 237 ° 0 min 0,000 mm 1,8 UV-I 91 W/m² 6,4 °C 18,6 °C 1,6 km/h (1 Bft)
20.10.2017 13:18 18,6 °C 18,6 °C 46 % 1015,2 hPa 0,0 mm 0,0 km/h (0 Bft) W-SW 237 ° 0 min 0,000 mm 1,8 UV-I 134 W/m² 6,8 °C 18,6 °C 0,0 km/h (0 Bft)
20.10.2017 13:19 18,6 °C 18,6 °C 45 % 1015,2 hPa 0,0 mm 2,6 km/h (1 Bft) W 277 ° 0 min 0,000 mm 2,1 UV-I 134 W/m² 6,4 °C 18,6 °C 4,8 km/h (1 Bft)
20.10.2017 13:20 18,7 °C 18,7 °C 43 % 1015,2 hPa 0,0 mm 2,6 km/h (1 Bft) W 278 ° 1 min 0,000 mm 2,8 UV-I 468 W/m² 5,9 °C 18,7 °C 3,2 km/h (1 Bft)
20.10.2017 13:21 18,9 °C 18,9 °C 42 % 1015,2 hPa 0,0 mm 3,4 km/h (1 Bft) NW 311 ° 1 min 0,000 mm 2,6 UV-I 468 W/m² 5,7 °C 18,9 °C 4,8 km/h (1 Bft)
20.10.2017 13:22 19,0 °C 19,0 °C 43 % 1015,2 hPa 0,0 mm 4,7 km/h (1 Bft) W-NW 303 ° 1 min 0,000 mm 2,1 UV-I 468 W/m² 6,1 °C 19,0 °C 6,4 km/h (2 Bft)
20.10.2017 13:23 19,2 °C 19,2 °C 45 % 1015,2 hPa 0,0 mm 5,4 km/h (1 Bft) W-NW 288 ° 1 min 0,000 mm 2,2 UV-I 468 W/m² 7,0 °C 19,2 °C 6,4 km/h (2 Bft)
20.10.2017 13:24 19,2 °C 19,2 °C 44 % 1015,2 hPa 0,0 mm 4,5 km/h (1 Bft) NW 311 ° 1 min 0,000 mm 2,7 UV-I 489 W/m² 6,7 °C 19,2 °C 8,0 km/h (2 Bft)
20.10.2017 13:25 19,3 °C 19,3 °C 44 % 1015,2 hPa 0,0 mm 5,1 km/h (1 Bft) W-NW 282 ° 1 min 0,000 mm 2,9 UV-I 497 W/m² 6,7 °C 19,3 °C 8,0 km/h (2 Bft)
20.10.2017 13:26 19,3 °C 19,3 °C 45 % 1015,3 hPa 0,0 mm 9,1 km/h (2 Bft) W-SW 249 ° 1 min 0,000 mm 2,9 UV-I 497 W/m² 7,1 °C 19,3 °C 12,9 km/h (3 Bft)
20.10.2017 13:27 19,1 °C 19,3 °C 45 % 1015,2 hPa 0,0 mm 4,0 km/h (1 Bft) W-SW 252 ° 1 min 0,000 mm 2,9 UV-I 497 W/m² 6,9 °C 19,1 °C 11,3 km/h (2 Bft)
20.10.2017 13:28 19,0 °C 19,1 °C 44 % 1015,2 hPa 0,0 mm 1,9 km/h (1 Bft) W 268 ° 1 min 0,000 mm 2,9 UV-I 497 W/m² 6,5 °C 19,0 °C 4,8 km/h (1 Bft)
20.10.2017 13:29 18,8 °C 19,0 °C 43 % 1015,2 hPa 0,0 mm 3,4 km/h (1 Bft) NW 304 ° 1 min 0,000 mm 2,9 UV-I 499 W/m² 6,0 °C 18,8 °C 4,8 km/h (1 Bft)
20.10.2017 13:30 19,0 °C 19,0 °C 43 % 1015,2 hPa 0,0 mm 2,8 km/h (1 Bft) NW 315 ° 1 min 0,000 mm 2,9 UV-I 497 W/m² 6,1 °C 19,0 °C 4,8 km/h (1 Bft)
20.10.2017 13:31 19,1 °C 19,1 °C 43 % 1015,2 hPa 0,0 mm 0,8 km/h (0 Bft) NW 315 ° 1 min 0,000 mm 2,9 UV-I 497 W/m² 6,2 °C 19,1 °C 3,2 km/h (1 Bft)
20.10.2017 13:32 19,2 °C 19,2 °C 43 % 1015,2 hPa 0,0 mm 5,9 km/h (2 Bft) W-NW 288 ° 1 min 0,000 mm 2,9 UV-I 497 W/m² 6,3 °C 19,2 °C 8,0 km/h (2 Bft)
20.10.2017 13:34 19,4 °C 19,4 °C 44 % 1015,3 hPa 0,0 mm 4,8 km/h (1 Bft) NW 322 ° 2 min 0,000 mm 2,9 UV-I 492 W/m² 6,8 °C 19,4 °C 9,7 km/h (2 Bft)
20.10.2017 13:35 19,2 °C 19,4 °C 49 % 1015,3 hPa 0,0 mm 4,9 km/h (1 Bft) W-NW 289 ° 1 min 0,000 mm 2,9 UV-I 497 W/m² 8,2 °C 19,2 °C 8,0 km/h (2 Bft)
20.10.2017 13:36 19,1 °C 19,2 °C 43 % 1015,3 hPa 0,0 mm 5,0 km/h (1 Bft) NW 320 ° 1 min 0,000 mm 2,9 UV-I 496 W/m² 6,2 °C 19,1 °C 6,4 km/h (2 Bft)
20.10.2017 13:37 19,2 °C 19,2 °C 44 % 1015,3 hPa 0,0 mm 2,2 km/h (1 Bft) NW 323 ° 1 min 0,000 mm 2,9 UV-I 496 W/m² 6,7 °C 19,2 °C 6,4 km/h (2 Bft)
20.10.2017 13:38 19,1 °C 19,2 °C 44 % 1015,3 hPa 0,0 mm 2,5 km/h (1 Bft) W 263 ° 1 min 0,000 mm 2,9 UV-I 496 W/m² 6,6 °C 19,1 °C 4,8 km/h (1 Bft)
20.10.2017 13:39 19,1 °C 19,1 °C 47 % 1015,2 hPa 0,0 mm 1,7 km/h (1 Bft) N-NW 329 ° 1 min 0,000 mm 2,9 UV-I 494 W/m² 7,5 °C 19,1 °C 3,2 km/h (1 Bft)
20.10.2017 13:40 19,1 °C 19,1 °C 45 % 1015,3 hPa 0,0 mm 6,4 km/h (2 Bft) NW 308 ° 1 min 0,000 mm 2,9 UV-I 492 W/m² 6,9 °C 19,1 °C 12,9 km/h (3 Bft)
20.10.2017 13:41 19,2 °C 19,2 °C 42 % 1015,3 hPa 0,0 mm 6,1 km/h (2 Bft) W-NW 293 ° 1 min 0,000 mm 2,9 UV-I 492 W/m² 6,0 °C 19,2 °C 11,3 km/h (2 Bft)
20.10.2017 13:42 19,3 °C 19,3 °C 43 % 1015,3 hPa 0,0 mm 2,9 km/h (1 Bft) W-NW 288 ° 1 min 0,000 mm 2,9 UV-I 492 W/m² 6,4 °C 19,3 °C 6,4 km/h (2 Bft)
20.10.2017 13:43 19,3 °C 19,3 °C 40 % 1015,3 hPa 0,0 mm 4,0 km/h (1 Bft) W 277 ° 1 min 0,000 mm 2,9 UV-I 492 W/m² 5,4 °C 19,3 °C 6,4 km/h (2 Bft)
20.10.2017 13:44 19,3 °C 19,3 °C 44 % 1015,3 hPa 0,0 mm 2,0 km/h (1 Bft) W 262 ° 1 min 0,000 mm 2,9 UV-I 490 W/m² 6,7 °C 19,3 °C 4,8 km/h (1 Bft)
20.10.2017 13:45 19,4 °C 19,4 °C 41 % 1015,3 hPa 0,0 mm 5,5 km/h (1 Bft) NW 304 ° 1 min 0,000 mm 2,9 UV-I 490 W/m² 5,8 °C 19,4 °C 8,0 km/h (2 Bft)
20.10.2017 13:46 19,4 °C 19,4 °C 44 % 1015,3 hPa 0,0 mm 3,0 km/h (1 Bft) W-NW 301 ° 1 min 0,000 mm 2,8 UV-I 478 W/m² 6,8 °C 19,4 °C 4,8 km/h (1 Bft)
20.10.2017 13:47 19,4 °C 19,4 °C 43 % 1015,3 hPa 0,0 mm 6,9 km/h (2 Bft) W-NW 300 ° 1 min 0,000 mm 2,8 UV-I 478 W/m² 6,5 °C 19,4 °C 11,3 km/h (2 Bft)
20.10.2017 13:48 19,4 °C 19,4 °C 41 % 1015,2 hPa 0,0 mm 6,0 km/h (2 Bft) W 261 ° 1 min 0,000 mm 2,3 UV-I 345 W/m² 5,8 °C 19,4 °C 9,7 km/h (2 Bft)
20.10.2017 13:49 19,4 °C 19,4 °C 40 % 1015,2 hPa 0,0 mm 9,7 km/h (2 Bft) W 260 ° 1 min 0,000 mm 2,7 UV-I 345 W/m² 5,5 °C 19,4 °C 12,9 km/h (3 Bft)
20.10.2017 13:50 19,4 °C 19,4 °C 40 % 1015,2 hPa 0,0 mm 9,3 km/h (2 Bft) W 281 ° 1 min 0,000 mm 2,8 UV-I 455 W/m² 5,5 °C 19,4 °C 14,5 km/h (3 Bft)
20.10.2017 13:51 19,4 °C 19,4 °C 42 % 1015,2 hPa 0,0 mm 0,7 km/h (0 Bft) W 281 ° 1 min 0,000 mm 2,7 UV-I 457 W/m² 6,2 °C 19,4 °C 3,2 km/h (1 Bft)
20.10.2017 13:52 19,4 °C 19,4 °C 41 % 1015,2 hPa 0,0 mm 1,9 km/h (1 Bft) N-NW 336 ° 1 min 0,000 mm 2,8 UV-I 480 W/m² 5,8 °C 19,4 °C 4,8 km/h (1 Bft)
20.10.2017 13:53 19,5 °C 19,5 °C 42 % 1015,3 hPa 0,0 mm 3,0 km/h (1 Bft) NW 321 ° 1 min 0,000 mm 2,8 UV-I 480 W/m² 6,2 °C 19,5 °C 6,4 km/h (2 Bft)
20.10.2017 13:54 19,6 °C 19,6 °C 42 % 1015,3 hPa 0,0 mm 0,5 km/h (0 Bft) NW 321 ° 1 min 0,000 mm 2,8 UV-I 483 W/m² 6,3 °C 19,6 °C 3,2 km/h (1 Bft)
20.10.2017 13:55 19,6 °C 19,6 °C 42 % 1015,2 hPa 0,0 mm 5,9 km/h (2 Bft) W-SW 257 ° 1 min 0,000 mm 2,8 UV-I 483 W/m² 6,3 °C 19,6 °C 9,7 km/h (2 Bft)
20.10.2017 13:56 19,4 °C 19,6 °C 44 % 1015,3 hPa 0,0 mm 6,4 km/h (2 Bft) W-NW 292 ° 1 min 0,000 mm 2,8 UV-I 483 W/m² 6,8 °C 19,4 °C 9,7 km/h (2 Bft)
20.10.2017 13:57 19,4 °C 19,4 °C 42 % 1015,3 hPa 0,0 mm 5,1 km/h (1 Bft) W-NW 292 ° 1 min 0,000 mm 2,8 UV-I 482 W/m² 6,2 °C 19,4 °C 8,0 km/h (2 Bft)
20.10.2017 13:59 19,3 °C 19,4 °C 45 % 1015,2 hPa 0,0 mm 3,2 km/h (1 Bft) W-NW 282 ° 2 min 0,000 mm 2,7 UV-I 478 W/m² 7,1 °C 19,3 °C 11,3 km/h (2 Bft)
20.10.2017 14:00 19,3 °C 19,3 °C 43 % 1015,2 hPa 0,0 mm 3,4 km/h (1 Bft) W-NW 283 ° 1 min 0,000 mm 2,7 UV-I 478 W/m² 6,4 °C 19,3 °C 4,8 km/h (1 Bft)
20.10.2017 14:01 19,4 °C 19,4 °C 43 % 1015,2 hPa 0,0 mm 5,7 km/h (1 Bft) NW 321 ° 1 min 0,279 mm 2,7 UV-I 476 W/m² 6,5 °C 19,4 °C 8,0 km/h (2 Bft)
20.10.2017 14:02 19,5 °C 19,5 °C 41 % 1015,2 hPa 0,0 mm 6,7 km/h (2 Bft) N-NW 334 ° 1 min 0,000 mm 2,7 UV-I 476 W/m² 5,9 °C 19,5 °C 11,3 km/h (2 Bft)
20.10.2017 14:03 19,7 °C 19,7 °C 41 % 1015,2 hPa 0,0 mm 4,2 km/h (1 Bft) W-NW 294 ° 1 min 0,000 mm 2,7 UV-I 476 W/m² 6,1 °C 19,7 °C 6,4 km/h (2 Bft)
20.10.2017 14:04 19,7 °C 19,7 °C 39 % 1015,3 hPa 0,0 mm 6,0 km/h (2 Bft) W-NW 297 ° 1 min 0,000 mm 2,7 UV-I 475 W/m² 5,4 °C 19,7 °C 8,0 km/h (2 Bft)
20.10.2017 14:05 19,8 °C 19,8 °C 41 % 1015,3 hPa 0,0 mm 4,7 km/h (1 Bft) NW 317 ° 1 min 0,000 mm 2,7 UV-I 475 W/m² 6,2 °C 19,8 °C 6,4 km/h (2 Bft)
20.10.2017 14:06 19,8 °C 19,8 °C 41 % 1015,3 hPa 0,0 mm 2,5 km/h (1 Bft) NW 317 ° 1 min 0,000 mm 2,7 UV-I 471 W/m² 6,2 °C 19,8 °C 4,8 km/h (1 Bft)
20.10.2017 14:07 19,9 °C 19,9 °C 43 % 1015,2 hPa 0,0 mm 6,6 km/h (2 Bft) NW 311 ° 1 min 0,000 mm 2,7 UV-I 471 W/m² 6,9 °C 19,9 °C 9,7 km/h (2 Bft)
20.10.2017 14:08 19,9 °C 19,9 °C 44 % 1015,2 hPa 0,0 mm 5,5 km/h (1 Bft) W-NW 303 ° 1 min 0,000 mm 2,7 UV-I 471 W/m² 7,3 °C 19,9 °C 12,9 km/h (3 Bft)
20.10.2017 14:09 19,9 °C 19,9 °C 41 % 1015,2 hPa 0,0 mm 2,0 km/h (1 Bft) N 355 ° 1 min 0,000 mm 2,7 UV-I 469 W/m² 6,3 °C 19,9 °C 3,2 km/h (1 Bft)
20.10.2017 14:10 19,9 °C 19,9 °C 41 % 1015,2 hPa 0,0 mm 2,7 km/h (1 Bft) W 268 ° 1 min 0,000 mm 2,7 UV-I 469 W/m² 6,3 °C 19,9 °C 6,4 km/h (2 Bft)
20.10.2017 14:11 19,9 °C 19,9 °C 41 % 1015,2 hPa 0,0 mm 6,7 km/h (2 Bft) NW 321 ° 1 min 0,000 mm 2,7 UV-I 468 W/m² 6,3 °C 19,9 °C 8,0 km/h (2 Bft)
20.10.2017 14:12 19,9 °C 19,9 °C 42 % 1015,2 hPa 0,0 mm 3,2 km/h (1 Bft) N 355 ° 1 min 0,000 mm 2,6 UV-I 468 W/m² 6,6 °C 19,9 °C 8,0 km/h (2 Bft)
20.10.2017 14:13 20,0 °C 20,0 °C 40 % 1015,2 hPa 0,0 mm 3,1 km/h (1 Bft) NW 315 ° 1 min 0,000 mm 2,6 UV-I 466 W/m² 6,0 °C 20,0 °C 4,8 km/h (1 Bft)
20.10.2017 14:14 20,1 °C 20,1 °C 42 % 1015,2 hPa 0,0 mm 6,3 km/h (2 Bft) N 360 ° 1 min 0,000 mm 2,6 UV-I 466 W/m² 6,8 °C 20,1 °C 8,0 km/h (2 Bft)
20.10.2017 14:15 20,1 °C 20,1 °C 42 % 1015,2 hPa 0,0 mm 6,7 km/h (2 Bft) N 5 ° 1 min 0,000 mm 2,6 UV-I 466 W/m² 6,8 °C 20,1 °C 12,9 km/h (3 Bft)
20.10.2017 14:16 20,0 °C 20,1 °C 39 % 1015,2 hPa 0,0 mm 5,1 km/h (1 Bft) N 355 ° 1 min 0,000 mm 2,6 UV-I 464 W/m² 5,6 °C 20,0 °C 8,0 km/h (2 Bft)
20.10.2017 14:17 20,0 °C 20,1 °C 39 % 1015,2 hPa 0,0 mm 5,6 km/h (1 Bft) W-NW 291 ° 1 min 0,000 mm 2,6 UV-I 461 W/m² 5,6 °C 20,0 °C 11,3 km/h (2 Bft)
20.10.2017 14:18 20,0 °C 20,0 °C 42 % 1015,3 hPa 0,0 mm 5,5 km/h (1 Bft) W-NW 293 ° 1 min 0,000 mm 2,6 UV-I 461 W/m² 6,7 °C 20,0 °C 8,0 km/h (2 Bft)
20.10.2017 14:19 19,9 °C 20,0 °C 42 % 1015,3 hPa 0,0 mm 3,5 km/h (1 Bft) W 261 ° 1 min 0,000 mm 2,6 UV-I 459 W/m² 6,6 °C 19,9 °C 4,8 km/h (1 Bft)
20.10.2017 14:20 19,9 °C 19,9 °C 40 % 1015,2 hPa 0,0 mm 4,9 km/h (1 Bft) W 265 ° 1 min 0,000 mm 2,6 UV-I 459 W/m² 5,9 °C 19,9 °C 6,4 km/h (2 Bft)
20.10.2017 14:21 19,8 °C 19,9 °C 43 % 1015,3 hPa 0,0 mm 6,4 km/h (2 Bft) W 261 ° 1 min 0,000 mm 2,5 UV-I 457 W/m² 6,9 °C 19,8 °C 9,7 km/h (2 Bft)
20.10.2017 14:22 19,8 °C 19,8 °C 46 % 1015,3 hPa 0,0 mm 1,1 km/h (1 Bft) W 261 ° 1 min 0,000 mm 2,5 UV-I 457 W/m² 7,8 °C 19,8 °C 4,8 km/h (1 Bft)
20.10.2017 14:23 19,6 °C 19,8 °C 43 % 1015,3 hPa 0,0 mm 2,2 km/h (1 Bft) NW 317 ° 1 min 0,000 mm 2,5 UV-I 455 W/m² 6,7 °C 19,6 °C 3,2 km/h (1 Bft)
20.10.2017 14:24 19,6 °C 19,6 °C 42 % 1015,3 hPa 0,0 mm 7,5 km/h (2 Bft) NW 323 ° 1 min 0,000 mm 2,5 UV-I 454 W/m² 6,3 °C 19,6 °C 12,9 km/h (3 Bft)
20.10.2017 14:25 19,7 °C 19,7 °C 43 % 1015,3 hPa 0,0 mm 8,9 km/h (2 Bft) N-NW 329 ° 1 min 0,000 mm 2,5 UV-I 454 W/m² 6,8 °C 19,7 °C 14,5 km/h (3 Bft)
20.10.2017 14:26 19,8 °C 19,8 °C 41 % 1015,3 hPa 0,0 mm 6,2 km/h (2 Bft) NW 325 ° 1 min 0,000 mm 2,5 UV-I 452 W/m² 6,2 °C 19,8 °C 12,9 km/h (3 Bft)
20.10.2017 14:27 19,9 °C 19,9 °C 39 % 1015,3 hPa 0,0 mm 3,4 km/h (1 Bft) NW 322 ° 1 min 0,000 mm 2,5 UV-I 452 W/m² 5,5 °C 19,9 °C 4,8 km/h (1 Bft)
20.10.2017 14:29 19,9 °C 19,9 °C 41 % 1015,3 hPa 0,0 mm 4,9 km/h (1 Bft) W-NW 299 ° 2 min 0,000 mm 2,5 UV-I 446 W/m² 6,3 °C 19,9 °C 12,9 km/h (3 Bft)
20.10.2017 14:30 19,9 °C 19,9 °C 42 % 1015,3 hPa 0,0 mm 5,4 km/h (1 Bft) W 281 ° 1 min 0,000 mm 2,5 UV-I 446 W/m² 6,6 °C 19,9 °C 6,4 km/h (2 Bft)
20.10.2017 14:31 19,9 °C 19,9 °C 41 % 1015,3 hPa 0,0 mm 7,2 km/h (2 Bft) W-NW 288 ° 1 min 0,000 mm 2,5 UV-I 445 W/m² 6,3 °C 19,9 °C 11,3 km/h (2 Bft)
20.10.2017 14:32 19,9 °C 19,9 °C 40 % 1015,3 hPa 0,0 mm 6,3 km/h (2 Bft) NW 315 ° 1 min 0,000 mm 2,4 UV-I 445 W/m² 5,9 °C 19,9 °C 9,7 km/h (2 Bft)
20.10.2017 14:33 19,9 °C 19,9 °C 42 % 1015,3 hPa 0,0 mm 5,8 km/h (2 Bft) NW 311 ° 1 min 0,000 mm 2,4 UV-I 445 W/m² 6,6 °C 19,9 °C 8,0 km/h (2 Bft)
20.10.2017 14:34 19,9 °C 19,9 °C 39 % 1015,3 hPa 0,0 mm 5,0 km/h (1 Bft) NW 322 ° 1 min 0,000 mm 2,4 UV-I 443 W/m² 5,5 °C 19,9 °C 6,4 km/h (2 Bft)
20.10.2017 14:35 19,9 °C 19,9 °C 41 % 1015,3 hPa 0,0 mm 4,0 km/h (1 Bft) NW 317 ° 1 min 0,000 mm 2,4 UV-I 439 W/m² 6,3 °C 19,9 °C 6,4 km/h (2 Bft)
20.10.2017 14:36 19,9 °C 19,9 °C 39 % 1015,3 hPa 0,0 mm 4,8 km/h (1 Bft) W-SW 242 ° 1 min 0,000 mm 2,4 UV-I 439 W/m² 5,5 °C 19,9 °C 9,7 km/h (2 Bft)
20.10.2017 14:37 19,9 °C 19,9 °C 43 % 1015,3 hPa 0,0 mm 5,6 km/h (1 Bft) W-SW 255 ° 1 min 0,000 mm 2,4 UV-I 439 W/m² 6,9 °C 19,9 °C 8,0 km/h (2 Bft)
20.10.2017 14:38 19,7 °C 19,9 °C 41 % 1015,2 hPa 0,0 mm 2,4 km/h (1 Bft) W-SW 255 ° 1 min 0,000 mm 2,4 UV-I 438 W/m² 6,1 °C 19,7 °C 4,8 km/h (1 Bft)
20.10.2017 14:39 19,6 °C 19,7 °C 43 % 1015,2 hPa 0,0 mm 1,9 km/h (1 Bft) W-SW 255 ° 1 min 0,000 mm 2,4 UV-I 436 W/m² 6,7 °C 19,6 °C 3,2 km/h (1 Bft)
20.10.2017 14:40 19,6 °C 19,6 °C 42 % 1015,2 hPa 0,0 mm 3,2 km/h (1 Bft) W 279 ° 1 min 0,000 mm 2,4 UV-I 434 W/m² 6,3 °C 19,6 °C 6,4 km/h (2 Bft)
20.10.2017 14:41 19,6 °C 19,6 °C 41 % 1015,2 hPa 0,0 mm 1,0 km/h (0 Bft) N-NO 24 ° 1 min 0,000 mm 2,4 UV-I 432 W/m² 6,0 °C 19,6 °C 3,2 km/h (1 Bft)
20.10.2017 14:42 19,7 °C 19,7 °C 43 % 1015,2 hPa 0,0 mm 2,7 km/h (1 Bft) N-NW 327 ° 1 min 0,000 mm 2,3 UV-I 432 W/m² 6,8 °C 19,7 °C 4,8 km/h (1 Bft)
20.10.2017 14:43 19,8 °C 19,8 °C 44 % 1015,2 hPa 0,0 mm 3,2 km/h (1 Bft) NW 315 ° 1 min 0,000 mm 2,3 UV-I 431 W/m² 7,2 °C 19,8 °C 4,8 km/h (1 Bft)
20.10.2017 14:44 19,7 °C 19,8 °C 46 % 1015,2 hPa 0,0 mm 7,2 km/h (2 Bft) NW 319 ° 1 min 0,000 mm 2,3 UV-I 429 W/m² 7,8 °C 19,7 °C 9,7 km/h (2 Bft)
20.10.2017 14:45 19,7 °C 19,7 °C 44 % 1015,2 hPa 0,0 mm 4,6 km/h (1 Bft) NW 310 ° 1 min 0,000 mm 2,3 UV-I 427 W/m² 7,1 °C 19,7 °C 6,4 km/h (2 Bft)
20.10.2017 14:46 19,8 °C 19,8 °C 42 % 1015,2 hPa 0,0 mm 4,1 km/h (1 Bft) W-NW 298 ° 1 min 0,000 mm 2,3 UV-I 425 W/m² 6,5 °C 19,8 °C 6,4 km/h (2 Bft)
20.10.2017 14:47 19,9 °C 19,9 °C 43 % 1015,2 hPa 0,0 mm 3,7 km/h (1 Bft) N-NW 337 ° 1 min 0,000 mm 2,3 UV-I 425 W/m² 6,9 °C 19,9 °C 6,4 km/h (2 Bft)
20.10.2017 14:48 19,9 °C 19,9 °C 43 % 1015,2 hPa 0,0 mm 3,0 km/h (1 Bft) N-NW 327 ° 1 min 0,000 mm 2,3 UV-I 424 W/m² 6,9 °C 19,9 °C 4,8 km/h (1 Bft)
20.10.2017 14:49 19,9 °C 19,9 °C 40 % 1015,2 hPa 0,0 mm 1,1 km/h (1 Bft) N-NW 327 ° 1 min 0,000 mm 2,3 UV-I 422 W/m² 5,9 °C 19,9 °C 3,2 km/h (1 Bft)
20.10.2017 14:50 20,0 °C 20,0 °C 40 % 1015,2 hPa 0,0 mm 0,5 km/h (0 Bft) NW 314 ° 1 min 0,000 mm 2,2 UV-I 420 W/m² 6,0 °C 20,0 °C 3,2 km/h (1 Bft)
20.10.2017 14:51 20,1 °C 20,1 °C 39 % 1015,2 hPa 0,0 mm 5,0 km/h (1 Bft) W 259 ° 1 min 0,000 mm 2,2 UV-I 418 W/m² 5,7 °C 20,1 °C 11,3 km/h (2 Bft)
20.10.2017 14:52 19,9 °C 20,1 °C 42 % 1015,2 hPa 0,0 mm 8,2 km/h (2 Bft) W-SW 257 ° 1 min 0,000 mm 2,2 UV-I 417 W/m² 6,6 °C 19,9 °C 11,3 km/h (2 Bft)
20.10.2017 14:53 19,8 °C 19,9 °C 49 % 1015,2 hPa 0,0 mm 6,3 km/h (2 Bft) W-SW 252 ° 1 min 0,000 mm 2,2 UV-I 417 W/m² 8,8 °C 19,8 °C 9,7 km/h (2 Bft)
20.10.2017 14:54 19,7 °C 19,8 °C 42 % 1015,2 hPa 0,0 mm 2,5 km/h (1 Bft) W-SW 239 ° 1 min 0,000 mm 2,2 UV-I 415 W/m² 6,4 °C 19,7 °C 6,4 km/h (2 Bft)
20.10.2017 14:55 19,7 °C 19,7 °C 45 % 1015,2 hPa 0,0 mm 6,6 km/h (2 Bft) W-SW 256 ° 1 min 0,000 mm 2,2 UV-I 415 W/m² 7,4 °C 19,7 °C 12,9 km/h (3 Bft)
20.10.2017 14:56 19,6 °C 19,7 °C 48 % 1015,2 hPa 0,0 mm 7,1 km/h (2 Bft) W 277 ° 1 min 0,000 mm 2,2 UV-I 411 W/m² 8,3 °C 19,6 °C 11,3 km/h (2 Bft)
20.10.2017 14:57 19,6 °C 19,6 °C 40 % 1015,2 hPa 0,0 mm 4,8 km/h (1 Bft) W-NW 288 ° 1 min 0,000 mm 2,2 UV-I 410 W/m² 5,6 °C 19,6 °C 11,3 km/h (2 Bft)
20.10.2017 14:58 19,7 °C 19,7 °C 41 % 1015,2 hPa 0,0 mm 6,0 km/h (2 Bft) N-NW 340 ° 1 min 0,000 mm 2,2 UV-I 406 W/m² 6,1 °C 19,7 °C 8,0 km/h (2 Bft)
20.10.2017 14:59 19,8 °C 19,8 °C 40 % 1015,2 hPa 0,0 mm 8,1 km/h (2 Bft) N-NW 333 ° 1 min 0,000 mm 2,2 UV-I 406 W/m² 5,8 °C 19,8 °C 14,5 km/h (3 Bft)
20.10.2017 15:00 19,8 °C 19,8 °C 40 % 1015,2 hPa 0,0 mm 8,1 km/h (2 Bft) NW 318 ° 1 min 0,305 mm 2,1 UV-I 406 W/m² 5,8 °C 19,8 °C 14,5 km/h (3 Bft)
20.10.2017 15:01 19,9 °C 19,9 °C 38 % 1015,2 hPa 0,0 mm 10,7 km/h (2 Bft) NW 325 ° 1 min 0,000 mm 2,1 UV-I 403 W/m² 5,2 °C 19,9 °C 12,9 km/h (3 Bft)
20.10.2017 15:02 19,9 °C 19,9 °C 38 % 1015,2 hPa 0,0 mm 9,8 km/h (2 Bft) W 261 ° 1 min 0,000 mm 2,1 UV-I 403 W/m² 5,2 °C 19,9 °C 14,5 km/h (3 Bft)
20.10.2017 15:03 19,9 °C 19,9 °C 39 % 1015,2 hPa 0,0 mm 11,2 km/h (2 Bft) NW 321 ° 1 min 0,000 mm 2,1 UV-I 403 W/m² 5,5 °C 19,9 °C 17,7 km/h (3 Bft)
20.10.2017 15:04 19,9 °C 19,9 °C 40 % 1015,3 hPa 0,0 mm 7,7 km/h (2 Bft) NW 306 ° 1 min 0,000 mm 2,1 UV-I 399 W/m² 5,9 °C 19,9 °C 11,3 km/h (2 Bft)
20.10.2017 15:05 19,9 °C 19,9 °C 37 % 1015,2 hPa 0,0 mm 6,3 km/h (2 Bft) N-NW 334 ° 1 min 0,000 mm 2,1 UV-I 399 W/m² 4,8 °C 19,9 °C 9,7 km/h (2 Bft)
20.10.2017 15:06 19,8 °C 19,9 °C 36 % 1015,2 hPa 0,0 mm 6,0 km/h (2 Bft) N-NW 336 ° 1 min 0,000 mm 2,1 UV-I 397 W/m² 4,3 °C 19,8 °C 8,0 km/h (2 Bft)
20.10.2017 15:07 19,9 °C 19,9 °C 36 % 1015,2 hPa 0,0 mm 3,4 km/h (1 Bft) W-NW 300 ° 1 min 0,000 mm 2,1 UV-I 396 W/m² 4,4 °C 19,9 °C 6,4 km/h (2 Bft)
20.10.2017 15:08 19,8 °C 19,9 °C 36 % 1015,3 hPa 0,0 mm 5,5 km/h (1 Bft) NW 320 ° 1 min 0,000 mm 2,0 UV-I 394 W/m² 4,3 °C 19,8 °C 12,9 km/h (3 Bft)
20.10.2017 15:09 19,8 °C 19,8 °C 38 % 1015,2 hPa 0,0 mm 5,4 km/h (1 Bft) W-NW 283 ° 1 min 0,000 mm 2,0 UV-I 392 W/m² 5,1 °C 19,8 °C 9,7 km/h (2 Bft)
20.10.2017 15:10 19,8 °C 19,8 °C 36 % 1015,2 hPa 0,0 mm 3,5 km/h (1 Bft) NW 316 ° 1 min 0,000 mm 2,0 UV-I 388 W/m² 4,3 °C 19,8 °C 4,8 km/h (1 Bft)
20.10.2017 15:11 19,8 °C 19,8 °C 37 % 1015,3 hPa 0,0 mm 4,7 km/h (1 Bft) NW 304 ° 1 min 0,000 mm 2,0 UV-I 387 W/m² 4,7 °C 19,8 °C 8,0 km/h (2 Bft)
20.10.2017 15:12 19,8 °C 19,8 °C 37 % 1015,2 hPa 0,0 mm 1,3 km/h (1 Bft) NW 313 ° 1 min 0,000 mm 2,0 UV-I 387 W/m² 4,7 °C 19,8 °C 3,2 km/h (1 Bft)
20.10.2017 15:13 19,8 °C 19,8 °C 39 % 1015,3 hPa 0,0 mm 9,4 km/h (2 Bft) W-NW 287 ° 1 min 0,000 mm 2,0 UV-I 385 W/m² 5,4 °C 19,8 °C 12,9 km/h (3 Bft)
20.10.2017 15:14 19,8 °C 19,8 °C 41 % 1015,3 hPa 0,0 mm 6,0 km/h (2 Bft) NW 325 ° 1 min 0,000 mm 2,0 UV-I 383 W/m² 6,2 °C 19,8 °C 8,0 km/h (2 Bft)
20.10.2017 15:15 19,8 °C 19,8 °C 40 % 1015,3 hPa 0,0 mm 3,4 km/h (1 Bft) NW 314 ° 1 min 0,000 mm 2,0 UV-I 383 W/m² 5,8 °C 19,8 °C 6,4 km/h (2 Bft)
20.10.2017 15:16 19,8 °C 19,8 °C 40 % 1015,3 hPa 0,0 mm 5,3 km/h (1 Bft) W-NW 289 ° 1 min 0,000 mm 2,0 UV-I 380 W/m² 5,8 °C 19,8 °C 9,7 km/h (2 Bft)
20.10.2017 15:17 19,8 °C 19,8 °C 40 % 1015,3 hPa 0,0 mm 5,1 km/h (1 Bft) W 277 ° 1 min 0,000 mm 1,9 UV-I 378 W/m² 5,8 °C 19,8 °C 8,0 km/h (2 Bft)
20.10.2017 15:18 19,8 °C 19,8 °C 40 % 1015,3 hPa 0,0 mm 7,1 km/h (2 Bft) N-NW 338 ° 1 min 0,000 mm 1,9 UV-I 376 W/m² 5,8 °C 19,8 °C 11,3 km/h (2 Bft)
20.10.2017 15:19 19,7 °C 19,8 °C 40 % 1015,3 hPa 0,0 mm 3,6 km/h (1 Bft) NW 316 ° 1 min 0,000 mm 1,9 UV-I 374 W/m² 5,7 °C 19,7 °C 6,4 km/h (2 Bft)
20.10.2017 15:20 19,7 °C 19,8 °C 44 % 1015,3 hPa 0,0 mm 3,4 km/h (1 Bft) NW 321 ° 1 min 0,000 mm 1,9 UV-I 373 W/m² 7,1 °C 19,7 °C 4,8 km/h (1 Bft)
20.10.2017 15:21 19,7 °C 19,7 °C 38 % 1015,3 hPa 0,0 mm 2,4 km/h (1 Bft) NW 321 ° 1 min 0,000 mm 1,9 UV-I 373 W/m² 5,0 °C 19,7 °C 3,2 km/h (1 Bft)
20.10.2017 15:22 19,8 °C 19,8 °C 39 % 1015,3 hPa 0,0 mm 4,6 km/h (1 Bft) NW 324 ° 1 min 0,000 mm 1,9 UV-I 367 W/m² 5,4 °C 19,8 °C 8,0 km/h (2 Bft)
20.10.2017 15:23 19,8 °C 19,8 °C 41 % 1015,3 hPa 0,0 mm 8,3 km/h (2 Bft) NW 319 ° 1 min 0,000 mm 1,9 UV-I 367 W/m² 6,2 °C 19,8 °C 12,9 km/h (3 Bft)
20.10.2017 15:24 19,8 °C 19,8 °C 39 % 1015,3 hPa 0,0 mm 5,1 km/h (1 Bft) NW 325 ° 1 min 0,000 mm 1,8 UV-I 366 W/m² 5,4 °C 19,8 °C 6,4 km/h (2 Bft)
20.10.2017 15:25 19,8 °C 19,9 °C 39 % 1015,3 hPa 0,0 mm 7,2 km/h (2 Bft) NW 323 ° 1 min 0,000 mm 1,8 UV-I 364 W/m² 5,4 °C 19,8 °C 11,3 km/h (2 Bft)
20.10.2017 15:26 19,8 °C 19,8 °C 38 % 1015,3 hPa 0,0 mm 4,0 km/h (1 Bft) W-NW 289 ° 1 min 0,000 mm 1,8 UV-I 362 W/m² 5,1 °C 19,8 °C 4,8 km/h (1 Bft)
20.10.2017 15:27 19,8 °C 19,9 °C 40 % 1015,3 hPa 0,0 mm 4,8 km/h (1 Bft) N-NW 327 ° 1 min 0,000 mm 1,8 UV-I 359 W/m² 5,8 °C 19,8 °C 6,4 km/h (2 Bft)
20.10.2017 15:28 19,8 °C 19,8 °C 39 % 1015,3 hPa 0,0 mm 4,6 km/h (1 Bft) NW 313 ° 1 min 0,000 mm 1,8 UV-I 357 W/m² 5,4 °C 19,8 °C 9,7 km/h (2 Bft)
20.10.2017 15:29 19,8 °C 19,8 °C 39 % 1015,3 hPa 0,0 mm 4,9 km/h (1 Bft) W-NW 296 ° 1 min 0,000 mm 1,8 UV-I 355 W/m² 5,4 °C 19,8 °C 6,4 km/h (2 Bft)
20.10.2017 15:30 19,8 °C 19,8 °C 39 % 1015,3 hPa 0,0 mm 4,5 km/h (1 Bft) W 275 ° 1 min 0,000 mm 1,7 UV-I 353 W/m² 5,4 °C 19,8 °C 8,0 km/h (2 Bft)
20.10.2017 15:31 19,7 °C 19,8 °C 38 % 1015,3 hPa 0,0 mm 4,8 km/h (1 Bft) NW 316 ° 1 min 0,000 mm 1,7 UV-I 352 W/m² 5,0 °C 19,7 °C 8,0 km/h (2 Bft)
20.10.2017 15:32 19,7 °C 19,7 °C 39 % 1015,3 hPa 0,0 mm 5,5 km/h (1 Bft) W-NW 283 ° 1 min 0,000 mm 1,7 UV-I 350 W/m² 5,4 °C 19,7 °C 11,3 km/h (2 Bft)
20.10.2017 15:34 19,7 °C 19,7 °C 40 % 1015,3 hPa 0,0 mm 5,0 km/h (1 Bft) N-NW 344 ° 2 min 0,000 mm 1,7 UV-I 343 W/m² 5,7 °C 19,7 °C 8,0 km/h (2 Bft)
20.10.2017 15:35 19,7 °C 19,7 °C 39 % 1015,2 hPa 0,0 mm 2,6 km/h (1 Bft) NW 322 ° 1 min 0,000 mm 1,7 UV-I 343 W/m² 5,4 °C 19,7 °C 3,2 km/h (1 Bft)
20.10.2017 15:36 19,8 °C 19,8 °C 39 % 1015,2 hPa 0,0 mm 2,8 km/h (1 Bft) W-NW 295 ° 1 min 0,000 mm 1,7 UV-I 341 W/m² 5,4 °C 19,8 °C 4,8 km/h (1 Bft)
20.10.2017 15:37 19,8 °C 19,8 °C 38 % 1015,2 hPa 0,0 mm 4,8 km/h (1 Bft) W-NW 284 ° 1 min 0,000 mm 1,6 UV-I 339 W/m² 5,1 °C 19,8 °C 8,0 km/h (2 Bft)
20.10.2017 15:38 19,8 °C 19,8 °C 39 % 1015,2 hPa 0,0 mm 11,4 km/h (2 Bft) W-NW 283 ° 1 min 0,000 mm 1,6 UV-I 338 W/m² 5,4 °C 19,8 °C 12,9 km/h (3 Bft)
20.10.2017 15:39 19,7 °C 19,8 °C 41 % 1015,2 hPa 0,0 mm 3,9 km/h (1 Bft) W 279 ° 1 min 0,000 mm 1,6 UV-I 334 W/m² 6,1 °C 19,7 °C 6,4 km/h (2 Bft)
20.10.2017 15:40 19,6 °C 19,7 °C 43 % 1015,2 hPa 0,0 mm 4,7 km/h (1 Bft) W 279 ° 1 min 0,000 mm 1,6 UV-I 332 W/m² 6,7 °C 19,6 °C 6,4 km/h (2 Bft)
20.10.2017 15:41 19,4 °C 19,6 °C 45 % 1015,3 hPa 0,0 mm 5,1 km/h (1 Bft) W-NW 295 ° 1 min 0,000 mm 1,6 UV-I 330 W/m² 7,2 °C 19,4 °C 9,7 km/h (2 Bft)
20.10.2017 15:42 19,4 °C 19,4 °C 39 % 1015,3 hPa 0,0 mm 5,6 km/h (1 Bft) NW 315 ° 1 min 0,000 mm 1,6 UV-I 329 W/m² 5,1 °C 19,4 °C 9,7 km/h (2 Bft)
20.10.2017 15:43 19,4 °C 19,4 °C 39 % 1015,3 hPa 0,0 mm 9,5 km/h (2 Bft) W 273 ° 1 min 0,000 mm 1,6 UV-I 325 W/m² 5,1 °C 19,4 °C 12,9 km/h (3 Bft)
20.10.2017 15:44 19,4 °C 19,5 °C 39 % 1015,3 hPa 0,0 mm 6,9 km/h (2 Bft) W 264 ° 1 min 0,000 mm 1,5 UV-I 325 W/m² 5,1 °C 19,4 °C 9,7 km/h (2 Bft)
20.10.2017 15:45 19,3 °C 19,4 °C 43 % 1015,3 hPa 0,0 mm 7,6 km/h (2 Bft) W 276 ° 1 min 0,000 mm 1,5 UV-I 322 W/m² 6,4 °C 19,3 °C 12,9 km/h (3 Bft)
20.10.2017 15:46 19,3 °C 19,3 °C 39 % 1015,3 hPa 0,0 mm 7,9 km/h (2 Bft) W-NW 295 ° 1 min 0,000 mm 1,5 UV-I 320 W/m² 5,0 °C 19,3 °C 11,3 km/h (2 Bft)
20.10.2017 15:47 19,4 °C 19,4 °C 39 % 1015,2 hPa 0,0 mm 1,9 km/h (1 Bft) W-NW 300 ° 1 min 0,000 mm 1,5 UV-I 318 W/m² 5,1 °C 19,4 °C 3,2 km/h (1 Bft)
20.10.2017 15:48 19,3 °C 19,4 °C 41 % 1015,2 hPa 0,0 mm 2,7 km/h (1 Bft) W 261 ° 1 min 0,000 mm 1,5 UV-I 316 W/m² 5,7 °C 19,3 °C 6,4 km/h (2 Bft)
20.10.2017 15:49 19,3 °C 19,3 °C 39 % 1015,3 hPa 0,0 mm 4,8 km/h (1 Bft) SW 233 ° 1 min 0,000 mm 1,5 UV-I 315 W/m² 5,0 °C 19,3 °C 11,3 km/h (2 Bft)
20.10.2017 15:50 19,3 °C 19,3 °C 39 % 1015,2 hPa 0,0 mm 0,8 km/h (0 Bft) W 267 ° 1 min 0,000 mm 1,5 UV-I 311 W/m² 5,0 °C 19,3 °C 3,2 km/h (1 Bft)
20.10.2017 15:51 19,4 °C 19,4 °C 38 % 1015,2 hPa 0,0 mm 2,8 km/h (1 Bft) SW 232 ° 1 min 0,000 mm 1,4 UV-I 308 W/m² 4,7 °C 19,4 °C 4,8 km/h (1 Bft)
20.10.2017 15:52 19,4 °C 19,4 °C 39 % 1015,2 hPa 0,0 mm 5,6 km/h (1 Bft) NW 305 ° 1 min 0,000 mm 1,4 UV-I 306 W/m² 5,1 °C 19,4 °C 9,7 km/h (2 Bft)
20.10.2017 15:53 19,3 °C 19,4 °C 41 % 1015,2 hPa 0,0 mm 2,0 km/h (1 Bft) W-NW 290 ° 1 min 0,000 mm 1,4 UV-I 306 W/m² 5,7 °C 19,3 °C 4,8 km/h (1 Bft)
20.10.2017 15:54 19,2 °C 19,3 °C 42 % 1015,2 hPa 0,0 mm 2,1 km/h (1 Bft) N-NW 331 ° 1 min 0,000 mm 1,4 UV-I 304 W/m² 6,0 °C 19,2 °C 4,8 km/h (1 Bft)
20.10.2017 15:55 19,2 °C 19,2 °C 42 % 1015,2 hPa 0,0 mm 1,4 km/h (1 Bft) NW 315 ° 1 min 0,000 mm 1,4 UV-I 302 W/m² 6,0 °C 19,2 °C 3,2 km/h (1 Bft)
20.10.2017 15:56 19,0 °C 19,2 °C 42 % 1015,2 hPa 0,0 mm 2,0 km/h (1 Bft) W-NW 284 ° 1 min 0,000 mm 1,4 UV-I 297 W/m² 5,8 °C 19,0 °C 4,8 km/h (1 Bft)
20.10.2017 15:57 19,1 °C 19,1 °C 42 % 1015,2 hPa 0,0 mm 2,5 km/h (1 Bft) W-NW 284 ° 1 min 0,000 mm 1,4 UV-I 295 W/m² 5,9 °C 19,1 °C 4,8 km/h (1 Bft)
20.10.2017 15:58 18,9 °C 19,1 °C 43 % 1015,2 hPa 0,0 mm 2,4 km/h (1 Bft) W 269 ° 1 min 0,000 mm 1,3 UV-I 294 W/m² 6,0 °C 18,9 °C 3,2 km/h (1 Bft)
20.10.2017 16:00 18,9 °C 19,0 °C 43 % 1015,2 hPa 0,0 mm 5,3 km/h (1 Bft) NW 307 ° 2 min 0,254 mm 1,3 UV-I 290 W/m² 6,0 °C 18,9 °C 9,7 km/h (2 Bft)
20.10.2017 16:01 18,8 °C 18,9 °C 44 % 1015,1 hPa 0,0 mm 4,6 km/h (1 Bft) NW 306 ° 0 min 0,000 mm 1,3 UV-I 287 W/m² 6,3 °C 18,8 °C 6,4 km/h (2 Bft)
20.10.2017 16:02 18,8 °C 18,8 °C 42 % 1015,1 hPa 0,0 mm 2,7 km/h (1 Bft) W 268 ° 0 min 0,000 mm 1,3 UV-I 287 W/m² 5,6 °C 18,8 °C 6,4 km/h (2 Bft)
20.10.2017 16:03 18,8 °C 18,8 °C 46 % 1015,1 hPa 0,0 mm 4,9 km/h (1 Bft) NW 306 ° 0 min 0,000 mm 1,3 UV-I 281 W/m² 6,9 °C 18,8 °C 6,4 km/h (2 Bft)
20.10.2017 16:04 18,6 °C 18,8 °C 45 % 1015,1 hPa 0,0 mm 4,0 km/h (1 Bft) W-NW 286 ° 0 min 0,000 mm 1,3 UV-I 279 W/m² 6,4 °C 18,6 °C 6,4 km/h (2 Bft)
20.10.2017 16:05 18,7 °C 18,7 °C 42 % 1015,2 hPa 0,0 mm 6,7 km/h (2 Bft) W-NW 284 ° 0 min 0,000 mm 1,3 UV-I 279 W/m² 5,5 °C 18,7 °C 9,7 km/h (2 Bft)
20.10.2017 16:06 18,9 °C 18,9 °C 42 % 1015,2 hPa 0,0 mm 3,7 km/h (1 Bft) W-NW 296 ° 0 min 0,000 mm 1,3 UV-I 276 W/m² 5,7 °C 18,9 °C 8,0 km/h (2 Bft)
20.10.2017 16:07 19,0 °C 19,1 °C 43 % 1015,2 hPa 0,0 mm 3,5 km/h (1 Bft) W 281 ° 0 min 0,000 mm 1,2 UV-I 274 W/m² 6,1 °C 19,0 °C 4,8 km/h (1 Bft)
20.10.2017 16:08 19,1 °C 19,1 °C 42 % 1015,2 hPa 0,0 mm 3,9 km/h (1 Bft) W 277 ° 0 min 0,000 mm 1,2 UV-I 269 W/m² 5,9 °C 19,1 °C 4,8 km/h (1 Bft)
20.10.2017 16:09 19,1 °C 19,1 °C 41 % 1015,2 hPa 0,0 mm 2,8 km/h (1 Bft) NW 310 ° 0 min 0,000 mm 1,2 UV-I 267 W/m² 5,5 °C 19,1 °C 4,8 km/h (1 Bft)
20.10.2017 16:10 19,2 °C 19,2 °C 42 % 1015,1 hPa 0,0 mm 3,2 km/h (1 Bft) W-NW 295 ° 0 min 0,000 mm 1,2 UV-I 264 W/m² 6,0 °C 19,2 °C 6,4 km/h (2 Bft)
20.10.2017 16:11 19,3 °C 19,3 °C 41 % 1015,1 hPa 0,0 mm 2,3 km/h (1 Bft) NW 304 ° 0 min 0,000 mm 1,2 UV-I 262 W/m² 5,7 °C 19,3 °C 4,8 km/h (1 Bft)
20.10.2017 16:12 19,2 °C 19,3 °C 41 % 1015,2 hPa 0,0 mm 4,6 km/h (1 Bft) W-NW 284 ° 0 min 0,000 mm 1,1 UV-I 262 W/m² 5,6 °C 19,2 °C 8,0 km/h (2 Bft)
20.10.2017 16:13 19,2 °C 19,3 °C 44 % 1015,2 hPa 0,0 mm 3,0 km/h (1 Bft) W-NW 292 ° 0 min 0,000 mm 1,1 UV-I 216 W/m² 6,7 °C 19,2 °C 4,8 km/h (1 Bft)
20.10.2017 16:14 19,1 °C 19,2 °C 45 % 1015,2 hPa 0,0 mm 2,7 km/h (1 Bft) W 268 ° 0 min 0,000 mm 1,1 UV-I 213 W/m² 6,9 °C 19,1 °C 6,4 km/h (2 Bft)
20.10.2017 16:15 19,1 °C 19,1 °C 42 % 1015,2 hPa 0,0 mm 3,9 km/h (1 Bft) W 273 ° 0 min 0,000 mm 1,1 UV-I 213 W/m² 5,9 °C 19,1 °C 6,4 km/h (2 Bft)
20.10.2017 16:16 18,9 °C 19,1 °C 44 % 1015,2 hPa 0,0 mm 4,8 km/h (1 Bft) NW 313 ° 0 min 0,000 mm 1,0 UV-I 156 W/m² 6,4 °C 18,9 °C 9,7 km/h (2 Bft)
20.10.2017 16:17 18,9 °C 18,9 °C 43 % 1015,2 hPa 0,0 mm 8,8 km/h (2 Bft) NW 306 ° 0 min 0,000 mm 1,0 UV-I 127 W/m² 6,0 °C 18,9 °C 12,9 km/h (3 Bft)
20.10.2017 16:18 18,8 °C 18,9 °C 44 % 1015,2 hPa 0,0 mm 4,4 km/h (1 Bft) NW 317 ° 0 min 0,000 mm 0,9 UV-I 98 W/m² 6,3 °C 18,8 °C 8,0 km/h (2 Bft)
20.10.2017 16:19 18,8 °C 18,8 °C 44 % 1015,3 hPa 0,0 mm 5,2 km/h (1 Bft) NW 310 ° 0 min 0,000 mm 0,9 UV-I 65 W/m² 6,3 °C 18,8 °C 6,4 km/h (2 Bft)
20.10.2017 16:20 18,7 °C 18,8 °C 43 % 1015,2 hPa 0,0 mm 8,0 km/h (2 Bft) NW 320 ° 0 min 0,000 mm 0,0 UV-I 62 W/m² 5,9 °C 18,7 °C 12,9 km/h (3 Bft)
20.10.2017 16:21 18,7 °C 18,7 °C 43 % 1015,3 hPa 0,0 mm 4,5 km/h (1 Bft) NW 320 ° 0 min 0,000 mm 0,9 UV-I 58 W/m² 5,9 °C 18,7 °C 9,7 km/h (2 Bft)
20.10.2017 16:22 18,7 °C 18,7 °C 43 % 1015,3 hPa 0,0 mm 4,1 km/h (1 Bft) NW 313 ° 0 min 0,000 mm 0,0 UV-I 44 W/m² 5,9 °C 18,7 °C 8,0 km/h (2 Bft)
20.10.2017 16:23 18,7 °C 18,7 °C 43 % 1015,3 hPa 0,0 mm 5,8 km/h (2 Bft) W-NW 298 ° 0 min 0,000 mm 0,0 UV-I 42 W/m² 5,9 °C 18,7 °C 12,9 km/h (3 Bft)
20.10.2017 16:24 18,7 °C 18,7 °C 42 % 1015,3 hPa 0,0 mm 5,3 km/h (1 Bft) NW 309 ° 0 min 0,000 mm 0,0 UV-I 42 W/m² 5,5 °C 18,7 °C 9,7 km/h (2 Bft)
20.10.2017 16:25 18,7 °C 18,7 °C 43 % 1015,3 hPa 0,0 mm 4,5 km/h (1 Bft) W-NW 293 ° 0 min 0,000 mm 0,0 UV-I 40 W/m² 5,9 °C 18,7 °C 6,4 km/h (2 Bft)
20.10.2017 16:26 18,7 °C 18,7 °C 45 % 1015,3 hPa 0,0 mm 5,0 km/h (1 Bft) W-NW 292 ° 0 min 0,000 mm 0,0 UV-I 39 W/m² 6,5 °C 18,7 °C 6,4 km/h (2 Bft)
20.10.2017 16:27 18,6 °C 18,7 °C 43 % 1015,3 hPa 0,0 mm 4,5 km/h (1 Bft) W-NW 294 ° 0 min 0,000 mm 0,0 UV-I 40 W/m² 5,8 °C 18,6 °C 6,4 km/h (2 Bft)
20.10.2017 16:28 18,6 °C 18,6 °C 44 % 1015,3 hPa 0,0 mm 2,2 km/h (1 Bft) W-NW 302 ° 0 min 0,000 mm 0,0 UV-I 40 W/m² 6,1 °C 18,6 °C 4,8 km/h (1 Bft)
20.10.2017 16:29 18,5 °C 18,6 °C 43 % 1015,4 hPa 0,0 mm 3,3 km/h (1 Bft) W-NW 282 ° 0 min 0,000 mm 0,0 UV-I 39 W/m² 5,7 °C 18,5 °C 9,7 km/h (2 Bft)
20.10.2017 16:30 18,6 °C 18,6 °C 43 % 1015,4 hPa 0,0 mm 6,2 km/h (2 Bft) W-NW 297 ° 0 min 0,000 mm 0,0 UV-I 39 W/m² 5,8 °C 18,6 °C 11,3 km/h (2 Bft)
20.10.2017 16:31 18,6 °C 18,6 °C 44 % 1015,4 hPa 0,0 mm 4,7 km/h (1 Bft) NW 304 ° 0 min 0,000 mm 0,0 UV-I 37 W/m² 6,1 °C 18,6 °C 8,0 km/h (2 Bft)
20.10.2017 16:32 18,6 °C 18,6 °C 43 % 1015,4 hPa 0,0 mm 4,5 km/h (1 Bft) NW 319 ° 0 min 0,000 mm 0,0 UV-I 33 W/m² 5,8 °C 18,6 °C 8,0 km/h (2 Bft)
20.10.2017 16:33 18,6 °C 18,6 °C 43 % 1015,4 hPa 0,0 mm 2,5 km/h (1 Bft) NW 324 ° 0 min 0,000 mm 0,0 UV-I 33 W/m² 5,8 °C 18,6 °C 4,8 km/h (1 Bft)
20.10.2017 16:34 18,5 °C 18,6 °C 44 % 1015,4 hPa 0,0 mm 3,7 km/h (1 Bft) NW 315 ° 0 min 0,000 mm 0,0 UV-I 32 W/m² 6,0 °C 18,5 °C 8,0 km/h (2 Bft)
20.10.2017 16:35 18,4 °C 18,5 °C 46 % 1015,4 hPa 0,0 mm 3,6 km/h (1 Bft) W-NW 288 ° 0 min 0,000 mm 0,0 UV-I 33 W/m² 6,6 °C 18,4 °C 6,4 km/h (2 Bft)
20.10.2017 16:36 18,3 °C 18,4 °C 44 % 1015,4 hPa 0,0 mm 4,8 km/h (1 Bft) W 267 ° 0 min 0,000 mm 0,0 UV-I 33 W/m² 5,8 °C 18,3 °C 6,4 km/h (2 Bft)
20.10.2017 16:37 18,2 °C 18,3 °C 44 % 1015,4 hPa 0,0 mm 2,1 km/h (1 Bft) W 269 ° 0 min 0,000 mm 0,0 UV-I 32 W/m² 5,7 °C 18,2 °C 6,4 km/h (2 Bft)
20.10.2017 16:38 18,1 °C 18,2 °C 45 % 1015,4 hPa 0,0 mm 1,9 km/h (1 Bft) W 269 ° 0 min 0,000 mm 0,0 UV-I 32 W/m² 6,0 °C 18,1 °C 3,2 km/h (1 Bft)
20.10.2017 16:39 18,1 °C 18,1 °C 45 % 1015,4 hPa 0,0 mm 1,0 km/h (0 Bft) W 269 ° 0 min 0,000 mm 0,0 UV-I 32 W/m² 6,0 °C 18,1 °C 3,2 km/h (1 Bft)
20.10.2017 16:40 17,9 °C 18,1 °C 46 % 1015,4 hPa 0,0 mm 1,3 km/h (1 Bft) W 274 ° 0 min 0,000 mm 0,0 UV-I 30 W/m² 6,1 °C 17,9 °C 3,2 km/h (1 Bft)
20.10.2017 16:41 17,9 °C 17,9 °C 46 % 1015,4 hPa 0,0 mm 3,2 km/h (1 Bft) N-NW 334 ° 0 min 0,000 mm 0,0 UV-I 30 W/m² 6,1 °C 17,9 °C 6,4 km/h (2 Bft)
20.10.2017 16:42 17,8 °C 17,9 °C 46 % 1015,4 hPa 0,0 mm 5,3 km/h (1 Bft) NW 317 ° 0 min 0,000 mm 0,0 UV-I 30 W/m² 6,0 °C 17,8 °C 8,0 km/h (2 Bft)
20.10.2017 16:43 17,8 °C 17,9 °C 46 % 1015,4 hPa 0,0 mm 5,1 km/h (1 Bft) NW 321 ° 0 min 0,000 mm 0,0 UV-I 30 W/m² 6,0 °C 17,8 °C 6,4 km/h (2 Bft)
20.10.2017 16:44 17,9 °C 17,9 °C 45 % 1015,4 hPa 0,0 mm 2,5 km/h (1 Bft) NW 317 ° 0 min 0,000 mm 0,0 UV-I 30 W/m² 5,8 °C 17,9 °C 6,4 km/h (2 Bft)
20.10.2017 16:45 17,9 °C 17,9 °C 45 % 1015,4 hPa 0,0 mm 1,4 km/h (1 Bft) NW 314 ° 0 min 0,000 mm 0,0 UV-I 30 W/m² 5,8 °C 17,9 °C 4,8 km/h (1 Bft)
20.10.2017 16:46 17,9 °C 18,0 °C 46 % 1015,4 hPa 0,0 mm 1,5 km/h (1 Bft) NW 314 ° 0 min 0,000 mm 0,0 UV-I 30 W/m² 6,1 °C 17,9 °C 3,2 km/h (1 Bft)
20.10.2017 16:47 17,8 °C 17,9 °C 47 % 1015,4 hPa 0,0 mm 0,0 km/h (0 Bft) NW 314 ° 0 min 0,000 mm 0,0 UV-I 30 W/m² 6,3 °C 17,8 °C 0,0 km/h (0 Bft)
20.10.2017 16:48 17,8 °C 17,9 °C 47 % 1015,4 hPa 0,0 mm 1,5 km/h (1 Bft) NW 314 ° 0 min 0,000 mm 0,0 UV-I 30 W/m² 6,3 °C 17,8 °C 3,2 km/h (1 Bft)
20.10.2017 16:49 17,7 °C 17,8 °C 47 % 1015,4 hPa 0,0 mm 1,1 km/h (1 Bft) NW 314 ° 0 min 0,000 mm 0,0 UV-I 28 W/m² 6,2 °C 17,7 °C 1,6 km/h (1 Bft)
20.10.2017 16:50 17,6 °C 17,7 °C 47 % 1015,4 hPa 0,0 mm 3,6 km/h (1 Bft) W 270 ° 0 min 0,000 mm 0,0 UV-I 28 W/m² 6,2 °C 17,6 °C 4,8 km/h (1 Bft)
20.10.2017 16:51 17,6 °C 17,6 °C 47 % 1015,4 hPa 0,0 mm 2,1 km/h (1 Bft) W 262 ° 0 min 0,000 mm 0,0 UV-I 28 W/m² 6,2 °C 17,6 °C 3,2 km/h (1 Bft)
20.10.2017 16:52 17,5 °C 17,6 °C 47 % 1015,5 hPa 0,0 mm 2,3 km/h (1 Bft) W 270 ° 0 min 0,000 mm 0,0 UV-I 28 W/m² 6,1 °C 17,5 °C 3,2 km/h (1 Bft)
20.10.2017 16:53 17,5 °C 17,5 °C 47 % 1015,4 hPa 0,0 mm 5,5 km/h (1 Bft) W-SW 252 ° 0 min 0,000 mm 0,0 UV-I 28 W/m² 6,1 °C 17,5 °C 9,7 km/h (2 Bft)
20.10.2017 16:54 17,4 °C 17,5 °C 47 % 1015,5 hPa 0,0 mm 4,1 km/h (1 Bft) W 275 ° 0 min 0,000 mm 0,0 UV-I 28 W/m² 6,0 °C 17,4 °C 6,4 km/h (2 Bft)
20.10.2017 16:55 17,4 °C 17,4 °C 47 % 1015,5 hPa 0,0 mm 3,1 km/h (1 Bft) W 275 ° 0 min 0,000 mm 0,0 UV-I 28 W/m² 6,0 °C 17,4 °C 6,4 km/h (2 Bft)
20.10.2017 16:56 17,4 °C 17,4 °C 47 % 1015,5 hPa 0,0 mm 2,4 km/h (1 Bft) W 275 ° 0 min 0,000 mm 0,0 UV-I 28 W/m² 6,0 °C 17,4 °C 4,8 km/h (1 Bft)
20.10.2017 16:57 17,4 °C 17,4 °C 48 % 1015,5 hPa 0,0 mm 3,3 km/h (1 Bft) W 274 ° 0 min 0,000 mm 0,0 UV-I 28 W/m² 6,3 °C 17,4 °C 4,8 km/h (1 Bft)
20.10.2017 16:58 17,4 °C 17,4 °C 48 % 1015,6 hPa 0,0 mm 1,9 km/h (1 Bft) W 274 ° 0 min 0,000 mm 0,0 UV-I 28 W/m² 6,3 °C 17,4 °C 3,2 km/h (1 Bft)
20.10.2017 16:59 17,4 °C 17,4 °C 48 % 1015,6 hPa 0,0 mm 4,2 km/h (1 Bft) W 269 ° 0 min 0,000 mm 0,0 UV-I 28 W/m² 6,3 °C 17,4 °C 6,4 km/h (2 Bft)
20.10.2017 17:00 17,4 °C 17,4 °C 48 % 1015,6 hPa 0,0 mm 4,4 km/h (1 Bft) W-NW 290 ° 0 min 0,000 mm 0,0 UV-I 26 W/m² 6,3 °C 17,4 °C 9,7 km/h (2 Bft)
20.10.2017 17:01 17,3 °C 17,4 °C 49 % 1015,6 hPa 0,0 mm 6,6 km/h (2 Bft) W 280 ° 0 min 0,076 mm 0,0 UV-I 26 W/m² 6,5 °C 17,3 °C 11,3 km/h (2 Bft)
20.10.2017 17:02 17,3 °C 17,3 °C 48 % 1015,6 hPa 0,0 mm 3,2 km/h (1 Bft) W-NW 284 ° 0 min 0,000 mm 0,0 UV-I 26 W/m² 6,2 °C 17,3 °C 4,8 km/h (1 Bft)
20.10.2017 17:03 17,3 °C 17,3 °C 49 % 1015,6 hPa 0,0 mm 2,7 km/h (1 Bft) W-NW 288 ° 0 min 0,000 mm 0,0 UV-I 26 W/m² 6,5 °C 17,3 °C 3,2 km/h (1 Bft)
20.10.2017 17:04 17,3 °C 17,3 °C 48 % 1015,6 hPa 0,0 mm 3,9 km/h (1 Bft) W 269 ° 0 min 0,000 mm 0,0 UV-I 26 W/m² 6,2 °C 17,3 °C 4,8 km/h (1 Bft)
20.10.2017 17:05 17,3 °C 17,3 °C 49 % 1015,6 hPa 0,0 mm 3,8 km/h (1 Bft) W 279 ° 0 min 0,000 mm 0,0 UV-I 26 W/m² 6,5 °C 17,3 °C 4,8 km/h (1 Bft)
20.10.2017 17:06 17,3 °C 17,3 °C 49 % 1015,6 hPa 0,0 mm 4,5 km/h (1 Bft) W 271 ° 0 min 0,000 mm 0,0 UV-I 26 W/m² 6,5 °C 17,3 °C 6,4 km/h (2 Bft)
20.10.2017 17:07 17,3 °C 17,3 °C 48 % 1015,7 hPa 0,0 mm 3,7 km/h (1 Bft) W-NW 288 ° 0 min 0,000 mm 0,0 UV-I 26 W/m² 6,2 °C 17,3 °C 4,8 km/h (1 Bft)
20.10.2017 17:08 17,3 °C 17,3 °C 49 % 1015,7 hPa 0,0 mm 2,7 km/h (1 Bft) W-NW 294 ° 0 min 0,000 mm 0,0 UV-I 26 W/m² 6,5 °C 17,3 °C 4,8 km/h (1 Bft)
20.10.2017 17:09 17,3 °C 17,3 °C 49 % 1015,7 hPa 0,0 mm 1,5 km/h (1 Bft) W-NW 294 ° 0 min 0,000 mm 0,0 UV-I 25 W/m² 6,5 °C 17,3 °C 3,2 km/h (1 Bft)
20.10.2017 17:10 17,3 °C 17,3 °C 49 % 1015,7 hPa 0,0 mm 1,7 km/h (1 Bft) W-NW 294 ° 0 min 0,000 mm 0,0 UV-I 25 W/m² 6,5 °C 17,3 °C 3,2 km/h (1 Bft)
20.10.2017 17:11 17,2 °C 17,3 °C 49 % 1015,7 hPa 0,0 mm 2,2 km/h (1 Bft) W-NW 285 ° 0 min 0,000 mm 0,0 UV-I 25 W/m² 6,4 °C 17,2 °C 3,2 km/h (1 Bft)
20.10.2017 17:12 17,2 °C 17,2 °C 49 % 1015,7 hPa 0,0 mm 1,8 km/h (1 Bft) W-NW 285 ° 0 min 0,000 mm 0,0 UV-I 25 W/m² 6,4 °C 17,2 °C 3,2 km/h (1 Bft)
20.10.2017 17:13 17,2 °C 17,2 °C 49 % 1015,7 hPa 0,0 mm 2,7 km/h (1 Bft) W 275 ° 0 min 0,000 mm 0,0 UV-I 25 W/m² 6,4 °C 17,2 °C 4,8 km/h (1 Bft)
20.10.2017 17:14 17,2 °C 17,2 °C 49 % 1015,7 hPa 0,0 mm 1,6 km/h (1 Bft) W 275 ° 0 min 0,000 mm 0,0 UV-I 25 W/m² 6,4 °C 17,2 °C 3,2 km/h (1 Bft)
20.10.2017 17:15 17,2 °C 17,2 °C 49 % 1015,7 hPa 0,0 mm 2,3 km/h (1 Bft) W 275 ° 0 min 0,000 mm 0,0 UV-I 25 W/m² 6,4 °C 17,2 °C 3,2 km/h (1 Bft)
20.10.2017 17:16 17,1 °C 17,2 °C 49 % 1015,7 hPa 0,0 mm 1,3 km/h (1 Bft) W 275 ° 0 min 0,000 mm 0,0 UV-I 25 W/m² 6,3 °C 17,1 °C 1,6 km/h (1 Bft)
20.10.2017 17:17 17,1 °C 17,2 °C 50 % 1015,6 hPa 0,0 mm 1,1 km/h (1 Bft) W 275 ° 0 min 0,000 mm 0,0 UV-I 23 W/m² 6,6 °C 17,1 °C 1,6 km/h (1 Bft)
20.10.2017 17:18 17,2 °C 17,2 °C 49 % 1015,6 hPa 0,0 mm 1,0 km/h (0 Bft) W 275 ° 0 min 0,000 mm 0,0 UV-I 23 W/m² 6,4 °C 17,2 °C 1,6 km/h (1 Bft)
20.10.2017 17:19 17,1 °C 17,2 °C 49 % 1015,7 hPa 0,0 mm 0,5 km/h (0 Bft) W 275 ° 0 min 0,000 mm 0,0 UV-I 21 W/m² 6,3 °C 17,1 °C 1,6 km/h (1 Bft)
20.10.2017 17:20 17,1 °C 17,2 °C 50 % 1015,7 hPa 0,0 mm 0,9 km/h (0 Bft) W 275 ° 0 min 0,000 mm 0,0 UV-I 21 W/m² 6,6 °C 17,1 °C 3,2 km/h (1 Bft)
20.10.2017 17:21 17,1 °C 17,1 °C 50 % 1015,7 hPa 0,0 mm 1,9 km/h (1 Bft) W 275 ° 0 min 0,000 mm 0,0 UV-I 21 W/m² 6,6 °C 17,1 °C 3,2 km/h (1 Bft)
20.10.2017 17:22 17,1 °C 17,1 °C 50 % 1015,7 hPa 0,0 mm 0,4 km/h (0 Bft) W 275 ° 0 min 0,000 mm 0,0 UV-I 21 W/m² 6,6 °C 17,1 °C 1,6 km/h (1 Bft)
20.10.2017 17:23 17,0 °C 17,1 °C 49 % 1015,7 hPa 0,0 mm 1,8 km/h (1 Bft) W-SW 246 ° 0 min 0,000 mm 0,0 UV-I 19 W/m² 6,2 °C 17,0 °C 4,8 km/h (1 Bft)
20.10.2017 17:24 16,9 °C 17,0 °C 49 % 1015,7 hPa 0,0 mm 2,5 km/h (1 Bft) W-SW 244 ° 0 min 0,000 mm 0,0 UV-I 19 W/m² 6,1 °C 16,9 °C 3,2 km/h (1 Bft)
20.10.2017 17:25 16,9 °C 17,0 °C 51 % 1015,8 hPa 0,0 mm 2,5 km/h (1 Bft) W-SW 244 ° 0 min 0,000 mm 0,0 UV-I 18 W/m² 6,7 °C 16,9 °C 4,8 km/h (1 Bft)
20.10.2017 17:26 16,9 °C 16,9 °C 50 % 1015,8 hPa 0,0 mm 0,4 km/h (0 Bft) W-SW 244 ° 0 min 0,000 mm 0,0 UV-I 18 W/m² 6,4 °C 16,9 °C 3,2 km/h (1 Bft)
20.10.2017 17:27 16,8 °C 16,9 °C 50 % 1015,8 hPa 0,0 mm 0,0 km/h (0 Bft) W-SW 244 ° 0 min 0,000 mm 0,0 UV-I 16 W/m² 6,3 °C 16,8 °C 0,0 km/h (0 Bft)
20.10.2017 17:28 16,8 °C 16,8 °C 50 % 1015,8 hPa 0,0 mm 1,5 km/h (1 Bft) SW 227 ° 0 min 0,000 mm 0,0 UV-I 16 W/m² 6,3 °C 16,8 °C 4,8 km/h (1 Bft)
20.10.2017 17:29 16,8 °C 16,8 °C 49 % 1015,8 hPa 0,0 mm 3,7 km/h (1 Bft) W-SW 247 ° 0 min 0,000 mm 0,0 UV-I 14 W/m² 6,0 °C 16,8 °C 6,4 km/h (2 Bft)
20.10.2017 17:30 16,8 °C 16,8 °C 49 % 1015,8 hPa 0,0 mm 4,4 km/h (1 Bft) W-SW 239 ° 0 min 0,000 mm 0,0 UV-I 14 W/m² 6,0 °C 16,8 °C 6,4 km/h (2 Bft)
20.10.2017 17:31 16,8 °C 16,8 °C 49 % 1015,8 hPa 0,0 mm 2,8 km/h (1 Bft) W-SW 257 ° 0 min 0,000 mm 0,0 UV-I 14 W/m² 6,0 °C 16,8 °C 4,8 km/h (1 Bft)
20.10.2017 17:32 16,8 °C 16,8 °C 49 % 1015,8 hPa 0,0 mm 3,0 km/h (1 Bft) W 261 ° 0 min 0,000 mm 0,0 UV-I 14 W/m² 6,0 °C 16,8 °C 4,8 km/h (1 Bft)
20.10.2017 17:33 16,8 °C 16,8 °C 49 % 1015,8 hPa 0,0 mm 1,4 km/h (1 Bft) W 261 ° 0 min 0,000 mm 0,0 UV-I 14 W/m² 6,0 °C 16,8 °C 3,2 km/h (1 Bft)
20.10.2017 17:34 16,7 °C 16,8 °C 49 % 1015,8 hPa 0,0 mm 0,4 km/h (0 Bft) W 261 ° 0 min 0,000 mm 0,0 UV-I 14 W/m² 5,9 °C 16,7 °C 1,6 km/h (1 Bft)
20.10.2017 17:35 16,7 °C 16,7 °C 49 % 1015,9 hPa 0,0 mm 1,2 km/h (1 Bft) W 261 ° 0 min 0,000 mm 0,0 UV-I 12 W/m² 5,9 °C 16,7 °C 3,2 km/h (1 Bft)
20.10.2017 17:36 16,6 °C 16,7 °C 51 % 1015,9 hPa 0,0 mm 1,6 km/h (1 Bft) W 261 ° 0 min 0,000 mm 0,0 UV-I 12 W/m² 6,4 °C 16,6 °C 3,2 km/h (1 Bft)
20.10.2017 17:37 16,6 °C 16,6 °C 50 % 1015,9 hPa 0,0 mm 1,3 km/h (1 Bft) W 261 ° 0 min 0,000 mm 0,0 UV-I 12 W/m² 6,1 °C 16,6 °C 3,2 km/h (1 Bft)
20.10.2017 17:38 16,4 °C 16,6 °C 51 % 1015,8 hPa 0,0 mm 0,1 km/h (0 Bft) W 261 ° 0 min 0,000 mm 0,0 UV-I 12 W/m² 6,2 °C 16,4 °C 1,6 km/h (1 Bft)
20.10.2017 17:39 16,2 °C 16,4 °C 52 % 1015,8 hPa 0,0 mm 0,4 km/h (0 Bft) W 261 ° 0 min 0,000 mm 0,0 UV-I 12 W/m² 6,3 °C 16,2 °C 1,6 km/h (1 Bft)
20.10.2017 17:40 16,1 °C 16,2 °C 51 % 1015,9 hPa 0,0 mm 1,1 km/h (1 Bft) W 261 ° 0 min 0,000 mm 0,0 UV-I 11 W/m² 6,0 °C 16,1 °C 3,2 km/h (1 Bft)
20.10.2017 17:41 16,1 °C 16,1 °C 51 % 1015,8 hPa 0,0 mm 0,0 km/h (0 Bft) W 261 ° 0 min 0,000 mm 0,0 UV-I 11 W/m² 6,0 °C 16,1 °C 0,0 km/h (0 Bft)
20.10.2017 17:42 16,0 °C 16,1 °C 52 % 1015,9 hPa 0,0 mm 0,0 km/h (0 Bft) W 261 ° 0 min 0,000 mm 0,0 UV-I 11 W/m² 6,2 °C 16,0 °C 0,0 km/h (0 Bft)
20.10.2017 17:43 15,8 °C 16,0 °C 54 % 1015,9 hPa 0,0 mm 1,5 km/h (1 Bft) W 261 ° 0 min 0,000 mm 0,0 UV-I 11 W/m² 6,5 °C 15,8 °C 3,2 km/h (1 Bft)
20.10.2017 17:44 15,7 °C 15,8 °C 54 % 1015,8 hPa 0,0 mm 0,2 km/h (0 Bft) W 261 ° 0 min 0,000 mm 0,0 UV-I 11 W/m² 6,4 °C 15,7 °C 1,6 km/h (1 Bft)
20.10.2017 17:45 15,6 °C 15,7 °C 54 % 1015,8 hPa 0,0 mm 2,1 km/h (1 Bft) W 261 ° 0 min 0,000 mm 0,0 UV-I 11 W/m² 6,3 °C 15,6 °C 4,8 km/h (1 Bft)
20.10.2017 17:46 15,4 °C 15,6 °C 55 % 1015,9 hPa 0,0 mm 0,3 km/h (0 Bft) W 261 ° 0 min 0,000 mm 0,0 UV-I 11 W/m² 6,4 °C 15,4 °C 1,6 km/h (1 Bft)
20.10.2017 17:47 15,3 °C 15,4 °C 56 % 1015,9 hPa 0,0 mm 0,5 km/h (0 Bft) W 260 ° 0 min 0,000 mm 0,0 UV-I 11 W/m² 6,6 °C 15,3 °C 3,2 km/h (1 Bft)
20.10.2017 17:48 15,1 °C 15,3 °C 57 % 1015,9 hPa 0,0 mm 2,4 km/h (1 Bft) W 260 ° 0 min 0,000 mm 0,0 UV-I 11 W/m² 6,6 °C 15,1 °C 3,2 km/h (1 Bft)
20.10.2017 17:49 14,9 °C 15,1 °C 57 % 1015,9 hPa 0,0 mm 2,4 km/h (1 Bft) W 261 ° 0 min 0,000 mm 0,0 UV-I 11 W/m² 6,5 °C 14,9 °C 3,2 km/h (1 Bft)
20.10.2017 17:50 14,7 °C 14,9 °C 59 % 1015,9 hPa 0,0 mm 1,5 km/h (1 Bft) W 260 ° 0 min 0,000 mm 0,0 UV-I 11 W/m² 6,8 °C 14,7 °C 3,2 km/h (1 Bft)
20.10.2017 17:51 14,6 °C 14,7 °C 58 % 1016,0 hPa 0,0 mm 0,3 km/h (0 Bft) W 260 ° 0 min 0,000 mm 0,0 UV-I 9 W/m² 6,4 °C 14,6 °C 1,6 km/h (1 Bft)
20.10.2017 17:52 14,5 °C 14,6 °C 59 % 1016,1 hPa 0,0 mm 0,0 km/h (0 Bft) W 261 ° 0 min 0,000 mm 0,0 UV-I 9 W/m² 6,6 °C 14,5 °C 0,0 km/h (0 Bft)
20.10.2017 17:53 14,3 °C 14,5 °C 61 % 1016,0 hPa 0,0 mm 0,0 km/h (0 Bft) W 261 ° 0 min 0,000 mm 0,0 UV-I 9 W/m² 6,9 °C 14,3 °C 0,0 km/h (0 Bft)
20.10.2017 17:54 14,1 °C 14,3 °C 61 % 1016,1 hPa 0,0 mm 0,0 km/h (0 Bft) W 260 ° 0 min 0,000 mm 0,0 UV-I 9 W/m² 6,7 °C 14,1 °C 0,0 km/h (0 Bft)
20.10.2017 17:55 13,9 °C 14,1 °C 62 % 1016,0 hPa 0,0 mm 0,0 km/h (0 Bft) W 261 ° 0 min 0,000 mm 0,0 UV-I 9 W/m² 6,7 °C 13,9 °C 0,0 km/h (0 Bft)
20.10.2017 17:56 13,8 °C 13,9 °C 63 % 1016,0 hPa 0,0 mm 0,1 km/h (0 Bft) W 260 ° 0 min 0,000 mm 0,0 UV-I 9 W/m² 6,9 °C 13,8 °C 1,6 km/h (1 Bft)
20.10.2017 17:57 13,7 °C 13,8 °C 63 % 1016,0 hPa 0,0 mm 0,8 km/h (0 Bft) W 260 ° 0 min 0,000 mm 0,0 UV-I 7 W/m² 6,8 °C 13,7 °C 1,6 km/h (1 Bft)
20.10.2017 17:58 13,8 °C 13,8 °C 63 % 1015,9 hPa 0,0 mm 0,0 km/h (0 Bft) W 260 ° 0 min 0,000 mm 0,0 UV-I 7 W/m² 6,9 °C 13,8 °C 0,0 km/h (0 Bft)
20.10.2017 17:59 13,8 °C 13,8 °C 62 % 1015,9 hPa 0,0 mm 0,0 km/h (0 Bft) W 260 ° 0 min 0,000 mm 0,0 UV-I 7 W/m² 6,6 °C 13,8 °C 0,0 km/h (0 Bft)
20.10.2017 18:00 13,8 °C 13,8 °C 63 % 1015,9 hPa 0,0 mm 0,0 km/h (0 Bft) W 261 ° 0 min 0,000 mm 0,0 UV-I 7 W/m² 6,9 °C 13,8 °C 0,0 km/h (0 Bft)
20.10.2017 18:01 13,8 °C 13,9 °C 62 % 1016,0 hPa 0,0 mm 0,0 km/h (0 Bft) W 261 ° 0 min 0,025 mm 0,0 UV-I 7 W/m² 6,6 °C 13,8 °C 0,0 km/h (0 Bft)
20.10.2017 18:02 13,8 °C 13,8 °C 63 % 1016,1 hPa 0,0 mm 0,0 km/h (0 Bft) W 260 ° 0 min 0,000 mm 0,0 UV-I 7 W/m² 6,9 °C 13,8 °C 0,0 km/h (0 Bft)
20.10.2017 18:03 13,8 °C 13,8 °C 63 % 1016,1 hPa 0,0 mm 0,0 km/h (0 Bft) W 260 ° 0 min 0,000 mm 0,0 UV-I 5 W/m² 6,9 °C 13,8 °C 0,0 km/h (0 Bft)
20.10.2017 18:04 13,8 °C 13,8 °C 62 % 1016,1 hPa 0,0 mm 0,0 km/h (0 Bft) W 260 ° 0 min 0,000 mm 0,0 UV-I 5 W/m² 6,6 °C 13,8 °C 0,0 km/h (0 Bft)
20.10.2017 18:05 13,7 °C 13,8 °C 62 % 1016,1 hPa 0,0 mm 0,0 km/h (0 Bft) W 260 ° 0 min 0,000 mm 0,0 UV-I 5 W/m² 6,6 °C 13,7 °C 0,0 km/h (0 Bft)
20.10.2017 18:06 13,7 °C 13,7 °C 62 % 1016,2 hPa 0,0 mm 0,0 km/h (0 Bft) W 261 ° 0 min 0,000 mm 0,0 UV-I 5 W/m² 6,6 °C 13,7 °C 0,0 km/h (0 Bft)
20.10.2017 18:07 13,8 °C 13,8 °C 62 % 1016,2 hPa 0,0 mm 0,0 km/h (0 Bft) W 261 ° 0 min 0,000 mm 0,0 UV-I 5 W/m² 6,6 °C 13,8 °C 0,0 km/h (0 Bft)
20.10.2017 18:08 13,9 °C 13,9 °C 61 % 1016,2 hPa 0,0 mm 0,0 km/h (0 Bft) W 260 ° 0 min 0,000 mm 0,0 UV-I 5 W/m² 6,5 °C 13,9 °C 0,0 km/h (0 Bft)
20.10.2017 18:09 14,1 °C 14,1 °C 61 % 1016,2 hPa 0,0 mm 0,0 km/h (0 Bft) W 261 ° 0 min 0,000 mm 0,0 UV-I 5 W/m² 6,7 °C 14,1 °C 0,0 km/h (0 Bft)
20.10.2017 18:10 14,0 °C 14,1 °C 62 % 1016,2 hPa 0,0 mm 0,0 km/h (0 Bft) W 261 ° 0 min 0,000 mm 0,0 UV-I 5 W/m² 6,8 °C 14,0 °C 0,0 km/h (0 Bft)
20.10.2017 18:11 14,0 °C 14,0 °C 61 % 1016,2 hPa 0,0 mm 0,0 km/h (0 Bft) W 260 ° 0 min 0,000 mm 0,0 UV-I 5 W/m² 6,6 °C 14,0 °C 0,0 km/h (0 Bft)
20.10.2017 18:12 13,9 °C 14,0 °C 60 % 1016,3 hPa 0,0 mm 0,0 km/h (0 Bft) W 261 ° 0 min 0,000 mm 0,0 UV-I 5 W/m² 6,3 °C 13,9 °C 0,0 km/h (0 Bft)
20.10.2017 18:13 13,9 °C 13,9 °C 61 % 1016,3 hPa 0,0 mm 0,0 km/h (0 Bft) W 260 ° 0 min 0,000 mm 0,0 UV-I 5 W/m² 6,5 °C 13,9 °C 0,0 km/h (0 Bft)
20.10.2017 18:14 13,8 °C 13,9 °C 61 % 1016,3 hPa 0,0 mm 1,7 km/h (1 Bft) W 260 ° 0 min 0,000 mm 0,0 UV-I 0 W/m² 6,4 °C 13,8 °C 3,2 km/h (1 Bft)
20.10.2017 18:15 13,8 °C 13,8 °C 61 % 1016,2 hPa 0,0 mm 1,8 km/h (1 Bft) W 260 ° 0 min 0,000 mm 0,0 UV-I 0 W/m² 6,4 °C 13,8 °C 3,2 km/h (1 Bft)
20.10.2017 18:16 13,8 °C 13,8 °C 61 % 1016,2 hPa 0,0 mm 1,2 km/h (1 Bft) W 260 ° 0 min 0,000 mm 0,0 UV-I 0 W/m² 6,4 °C 13,8 °C 1,6 km/h (1 Bft)
20.10.2017 18:17 13,8 °C 13,8 °C 61 % 1016,3 hPa 0,0 mm 2,7 km/h (1 Bft) SW 231 ° 0 min 0,000 mm 0,0 UV-I 0 W/m² 6,4 °C 13,8 °C 4,8 km/h (1 Bft)
20.10.2017 18:18 13,8 °C 13,8 °C 61 % 1016,3 hPa 0,0 mm 1,4 km/h (1 Bft) SW 231 ° 0 min 0,000 mm 0,0 UV-I 0 W/m² 6,4 °C 13,8 °C 1,6 km/h (1 Bft)
20.10.2017 18:19 14,0 °C 14,0 °C 60 % 1016,3 hPa 0,0 mm 3,4 km/h (1 Bft) S-SW 212 ° 0 min 0,000 mm 0,0 UV-I 0 W/m² 6,4 °C 14,0 °C 4,8 km/h (1 Bft)
20.10.2017 18:20 14,1 °C 14,1 °C 60 % 1016,3 hPa 0,0 mm 3,6 km/h (1 Bft) S-SW 212 ° 0 min 0,000 mm 0,0 UV-I 0 W/m² 6,5 °C 14,1 °C 4,8 km/h (1 Bft)
20.10.2017 18:21 14,2 °C 14,2 °C 59 % 1016,3 hPa 0,0 mm 1,7 km/h (1 Bft) S-SW 210 ° 0 min 0,000 mm 0,0 UV-I 0 W/m² 6,3 °C 14,2 °C 4,8 km/h (1 Bft)
20.10.2017 18:22 14,3 °C 14,3 °C 59 % 1016,3 hPa 0,0 mm 0,0 km/h (0 Bft) S-SW 210 ° 0 min 0,000 mm 0,0 UV-I 0 W/m² 6,4 °C 14,3 °C 0,0 km/h (0 Bft)
20.10.2017 18:23 14,1 °C 14,3 °C 60 % 1016,4 hPa 0,0 mm 0,0 km/h (0 Bft) S-SW 210 ° 0 min 0,000 mm 0,0 UV-I 0 W/m² 6,5 °C 14,1 °C 0,0 km/h (0 Bft)
20.10.2017 18:24 13,8 °C 14,1 °C 62 % 1016,4 hPa 0,0 mm 0,0 km/h (0 Bft) S-SW 210 ° 0 min 0,000 mm 0,0 UV-I 0 W/m² 6,6 °C 13,8 °C 0,0 km/h (0 Bft)
20.10.2017 18:25 13,4 °C 13,8 °C 63 % 1016,4 hPa 0,0 mm 0,0 km/h (0 Bft) S-SW 210 ° 0 min 0,000 mm 0,0 UV-I 0 W/m² 6,5 °C 13,4 °C 0,0 km/h (0 Bft)
20.10.2017 18:26 13,2 °C 13,4 °C 64 % 1016,4 hPa 0,0 mm 4,8 km/h (1 Bft) W 271 ° 0 min 0,000 mm 0,0 UV-I 0 W/m² 6,5 °C 13,2 °C 11,3 km/h (2 Bft)
20.10.2017 18:27 12,9 °C 13,2 °C 65 % 1016,4 hPa 0,0 mm 0,4 km/h (0 Bft) W 271 ° 0 min 0,000 mm 0,0 UV-I 0 W/m² 6,5 °C 12,9 °C 3,2 km/h (1 Bft)
20.10.2017 18:28 12,8 °C 12,9 °C 66 % 1016,4 hPa 0,0 mm 0,0 km/h (0 Bft) W 271 ° 0 min 0,000 mm 0,0 UV-I 0 W/m² 6,6 °C 12,8 °C 0,0 km/h (0 Bft)
20.10.2017 18:29 12,7 °C 12,8 °C 66 % 1016,4 hPa 0,0 mm 0,6 km/h (0 Bft) W 269 ° 0 min 0,000 mm 0,0 UV-I 0 W/m² 6,5 °C 12,7 °C 3,2 km/h (1 Bft)
20.10.2017 18:30 12,7 °C 12,7 °C 65 % 1016,4 hPa 0,0 mm 0,0 km/h (0 Bft) W 269 ° 0 min 0,000 mm 0,0 UV-I 0 W/m² 6,3 °C 12,7 °C 0,0 km/h (0 Bft)
20.10.2017 18:31 12,7 °C 12,7 °C 64 % 1016,4 hPa 0,0 mm 0,0 km/h (0 Bft) W 269 ° 0 min 0,000 mm 0,0 UV-I 0 W/m² 6,1 °C 12,7 °C 0,0 km/h (0 Bft)
20.10.2017 18:32 12,9 °C 12,9 °C 64 % 1016,4 hPa 0,0 mm 2,9 km/h (1 Bft) W-SW 242 ° 0 min 0,000 mm 0,0 UV-I 0 W/m² 6,3 °C 12,9 °C 3,2 km/h (1 Bft)
20.10.2017 18:33 13,1 °C 13,1 °C 63 % 1016,4 hPa 0,0 mm 2,6 km/h (1 Bft) SW 235 ° 0 min 0,000 mm 0,0 UV-I 0 W/m² 6,2 °C 13,1 °C 3,2 km/h (1 Bft)
20.10.2017 18:34 13,4 °C 13,4 °C 62 % 1016,5 hPa 0,0 mm 1,1 km/h (1 Bft) SW 235 ° 0 min 0,000 mm 0,0 UV-I 0 W/m² 6,3 °C 13,4 °C 3,2 km/h (1 Bft)
20.10.2017 18:35 13,6 °C 13,6 °C 61 % 1016,5 hPa 0,0 mm 0,0 km/h (0 Bft) SW 235 ° 0 min 0,000 mm 0,0 UV-I 0 W/m² 6,2 °C 13,6 °C 0,0 km/h (0 Bft)
20.10.2017 18:36 13,7 °C 13,7 °C 61 % 1016,5 hPa 0,0 mm 1,0 km/h (0 Bft) SW 235 ° 0 min 0,000 mm 0,0 UV-I 0 W/m² 6,3 °C 13,7 °C 3,2 km/h (1 Bft)
20.10.2017 18:37 13,8 °C 13,8 °C 60 % 1016,5 hPa 0,0 mm 1,8 km/h (1 Bft) SW 225 ° 0 min 0,000 mm 0,0 UV-I 0 W/m² 6,2 °C 13,8 °C 4,8 km/h (1 Bft)
20.10.2017 18:38 13,9 °C 13,9 °C 59 % 1016,5 hPa 0,0 mm 3,9 km/h (1 Bft) S-SW 212 ° 0 min 0,000 mm 0,0 UV-I 0 W/m² 6,0 °C 13,9 °C 4,8 km/h (1 Bft)
20.10.2017 18:39 14,1 °C 14,1 °C 59 % 1016,5 hPa 0,0 mm 1,8 km/h (1 Bft) S-SW 212 ° 0 min 0,000 mm 0,0 UV-I 0 W/m² 6,2 °C 14,1 °C 4,8 km/h (1 Bft)
20.10.2017 18:40 14,2 °C 14,2 °C 58 % 1016,5 hPa 0,0 mm 2,5 km/h (1 Bft) SW 219 ° 0 min 0,000 mm 0,0 UV-I 0 W/m² 6,1 °C 14,2 °C 4,8 km/h (1 Bft)
20.10.2017 18:41 14,3 °C 14,3 °C 58 % 1016,5 hPa 0,0 mm 2,0 km/h (1 Bft) S-SW 210 ° 0 min 0,000 mm 0,0 UV-I 0 W/m² 6,2 °C 14,3 °C 4,8 km/h (1 Bft)
20.10.2017 18:42 14,4 °C 14,4 °C 58 % 1016,5 hPa 0,0 mm 1,9 km/h (1 Bft) SW 214 ° 0 min 0,000 mm 0,0 UV-I 0 W/m² 6,2 °C 14,4 °C 4,8 km/h (1 Bft)
20.10.2017 18:43 14,4 °C 14,4 °C 58 % 1016,5 hPa 0,0 mm 2,5 km/h (1 Bft) S-SW 202 ° 0 min 0,000 mm 0,0 UV-I 0 W/m² 6,2 °C 14,4 °C 4,8 km/h (1 Bft)
20.10.2017 18:44 14,4 °C 14,4 °C 57 % 1016,5 hPa 0,0 mm 4,0 km/h (1 Bft) SW 221 ° 0 min 0,000 mm 0,0 UV-I 0 W/m² 6,0 °C 14,4 °C 6,4 km/h (2 Bft)
20.10.2017 18:45 14,6 °C 14,6 °C 57 % 1016,5 hPa 0,0 mm 3,4 km/h (1 Bft) W-SW 257 ° 0 min 0,000 mm 0,0 UV-I 0 W/m² 6,2 °C 14,6 °C 4,8 km/h (1 Bft)
20.10.2017 18:46 14,6 °C 14,6 °C 57 % 1016,5 hPa 0,0 mm 3,7 km/h (1 Bft) SW 225 ° 0 min 0,000 mm 0,0 UV-I 0 W/m² 6,2 °C 14,6 °C 9,7 km/h (2 Bft)
20.10.2017 18:47 14,6 °C 14,6 °C 57 % 1016,6 hPa 0,0 mm 5,1 km/h (1 Bft) W-SW 242 ° 0 min 0,000 mm 0,0 UV-I 0 W/m² 6,2 °C 14,6 °C 8,0 km/h (2 Bft)
20.10.2017 18:48 14,6 °C 14,6 °C 57 % 1016,6 hPa 0,0 mm 3,9 km/h (1 Bft) W-SW 252 ° 0 min 0,000 mm 0,0 UV-I 0 W/m² 6,2 °C 14,6 °C 11,3 km/h (2 Bft)
20.10.2017 18:49 14,6 °C 14,6 °C 57 % 1016,6 hPa 0,0 mm 4,0 km/h (1 Bft) W-SW 254 ° 0 min 0,000 mm 0,0 UV-I 0 W/m² 6,2 °C 14,6 °C 8,0 km/h (2 Bft)
20.10.2017 18:50 14,6 °C 14,6 °C 58 % 1016,6 hPa 0,0 mm 8,7 km/h (2 Bft) W 263 ° 0 min 0,000 mm 0,0 UV-I 0 W/m² 6,4 °C 14,6 °C 14,5 km/h (3 Bft)
20.10.2017 18:51 14,5 °C 14,6 °C 58 % 1016,7 hPa 0,0 mm 5,2 km/h (1 Bft) NW 305 ° 0 min 0,000 mm 0,0 UV-I 0 W/m² 6,3 °C 14,5 °C 12,9 km/h (3 Bft)
20.10.2017 18:52 14,4 °C 14,5 °C 58 % 1016,7 hPa 0,0 mm 5,1 km/h (1 Bft) W 264 ° 0 min 0,000 mm 0,0 UV-I 0 W/m² 6,2 °C 14,4 °C 11,3 km/h (2 Bft)
20.10.2017 18:53 14,4 °C 14,4 °C 58 % 1016,7 hPa 0,0 mm 4,3 km/h (1 Bft) W 280 ° 0 min 0,000 mm 0,0 UV-I 0 W/m² 6,2 °C 14,4 °C 8,0 km/h (2 Bft)
20.10.2017 18:54 14,4 °C 14,4 °C 58 % 1016,7 hPa 0,0 mm 2,6 km/h (1 Bft) W 259 ° 0 min 0,000 mm 0,0 UV-I 0 W/m² 6,2 °C 14,4 °C 3,2 km/h (1 Bft)
20.10.2017 18:55 14,4 °C 14,4 °C 58 % 1016,7 hPa 0,0 mm 7,8 km/h (2 Bft) W 273 ° 0 min 0,000 mm 0,0 UV-I 0 W/m² 6,2 °C 14,4 °C 17,7 km/h (3 Bft)
20.10.2017 18:56 14,4 °C 14,4 °C 58 % 1016,7 hPa 0,0 mm 7,0 km/h (2 Bft) W 261 ° 0 min 0,000 mm 0,0 UV-I 0 W/m² 6,2 °C 14,4 °C 12,9 km/h (3 Bft)
20.10.2017 18:57 14,4 °C 14,4 °C 58 % 1016,8 hPa 0,0 mm 7,3 km/h (2 Bft) W-SW 258 ° 0 min 0,000 mm 0,0 UV-I 0 W/m² 6,2 °C 14,4 °C 11,3 km/h (2 Bft)
20.10.2017 18:59 14,3 °C 14,4 °C 59 % 1016,8 hPa 0,0 mm 4,8 km/h (1 Bft) W 266 ° 0 min 0,000 mm 0,0 UV-I 0 W/m² 6,4 °C 14,3 °C 12,9 km/h (3 Bft)
20.10.2017 19:00 14,3 °C 14,3 °C 59 % 1016,8 hPa 0,0 mm 3,1 km/h (1 Bft) W 262 ° 0 min 0,000 mm 0,0 UV-I 0 W/m² 6,4 °C 14,3 °C 4,8 km/h (1 Bft)
20.10.2017 19:01 14,3 °C 14,3 °C 59 % 1016,8 hPa 0,0 mm 4,0 km/h (1 Bft) W 261 ° 0 min 0,026 mm 0,0 UV-I 0 W/m² 6,4 °C 14,3 °C 4,8 km/h (1 Bft)
20.10.2017 19:02 14,3 °C 14,3 °C 59 % 1016,9 hPa 0,0 mm 3,3 km/h (1 Bft) SW 233 ° 0 min 0,000 mm 0,0 UV-I 0 W/m² 6,4 °C 14,3 °C 6,4 km/h (2 Bft)
20.10.2017 19:03 14,2 °C 14,3 °C 59 % 1016,8 hPa 0,0 mm 4,6 km/h (1 Bft) SW 235 ° 0 min 0,000 mm 0,0 UV-I 0 W/m² 6,3 °C 14,2 °C 11,3 km/h (2 Bft)
20.10.2017 19:04 14,2 °C 14,3 °C 60 % 1016,8 hPa 0,0 mm 8,5 km/h (2 Bft) W-SW 252 ° 0 min 0,000 mm 0,0 UV-I 0 W/m² 6,5 °C 14,2 °C 17,7 km/h (3 Bft)
20.10.2017 19:05 14,2 °C 14,2 °C 60 % 1016,9 hPa 0,0 mm 11,5 km/h (2 Bft) W-SW 240 ° 0 min 0,000 mm 0,0 UV-I 0 W/m² 6,5 °C 14,2 °C 16,1 km/h (3 Bft)
20.10.2017 19:06 14,1 °C 14,2 °C 61 % 1016,8 hPa 0,0 mm 5,7 km/h (1 Bft) W-SW 257 ° 0 min 0,000 mm 0,0 UV-I 0 W/m² 6,7 °C 14,1 °C 11,3 km/h (2 Bft)
20.10.2017 19:07 14,1 °C 14,1 °C 61 % 1016,8 hPa 0,0 mm 5,6 km/h (1 Bft) W 263 ° 0 min 0,000 mm 0,0 UV-I 0 W/m² 6,7 °C 14,1 °C 14,5 km/h (3 Bft)
20.10.2017 19:08 14,1 °C 14,1 °C 61 % 1016,8 hPa 0,0 mm 5,9 km/h (2 Bft) W 263 ° 0 min 0,000 mm 0,0 UV-I 0 W/m² 6,7 °C 14,1 °C 14,5 km/h (3 Bft)
20.10.2017 19:09 14,1 °C 14,1 °C 61 % 1016,9 hPa 0,0 mm 6,0 km/h (2 Bft) W-SW 250 ° 0 min 0,000 mm 0,0 UV-I 0 W/m² 6,7 °C 14,1 °C 11,3 km/h (2 Bft)
20.10.2017 19:10 14,1 °C 14,1 °C 61 % 1016,9 hPa 0,0 mm 7,8 km/h (2 Bft) W-SW 254 ° 0 min 0,000 mm 0,0 UV-I 0 W/m² 6,7 °C 14,1 °C 12,9 km/h (3 Bft)
20.10.2017 19:11 14,1 °C 14,1 °C 61 % 1016,9 hPa 0,0 mm 4,3 km/h (1 Bft) W-SW 258 ° 0 min 0,000 mm 0,0 UV-I 0 W/m² 6,7 °C 14,1 °C 6,4 km/h (2 Bft)
20.10.2017 19:12 14,1 °C 14,1 °C 61 % 1016,9 hPa 0,0 mm 5,9 km/h (2 Bft) W 265 ° 0 min 0,000 mm 0,0 UV-I 0 W/m² 6,7 °C 14,1 °C 12,9 km/h (3 Bft)
20.10.2017 19:13 14,1 °C 14,1 °C 62 % 1016,9 hPa 0,0 mm 8,2 km/h (2 Bft) W-SW 258 ° 0 min 0,000 mm 0,0 UV-I 0 W/m² 6,9 °C 14,1 °C 12,9 km/h (3 Bft)
20.10.2017 19:14 14,1 °C 14,1 °C 62 % 1016,9 hPa 0,0 mm 6,4 km/h (2 Bft) SW 219 ° 0 min 0,000 mm 0,0 UV-I 0 W/m² 6,9 °C 14,1 °C 12,9 km/h (3 Bft)
20.10.2017 19:15 14,1 °C 14,1 °C 61 % 1016,9 hPa 0,0 mm 6,1 km/h (2 Bft) SW 228 ° 0 min 0,000 mm 0,0 UV-I 0 W/m² 6,7 °C 14,1 °C 11,3 km/h (2 Bft)
20.10.2017 19:16 14,1 °C 14,1 °C 61 % 1016,9 hPa 0,0 mm 2,3 km/h (1 Bft) SW 228 ° 0 min 0,000 mm 0,0 UV-I 0 W/m² 6,7 °C 14,1 °C 4,8 km/h (1 Bft)
20.10.2017 19:17 14,1 °C 14,1 °C 61 % 1016,9 hPa 0,0 mm 0,8 km/h (0 Bft) SW 227 ° 0 min 0,000 mm 0,0 UV-I 0 W/m² 6,7 °C 14,1 °C 3,2 km/h (1 Bft)
20.10.2017 19:18 14,1 °C 14,1 °C 61 % 1016,9 hPa 0,0 mm 2,3 km/h (1 Bft) SW 227 ° 0 min 0,000 mm 0,0 UV-I 0 W/m² 6,7 °C 14,1 °C 3,2 km/h (1 Bft)
20.10.2017 19:19 14,1 °C 14,1 °C 61 % 1016,9 hPa 0,0 mm 2,2 km/h (1 Bft) W-SW 248 ° 0 min 0,000 mm 0,0 UV-I 0 W/m² 6,7 °C 14,1 °C 6,4 km/h (2 Bft)
20.10.2017 19:20 14,1 °C 14,1 °C 61 % 1016,9 hPa 0,0 mm 3,9 km/h (1 Bft) S-SW 210 ° 0 min 0,000 mm 0,0 UV-I 0 W/m² 6,7 °C 14,1 °C 6,4 km/h (2 Bft)
20.10.2017 19:21 14,1 °C 14,1 °C 61 % 1016,9 hPa 0,0 mm 3,8 km/h (1 Bft) W-SW 244 ° 0 min 0,000 mm 0,0 UV-I 0 W/m² 6,7 °C 14,1 °C 6,4 km/h (2 Bft)
20.10.2017 19:22 14,1 °C 14,1 °C 62 % 1016,9 hPa 0,0 mm 4,9 km/h (1 Bft) W 259 ° 0 min 0,000 mm 0,0 UV-I 0 W/m² 6,9 °C 14,1 °C 6,4 km/h (2 Bft)
20.10.2017 19:24 14,0 °C 14,1 °C 61 % 1016,9 hPa 0,0 mm 5,7 km/h (1 Bft) W 263 ° 0 min 0,000 mm 0,0 UV-I 0 W/m² 6,6 °C 14,0 °C 14,5 km/h (3 Bft)
20.10.2017 19:25 14,1 °C 14,1 °C 62 % 1016,9 hPa 0,0 mm 5,7 km/h (1 Bft) W-NW 284 ° 0 min 0,000 mm 0,0 UV-I 0 W/m² 6,9 °C 14,1 °C 11,3 km/h (2 Bft)
20.10.2017 19:26 14,0 °C 14,1 °C 62 % 1016,9 hPa 0,0 mm 5,2 km/h (1 Bft) SW 236 ° 0 min 0,000 mm 0,0 UV-I 0 W/m² 6,8 °C 14,0 °C 9,7 km/h (2 Bft)
20.10.2017 19:27 14,0 °C 14,1 °C 62 % 1017,0 hPa 0,0 mm 5,6 km/h (1 Bft) W-SW 254 ° 0 min 0,000 mm 0,0 UV-I 0 W/m² 6,8 °C 14,0 °C 12,9 km/h (3 Bft)
20.10.2017 19:28 14,0 °C 14,0 °C 62 % 1016,9 hPa 0,0 mm 11,4 km/h (2 Bft) W-SW 244 ° 0 min 0,000 mm 0,0 UV-I 0 W/m² 6,8 °C 14,0 °C 17,7 km/h (3 Bft)
20.10.2017 19:29 13,9 °C 14,0 °C 63 % 1016,9 hPa 0,0 mm 7,4 km/h (2 Bft) W-SW 244 ° 0 min 0,000 mm 0,0 UV-I 0 W/m² 7,0 °C 13,9 °C 11,3 km/h (2 Bft)
20.10.2017 19:30 13,9 °C 13,9 °C 63 % 1017,0 hPa 0,0 mm 4,4 km/h (1 Bft) W-SW 242 ° 0 min 0,000 mm 0,0 UV-I 0 W/m² 7,0 °C 13,9 °C 6,4 km/h (2 Bft)
20.10.2017 19:31 13,9 °C 13,9 °C 63 % 1016,9 hPa 0,0 mm 2,9 km/h (1 Bft) W-SW 242 ° 0 min 0,000 mm 0,0 UV-I 0 W/m² 7,0 °C 13,9 °C 4,8 km/h (1 Bft)
20.10.2017 19:32 13,9 °C 13,9 °C 63 % 1016,9 hPa 0,0 mm 4,7 km/h (1 Bft) W-SW 258 ° 0 min 0,000 mm 0,0 UV-I 0 W/m² 7,0 °C 13,9 °C 6,4 km/h (2 Bft)
20.10.2017 19:33 13,9 °C 13,9 °C 63 % 1017,0 hPa 0,0 mm 6,7 km/h (2 Bft) W-SW 258 ° 0 min 0,000 mm 0,0 UV-I 0 W/m² 7,0 °C 13,9 °C 11,3 km/h (2 Bft)
20.10.2017 19:34 13,8 °C 13,9 °C 64 % 1016,9 hPa 0,0 mm 8,9 km/h (2 Bft) W-SW 250 ° 0 min 0,000 mm 0,0 UV-I 0 W/m² 7,1 °C 13,8 °C 12,9 km/h (3 Bft)
20.10.2017 19:35 13,8 °C 13,8 °C 64 % 1016,8 hPa 0,0 mm 8,3 km/h (2 Bft) W-SW 251 ° 0 min 0,000 mm 0,0 UV-I 0 W/m² 7,1 °C 13,8 °C 12,9 km/h (3 Bft)
20.10.2017 19:36 13,7 °C 13,8 °C 64 % 1016,8 hPa 0,0 mm 4,4 km/h (1 Bft) W-SW 251 ° 0 min 0,000 mm 0,0 UV-I 0 W/m² 7,0 °C 13,7 °C 11,3 km/h (2 Bft)
20.10.2017 19:37 13,7 °C 13,7 °C 65 % 1016,9 hPa 0,0 mm 10,4 km/h (2 Bft) W 267 ° 0 min 0,000 mm 0,0 UV-I 0 W/m² 7,2 °C 13,7 °C 14,5 km/h (3 Bft)
20.10.2017 19:38 13,8 °C 13,8 °C 65 % 1016,9 hPa 0,0 mm 5,0 km/h (1 Bft) W 260 ° 0 min 0,000 mm 0,0 UV-I 0 W/m² 7,3 °C 13,8 °C 12,9 km/h (3 Bft)
20.10.2017 19:39 13,8 °C 13,8 °C 65 % 1016,9 hPa 0,0 mm 8,0 km/h (2 Bft) W-SW 254 ° 0 min 0,000 mm 0,0 UV-I 0 W/m² 7,3 °C 13,8 °C 11,3 km/h (2 Bft)
20.10.2017 19:40 13,8 °C 13,8 °C 65 % 1016,9 hPa 0,0 mm 5,9 km/h (2 Bft) SW 229 ° 0 min 0,000 mm 0,0 UV-I 0 W/m² 7,3 °C 13,8 °C 14,5 km/h (3 Bft)
20.10.2017 19:41 13,9 °C 13,9 °C 65 % 1016,9 hPa 0,0 mm 4,6 km/h (1 Bft) W-SW 251 ° 0 min 0,000 mm 0,0 UV-I 0 W/m² 7,4 °C 13,9 °C 11,3 km/h (2 Bft)
20.10.2017 19:42 13,9 °C 13,9 °C 65 % 1016,9 hPa 0,0 mm 1,7 km/h (1 Bft) W-SW 255 ° 0 min 0,000 mm 0,0 UV-I 0 W/m² 7,4 °C 13,9 °C 4,8 km/h (1 Bft)
20.10.2017 19:44 13,9 °C 13,9 °C 65 % 1016,9 hPa 0,0 mm 6,5 km/h (2 Bft) W 281 ° 0 min 0,000 mm 0,0 UV-I 0 W/m² 7,4 °C 13,9 °C 16,1 km/h (3 Bft)
20.10.2017 19:45 13,9 °C 13,9 °C 65 % 1016,9 hPa 0,0 mm 8,7 km/h (2 Bft) W-SW 245 ° 0 min 0,000 mm 0,0 UV-I 0 W/m² 7,4 °C 13,9 °C 14,5 km/h (3 Bft)
20.10.2017 19:46 13,8 °C 13,9 °C 66 % 1017,0 hPa 0,0 mm 7,4 km/h (2 Bft) W-NW 288 ° 0 min 0,000 mm 0,0 UV-I 0 W/m² 7,6 °C 13,8 °C 11,3 km/h (2 Bft)
20.10.2017 19:47 13,8 °C 13,9 °C 66 % 1016,9 hPa 0,0 mm 9,1 km/h (2 Bft) SW 216 ° 0 min 0,000 mm 0,0 UV-I 0 W/m² 7,6 °C 13,8 °C 14,5 km/h (3 Bft)
20.10.2017 19:48 13,8 °C 13,8 °C 66 % 1016,9 hPa 0,0 mm 7,9 km/h (2 Bft) W 259 ° 0 min 0,000 mm 0,0 UV-I 0 W/m² 7,6 °C 13,8 °C 14,5 km/h (3 Bft)
20.10.2017 19:49 13,8 °C 13,8 °C 66 % 1017,0 hPa 0,0 mm 8,6 km/h (2 Bft) SW 229 ° 0 min 0,000 mm 0,0 UV-I 0 W/m² 7,6 °C 13,8 °C 14,5 km/h (3 Bft)
20.10.2017 19:50 13,9 °C 13,9 °C 66 % 1017,0 hPa 0,0 mm 7,7 km/h (2 Bft) W-SW 248 ° 0 min 0,000 mm 0,0 UV-I 0 W/m² 7,7 °C 13,9 °C 16,1 km/h (3 Bft)
20.10.2017 19:51 13,9 °C 13,9 °C 66 % 1016,9 hPa 0,0 mm 10,7 km/h (2 Bft) W-NW 286 ° 0 min 0,000 mm 0,0 UV-I 0 W/m² 7,7 °C 13,9 °C 17,7 km/h (3 Bft)
20.10.2017 19:52 13,9 °C 13,9 °C 67 % 1016,9 hPa 0,0 mm 7,8 km/h (2 Bft) S-SW 208 ° 0 min 0,000 mm 0,0 UV-I 0 W/m² 7,9 °C 13,9 °C 14,5 km/h (3 Bft)
20.10.2017 19:54 13,9 °C 13,9 °C 67 % 1017,0 hPa 0,0 mm 6,9 km/h (2 Bft) W 261 ° 0 min 0,000 mm 0,0 UV-I 0 W/m² 7,9 °C 13,9 °C 14,5 km/h (3 Bft)
20.10.2017 19:55 13,8 °C 13,9 °C 67 % 1017,0 hPa 0,0 mm 6,4 km/h (2 Bft) W 264 ° 0 min 0,000 mm 0,0 UV-I 0 W/m² 7,8 °C 13,8 °C 12,9 km/h (3 Bft)
20.10.2017 19:56 13,8 °C 13,8 °C 67 % 1016,9 hPa 0,0 mm 7,7 km/h (2 Bft) S-SW 201 ° 0 min 0,000 mm 0,0 UV-I 0 W/m² 7,8 °C 13,8 °C 12,9 km/h (3 Bft)
20.10.2017 19:57 13,8 °C 13,8 °C 67 % 1016,9 hPa 0,0 mm 9,5 km/h (2 Bft) W-SW 258 ° 0 min 0,000 mm 0,0 UV-I 0 W/m² 7,8 °C 13,8 °C 14,5 km/h (3 Bft)
20.10.2017 19:59 13,8 °C 13,8 °C 67 % 1016,9 hPa 0,0 mm 8,9 km/h (2 Bft) W 260 ° 0 min 0,000 mm 0,0 UV-I 0 W/m² 7,8 °C 13,8 °C 14,5 km/h (3 Bft)
20.10.2017 20:00 13,8 °C 13,8 °C 67 % 1016,9 hPa 0,0 mm 7,4 km/h (2 Bft) W-NW 292 ° 0 min 0,051 mm 0,0 UV-I 0 W/m² 7,8 °C 13,8 °C 12,9 km/h (3 Bft)
20.10.2017 20:01 13,8 °C 13,8 °C 67 % 1016,9 hPa 0,0 mm 3,6 km/h (1 Bft) W-SW 255 ° 0 min 0,000 mm 0,0 UV-I 0 W/m² 7,8 °C 13,8 °C 8,0 km/h (2 Bft)
20.10.2017 20:02 13,8 °C 13,8 °C 67 % 1016,9 hPa 0,0 mm 3,2 km/h (1 Bft) SW 236 ° 0 min 0,000 mm 0,0 UV-I 0 W/m² 7,8 °C 13,8 °C 4,8 km/h (1 Bft)
20.10.2017 20:03 13,7 °C 13,8 °C 67 % 1016,9 hPa 0,0 mm 2,5 km/h (1 Bft) SW 236 ° 0 min 0,000 mm 0,0 UV-I 0 W/m² 7,7 °C 13,7 °C 4,8 km/h (1 Bft)
20.10.2017 20:04 13,7 °C 13,7 °C 67 % 1016,9 hPa 0,0 mm 3,4 km/h (1 Bft) SW 235 ° 0 min 0,000 mm 0,0 UV-I 0 W/m² 7,7 °C 13,7 °C 8,0 km/h (2 Bft)
20.10.2017 20:05 13,7 °C 13,8 °C 67 % 1016,9 hPa 0,0 mm 4,2 km/h (1 Bft) W 272 ° 0 min 0,000 mm 0,0 UV-I 0 W/m² 7,7 °C 13,7 °C 6,4 km/h (2 Bft)
20.10.2017 20:06 13,7 °C 13,8 °C 67 % 1016,9 hPa 0,0 mm 6,4 km/h (2 Bft) SW 225 ° 0 min 0,000 mm 0,0 UV-I 0 W/m² 7,7 °C 13,7 °C 11,3 km/h (2 Bft)
20.10.2017 20:07 13,7 °C 13,7 °C 67 % 1016,9 hPa 0,0 mm 5,7 km/h (1 Bft) S-SW 202 ° 0 min 0,000 mm 0,0 UV-I 0 W/m² 7,7 °C 13,7 °C 9,7 km/h (2 Bft)
20.10.2017 20:08 13,7 °C 13,7 °C 67 % 1016,9 hPa 0,0 mm 6,0 km/h (2 Bft) S 188 ° 0 min 0,000 mm 0,0 UV-I 0 W/m² 7,7 °C 13,7 °C 8,0 km/h (2 Bft)
20.10.2017 20:09 13,8 °C 13,8 °C 67 % 1016,9 hPa 0,0 mm 4,7 km/h (1 Bft) W-SW 238 ° 0 min 0,000 mm 0,0 UV-I 0 W/m² 7,8 °C 13,8 °C 6,4 km/h (2 Bft)
20.10.2017 20:10 13,8 °C 13,8 °C 67 % 1016,9 hPa 0,0 mm 3,8 km/h (1 Bft) SW 232 ° 0 min 0,000 mm 0,0 UV-I 0 W/m² 7,8 °C 13,8 °C 6,4 km/h (2 Bft)
20.10.2017 20:11 13,8 °C 13,8 °C 67 % 1016,9 hPa 0,0 mm 5,8 km/h (2 Bft) W 268 ° 0 min 0,000 mm 0,0 UV-I 0 W/m² 7,8 °C 13,8 °C 11,3 km/h (2 Bft)
20.10.2017 20:12 13,8 °C 13,8 °C 67 % 1016,9 hPa 0,0 mm 4,4 km/h (1 Bft) SW 233 ° 0 min 0,000 mm 0,0 UV-I 0 W/m² 7,8 °C 13,8 °C 8,0 km/h (2 Bft)
20.10.2017 20:13 13,8 °C 13,8 °C 67 % 1016,9 hPa 0,0 mm 3,4 km/h (1 Bft) S-SW 198 ° 0 min 0,000 mm 0,0 UV-I 0 W/m² 7,8 °C 13,8 °C 6,4 km/h (2 Bft)
20.10.2017 20:14 13,8 °C 13,8 °C 67 % 1016,8 hPa 0,0 mm 3,9 km/h (1 Bft) SW 227 ° 0 min 0,000 mm 0,0 UV-I 0 W/m² 7,8 °C 13,8 °C 6,4 km/h (2 Bft)
20.10.2017 20:15 13,8 °C 13,8 °C 67 % 1016,9 hPa 0,0 mm 3,4 km/h (1 Bft) S-SW 205 ° 0 min 0,000 mm 0,0 UV-I 0 W/m² 7,8 °C 13,8 °C 6,4 km/h (2 Bft)
20.10.2017 20:16 13,7 °C 13,8 °C 68 % 1016,8 hPa 0,0 mm 3,0 km/h (1 Bft) S-SW 194 ° 0 min 0,000 mm 0,0 UV-I 0 W/m² 7,9 °C 13,7 °C 4,8 km/h (1 Bft)
20.10.2017 20:17 13,7 °C 13,8 °C 68 % 1016,8 hPa 0,0 mm 0,8 km/h (0 Bft) S-SW 194 ° 0 min 0,000 mm 0,0 UV-I 0 W/m² 7,9 °C 13,7 °C 4,8 km/h (1 Bft)
20.10.2017 20:18 13,7 °C 13,7 °C 67 % 1016,9 hPa 0,0 mm 3,7 km/h (1 Bft) S-SW 197 ° 0 min 0,000 mm 0,0 UV-I 0 W/m² 7,7 °C 13,7 °C 9,7 km/h (2 Bft)
20.10.2017 20:19 13,7 °C 13,7 °C 67 % 1016,9 hPa 0,0 mm 3,1 km/h (1 Bft) S 189 ° 0 min 0,000 mm 0,0 UV-I 0 W/m² 7,7 °C 13,7 °C 6,4 km/h (2 Bft)
20.10.2017 20:20 13,7 °C 13,7 °C 67 % 1016,9 hPa 0,0 mm 4,0 km/h (1 Bft) W-SW 251 ° 0 min 0,000 mm 0,0 UV-I 0 W/m² 7,7 °C 13,7 °C 11,3 km/h (2 Bft)
20.10.2017 20:21 13,7 °C 13,7 °C 67 % 1016,9 hPa 0,0 mm 4,9 km/h (1 Bft) S-SW 213 ° 0 min 0,000 mm 0,0 UV-I 0 W/m² 7,7 °C 13,7 °C 8,0 km/h (2 Bft)
20.10.2017 20:22 13,7 °C 13,7 °C 67 % 1016,9 hPa 0,0 mm 5,5 km/h (1 Bft) S 191 ° 0 min 0,000 mm 0,0 UV-I 0 W/m² 7,7 °C 13,7 °C 8,0 km/h (2 Bft)
20.10.2017 20:23 13,7 °C 13,7 °C 67 % 1016,9 hPa 0,0 mm 6,4 km/h (2 Bft) S-SW 192 ° 0 min 0,000 mm 0,0 UV-I 0 W/m² 7,7 °C 13,7 °C 11,3 km/h (2 Bft)
20.10.2017 20:24 13,6 °C 13,7 °C 69 % 1016,8 hPa 0,0 mm 2,2 km/h (1 Bft) S-SW 192 ° 0 min 0,000 mm 0,0 UV-I 0 W/m² 8,0 °C 13,6 °C 4,8 km/h (1 Bft)
20.10.2017 20:25 13,5 °C 13,6 °C 69 % 1016,8 hPa 0,0 mm 1,5 km/h (1 Bft) S-SW 192 ° 0 min 0,000 mm 0,0 UV-I 0 W/m² 7,9 °C 13,5 °C 4,8 km/h (1 Bft)
20.10.2017 20:26 13,4 °C 13,5 °C 68 % 1016,8 hPa 0,0 mm 0,5 km/h (0 Bft) S-SW 192 ° 0 min 0,000 mm 0,0 UV-I 0 W/m² 7,6 °C 13,4 °C 1,6 km/h (1 Bft)
20.10.2017 20:27 13,1 °C 13,4 °C 69 % 1016,8 hPa 0,0 mm 1,6 km/h (1 Bft) S-SW 192 ° 0 min 0,000 mm 0,0 UV-I 0 W/m² 7,5 °C 13,1 °C 3,2 km/h (1 Bft)
20.10.2017 20:28 13,0 °C 13,1 °C 69 % 1016,8 hPa 0,0 mm 1,6 km/h (1 Bft) S-SW 192 ° 0 min 0,000 mm 0,0 UV-I 0 W/m² 7,4 °C 13,0 °C 3,2 km/h (1 Bft)
20.10.2017 20:29 12,9 °C 13,0 °C 69 % 1016,8 hPa 0,0 mm 3,2 km/h (1 Bft) W-SW 238 ° 0 min 0,000 mm 0,0 UV-I 0 W/m² 7,4 °C 12,9 °C 4,8 km/h (1 Bft)
20.10.2017 20:30 12,8 °C 12,9 °C 70 % 1016,8 hPa 0,0 mm 2,5 km/h (1 Bft) SW 234 ° 0 min 0,000 mm 0,0 UV-I 0 W/m² 7,5 °C 12,8 °C 4,8 km/h (1 Bft)
20.10.2017 20:31 12,7 °C 12,8 °C 71 % 1016,8 hPa 0,0 mm 1,5 km/h (1 Bft) S 170 ° 0 min 0,000 mm 0,0 UV-I 0 W/m² 7,6 °C 12,7 °C 3,2 km/h (1 Bft)
20.10.2017 20:32 12,7 °C 12,7 °C 70 % 1016,8 hPa 0,0 mm 1,0 km/h (0 Bft) S 171 ° 0 min 0,000 mm 0,0 UV-I 0 W/m² 7,4 °C 12,7 °C 1,6 km/h (1 Bft)
20.10.2017 20:33 12,6 °C 12,7 °C 71 % 1016,8 hPa 0,0 mm 0,0 km/h (0 Bft) S 171 ° 0 min 0,000 mm 0,0 UV-I 0 W/m² 7,5 °C 12,6 °C 0,0 km/h (0 Bft)
20.10.2017 20:34 12,5 °C 12,6 °C 71 % 1016,8 hPa 0,0 mm 2,8 km/h (1 Bft) SW 217 ° 0 min 0,000 mm 0,0 UV-I 0 W/m² 7,4 °C 12,5 °C 6,4 km/h (2 Bft)
20.10.2017 20:35 12,5 °C 12,5 °C 71 % 1016,8 hPa 0,0 mm 2,5 km/h (1 Bft) SW 217 ° 0 min 0,000 mm 0,0 UV-I 0 W/m² 7,4 °C 12,5 °C 4,8 km/h (1 Bft)
20.10.2017 20:36 12,6 °C 12,6 °C 70 % 1016,7 hPa 0,0 mm 2,2 km/h (1 Bft) SW 217 ° 0 min 0,000 mm 0,0 UV-I 0 W/m² 7,3 °C 12,6 °C 3,2 km/h (1 Bft)
20.10.2017 20:37 12,6 °C 12,6 °C 70 % 1016,8 hPa 0,0 mm 3,9 km/h (1 Bft) S 189 ° 0 min 0,000 mm 0,0 UV-I 0 W/m² 7,3 °C 12,6 °C 8,0 km/h (2 Bft)
20.10.2017 20:38 12,6 °C 12,6 °C 71 % 1016,8 hPa 0,0 mm 1,7 km/h (1 Bft) S 189 ° 0 min 0,000 mm 0,0 UV-I 0 W/m² 7,5 °C 12,6 °C 3,2 km/h (1 Bft)
20.10.2017 20:39 12,6 °C 12,7 °C 70 % 1016,8 hPa 0,0 mm 2,2 km/h (1 Bft) S 190 ° 0 min 0,000 mm 0,0 UV-I 0 W/m² 7,3 °C 12,6 °C 4,8 km/h (1 Bft)
20.10.2017 20:40 12,6 °C 12,7 °C 71 % 1016,8 hPa 0,0 mm 4,0 km/h (1 Bft) S-SW 205 ° 0 min 0,000 mm 0,0 UV-I 0 W/m² 7,5 °C 12,6 °C 8,0 km/h (2 Bft)
20.10.2017 20:41 12,7 °C 12,7 °C 70 % 1016,8 hPa 0,0 mm 2,1 km/h (1 Bft) SW 216 ° 0 min 0,000 mm 0,0 UV-I 0 W/m² 7,4 °C 12,7 °C 4,8 km/h (1 Bft)
20.10.2017 20:42 12,7 °C 12,7 °C 70 % 1016,8 hPa 0,0 mm 4,6 km/h (1 Bft) S 187 ° 0 min 0,000 mm 0,0 UV-I 0 W/m² 7,4 °C 12,7 °C 8,0 km/h (2 Bft)
20.10.2017 20:43 12,8 °C 12,8 °C 70 % 1016,8 hPa 0,0 mm 5,6 km/h (1 Bft) S-SW 201 ° 0 min 0,000 mm 0,0 UV-I 0 W/m² 7,5 °C 12,8 °C 8,0 km/h (2 Bft)
20.10.2017 20:44 12,7 °C 12,8 °C 70 % 1016,8 hPa 0,0 mm 3,0 km/h (1 Bft) S 188 ° 0 min 0,000 mm 0,0 UV-I 0 W/m² 7,4 °C 12,7 °C 4,8 km/h (1 Bft)
20.10.2017 20:45 12,7 °C 12,7 °C 70 % 1016,8 hPa 0,0 mm 2,1 km/h (1 Bft) S 188 ° 0 min 0,000 mm 0,0 UV-I 0 W/m² 7,4 °C 12,7 °C 3,2 km/h (1 Bft)
20.10.2017 20:46 12,7 °C 12,7 °C 70 % 1016,8 hPa 0,0 mm 4,0 km/h (1 Bft) S-SW 201 ° 0 min 0,000 mm 0,0 UV-I 0 W/m² 7,4 °C 12,7 °C 8,0 km/h (2 Bft)
20.10.2017 20:47 12,6 °C 12,7 °C 70 % 1016,8 hPa 0,0 mm 2,4 km/h (1 Bft) S-SW 200 ° 0 min 0,000 mm 0,0 UV-I 0 W/m² 7,3 °C 12,6 °C 4,8 km/h (1 Bft)
20.10.2017 20:48 12,6 °C 12,6 °C 71 % 1016,8 hPa 0,0 mm 4,1 km/h (1 Bft) S-SW 192 ° 0 min 0,000 mm 0,0 UV-I 0 W/m² 7,5 °C 12,6 °C 8,0 km/h (2 Bft)
20.10.2017 20:49 12,6 °C 12,6 °C 70 % 1016,8 hPa 0,0 mm 6,7 km/h (2 Bft) S-SW 203 ° 0 min 0,000 mm 0,0 UV-I 0 W/m² 7,3 °C 12,6 °C 9,7 km/h (2 Bft)
20.10.2017 20:50 12,7 °C 12,7 °C 70 % 1016,9 hPa 0,0 mm 4,4 km/h (1 Bft) S-SW 200 ° 0 min 0,000 mm 0,0 UV-I 0 W/m² 7,4 °C 12,7 °C 6,4 km/h (2 Bft)
20.10.2017 20:51 12,7 °C 12,8 °C 70 % 1016,9 hPa 0,0 mm 4,5 km/h (1 Bft) S-SW 200 ° 0 min 0,000 mm 0,0 UV-I 0 W/m² 7,4 °C 12,7 °C 6,4 km/h (2 Bft)
20.10.2017 20:52 12,7 °C 12,8 °C 70 % 1016,8 hPa 0,0 mm 3,8 km/h (1 Bft) S 191 ° 0 min 0,000 mm 0,0 UV-I 0 W/m² 7,4 °C 12,7 °C 8,0 km/h (2 Bft)
20.10.2017 20:53 12,7 °C 12,7 °C 70 % 1016,9 hPa 0,0 mm 4,6 km/h (1 Bft) S 185 ° 0 min 0,000 mm 0,0 UV-I 0 W/m² 7,4 °C 12,7 °C 8,0 km/h (2 Bft)
20.10.2017 20:54 12,7 °C 12,7 °C 69 % 1016,8 hPa 0,0 mm 9,8 km/h (2 Bft) S-SW 194 ° 0 min 0,000 mm 0,0 UV-I 0 W/m² 7,2 °C 12,7 °C 16,1 km/h (3 Bft)
20.10.2017 20:55 12,8 °C 12,8 °C 70 % 1016,8 hPa 0,0 mm 7,6 km/h (2 Bft) SW 229 ° 0 min 0,000 mm 0,0 UV-I 0 W/m² 7,5 °C 12,8 °C 12,9 km/h (3 Bft)
20.10.2017 20:56 12,9 °C 12,9 °C 70 % 1016,8 hPa 0,0 mm 6,8 km/h (2 Bft) S-SW 192 ° 0 min 0,000 mm 0,0 UV-I 0 W/m² 7,6 °C 12,9 °C 11,3 km/h (2 Bft)
20.10.2017 20:57 13,0 °C 13,0 °C 69 % 1016,8 hPa 0,0 mm 4,7 km/h (1 Bft) S-SW 200 ° 0 min 0,000 mm 0,0 UV-I 0 W/m² 7,4 °C 13,0 °C 6,4 km/h (2 Bft)
20.10.2017 20:58 13,1 °C 13,1 °C 69 % 1016,8 hPa 0,0 mm 5,0 km/h (1 Bft) S-SW 209 ° 0 min 0,000 mm 0,0 UV-I 0 W/m² 7,5 °C 13,1 °C 8,0 km/h (2 Bft)
20.10.2017 20:59 13,1 °C 13,1 °C 69 % 1016,8 hPa 0,0 mm 6,0 km/h (2 Bft) S-SW 197 ° 0 min 0,000 mm 0,0 UV-I 0 W/m² 7,5 °C 13,1 °C 9,7 km/h (2 Bft)
20.10.2017 21:00 13,1 °C 13,1 °C 69 % 1016,8 hPa 0,0 mm 5,4 km/h (1 Bft) S-SW 209 ° 0 min 0,000 mm 0,0 UV-I 0 W/m² 7,5 °C 13,1 °C 6,4 km/h (2 Bft)
20.10.2017 21:01 13,2 °C 13,2 °C 68 % 1016,8 hPa 0,0 mm 7,6 km/h (2 Bft) S 185 ° 0 min 0,025 mm 0,0 UV-I 0 W/m² 7,4 °C 13,2 °C 9,7 km/h (2 Bft)
20.10.2017 21:02 13,2 °C 13,2 °C 68 % 1016,8 hPa 0,0 mm 6,4 km/h (2 Bft) S-SW 194 ° 0 min 0,000 mm 0,0 UV-I 0 W/m² 7,4 °C 13,2 °C 8,0 km/h (2 Bft)
20.10.2017 21:03 13,2 °C 13,2 °C 68 % 1016,8 hPa 0,0 mm 3,8 km/h (1 Bft) W-SW 245 ° 0 min 0,000 mm 0,0 UV-I 0 W/m² 7,4 °C 13,2 °C 6,4 km/h (2 Bft)
20.10.2017 21:04 13,2 °C 13,2 °C 68 % 1016,8 hPa 0,0 mm 2,5 km/h (1 Bft) W-SW 244 ° 0 min 0,000 mm 0,0 UV-I 0 W/m² 7,4 °C 13,2 °C 4,8 km/h (1 Bft)
20.10.2017 21:05 13,1 °C 13,2 °C 68 % 1016,8 hPa 0,0 mm 4,5 km/h (1 Bft) S-SW 200 ° 0 min 0,000 mm 0,0 UV-I 0 W/m² 7,3 °C 13,1 °C 6,4 km/h (2 Bft)
20.10.2017 21:06 13,1 °C 13,1 °C 68 % 1016,8 hPa 0,0 mm 3,9 km/h (1 Bft) S-SW 203 ° 0 min 0,000 mm 0,0 UV-I 0 W/m² 7,3 °C 13,1 °C 4,8 km/h (1 Bft)
20.10.2017 21:07 12,9 °C 13,1 °C 69 % 1016,9 hPa 0,0 mm 2,4 km/h (1 Bft) S-SW 207 ° 0 min 0,000 mm 0,0 UV-I 0 W/m² 7,4 °C 12,9 °C 3,2 km/h (1 Bft)
20.10.2017 21:08 12,9 °C 12,9 °C 69 % 1016,9 hPa 0,0 mm 0,8 km/h (0 Bft) S-SW 207 ° 0 min 0,000 mm 0,0 UV-I 0 W/m² 7,4 °C 12,9 °C 3,2 km/h (1 Bft)
20.10.2017 21:09 12,8 °C 12,9 °C 69 % 1016,8 hPa 0,0 mm 4,1 km/h (1 Bft) S-SW 207 ° 0 min 0,000 mm 0,0 UV-I 0 W/m² 7,3 °C 12,8 °C 6,4 km/h (2 Bft)
20.10.2017 21:10 12,7 °C 12,8 °C 70 % 1016,9 hPa 0,0 mm 3,2 km/h (1 Bft) S-SW 207 ° 0 min 0,000 mm 0,0 UV-I 0 W/m² 7,4 °C 12,7 °C 4,8 km/h (1 Bft)
20.10.2017 21:11 12,6 °C 12,7 °C 70 % 1016,9 hPa 0,0 mm 5,2 km/h (1 Bft) S-SW 201 ° 0 min 0,000 mm 0,0 UV-I 0 W/m² 7,3 °C 12,6 °C 6,4 km/h (2 Bft)
20.10.2017 21:12 12,5 °C 12,6 °C 70 % 1016,8 hPa 0,0 mm 5,7 km/h (1 Bft) S-SW 200 ° 0 min 0,000 mm 0,0 UV-I 0 W/m² 7,2 °C 12,5 °C 6,4 km/h (2 Bft)
20.10.2017 21:13 12,5 °C 12,5 °C 70 % 1016,8 hPa 0,0 mm 3,2 km/h (1 Bft) S-SW 198 ° 0 min 0,000 mm 0,0 UV-I 0 W/m² 7,2 °C 12,5 °C 6,4 km/h (2 Bft)
20.10.2017 21:14 12,4 °C 12,5 °C 70 % 1016,8 hPa 0,0 mm 2,4 km/h (1 Bft) SW 228 ° 0 min 0,000 mm 0,0 UV-I 0 W/m² 7,1 °C 12,4 °C 8,0 km/h (2 Bft)
20.10.2017 21:15 12,4 °C 12,4 °C 71 % 1016,8 hPa 0,0 mm 0,5 km/h (0 Bft) SW 228 ° 0 min 0,000 mm 0,0 UV-I 0 W/m² 7,3 °C 12,4 °C 1,6 km/h (1 Bft)
20.10.2017 21:16 12,4 °C 12,4 °C 70 % 1016,8 hPa 0,0 mm 2,3 km/h (1 Bft) S-SW 205 ° 0 min 0,000 mm 0,0 UV-I 0 W/m² 7,1 °C 12,4 °C 6,4 km/h (2 Bft)
20.10.2017 21:17 12,3 °C 12,4 °C 70 % 1016,8 hPa 0,0 mm 2,5 km/h (1 Bft) S-SW 205 ° 0 min 0,000 mm 0,0 UV-I 0 W/m² 7,0 °C 12,3 °C 4,8 km/h (1 Bft)
20.10.2017 21:18 12,2 °C 12,3 °C 70 % 1016,8 hPa 0,0 mm 1,9 km/h (1 Bft) S-SW 205 ° 0 min 0,000 mm 0,0 UV-I 0 W/m² 6,9 °C 12,2 °C 3,2 km/h (1 Bft)
20.10.2017 21:19 12,2 °C 12,2 °C 71 % 1016,8 hPa 0,0 mm 3,2 km/h (1 Bft) S-SW 205 ° 0 min 0,000 mm 0,0 UV-I 0 W/m² 7,1 °C 12,2 °C 4,8 km/h (1 Bft)
20.10.2017 21:20 12,1 °C 12,2 °C 70 % 1016,9 hPa 0,0 mm 1,3 km/h (1 Bft) S-SW 205 ° 0 min 0,000 mm 0,0 UV-I 0 W/m² 6,8 °C 12,1 °C 3,2 km/h (1 Bft)
20.10.2017 21:21 12,1 °C 12,2 °C 71 % 1016,9 hPa 0,0 mm 2,5 km/h (1 Bft) S-SW 205 ° 0 min 0,000 mm 0,0 UV-I 0 W/m² 7,0 °C 12,1 °C 3,2 km/h (1 Bft)
20.10.2017 21:22 11,9 °C 12,1 °C 72 % 1016,9 hPa 0,0 mm 1,2 km/h (1 Bft) S-SW 203 ° 0 min 0,000 mm 0,0 UV-I 0 W/m² 7,0 °C 11,9 °C 3,2 km/h (1 Bft)
20.10.2017 21:23 11,8 °C 11,9 °C 72 % 1016,9 hPa 0,0 mm 0,0 km/h (0 Bft) S-SW 203 ° 0 min 0,000 mm 0,0 UV-I 0 W/m² 6,9 °C 11,8 °C 0,0 km/h (0 Bft)
20.10.2017 21:24 11,7 °C 11,8 °C 73 % 1016,8 hPa 0,0 mm 0,0 km/h (0 Bft) S-SW 203 ° 0 min 0,000 mm 0,0 UV-I 0 W/m² 7,0 °C 11,7 °C 0,0 km/h (0 Bft)
20.10.2017 21:25 11,7 °C 11,8 °C 72 % 1016,8 hPa 0,0 mm 0,0 km/h (0 Bft) S-SW 203 ° 0 min 0,000 mm 0,0 UV-I 0 W/m² 6,8 °C 11,7 °C 0,0 km/h (0 Bft)
20.10.2017 21:26 11,6 °C 11,7 °C 73 % 1016,9 hPa 0,0 mm 2,0 km/h (1 Bft) S-SW 203 ° 0 min 0,000 mm 0,0 UV-I 0 W/m² 6,9 °C 11,6 °C 3,2 km/h (1 Bft)
20.10.2017 21:27 11,6 °C 11,6 °C 73 % 1016,9 hPa 0,0 mm 2,0 km/h (1 Bft) S-SW 203 ° 0 min 0,000 mm 0,0 UV-I 0 W/m² 6,9 °C 11,6 °C 3,2 km/h (1 Bft)
20.10.2017 21:28 11,5 °C 11,6 °C 73 % 1016,8 hPa 0,0 mm 2,7 km/h (1 Bft) S-SW 203 ° 0 min 0,000 mm 0,0 UV-I 0 W/m² 6,8 °C 11,5 °C 4,8 km/h (1 Bft)
20.10.2017 21:29 11,6 °C 11,6 °C 73 % 1016,8 hPa 0,0 mm 1,7 km/h (1 Bft) S-SW 203 ° 0 min 0,000 mm 0,0 UV-I 0 W/m² 6,9 °C 11,6 °C 4,8 km/h (1 Bft)
20.10.2017 21:30 11,6 °C 11,6 °C 72 % 1016,9 hPa 0,0 mm 1,7 km/h (1 Bft) S-SW 203 ° 0 min 0,000 mm 0,0 UV-I 0 W/m² 6,7 °C 11,6 °C 3,2 km/h (1 Bft)
20.10.2017 21:31 11,6 °C 11,6 °C 72 % 1016,9 hPa 0,0 mm 5,6 km/h (1 Bft) S-SW 207 ° 0 min 0,000 mm 0,0 UV-I 0 W/m² 6,7 °C 11,6 °C 8,0 km/h (2 Bft)
20.10.2017 21:32 11,6 °C 11,7 °C 72 % 1016,9 hPa 0,0 mm 3,7 km/h (1 Bft) S-SW 205 ° 0 min 0,000 mm 0,0 UV-I 0 W/m² 6,7 °C 11,6 °C 4,8 km/h (1 Bft)
20.10.2017 21:33 11,7 °C 11,7 °C 73 % 1016,9 hPa 0,0 mm 2,2 km/h (1 Bft) S-SW 205 ° 0 min 0,000 mm 0,0 UV-I 0 W/m² 7,0 °C 11,7 °C 3,2 km/h (1 Bft)
20.10.2017 21:34 11,7 °C 11,7 °C 72 % 1016,8 hPa 0,0 mm 1,2 km/h (1 Bft) S-SW 205 ° 0 min 0,000 mm 0,0 UV-I 0 W/m² 6,8 °C 11,7 °C 1,6 km/h (1 Bft)
20.10.2017 21:35 11,6 °C 11,7 °C 72 % 1016,8 hPa 0,0 mm 2,8 km/h (1 Bft) S-SW 204 ° 0 min 0,000 mm 0,0 UV-I 0 W/m² 6,7 °C 11,6 °C 4,8 km/h (1 Bft)
20.10.2017 21:36 11,6 °C 11,6 °C 72 % 1016,9 hPa 0,0 mm 4,0 km/h (1 Bft) S-SW 207 ° 0 min 0,000 mm 0,0 UV-I 0 W/m² 6,7 °C 11,6 °C 6,4 km/h (2 Bft)
20.10.2017 21:37 11,4 °C 11,6 °C 73 % 1016,9 hPa 0,0 mm 5,2 km/h (1 Bft) S-SW 212 ° 0 min 0,000 mm 0,0 UV-I 0 W/m² 6,7 °C 11,4 °C 9,7 km/h (2 Bft)
20.10.2017 21:38 11,3 °C 11,4 °C 73 % 1016,9 hPa 0,0 mm 3,8 km/h (1 Bft) S-SW 198 ° 0 min 0,000 mm 0,0 UV-I 0 W/m² 6,6 °C 11,3 °C 9,7 km/h (2 Bft)
20.10.2017 21:39 11,2 °C 11,3 °C 74 % 1016,8 hPa 0,0 mm 2,3 km/h (1 Bft) S-SW 198 ° 0 min 0,000 mm 0,0 UV-I 0 W/m² 6,7 °C 11,2 °C 4,8 km/h (1 Bft)
20.10.2017 21:40 11,2 °C 11,2 °C 74 % 1016,8 hPa 0,0 mm 5,3 km/h (1 Bft) S-SW 206 ° 0 min 0,000 mm 0,0 UV-I 0 W/m² 6,7 °C 11,2 °C 9,7 km/h (2 Bft)
20.10.2017 21:41 11,1 °C 11,2 °C 74 % 1016,8 hPa 0,0 mm 5,3 km/h (1 Bft) S-SW 201 ° 0 min 0,000 mm 0,0 UV-I 0 W/m² 6,6 °C 11,1 °C 8,0 km/h (2 Bft)
20.10.2017 21:42 11,1 °C 11,1 °C 74 % 1016,9 hPa 0,0 mm 3,1 km/h (1 Bft) S 180 ° 0 min 0,000 mm 0,0 UV-I 0 W/m² 6,6 °C 11,1 °C 6,4 km/h (2 Bft)
20.10.2017 21:43 11,0 °C 11,1 °C 74 % 1016,9 hPa 0,0 mm 3,3 km/h (1 Bft) S-SW 200 ° 0 min 0,000 mm 0,0 UV-I 0 W/m² 6,5 °C 11,0 °C 4,8 km/h (1 Bft)
20.10.2017 21:44 10,9 °C 11,0 °C 75 % 1016,9 hPa 0,0 mm 6,4 km/h (2 Bft) S 171 ° 0 min 0,000 mm 0,0 UV-I 0 W/m² 6,6 °C 10,9 °C 8,0 km/h (2 Bft)
20.10.2017 21:45 10,8 °C 10,9 °C 75 % 1016,8 hPa 0,0 mm 4,0 km/h (1 Bft) S 171 ° 0 min 0,000 mm 0,0 UV-I 0 W/m² 6,5 °C 10,8 °C 6,4 km/h (2 Bft)
20.10.2017 21:46 10,8 °C 10,8 °C 75 % 1016,9 hPa 0,0 mm 3,6 km/h (1 Bft) S 173 ° 0 min 0,000 mm 0,0 UV-I 0 W/m² 6,5 °C 10,8 °C 4,8 km/h (1 Bft)
20.10.2017 21:47 10,8 °C 10,8 °C 75 % 1016,8 hPa 0,0 mm 1,9 km/h (1 Bft) S 173 ° 0 min 0,000 mm 0,0 UV-I 0 W/m² 6,5 °C 10,8 °C 3,2 km/h (1 Bft)
20.10.2017 21:48 10,8 °C 10,8 °C 76 % 1016,8 hPa 0,0 mm 1,9 km/h (1 Bft) S 173 ° 0 min 0,000 mm 0,0 UV-I 0 W/m² 6,7 °C 10,8 °C 4,8 km/h (1 Bft)
20.10.2017 21:49 10,8 °C 10,8 °C 75 % 1016,9 hPa 0,0 mm 5,2 km/h (1 Bft) S-SW 205 ° 0 min 0,000 mm 0,0 UV-I 0 W/m² 6,5 °C 10,8 °C 9,7 km/h (2 Bft)
20.10.2017 21:50 10,8 °C 10,8 °C 75 % 1016,9 hPa 0,0 mm 2,4 km/h (1 Bft) S-SW 194 ° 0 min 0,000 mm 0,0 UV-I 0 W/m² 6,5 °C 10,8 °C 3,2 km/h (1 Bft)
20.10.2017 21:51 10,7 °C 10,8 °C 76 % 1016,9 hPa 0,0 mm 2,8 km/h (1 Bft) S 186 ° 0 min 0,000 mm 0,0 UV-I 0 W/m² 6,6 °C 10,7 °C 4,8 km/h (1 Bft)
20.10.2017 21:52 10,7 °C 10,7 °C 76 % 1016,9 hPa 0,0 mm 1,9 km/h (1 Bft) S 186 ° 0 min 0,000 mm 0,0 UV-I 0 W/m² 6,6 °C 10,7 °C 3,2 km/h (1 Bft)
20.10.2017 21:53 10,6 °C 10,7 °C 76 % 1016,9 hPa 0,0 mm 3,7 km/h (1 Bft) S 190 ° 0 min 0,000 mm 0,0 UV-I 0 W/m² 6,5 °C 10,6 °C 4,8 km/h (1 Bft)
20.10.2017 21:54 10,6 °C 10,6 °C 76 % 1016,9 hPa 0,0 mm 4,6 km/h (1 Bft) SW 217 ° 0 min 0,000 mm 0,0 UV-I 0 W/m² 6,5 °C 10,6 °C 8,0 km/h (2 Bft)
20.10.2017 21:55 10,6 °C 10,6 °C 76 % 1016,8 hPa 0,0 mm 2,7 km/h (1 Bft) SO 126 ° 0 min 0,000 mm 0,0 UV-I 0 W/m² 6,5 °C 10,6 °C 3,2 km/h (1 Bft)
20.10.2017 21:56 10,6 °C 10,6 °C 76 % 1016,8 hPa 0,0 mm 1,5 km/h (1 Bft) SO 126 ° 0 min 0,000 mm 0,0 UV-I 0 W/m² 6,5 °C 10,6 °C 3,2 km/h (1 Bft)
20.10.2017 21:57 10,6 °C 10,6 °C 76 % 1016,9 hPa 0,0 mm 2,9 km/h (1 Bft) W-SW 238 ° 0 min 0,000 mm 0,0 UV-I 0 W/m² 6,5 °C 10,6 °C 4,8 km/h (1 Bft)
20.10.2017 21:58 10,6 °C 10,6 °C 76 % 1016,9 hPa 0,0 mm 3,8 km/h (1 Bft) S-SW 202 ° 0 min 0,000 mm 0,0 UV-I 0 W/m² 6,5 °C 10,6 °C 6,4 km/h (2 Bft)
20.10.2017 21:59 10,6 °C 10,6 °C 76 % 1016,9 hPa 0,0 mm 2,1 km/h (1 Bft) S 183 ° 0 min 0,000 mm 0,0 UV-I 0 W/m² 6,5 °C 10,6 °C 3,2 km/h (1 Bft)
20.10.2017 22:00 10,7 °C 10,7 °C 76 % 1016,9 hPa 0,0 mm 2,7 km/h (1 Bft) S 183 ° 0 min 0,025 mm 0,0 UV-I 0 W/m² 6,6 °C 10,7 °C 4,8 km/h (1 Bft)
20.10.2017 22:01 10,7 °C 10,7 °C 76 % 1016,9 hPa 0,0 mm 0,2 km/h (0 Bft) S 183 ° 0 min 0,000 mm 0,0 UV-I 0 W/m² 6,6 °C 10,7 °C 1,6 km/h (1 Bft)
20.10.2017 22:02 10,6 °C 10,7 °C 76 % 1016,9 hPa 0,0 mm 0,0 km/h (0 Bft) S 183 ° 0 min 0,000 mm 0,0 UV-I 0 W/m² 6,5 °C 10,6 °C 0,0 km/h (0 Bft)
20.10.2017 22:03 10,5 °C 10,6 °C 76 % 1016,9 hPa 0,0 mm 0,0 km/h (0 Bft) S 183 ° 0 min 0,000 mm 0,0 UV-I 0 W/m² 6,5 °C 10,5 °C 0,0 km/h (0 Bft)
20.10.2017 22:04 10,4 °C 10,5 °C 76 % 1016,9 hPa 0,0 mm 0,0 km/h (0 Bft) S 183 ° 0 min 0,000 mm 0,0 UV-I 0 W/m² 6,4 °C 10,4 °C 0,0 km/h (0 Bft)
20.10.2017 22:05 10,3 °C 10,4 °C 77 % 1017,0 hPa 0,0 mm 0,0 km/h (0 Bft) S 183 ° 0 min 0,000 mm 0,0 UV-I 0 W/m² 6,4 °C 10,3 °C 0,0 km/h (0 Bft)
20.10.2017 22:06 10,1 °C 10,3 °C 77 % 1017,0 hPa 0,0 mm 0,0 km/h (0 Bft) S 183 ° 0 min 0,000 mm 0,0 UV-I 0 W/m² 6,3 °C 10,1 °C 0,0 km/h (0 Bft)
20.10.2017 22:07 10,0 °C 10,1 °C 78 % 1017,0 hPa 0,0 mm 0,0 km/h (0 Bft) S 183 ° 0 min 0,000 mm 0,0 UV-I 0 W/m² 6,3 °C 10,0 °C 0,0 km/h (0 Bft)
20.10.2017 22:08 9,9 °C 10,0 °C 78 % 1017,0 hPa 0,0 mm 0,0 km/h (0 Bft) S 183 ° 0 min 0,000 mm 0,0 UV-I 0 W/m² 6,2 °C 9,9 °C 0,0 km/h (0 Bft)
20.10.2017 22:09 9,8 °C 9,9 °C 79 % 1017,1 hPa 0,0 mm 0,0 km/h (0 Bft) S 183 ° 0 min 0,000 mm 0,0 UV-I 0 W/m² 6,3 °C 9,8 °C 0,0 km/h (0 Bft)
20.10.2017 22:10 9,8 °C 9,9 °C 79 % 1017,0 hPa 0,0 mm 0,0 km/h (0 Bft) S 183 ° 0 min 0,000 mm 0,0 UV-I 0 W/m² 6,3 °C 9,8 °C 0,0 km/h (0 Bft)
20.10.2017 22:11 9,9 °C 9,9 °C 79 % 1017,1 hPa 0,0 mm 0,0 km/h (0 Bft) S 183 ° 0 min 0,000 mm 0,0 UV-I 0 W/m² 6,4 °C 9,9 °C 0,0 km/h (0 Bft)
20.10.2017 22:12 10,0 °C 10,0 °C 79 % 1017,0 hPa 0,0 mm 0,0 km/h (0 Bft) S 183 ° 0 min 0,000 mm 0,0 UV-I 0 W/m² 6,5 °C 10,0 °C 0,0 km/h (0 Bft)
20.10.2017 22:13 10,0 °C 10,0 °C 78 % 1017,1 hPa 0,0 mm 0,0 km/h (0 Bft) S 183 ° 0 min 0,000 mm 0,0 UV-I 0 W/m² 6,3 °C 10,0 °C 0,0 km/h (0 Bft)
20.10.2017 22:14 10,1 °C 10,1 °C 78 % 1017,1 hPa 0,0 mm 0,0 km/h (0 Bft) S 183 ° 0 min 0,000 mm 0,0 UV-I 0 W/m² 6,4 °C 10,1 °C 0,0 km/h (0 Bft)
20.10.2017 22:15 10,1 °C 10,1 °C 78 % 1017,1 hPa 0,0 mm 0,0 km/h (0 Bft) S 183 ° 0 min 0,000 mm 0,0 UV-I 0 W/m² 6,4 °C 10,1 °C 0,0 km/h (0 Bft)
20.10.2017 22:16 10,1 °C 10,1 °C 78 % 1017,1 hPa 0,0 mm 0,0 km/h (0 Bft) S 183 ° 0 min 0,000 mm 0,0 UV-I 0 W/m² 6,4 °C 10,1 °C 0,0 km/h (0 Bft)
20.10.2017 22:17 10,2 °C 10,2 °C 78 % 1017,1 hPa 0,0 mm 0,0 km/h (0 Bft) S 183 ° 0 min 0,000 mm 0,0 UV-I 0 W/m² 6,5 °C 10,2 °C 0,0 km/h (0 Bft)
20.10.2017 22:18 10,2 °C 10,2 °C 77 % 1017,1 hPa 0,0 mm 0,0 km/h (0 Bft) S 183 ° 0 min 0,000 mm 0,0 UV-I 0 W/m² 6,4 °C 10,2 °C 0,0 km/h (0 Bft)
20.10.2017 22:19 10,3 °C 10,3 °C 77 % 1017,1 hPa 0,0 mm 0,0 km/h (0 Bft) S 183 ° 0 min 0,000 mm 0,0 UV-I 0 W/m² 6,4 °C 10,3 °C 0,0 km/h (0 Bft)
20.10.2017 22:20 10,3 °C 10,3 °C 77 % 1017,2 hPa 0,0 mm 0,0 km/h (0 Bft) S 183 ° 0 min 0,000 mm 0,0 UV-I 0 W/m² 6,4 °C 10,3 °C 0,0 km/h (0 Bft)
20.10.2017 22:21 10,3 °C 10,3 °C 77 % 1017,2 hPa 0,0 mm 0,0 km/h (0 Bft) S 183 ° 0 min 0,000 mm 0,0 UV-I 0 W/m² 6,4 °C 10,3 °C 0,0 km/h (0 Bft)
20.10.2017 22:22 10,3 °C 10,3 °C 77 % 1017,2 hPa 0,0 mm 0,0 km/h (0 Bft) S 183 ° 0 min 0,000 mm 0,0 UV-I 0 W/m² 6,4 °C 10,3 °C 0,0 km/h (0 Bft)
20.10.2017 22:23 10,2 °C 10,3 °C 77 % 1017,2 hPa 0,0 mm 0,0 km/h (0 Bft) S 183 ° 0 min 0,000 mm 0,0 UV-I 0 W/m² 6,4 °C 10,2 °C 0,0 km/h (0 Bft)
20.10.2017 22:24 10,3 °C 10,3 °C 77 % 1017,2 hPa 0,0 mm 0,0 km/h (0 Bft) S 183 ° 0 min 0,000 mm 0,0 UV-I 0 W/m² 6,4 °C 10,3 °C 0,0 km/h (0 Bft)
20.10.2017 22:25 10,3 °C 10,3 °C 77 % 1017,2 hPa 0,0 mm 0,0 km/h (0 Bft) S 183 ° 0 min 0,000 mm 0,0 UV-I 0 W/m² 6,4 °C 10,3 °C 0,0 km/h (0 Bft)
20.10.2017 22:26 10,3 °C 10,3 °C 77 % 1017,2 hPa 0,0 mm 0,0 km/h (0 Bft) S 183 ° 0 min 0,000 mm 0,0 UV-I 0 W/m² 6,4 °C 10,3 °C 0,0 km/h (0 Bft)
20.10.2017 22:27 10,3 °C 10,3 °C 77 % 1017,1 hPa 0,0 mm 0,0 km/h (0 Bft) S 183 ° 0 min 0,000 mm 0,0 UV-I 0 W/m² 6,4 °C 10,3 °C 0,0 km/h (0 Bft)
20.10.2017 22:28 10,4 °C 10,4 °C 77 % 1017,2 hPa 0,0 mm 0,0 km/h (0 Bft) S 183 ° 0 min 0,000 mm 0,0 UV-I 0 W/m² 6,5 °C 10,4 °C 0,0 km/h (0 Bft)
20.10.2017 22:29 10,5 °C 10,5 °C 77 % 1017,1 hPa 0,0 mm 0,0 km/h (0 Bft) S 183 ° 0 min 0,000 mm 0,0 UV-I 0 W/m² 6,6 °C 10,5 °C 0,0 km/h (0 Bft)
20.10.2017 22:30 10,5 °C 10,6 °C 76 % 1017,1 hPa 0,0 mm 0,0 km/h (0 Bft) S 183 ° 0 min 0,000 mm 0,0 UV-I 0 W/m² 6,5 °C 10,5 °C 0,0 km/h (0 Bft)
20.10.2017 22:31 10,4 °C 10,5 °C 76 % 1017,2 hPa 0,0 mm 0,0 km/h (0 Bft) S 183 ° 0 min 0,000 mm 0,0 UV-I 0 W/m² 6,4 °C 10,4 °C 0,0 km/h (0 Bft)
20.10.2017 22:32 10,3 °C 10,5 °C 77 % 1017,2 hPa 0,0 mm 0,0 km/h (0 Bft) S 183 ° 0 min 0,000 mm 0,0 UV-I 0 W/m² 6,4 °C 10,3 °C 0,0 km/h (0 Bft)
20.10.2017 22:33 10,3 °C 10,3 °C 77 % 1017,2 hPa 0,0 mm 0,0 km/h (0 Bft) S 183 ° 0 min 0,000 mm 0,0 UV-I 0 W/m² 6,4 °C 10,3 °C 0,0 km/h (0 Bft)
20.10.2017 22:34 10,1 °C 10,3 °C 77 % 1017,2 hPa 0,0 mm 0,0 km/h (0 Bft) S 183 ° 0 min 0,000 mm 0,0 UV-I 0 W/m² 6,3 °C 10,1 °C 0,0 km/h (0 Bft)
20.10.2017 22:35 9,9 °C 10,1 °C 78 % 1017,2 hPa 0,0 mm 0,0 km/h (0 Bft) S 183 ° 0 min 0,000 mm 0,0 UV-I 0 W/m² 6,2 °C 9,9 °C 0,0 km/h (0 Bft)
20.10.2017 22:36 9,7 °C 9,9 °C 79 % 1017,2 hPa 0,0 mm 0,0 km/h (0 Bft) S 183 ° 0 min 0,000 mm 0,0 UV-I 0 W/m² 6,2 °C 9,7 °C 0,0 km/h (0 Bft)
20.10.2017 22:37 9,7 °C 9,7 °C 79 % 1017,2 hPa 0,0 mm 0,0 km/h (0 Bft) S 183 ° 0 min 0,000 mm 0,0 UV-I 0 W/m² 6,2 °C 9,7 °C 0,0 km/h (0 Bft)
20.10.2017 22:38 9,6 °C 9,7 °C 79 % 1017,2 hPa 0,0 mm 0,0 km/h (0 Bft) S 183 ° 0 min 0,000 mm 0,0 UV-I 0 W/m² 6,1 °C 9,6 °C 0,0 km/h (0 Bft)
20.10.2017 22:39 9,6 °C 9,7 °C 79 % 1017,2 hPa 0,0 mm 0,0 km/h (0 Bft) S 183 ° 0 min 0,000 mm 0,0 UV-I 0 W/m² 6,1 °C 9,6 °C 0,0 km/h (0 Bft)
20.10.2017 22:40 9,6 °C 9,6 °C 79 % 1017,2 hPa 0,0 mm 0,0 km/h (0 Bft) S 183 ° 0 min 0,000 mm 0,0 UV-I 0 W/m² 6,1 °C 9,6 °C 0,0 km/h (0 Bft)
20.10.2017 22:41 9,6 °C 9,6 °C 80 % 1017,2 hPa 0,0 mm 0,0 km/h (0 Bft) S 183 ° 0 min 0,000 mm 0,0 UV-I 0 W/m² 6,3 °C 9,6 °C 0,0 km/h (0 Bft)
20.10.2017 22:42 9,5 °C 9,6 °C 80 % 1017,2 hPa 0,0 mm 0,0 km/h (0 Bft) S 183 ° 0 min 0,000 mm 0,0 UV-I 0 W/m² 6,2 °C 9,5 °C 0,0 km/h (0 Bft)
20.10.2017 22:43 9,6 °C 9,6 °C 80 % 1017,2 hPa 0,0 mm 0,0 km/h (0 Bft) S 183 ° 0 min 0,000 mm 0,0 UV-I 0 W/m² 6,3 °C 9,6 °C 0,0 km/h (0 Bft)
20.10.2017 22:44 9,6 °C 9,6 °C 80 % 1017,2 hPa 0,0 mm 0,0 km/h (0 Bft) S 183 ° 0 min 0,000 mm 0,0 UV-I 0 W/m² 6,3 °C 9,6 °C 0,0 km/h (0 Bft)
20.10.2017 22:45 9,6 °C 9,6 °C 80 % 1017,2 hPa 0,0 mm 0,0 km/h (0 Bft) S 183 ° 0 min 0,000 mm 0,0 UV-I 0 W/m² 6,3 °C 9,6 °C 0,0 km/h (0 Bft)
20.10.2017 22:46 9,5 °C 9,6 °C 80 % 1017,2 hPa 0,0 mm 0,0 km/h (0 Bft) S 183 ° 0 min 0,000 mm 0,0 UV-I 0 W/m² 6,2 °C 9,5 °C 0,0 km/h (0 Bft)
20.10.2017 22:47 9,4 °C 9,5 °C 80 % 1017,2 hPa 0,0 mm 0,0 km/h (0 Bft) S 183 ° 0 min 0,000 mm 0,0 UV-I 0 W/m² 6,1 °C 9,4 °C 0,0 km/h (0 Bft)
20.10.2017 22:48 9,2 °C 9,4 °C 80 % 1017,3 hPa 0,0 mm 0,0 km/h (0 Bft) S 183 ° 0 min 0,000 mm 0,0 UV-I 0 W/m² 5,9 °C 9,2 °C 0,0 km/h (0 Bft)
20.10.2017 22:49 9,1 °C 9,2 °C 81 % 1017,3 hPa 0,0 mm 0,0 km/h (0 Bft) S 183 ° 0 min 0,000 mm 0,0 UV-I 0 W/m² 6,0 °C 9,1 °C 0,0 km/h (0 Bft)
20.10.2017 22:50 9,0 °C 9,1 °C 81 % 1017,3 hPa 0,0 mm 0,0 km/h (0 Bft) S 183 ° 0 min 0,000 mm 0,0 UV-I 0 W/m² 5,9 °C 9,0 °C 0,0 km/h (0 Bft)
20.10.2017 22:51 9,0 °C 9,1 °C 82 % 1017,2 hPa 0,0 mm 0,0 km/h (0 Bft) S 183 ° 0 min 0,000 mm 0,0 UV-I 0 W/m² 6,1 °C 9,0 °C 0,0 km/h (0 Bft)
20.10.2017 22:52 9,0 °C 9,0 °C 82 % 1017,3 hPa 0,0 mm 0,0 km/h (0 Bft) S 183 ° 0 min 0,000 mm 0,0 UV-I 0 W/m² 6,1 °C 9,0 °C 0,0 km/h (0 Bft)
20.10.2017 22:53 9,1 °C 9,1 °C 82 % 1017,3 hPa 0,0 mm 0,0 km/h (0 Bft) S 183 ° 0 min 0,000 mm 0,0 UV-I 0 W/m² 6,2 °C 9,1 °C 0,0 km/h (0 Bft)
20.10.2017 22:54 9,1 °C 9,1 °C 82 % 1017,2 hPa 0,0 mm 0,0 km/h (0 Bft) S 183 ° 0 min 0,000 mm 0,0 UV-I 0 W/m² 6,2 °C 9,1 °C 0,0 km/h (0 Bft)
20.10.2017 22:55 9,2 °C 9,2 °C 82 % 1017,2 hPa 0,0 mm 0,0 km/h (0 Bft) S 183 ° 0 min 0,000 mm 0,0 UV-I 0 W/m² 6,3 °C 9,2 °C 0,0 km/h (0 Bft)
20.10.2017 22:56 9,1 °C 9,2 °C 82 % 1017,2 hPa 0,0 mm 0,0 km/h (0 Bft) S 183 ° 0 min 0,000 mm 0,0 UV-I 0 W/m² 6,2 °C 9,1 °C 0,0 km/h (0 Bft)
20.10.2017 22:57 9,1 °C 9,1 °C 82 % 1017,2 hPa 0,0 mm 0,0 km/h (0 Bft) S 183 ° 0 min 0,000 mm 0,0 UV-I 0 W/m² 6,2 °C 9,1 °C 0,0 km/h (0 Bft)
20.10.2017 22:58 9,1 °C 9,1 °C 82 % 1017,3 hPa 0,0 mm 0,0 km/h (0 Bft) S 183 ° 0 min 0,000 mm 0,0 UV-I 0 W/m² 6,2 °C 9,1 °C 0,0 km/h (0 Bft)
20.10.2017 22:59 9,1 °C 9,1 °C 82 % 1017,3 hPa 0,0 mm 0,0 km/h (0 Bft) S 183 ° 0 min 0,000 mm 0,0 UV-I 0 W/m² 6,2 °C 9,1 °C 0,0 km/h (0 Bft)
20.10.2017 23:00 9,1 °C 9,1 °C 82 % 1017,2 hPa 0,0 mm 0,0 km/h (0 Bft) S 183 ° 0 min 0,026 mm 0,0 UV-I 0 W/m² 6,2 °C 9,1 °C 0,0 km/h (0 Bft)
20.10.2017 23:01 9,1 °C 9,1 °C 82 % 1017,3 hPa 0,0 mm 0,0 km/h (0 Bft) S 183 ° 0 min 0,000 mm 0,0 UV-I 0 W/m² 6,2 °C 9,1 °C 0,0 km/h (0 Bft)
20.10.2017 23:02 9,2 °C 9,2 °C 82 % 1017,3 hPa 0,0 mm 0,0 km/h (0 Bft) S 183 ° 0 min 0,000 mm 0,0 UV-I 0 W/m² 6,3 °C 9,2 °C 0,0 km/h (0 Bft)
20.10.2017 23:03 9,3 °C 9,3 °C 82 % 1017,3 hPa 0,0 mm 0,0 km/h (0 Bft) S 183 ° 0 min 0,000 mm 0,0 UV-I 0 W/m² 6,4 °C 9,3 °C 0,0 km/h (0 Bft)
20.10.2017 23:04 9,3 °C 9,3 °C 81 % 1017,3 hPa 0,0 mm 0,0 km/h (0 Bft) S 183 ° 0 min 0,000 mm 0,0 UV-I 0 W/m² 6,2 °C 9,3 °C 0,0 km/h (0 Bft)
20.10.2017 23:05 9,3 °C 9,3 °C 81 % 1017,3 hPa 0,0 mm 0,0 km/h (0 Bft) S 183 ° 0 min 0,000 mm 0,0 UV-I 0 W/m² 6,2 °C 9,3 °C 0,0 km/h (0 Bft)
20.10.2017 23:06 9,3 °C 9,3 °C 81 % 1017,3 hPa 0,0 mm 0,0 km/h (0 Bft) S 183 ° 0 min 0,000 mm 0,0 UV-I 0 W/m² 6,2 °C 9,3 °C 0,0 km/h (0 Bft)
20.10.2017 23:07 9,3 °C 9,3 °C 81 % 1017,2 hPa 0,0 mm 0,0 km/h (0 Bft) S 183 ° 0 min 0,000 mm 0,0 UV-I 0 W/m² 6,2 °C 9,3 °C 0,0 km/h (0 Bft)
20.10.2017 23:08 9,3 °C 9,3 °C 81 % 1017,3 hPa 0,0 mm 0,0 km/h (0 Bft) S 183 ° 0 min 0,000 mm 0,0 UV-I 0 W/m² 6,2 °C 9,3 °C 0,0 km/h (0 Bft)
20.10.2017 23:09 9,2 °C 9,3 °C 81 % 1017,3 hPa 0,0 mm 0,0 km/h (0 Bft) S 183 ° 0 min 0,000 mm 0,0 UV-I 0 W/m² 6,1 °C 9,2 °C 0,0 km/h (0 Bft)
20.10.2017 23:10 9,2 °C 9,2 °C 82 % 1017,3 hPa 0,0 mm 0,0 km/h (0 Bft) S 183 ° 0 min 0,000 mm 0,0 UV-I 0 W/m² 6,3 °C 9,2 °C 0,0 km/h (0 Bft)
20.10.2017 23:11 9,2 °C 9,2 °C 82 % 1017,3 hPa 0,0 mm 0,0 km/h (0 Bft) S 183 ° 0 min 0,000 mm 0,0 UV-I 0 W/m² 6,3 °C 9,2 °C 0,0 km/h (0 Bft)
20.10.2017 23:12 9,3 °C 9,3 °C 82 % 1017,3 hPa 0,0 mm 0,0 km/h (0 Bft) S 183 ° 0 min 0,000 mm 0,0 UV-I 0 W/m² 6,4 °C 9,3 °C 0,0 km/h (0 Bft)
20.10.2017 23:13 9,3 °C 9,3 °C 81 % 1017,2 hPa 0,0 mm 0,0 km/h (0 Bft) S 183 ° 0 min 0,000 mm 0,0 UV-I 0 W/m² 6,2 °C 9,3 °C 0,0 km/h (0 Bft)
20.10.2017 23:14 9,3 °C 9,3 °C 81 % 1017,3 hPa 0,0 mm 0,0 km/h (0 Bft) S 183 ° 0 min 0,000 mm 0,0 UV-I 0 W/m² 6,2 °C 9,3 °C 0,0 km/h (0 Bft)
20.10.2017 23:15 9,4 °C 9,4 °C 81 % 1017,3 hPa 0,0 mm 0,0 km/h (0 Bft) S 183 ° 0 min 0,000 mm 0,0 UV-I 0 W/m² 6,3 °C 9,4 °C 0,0 km/h (0 Bft)
20.10.2017 23:16 9,4 °C 9,4 °C 81 % 1017,3 hPa 0,0 mm 0,0 km/h (0 Bft) S 183 ° 0 min 0,000 mm 0,0 UV-I 0 W/m² 6,3 °C 9,4 °C 0,0 km/h (0 Bft)
20.10.2017 23:17 9,4 °C 9,4 °C 81 % 1017,3 hPa 0,0 mm 0,0 km/h (0 Bft) S 183 ° 0 min 0,000 mm 0,0 UV-I 0 W/m² 6,3 °C 9,4 °C 0,0 km/h (0 Bft)
20.10.2017 23:18 9,4 °C 9,4 °C 81 % 1017,3 hPa 0,0 mm 0,0 km/h (0 Bft) S 183 ° 0 min 0,000 mm 0,0 UV-I 0 W/m² 6,3 °C 9,4 °C 0,0 km/h (0 Bft)
20.10.2017 23:19 9,4 °C 9,5 °C 81 % 1017,3 hPa 0,0 mm 0,0 km/h (0 Bft) S 183 ° 0 min 0,000 mm 0,0 UV-I 0 W/m² 6,3 °C 9,4 °C 0,0 km/h (0 Bft)
20.10.2017 23:20 9,6 °C 9,6 °C 81 % 1017,3 hPa 0,0 mm 0,0 km/h (0 Bft) SW 217 ° 0 min 0,000 mm 0,0 UV-I 0 W/m² 6,5 °C 9,6 °C 0,0 km/h (0 Bft)
20.10.2017 23:21 9,7 °C 9,7 °C 81 % 1017,3 hPa 0,0 mm 0,0 km/h (0 Bft) SW 217 ° 0 min 0,000 mm 0,0 UV-I 0 W/m² 6,6 °C 9,7 °C 0,0 km/h (0 Bft)
20.10.2017 23:22 9,7 °C 9,7 °C 82 % 1017,3 hPa 0,0 mm 0,0 km/h (0 Bft) SW 217 ° 0 min 0,000 mm 0,0 UV-I 0 W/m² 6,8 °C 9,7 °C 0,0 km/h (0 Bft)
20.10.2017 23:23 9,7 °C 9,7 °C 81 % 1017,3 hPa 0,0 mm 0,0 km/h (0 Bft) SW 217 ° 0 min 0,000 mm 0,0 UV-I 0 W/m² 6,6 °C 9,7 °C 0,0 km/h (0 Bft)
20.10.2017 23:24 9,7 °C 9,7 °C 81 % 1017,3 hPa 0,0 mm 0,0 km/h (0 Bft) SW 217 ° 0 min 0,000 mm 0,0 UV-I 0 W/m² 6,6 °C 9,7 °C 0,0 km/h (0 Bft)
20.10.2017 23:25 9,6 °C 9,7 °C 81 % 1017,2 hPa 0,0 mm 0,0 km/h (0 Bft) SW 217 ° 0 min 0,000 mm 0,0 UV-I 0 W/m² 6,5 °C 9,6 °C 0,0 km/h (0 Bft)
20.10.2017 23:26 9,6 °C 9,6 °C 82 % 1017,2 hPa 0,0 mm 0,0 km/h (0 Bft) SW 217 ° 0 min 0,000 mm 0,0 UV-I 0 W/m² 6,7 °C 9,6 °C 0,0 km/h (0 Bft)
20.10.2017 23:27 9,6 °C 9,6 °C 82 % 1017,2 hPa 0,0 mm 0,0 km/h (0 Bft) SW 217 ° 0 min 0,000 mm 0,0 UV-I 0 W/m² 6,7 °C 9,6 °C 0,0 km/h (0 Bft)
20.10.2017 23:28 9,5 °C 9,6 °C 82 % 1017,2 hPa 0,0 mm 0,0 km/h (0 Bft) SW 217 ° 0 min 0,000 mm 0,0 UV-I 0 W/m² 6,6 °C 9,5 °C 0,0 km/h (0 Bft)
20.10.2017 23:29 9,6 °C 9,6 °C 82 % 1017,2 hPa 0,0 mm 0,0 km/h (0 Bft) SW 217 ° 0 min 0,000 mm 0,0 UV-I 0 W/m² 6,7 °C 9,6 °C 0,0 km/h (0 Bft)
20.10.2017 23:30 9,7 °C 9,7 °C 81 % 1017,3 hPa 0,0 mm 0,0 km/h (0 Bft) SW 217 ° 0 min 0,000 mm 0,0 UV-I 0 W/m² 6,6 °C 9,7 °C 0,0 km/h (0 Bft)
20.10.2017 23:31 9,7 °C 9,7 °C 81 % 1017,2 hPa 0,0 mm 0,0 km/h (0 Bft) SW 217 ° 0 min 0,000 mm 0,0 UV-I 0 W/m² 6,6 °C 9,7 °C 0,0 km/h (0 Bft)
20.10.2017 23:32 9,6 °C 9,7 °C 81 % 1017,2 hPa 0,0 mm 0,0 km/h (0 Bft) SW 217 ° 0 min 0,000 mm 0,0 UV-I 0 W/m² 6,5 °C 9,6 °C 0,0 km/h (0 Bft)
20.10.2017 23:33 9,6 °C 9,6 °C 81 % 1017,2 hPa 0,0 mm 0,0 km/h (0 Bft) SW 217 ° 0 min 0,000 mm 0,0 UV-I 0 W/m² 6,5 °C 9,6 °C 0,0 km/h (0 Bft)
20.10.2017 23:34 9,6 °C 9,6 °C 82 % 1017,2 hPa 0,0 mm 0,0 km/h (0 Bft) SW 217 ° 0 min 0,000 mm 0,0 UV-I 0 W/m² 6,7 °C 9,6 °C 0,0 km/h (0 Bft)
20.10.2017 23:35 9,5 °C 9,6 °C 82 % 1017,2 hPa 0,0 mm 0,0 km/h (0 Bft) SW 217 ° 0 min 0,000 mm 0,0 UV-I 0 W/m² 6,6 °C 9,5 °C 0,0 km/h (0 Bft)
20.10.2017 23:36 9,6 °C 9,6 °C 82 % 1017,2 hPa 0,0 mm 0,0 km/h (0 Bft) SW 217 ° 0 min 0,000 mm 0,0 UV-I 0 W/m² 6,7 °C 9,6 °C 0,0 km/h (0 Bft)
20.10.2017 23:37 9,7 °C 9,7 °C 81 % 1017,2 hPa 0,0 mm 0,0 km/h (0 Bft) SW 217 ° 0 min 0,000 mm 0,0 UV-I 0 W/m² 6,6 °C 9,7 °C 0,0 km/h (0 Bft)
20.10.2017 23:38 9,7 °C 9,7 °C 81 % 1017,2 hPa 0,0 mm 0,0 km/h (0 Bft) W 259 ° 0 min 0,000 mm 0,0 UV-I 0 W/m² 6,6 °C 9,7 °C 0,0 km/h (0 Bft)
20.10.2017 23:39 9,7 °C 9,7 °C 81 % 1017,2 hPa 0,0 mm 0,0 km/h (0 Bft) W 259 ° 0 min 0,000 mm 0,0 UV-I 0 W/m² 6,6 °C 9,7 °C 0,0 km/h (0 Bft)
20.10.2017 23:40 9,7 °C 9,7 °C 80 % 1017,2 hPa 0,0 mm 0,0 km/h (0 Bft) W 259 ° 0 min 0,000 mm 0,0 UV-I 0 W/m² 6,4 °C 9,7 °C 0,0 km/h (0 Bft)
20.10.2017 23:41 9,7 °C 9,7 °C 80 % 1017,1 hPa 0,0 mm 0,0 km/h (0 Bft) W 259 ° 0 min 0,000 mm 0,0 UV-I 0 W/m² 6,4 °C 9,7 °C 0,0 km/h (0 Bft)
20.10.2017 23:42 9,7 °C 9,7 °C 80 % 1017,2 hPa 0,0 mm 0,0 km/h (0 Bft) W 259 ° 0 min 0,000 mm 0,0 UV-I 0 W/m² 6,4 °C 9,7 °C 0,0 km/h (0 Bft)
20.10.2017 23:43 9,7 °C 9,7 °C 80 % 1017,2 hPa 0,0 mm 0,0 km/h (0 Bft) W 259 ° 0 min 0,000 mm 0,0 UV-I 0 W/m² 6,4 °C 9,7 °C 0,0 km/h (0 Bft)
20.10.2017 23:44 9,7 °C 9,7 °C 80 % 1017,2 hPa 0,0 mm 0,0 km/h (0 Bft) W 260 ° 0 min 0,000 mm 0,0 UV-I 0 W/m² 6,4 °C 9,7 °C 0,0 km/h (0 Bft)
20.10.2017 23:45 9,7 °C 9,7 °C 80 % 1017,1 hPa 0,0 mm 0,0 km/h (0 Bft) W 260 ° 0 min 0,000 mm 0,0 UV-I 0 W/m² 6,4 °C 9,7 °C 0,0 km/h (0 Bft)
20.10.2017 23:46 9,6 °C 9,7 °C 80 % 1017,1 hPa 0,0 mm 0,0 km/h (0 Bft) W 260 ° 0 min 0,000 mm 0,0 UV-I 0 W/m² 6,3 °C 9,6 °C 0,0 km/h (0 Bft)
20.10.2017 23:47 9,6 °C 9,6 °C 80 % 1017,1 hPa 0,0 mm 0,0 km/h (0 Bft) W 260 ° 0 min 0,000 mm 0,0 UV-I 0 W/m² 6,3 °C 9,6 °C 0,0 km/h (0 Bft)
20.10.2017 23:48 9,6 °C 9,6 °C 80 % 1017,1 hPa 0,0 mm 0,0 km/h (0 Bft) W 260 ° 0 min 0,000 mm 0,0 UV-I 0 W/m² 6,3 °C 9,6 °C 0,0 km/h (0 Bft)
20.10.2017 23:49 9,6 °C 9,6 °C 80 % 1017,1 hPa 0,0 mm 0,0 km/h (0 Bft) W 260 ° 0 min 0,000 mm 0,0 UV-I 0 W/m² 6,3 °C 9,6 °C 0,0 km/h (0 Bft)
20.10.2017 23:50 9,6 °C 9,6 °C 81 % 1017,1 hPa 0,0 mm 0,0 km/h (0 Bft) W 260 ° 0 min 0,000 mm 0,0 UV-I 0 W/m² 6,5 °C 9,6 °C 0,0 km/h (0 Bft)
20.10.2017 23:51 9,6 °C 9,6 °C 81 % 1017,2 hPa 0,0 mm 0,0 km/h (0 Bft) W 260 ° 0 min 0,000 mm 0,0 UV-I 0 W/m² 6,5 °C 9,6 °C 0,0 km/h (0 Bft)
20.10.2017 23:52 9,6 °C 9,6 °C 81 % 1017,2 hPa 0,0 mm 0,0 km/h (0 Bft) W 260 ° 0 min 0,000 mm 0,0 UV-I 0 W/m² 6,5 °C 9,6 °C 0,0 km/h (0 Bft)
20.10.2017 23:53 9,6 °C 9,6 °C 81 % 1017,1 hPa 0,0 mm 0,0 km/h (0 Bft) W-SW 258 ° 0 min 0,000 mm 0,0 UV-I 0 W/m² 6,5 °C 9,6 °C 0,0 km/h (0 Bft)
20.10.2017 23:54 9,6 °C 9,6 °C 81 % 1017,1 hPa 0,0 mm 0,0 km/h (0 Bft) SW 227 ° 0 min 0,000 mm 0,0 UV-I 0 W/m² 6,5 °C 9,6 °C 0,0 km/h (0 Bft)
20.10.2017 23:55 9,6 °C 9,6 °C 80 % 1017,1 hPa 0,0 mm 0,0 km/h (0 Bft) SW 227 ° 0 min 0,000 mm 0,0 UV-I 0 W/m² 6,3 °C 9,6 °C 0,0 km/h (0 Bft)
20.10.2017 23:56 9,7 °C 9,7 °C 80 % 1017,1 hPa 0,0 mm 0,0 km/h (0 Bft) SW 227 ° 0 min 0,000 mm 0,0 UV-I 0 W/m² 6,4 °C 9,7 °C 0,0 km/h (0 Bft)
20.10.2017 23:57 9,8 °C 9,8 °C 80 % 1017,2 hPa 0,0 mm 0,0 km/h (0 Bft) SW 227 ° 0 min 0,000 mm 0,0 UV-I 0 W/m² 6,5 °C 9,8 °C 0,0 km/h (0 Bft)
20.10.2017 23:58 9,8 °C 9,8 °C 80 % 1017,1 hPa 0,0 mm 0,0 km/h (0 Bft) SW 227 ° 0 min 0,000 mm 0,0 UV-I 0 W/m² 6,5 °C 9,8 °C 0,0 km/h (0 Bft)
20.10.2017 23:59 9,8 °C 9,8 °C 80 % 1017,2 hPa 0,0 mm 0,0 km/h (0 Bft) SW 227 ° 0 min 0,000 mm 0,0 UV-I 0 W/m² 6,5 °C 9,8 °C 0,0 km/h (0 Bft)
_ Min-Zeit 02:20 02:21 15:10 02:26 - 23:59 - - - - - - 07:30 02:21 23:59
Minimum _ 5,5 °C 5,6 °C 36 % 1012,5 hPa - 0,0 km/h (0 Bft) - - - - - - 3,2 °C 5,6 °C 0,0 km/h (0 Bft)
_ Max-Zeit 14:51 14:52 01:17 23:30 23:59 19:05 - - 16:00 15:00 13:03 13:00 14:53 14:51 19:51
Maximum _ 20,1 °C 20,1 °C 92 % 1017,3 hPa 0,0 mm 11,5 km/h
W-SW (2 Bft)
- - 2 min 0,305 mm 3,0 UV-I 503 W/m² 8,8 °C 20,1 °C 17,7 km/h
W (3 Bft)
Durchschnitt _ 12,0 °C 12,1 °C 67 % 1015,0 hPa #0,0 mm 2,3 km/h (1 Bft) S-SW - #4:09 h #1,702 mm 2,3 UV-I 88 W/m² 5,6 °C 12,0 °C 4,1 km/h (1 Bft)